<?xml version="1.0" encoding="UTF-8" standalone="no" ?>
<gpx xmlns="http://www.topografix.com/GPX/1/1" xmlns:xsi="http://www.w3.org/2001/XMLSchema-instance" xsi:schemaLocation="http://www.topografix.com/GPX/1/1 http://www.topografix.com/GPX/1/1/gpx.xsd" version="1.1" creator="VisuGPX - https://www.visugpx.com">
  <metadata>
    <name>Valencia 1</name>
  </metadata>
  <trk>
    <name><![CDATA[Valencia 1]]></name>
    <extensions>
      <line xmlns="http://www.topografix.com/GPX/gpx_style/0/2">
        <color>0000FF</color>
        <width>4</width>
      </line>
    </extensions>
    <trkseg>
      <trkpt lat="39.46194" lon="-0.33835">
        <ele>-17.00839</ele>
        <time>2022-04-02T08:54:04.000Z</time>
      </trkpt>
      <trkpt lat="39.46185" lon="-0.33843">
        <ele>-17.00839</ele>
        <time>2022-04-02T08:54:05.000Z</time>
      </trkpt>
      <trkpt lat="39.46172" lon="-0.33833">
        <ele>-17.00839</ele>
        <time>2022-04-02T08:54:08.000Z</time>
      </trkpt>
      <trkpt lat="39.46162" lon="-0.33826">
        <ele>-17.00839</ele>
        <time>2022-04-02T08:54:10.000Z</time>
      </trkpt>
      <trkpt lat="39.46153" lon="-0.33811">
        <ele>-17.00839</ele>
        <time>2022-04-02T08:54:14.000Z</time>
      </trkpt>
      <trkpt lat="39.46148" lon="-0.33793">
        <ele>-17.00839</ele>
        <time>2022-04-02T08:54:18.000Z</time>
      </trkpt>
      <trkpt lat="39.46144" lon="-0.33783">
        <ele>-17.00839</ele>
        <time>2022-04-02T08:54:20.000Z</time>
      </trkpt>
      <trkpt lat="39.46138" lon="-0.33758">
        <ele>-17.016096</ele>
        <time>2022-04-02T08:54:25.000Z</time>
      </trkpt>
      <trkpt lat="39.46136" lon="-0.33749">
        <ele>-17.025767</ele>
        <time>2022-04-02T08:54:27.000Z</time>
      </trkpt>
      <trkpt lat="39.46133" lon="-0.33738">
        <ele>-17.036594</ele>
        <time>2022-04-02T08:54:29.000Z</time>
      </trkpt>
      <trkpt lat="39.46129" lon="-0.33724">
        <ele>-17.051912</ele>
        <time>2022-04-02T08:54:32.000Z</time>
      </trkpt>
      <trkpt lat="39.46127" lon="-0.33718">
        <ele>-17.058344</ele>
        <time>2022-04-02T08:54:33.000Z</time>
      </trkpt>
      <trkpt lat="39.46117" lon="-0.3369">
        <ele>-17.089073</ele>
        <time>2022-04-02T08:54:38.000Z</time>
      </trkpt>
      <trkpt lat="39.46114" lon="-0.33679">
        <ele>-17.099822</ele>
        <time>2022-04-02T08:54:40.000Z</time>
      </trkpt>
      <trkpt lat="39.46109" lon="-0.33661">
        <ele>-17.119072</ele>
        <time>2022-04-02T08:54:43.000Z</time>
      </trkpt>
      <trkpt lat="39.46106" lon="-0.33645">
        <ele>-17.135821</ele>
        <time>2022-04-02T08:54:46.000Z</time>
      </trkpt>
      <trkpt lat="39.46102" lon="-0.33631">
        <ele>-17.150442</ele>
        <time>2022-04-02T08:54:48.000Z</time>
      </trkpt>
      <trkpt lat="39.46095" lon="-0.33618">
        <ele>-17.166266</ele>
        <time>2022-04-02T08:54:50.000Z</time>
      </trkpt>
      <trkpt lat="39.46089" lon="-0.336">
        <ele>-17.185384</ele>
        <time>2022-04-02T08:54:53.000Z</time>
      </trkpt>
      <trkpt lat="39.46086" lon="-0.33594">
        <ele>-17.192595</ele>
        <time>2022-04-02T08:54:54.000Z</time>
      </trkpt>
      <trkpt lat="39.46077" lon="-0.33572">
        <ele>-17.216732</ele>
        <time>2022-04-02T08:54:58.000Z</time>
      </trkpt>
      <trkpt lat="39.46069" lon="-0.33548">
        <ele>-17.241572</ele>
        <time>2022-04-02T08:55:02.000Z</time>
      </trkpt>
      <trkpt lat="39.46062" lon="-0.3353">
        <ele>-17.253294</ele>
        <time>2022-04-02T08:55:05.000Z</time>
      </trkpt>
      <trkpt lat="39.4606" lon="-0.3352">
        <ele>-17.259364</ele>
        <time>2022-04-02T08:55:07.000Z</time>
      </trkpt>
      <trkpt lat="39.46059" lon="-0.33516">
        <ele>-17.262208</ele>
        <time>2022-04-02T08:55:08.000Z</time>
      </trkpt>
      <trkpt lat="39.46049" lon="-0.33489">
        <ele>-17.279408</ele>
        <time>2022-04-02T08:55:13.000Z</time>
      </trkpt>
      <trkpt lat="39.46045" lon="-0.33479">
        <ele>-17.286335</ele>
        <time>2022-04-02T08:55:15.000Z</time>
      </trkpt>
      <trkpt lat="39.46035" lon="-0.33439">
        <ele>-17.311217</ele>
        <time>2022-04-02T08:55:22.000Z</time>
      </trkpt>
      <trkpt lat="39.46034" lon="-0.33419">
        <ele>-17.322432</ele>
        <time>2022-04-02T08:55:25.000Z</time>
      </trkpt>
      <trkpt lat="39.46033" lon="-0.33408">
        <ele>-17.329228</ele>
        <time>2022-04-02T08:55:27.000Z</time>
      </trkpt>
      <trkpt lat="39.46033" lon="-0.33402">
        <ele>-17.332572</ele>
        <time>2022-04-02T08:55:28.000Z</time>
      </trkpt>
      <trkpt lat="39.4603" lon="-0.33392">
        <ele>-17.338844</ele>
        <time>2022-04-02T08:55:30.000Z</time>
      </trkpt>
      <trkpt lat="39.46027" lon="-0.33383">
        <ele>-17.344802</ele>
        <time>2022-04-02T08:55:32.000Z</time>
      </trkpt>
      <trkpt lat="39.46025" lon="-0.33373">
        <ele>-17.350718</ele>
        <time>2022-04-02T08:55:34.000Z</time>
      </trkpt>
      <trkpt lat="39.46022" lon="-0.33349">
        <ele>-17.364832</ele>
        <time>2022-04-02T08:55:39.000Z</time>
      </trkpt>
      <trkpt lat="39.46014" lon="-0.33315">
        <ele>-17.383714</ele>
        <time>2022-04-02T08:55:46.000Z</time>
      </trkpt>
      <trkpt lat="39.46012" lon="-0.33293">
        <ele>-17.3935</ele>
        <time>2022-04-02T08:55:51.000Z</time>
      </trkpt>
      <trkpt lat="39.4601" lon="-0.33269">
        <ele>-17.404299</ele>
        <time>2022-04-02T08:55:57.000Z</time>
      </trkpt>
      <trkpt lat="39.4601" lon="-0.33263">
        <ele>-17.407034</ele>
        <time>2022-04-02T08:55:59.000Z</time>
      </trkpt>
      <trkpt lat="39.46008" lon="-0.33251">
        <ele>-17.412463</ele>
        <time>2022-04-02T08:56:03.000Z</time>
      </trkpt>
      <trkpt lat="39.46005" lon="-0.33226">
        <ele>-17.423829</ele>
        <time>2022-04-02T08:56:11.000Z</time>
      </trkpt>
      <trkpt lat="39.46007" lon="-0.33219">
        <ele>-17.42722</ele>
        <time>2022-04-02T08:56:13.000Z</time>
      </trkpt>
      <trkpt lat="39.4601" lon="-0.33217">
        <ele>-17.429033</ele>
        <time>2022-04-02T08:56:14.000Z</time>
      </trkpt>
      <trkpt lat="39.46023" lon="-0.33213">
        <ele>-17.436937</ele>
        <time>2022-04-02T08:56:18.000Z</time>
      </trkpt>
      <trkpt lat="39.4603" lon="-0.3321">
        <ele>-17.441209</ele>
        <time>2022-04-02T08:56:20.000Z</time>
      </trkpt>
      <trkpt lat="39.46037" lon="-0.33205">
        <ele>-17.445551</ele>
        <time>2022-04-02T08:56:22.000Z</time>
      </trkpt>
      <trkpt lat="39.46063" lon="-0.33181">
        <ele>-17.463973</ele>
        <time>2022-04-02T08:56:30.000Z</time>
      </trkpt>
      <trkpt lat="39.46073" lon="-0.33171">
        <ele>-17.471159</ele>
        <time>2022-04-02T08:56:33.000Z</time>
      </trkpt>
      <trkpt lat="39.46085" lon="-0.33158">
        <ele>-17.480129</ele>
        <time>2022-04-02T08:56:37.000Z</time>
      </trkpt>
      <trkpt lat="39.46096" lon="-0.33147">
        <ele>-17.484316</ele>
        <time>2022-04-02T08:56:41.000Z</time>
      </trkpt>
      <trkpt lat="39.46109" lon="-0.33134">
        <ele>-17.489184</ele>
        <time>2022-04-02T08:56:45.000Z</time>
      </trkpt>
      <trkpt lat="39.46124" lon="-0.33116">
        <ele>-17.495052</ele>
        <time>2022-04-02T08:56:50.000Z</time>
      </trkpt>
      <trkpt lat="39.46157" lon="-0.33079">
        <ele>-17.507738</ele>
        <time>2022-04-02T08:57:00.000Z</time>
      </trkpt>
      <trkpt lat="39.46181" lon="-0.33052">
        <ele>-17.517143</ele>
        <time>2022-04-02T08:57:07.000Z</time>
      </trkpt>
      <trkpt lat="39.46184" lon="-0.33048">
        <ele>-17.518375</ele>
        <time>2022-04-02T08:57:08.000Z</time>
      </trkpt>
      <trkpt lat="39.46206" lon="-0.3301">
        <ele>-17.529054</ele>
        <time>2022-04-02T08:57:16.000Z</time>
      </trkpt>
      <trkpt lat="39.46215" lon="-0.32989">
        <ele>-17.555596</ele>
        <time>2022-04-02T08:57:20.000Z</time>
      </trkpt>
      <trkpt lat="39.46221" lon="-0.32974">
        <ele>-17.607816</ele>
        <time>2022-04-02T08:57:23.000Z</time>
      </trkpt>
      <trkpt lat="39.46226" lon="-0.32959">
        <ele>-17.659142</ele>
        <time>2022-04-02T08:57:26.000Z</time>
      </trkpt>
      <trkpt lat="39.46231" lon="-0.32942">
        <ele>-17.713139</ele>
        <time>2022-04-02T08:57:29.000Z</time>
      </trkpt>
      <trkpt lat="39.46237" lon="-0.32917">
        <ele>-17.791741</ele>
        <time>2022-04-02T08:57:33.000Z</time>
      </trkpt>
      <trkpt lat="39.46237" lon="-0.32904">
        <ele>-17.831519</ele>
        <time>2022-04-02T08:57:35.000Z</time>
      </trkpt>
      <trkpt lat="39.46237" lon="-0.32897">
        <ele>-17.851468</ele>
        <time>2022-04-02T08:57:36.000Z</time>
      </trkpt>
      <trkpt lat="39.46236" lon="-0.32884">
        <ele>-17.890046</ele>
        <time>2022-04-02T08:57:38.000Z</time>
      </trkpt>
      <trkpt lat="39.46235" lon="-0.32865">
        <ele>-17.948992</ele>
        <time>2022-04-02T08:57:41.000Z</time>
      </trkpt>
      <trkpt lat="39.46232" lon="-0.32852">
        <ele>-17.990167</ele>
        <time>2022-04-02T08:57:43.000Z</time>
      </trkpt>
      <trkpt lat="39.46231" lon="-0.32845">
        <ele>-18.009746</ele>
        <time>2022-04-02T08:57:44.000Z</time>
      </trkpt>
      <trkpt lat="39.4623" lon="-0.32839">
        <ele>-18.029668</ele>
        <time>2022-04-02T08:57:45.000Z</time>
      </trkpt>
      <trkpt lat="39.46228" lon="-0.32812">
        <ele>-18.111779</ele>
        <time>2022-04-02T08:57:49.000Z</time>
      </trkpt>
      <trkpt lat="39.46229" lon="-0.32798">
        <ele>-18.153108</ele>
        <time>2022-04-02T08:57:51.000Z</time>
      </trkpt>
      <trkpt lat="39.46231" lon="-0.32771">
        <ele>-18.234021</ele>
        <time>2022-04-02T08:57:55.000Z</time>
      </trkpt>
      <trkpt lat="39.4623" lon="-0.32758">
        <ele>-18.233479</ele>
        <time>2022-04-02T08:57:57.000Z</time>
      </trkpt>
      <trkpt lat="39.46229" lon="-0.32744">
        <ele>-18.232311</ele>
        <time>2022-04-02T08:57:59.000Z</time>
      </trkpt>
      <trkpt lat="39.4623" lon="-0.32736">
        <ele>-18.231711</ele>
        <time>2022-04-02T08:58:00.000Z</time>
      </trkpt>
      <trkpt lat="39.46227" lon="-0.32728">
        <ele>-18.230952</ele>
        <time>2022-04-02T08:58:01.000Z</time>
      </trkpt>
      <trkpt lat="39.46223" lon="-0.32706">
        <ele>-18.229122</ele>
        <time>2022-04-02T08:58:04.000Z</time>
      </trkpt>
      <trkpt lat="39.46222" lon="-0.32691">
        <ele>-18.227866</ele>
        <time>2022-04-02T08:58:06.000Z</time>
      </trkpt>
      <trkpt lat="39.46218" lon="-0.32669">
        <ele>-18.226002</ele>
        <time>2022-04-02T08:58:09.000Z</time>
      </trkpt>
      <trkpt lat="39.46217" lon="-0.32662">
        <ele>-18.225395</ele>
        <time>2022-04-02T08:58:10.000Z</time>
      </trkpt>
      <trkpt lat="39.46217" lon="-0.32647">
        <ele>-18.224125</ele>
        <time>2022-04-02T08:58:12.000Z</time>
      </trkpt>
      <trkpt lat="39.46217" lon="-0.32633">
        <ele>-18.222972</ele>
        <time>2022-04-02T08:58:14.000Z</time>
      </trkpt>
      <trkpt lat="39.4621" lon="-0.32593">
        <ele>-18.219574</ele>
        <time>2022-04-02T08:58:20.000Z</time>
      </trkpt>
      <trkpt lat="39.46209" lon="-0.32587">
        <ele>-18.219034</ele>
        <time>2022-04-02T08:58:21.000Z</time>
      </trkpt>
      <trkpt lat="39.46208" lon="-0.32527">
        <ele>-18.171232</ele>
        <time>2022-04-02T08:58:30.000Z</time>
      </trkpt>
      <trkpt lat="39.46205" lon="-0.32469">
        <ele>-17.992578</ele>
        <time>2022-04-02T08:58:39.000Z</time>
      </trkpt>
      <trkpt lat="39.46205" lon="-0.32427">
        <ele>-17.865578</ele>
        <time>2022-04-02T08:58:46.000Z</time>
      </trkpt>
      <trkpt lat="39.46207" lon="-0.32409">
        <ele>-17.808422</ele>
        <time>2022-04-02T08:58:49.000Z</time>
      </trkpt>
      <trkpt lat="39.46211" lon="-0.32397">
        <ele>-17.769392</ele>
        <time>2022-04-02T08:58:51.000Z</time>
      </trkpt>
      <trkpt lat="39.46231" lon="-0.32345">
        <ele>-17.59171</ele>
        <time>2022-04-02T08:59:00.000Z</time>
      </trkpt>
      <trkpt lat="39.46242" lon="-0.32306">
        <ele>-17.488584</ele>
        <time>2022-04-02T08:59:06.000Z</time>
      </trkpt>
      <trkpt lat="39.4625" lon="-0.32274">
        <ele>-17.448821</ele>
        <time>2022-04-02T08:59:11.000Z</time>
      </trkpt>
      <trkpt lat="39.4626" lon="-0.32228">
        <ele>-17.393241</ele>
        <time>2022-04-02T08:59:18.000Z</time>
      </trkpt>
      <trkpt lat="39.46262" lon="-0.32209">
        <ele>-17.369724</ele>
        <time>2022-04-02T08:59:21.000Z</time>
      </trkpt>
      <trkpt lat="39.46264" lon="-0.32195">
        <ele>-17.353645</ele>
        <time>2022-04-02T08:59:23.000Z</time>
      </trkpt>
      <trkpt lat="39.46265" lon="-0.32188">
        <ele>-17.345529</ele>
        <time>2022-04-02T08:59:24.000Z</time>
      </trkpt>
      <trkpt lat="39.46268" lon="-0.32144">
        <ele>-17.293699</ele>
        <time>2022-04-02T08:59:31.000Z</time>
      </trkpt>
      <trkpt lat="39.4627" lon="-0.32092">
        <ele>-17.233453</ele>
        <time>2022-04-02T08:59:39.000Z</time>
      </trkpt>
      <trkpt lat="39.46269" lon="-0.3208">
        <ele>-17.272473</ele>
        <time>2022-04-02T08:59:41.000Z</time>
      </trkpt>
      <trkpt lat="39.46263" lon="-0.32043">
        <ele>-17.429316</ele>
        <time>2022-04-02T08:59:47.000Z</time>
      </trkpt>
      <trkpt lat="39.46244" lon="-0.31978">
        <ele>-17.717227</ele>
        <time>2022-04-02T08:59:58.000Z</time>
      </trkpt>
      <trkpt lat="39.46242" lon="-0.31971">
        <ele>-17.746434</ele>
        <time>2022-04-02T08:59:59.000Z</time>
      </trkpt>
      <trkpt lat="39.46238" lon="-0.31959">
        <ele>-17.802311</ele>
        <time>2022-04-02T09:00:01.000Z</time>
      </trkpt>
      <trkpt lat="39.46226" lon="-0.31913">
        <ele>-18.004056</ele>
        <time>2022-04-02T09:00:09.000Z</time>
      </trkpt>
      <trkpt lat="39.46218" lon="-0.31887">
        <ele>-18.117967</ele>
        <time>2022-04-02T09:00:15.000Z</time>
      </trkpt>
      <trkpt lat="39.46209" lon="-0.31875">
        <ele>-18.186307</ele>
        <time>2022-04-02T09:00:19.000Z</time>
      </trkpt>
      <trkpt lat="39.46206" lon="-0.3187">
        <ele>-18.174638</ele>
        <time>2022-04-02T09:00:21.000Z</time>
      </trkpt>
      <trkpt lat="39.46202" lon="-0.31867">
        <ele>-18.147664</ele>
        <time>2022-04-02T09:00:25.000Z</time>
      </trkpt>
      <trkpt lat="39.46202" lon="-0.31867">
        <ele>-18.147664</ele>
        <time>2022-04-02T09:00:32.000Z</time>
      </trkpt>
      <trkpt lat="39.46202" lon="-0.31867">
        <ele>-18.147664</ele>
        <time>2022-04-02T09:00:34.000Z</time>
      </trkpt>
      <trkpt lat="39.46201" lon="-0.31864">
        <ele>-18.132097</ele>
        <time>2022-04-02T09:00:37.000Z</time>
      </trkpt>
      <trkpt lat="39.46199" lon="-0.31859">
        <ele>-18.104761</ele>
        <time>2022-04-02T09:00:39.000Z</time>
      </trkpt>
      <trkpt lat="39.462" lon="-0.31853">
        <ele>-18.074968</ele>
        <time>2022-04-02T09:00:41.000Z</time>
      </trkpt>
      <trkpt lat="39.46201" lon="-0.31851">
        <ele>-18.060876</ele>
        <time>2022-04-02T09:00:42.000Z</time>
      </trkpt>
      <trkpt lat="39.46203" lon="-0.3185">
        <ele>-18.046729</ele>
        <time>2022-04-02T09:00:43.000Z</time>
      </trkpt>
      <trkpt lat="39.46207" lon="-0.31848">
        <ele>-18.024714</ele>
        <time>2022-04-02T09:00:47.000Z</time>
      </trkpt>
      <trkpt lat="39.46207" lon="-0.31848">
        <ele>-18.024714</ele>
        <time>2022-04-02T09:00:48.000Z</time>
      </trkpt>
      <trkpt lat="39.46207" lon="-0.31848">
        <ele>-18.024714</ele>
        <time>2022-04-02T09:00:50.000Z</time>
      </trkpt>
      <trkpt lat="39.46207" lon="-0.31848">
        <ele>-18.024714</ele>
        <time>2022-04-02T09:00:55.000Z</time>
      </trkpt>
      <trkpt lat="39.46207" lon="-0.31848">
        <ele>-18.024714</ele>
        <time>2022-04-02T09:01:01.000Z</time>
      </trkpt>
      <trkpt lat="39.46207" lon="-0.31849">
        <ele>-18.021748</ele>
        <time>2022-04-02T09:01:38.000Z</time>
      </trkpt>
      <trkpt lat="39.46211" lon="-0.3185">
        <ele>-17.996645</ele>
        <time>2022-04-02T09:01:40.000Z</time>
      </trkpt>
      <trkpt lat="39.46213" lon="-0.31851">
        <ele>-17.98073</ele>
        <time>2022-04-02T09:01:41.000Z</time>
      </trkpt>
      <trkpt lat="39.46215" lon="-0.31853">
        <ele>-17.963407</ele>
        <time>2022-04-02T09:01:42.000Z</time>
      </trkpt>
      <trkpt lat="39.46222" lon="-0.3186">
        <ele>-17.90695</ele>
        <time>2022-04-02T09:01:45.000Z</time>
      </trkpt>
      <trkpt lat="39.46226" lon="-0.31867">
        <ele>-17.864445</ele>
        <time>2022-04-02T09:01:47.000Z</time>
      </trkpt>
      <trkpt lat="39.4623" lon="-0.3188">
        <ele>-17.792785</ele>
        <time>2022-04-02T09:01:50.000Z</time>
      </trkpt>
      <trkpt lat="39.46233" lon="-0.31889">
        <ele>-17.745604</ele>
        <time>2022-04-02T09:01:52.000Z</time>
      </trkpt>
      <trkpt lat="39.46237" lon="-0.31903">
        <ele>-17.672103</ele>
        <time>2022-04-02T09:01:56.000Z</time>
      </trkpt>
      <trkpt lat="39.4624" lon="-0.31907">
        <ele>-17.644729</ele>
        <time>2022-04-02T09:01:58.000Z</time>
      </trkpt>
      <trkpt lat="39.46245" lon="-0.31906">
        <ele>-17.616058</ele>
        <time>2022-04-02T09:02:00.000Z</time>
      </trkpt>
      <trkpt lat="39.46247" lon="-0.31904">
        <ele>-17.597987</ele>
        <time>2022-04-02T09:02:01.000Z</time>
      </trkpt>
      <trkpt lat="39.46253" lon="-0.31903">
        <ele>-17.559656</ele>
        <time>2022-04-02T09:02:03.000Z</time>
      </trkpt>
      <trkpt lat="39.46257" lon="-0.31907">
        <ele>-17.525902</ele>
        <time>2022-04-02T09:02:05.000Z</time>
      </trkpt>
      <trkpt lat="39.46271" lon="-0.31916">
        <ele>-17.429594</ele>
        <time>2022-04-02T09:02:10.000Z</time>
      </trkpt>
      <trkpt lat="39.46278" lon="-0.31928">
        <ele>-17.353503</ele>
        <time>2022-04-02T09:02:14.000Z</time>
      </trkpt>
      <trkpt lat="39.4628" lon="-0.31936">
        <ele>-17.313218</ele>
        <time>2022-04-02T09:02:16.000Z</time>
      </trkpt>
      <trkpt lat="39.46285" lon="-0.3195">
        <ele>-17.235783</ele>
        <time>2022-04-02T09:02:21.000Z</time>
      </trkpt>
      <trkpt lat="39.46286" lon="-0.3195">
        <ele>-17.229985</ele>
        <time>2022-04-02T09:02:22.000Z</time>
      </trkpt>
      <trkpt lat="39.46287" lon="-0.31947">
        <ele>-17.21312</ele>
        <time>2022-04-02T09:02:24.000Z</time>
      </trkpt>
      <trkpt lat="39.46287" lon="-0.31944">
        <ele>-17.198035</ele>
        <time>2022-04-02T09:02:26.000Z</time>
      </trkpt>
      <trkpt lat="39.46285" lon="-0.31938">
        <ele>-17.163351</ele>
        <time>2022-04-02T09:02:32.000Z</time>
      </trkpt>
      <trkpt lat="39.46284" lon="-0.3192">
        <ele>-17.076846</ele>
        <time>2022-04-02T09:02:41.000Z</time>
      </trkpt>
      <trkpt lat="39.46284" lon="-0.31916">
        <ele>-17.055946</ele>
        <time>2022-04-02T09:02:43.000Z</time>
      </trkpt>
      <trkpt lat="39.46284" lon="-0.31912">
        <ele>-17.032033</ele>
        <time>2022-04-02T09:02:45.000Z</time>
      </trkpt>
      <trkpt lat="39.46284" lon="-0.31908">
        <ele>-17.007204</ele>
        <time>2022-04-02T09:02:47.000Z</time>
      </trkpt>
      <trkpt lat="39.46283" lon="-0.31896">
        <ele>-16.933977</ele>
        <time>2022-04-02T09:02:53.000Z</time>
      </trkpt>
      <trkpt lat="39.46283" lon="-0.31893">
        <ele>-16.909848</ele>
        <time>2022-04-02T09:02:55.000Z</time>
      </trkpt>
      <trkpt lat="39.46282" lon="-0.31875">
        <ele>-16.796438</ele>
        <time>2022-04-02T09:03:04.000Z</time>
      </trkpt>
      <trkpt lat="39.4628" lon="-0.31857">
        <ele>-16.681517</ele>
        <time>2022-04-02T09:03:14.000Z</time>
      </trkpt>
      <trkpt lat="39.46279" lon="-0.31853">
        <ele>-16.653146</ele>
        <time>2022-04-02T09:03:17.000Z</time>
      </trkpt>
      <trkpt lat="39.46276" lon="-0.31845">
        <ele>-16.597157</ele>
        <time>2022-04-02T09:03:22.000Z</time>
      </trkpt>
      <trkpt lat="39.46275" lon="-0.31843">
        <ele>-16.583123</ele>
        <time>2022-04-02T09:03:23.000Z</time>
      </trkpt>
      <trkpt lat="39.46275" lon="-0.31839">
        <ele>-16.558925</ele>
        <time>2022-04-02T09:03:25.000Z</time>
      </trkpt>
      <trkpt lat="39.46276" lon="-0.3183">
        <ele>-16.506183</ele>
        <time>2022-04-02T09:03:30.000Z</time>
      </trkpt>
      <trkpt lat="39.46276" lon="-0.31829">
        <ele>-16.495149</ele>
        <time>2022-04-02T09:03:31.000Z</time>
      </trkpt>
      <trkpt lat="39.46278" lon="-0.31826">
        <ele>-16.475809</ele>
        <time>2022-04-02T09:03:33.000Z</time>
      </trkpt>
      <trkpt lat="39.46276" lon="-0.31821">
        <ele>-16.440429</ele>
        <time>2022-04-02T09:03:37.000Z</time>
      </trkpt>
      <trkpt lat="39.46273" lon="-0.31804">
        <ele>-16.331423</ele>
        <time>2022-04-02T09:03:46.000Z</time>
      </trkpt>
      <trkpt lat="39.46273" lon="-0.31786">
        <ele>-16.21855</ele>
        <time>2022-04-02T09:03:54.000Z</time>
      </trkpt>
      <trkpt lat="39.46271" lon="-0.31777">
        <ele>-16.155339</ele>
        <time>2022-04-02T09:03:59.000Z</time>
      </trkpt>
      <trkpt lat="39.4627" lon="-0.31771">
        <ele>-16.117108</ele>
        <time>2022-04-02T09:04:03.000Z</time>
      </trkpt>
      <trkpt lat="39.4627" lon="-0.3176">
        <ele>-16.049936</ele>
        <time>2022-04-02T09:04:09.000Z</time>
      </trkpt>
      <trkpt lat="39.4627" lon="-0.31757">
        <ele>-16.026267</ele>
        <time>2022-04-02T09:04:11.000Z</time>
      </trkpt>
      <trkpt lat="39.46272" lon="-0.31753">
        <ele>-16.001135</ele>
        <time>2022-04-02T09:04:13.000Z</time>
      </trkpt>
      <trkpt lat="39.46274" lon="-0.31752">
        <ele>-15.986821</ele>
        <time>2022-04-02T09:04:14.000Z</time>
      </trkpt>
      <trkpt lat="39.46276" lon="-0.31752">
        <ele>-15.967905</ele>
        <time>2022-04-02T09:04:16.000Z</time>
      </trkpt>
      <trkpt lat="39.46277" lon="-0.31753">
        <ele>-15.957738</ele>
        <time>2022-04-02T09:04:20.000Z</time>
      </trkpt>
      <trkpt lat="39.46277" lon="-0.31753">
        <ele>-15.957738</ele>
        <time>2022-04-02T09:04:21.000Z</time>
      </trkpt>
      <trkpt lat="39.46277" lon="-0.31753">
        <ele>-15.957738</ele>
        <time>2022-04-02T09:04:24.000Z</time>
      </trkpt>
      <trkpt lat="39.46277" lon="-0.31753">
        <ele>-15.957738</ele>
        <time>2022-04-02T09:04:29.000Z</time>
      </trkpt>
      <trkpt lat="39.46277" lon="-0.31753">
        <ele>-15.957738</ele>
        <time>2022-04-02T09:04:34.000Z</time>
      </trkpt>
      <trkpt lat="39.46277" lon="-0.31753">
        <ele>-15.957738</ele>
        <time>2022-04-02T09:04:37.000Z</time>
      </trkpt>
      <trkpt lat="39.46277" lon="-0.31753">
        <ele>-15.957738</ele>
        <time>2022-04-02T09:04:39.000Z</time>
      </trkpt>
      <trkpt lat="39.46277" lon="-0.31753">
        <ele>-15.957738</ele>
        <time>2022-04-02T09:04:42.000Z</time>
      </trkpt>
      <trkpt lat="39.46277" lon="-0.31753">
        <ele>-15.957738</ele>
        <time>2022-04-02T09:04:48.000Z</time>
      </trkpt>
      <trkpt lat="39.46277" lon="-0.31753">
        <ele>-15.957738</ele>
        <time>2022-04-02T09:04:56.000Z</time>
      </trkpt>
      <trkpt lat="39.46277" lon="-0.31753">
        <ele>-15.957738</ele>
        <time>2022-04-02T09:05:01.000Z</time>
      </trkpt>
      <trkpt lat="39.46277" lon="-0.31753">
        <ele>-15.955227</ele>
        <time>2022-04-02T09:05:09.000Z</time>
      </trkpt>
      <trkpt lat="39.46277" lon="-0.31753">
        <ele>-15.955227</ele>
        <time>2022-04-02T09:05:12.000Z</time>
      </trkpt>
      <trkpt lat="39.46277" lon="-0.31753">
        <ele>-15.955227</ele>
        <time>2022-04-02T09:05:14.000Z</time>
      </trkpt>
      <trkpt lat="39.46277" lon="-0.31753">
        <ele>-15.95419</ele>
        <time>2022-04-02T09:05:23.000Z</time>
      </trkpt>
      <trkpt lat="39.46276" lon="-0.31752">
        <ele>-15.949668</ele>
        <time>2022-04-02T09:05:39.000Z</time>
      </trkpt>
      <trkpt lat="39.46276" lon="-0.31752">
        <ele>-15.949668</ele>
        <time>2022-04-02T09:05:51.000Z</time>
      </trkpt>
      <trkpt lat="39.46276" lon="-0.31752">
        <ele>-15.949668</ele>
        <time>2022-04-02T09:05:53.000Z</time>
      </trkpt>
      <trkpt lat="39.46276" lon="-0.31753">
        <ele>-15.947134</ele>
        <time>2022-04-02T09:05:56.000Z</time>
      </trkpt>
      <trkpt lat="39.46276" lon="-0.31753">
        <ele>-15.945625</ele>
        <time>2022-04-02T09:06:13.000Z</time>
      </trkpt>
      <trkpt lat="39.46275" lon="-0.31751">
        <ele>-15.929578</ele>
        <time>2022-04-02T09:06:15.000Z</time>
      </trkpt>
      <trkpt lat="39.46275" lon="-0.31749">
        <ele>-15.919147</ele>
        <time>2022-04-02T09:06:16.000Z</time>
      </trkpt>
      <trkpt lat="39.46276" lon="-0.31748">
        <ele>-15.911157</ele>
        <time>2022-04-02T09:06:17.000Z</time>
      </trkpt>
      <trkpt lat="39.46276" lon="-0.31741">
        <ele>-15.865909</ele>
        <time>2022-04-02T09:06:23.000Z</time>
      </trkpt>
      <trkpt lat="39.46276" lon="-0.31739">
        <ele>-15.852605</ele>
        <time>2022-04-02T09:06:26.000Z</time>
      </trkpt>
      <trkpt lat="39.46275" lon="-0.31737">
        <ele>-15.838038</ele>
        <time>2022-04-02T09:06:28.000Z</time>
      </trkpt>
      <trkpt lat="39.46274" lon="-0.31736">
        <ele>-15.827993</ele>
        <time>2022-04-02T09:06:29.000Z</time>
      </trkpt>
      <trkpt lat="39.46274" lon="-0.31732">
        <ele>-15.802007</ele>
        <time>2022-04-02T09:06:31.000Z</time>
      </trkpt>
      <trkpt lat="39.46274" lon="-0.31722">
        <ele>-15.742434</ele>
        <time>2022-04-02T09:06:37.000Z</time>
      </trkpt>
      <trkpt lat="39.46274" lon="-0.3172">
        <ele>-15.725942</ele>
        <time>2022-04-02T09:06:39.000Z</time>
      </trkpt>
      <trkpt lat="39.46274" lon="-0.31714">
        <ele>-15.686023</ele>
        <time>2022-04-02T09:06:43.000Z</time>
      </trkpt>
      <trkpt lat="39.46272" lon="-0.31702">
        <ele>-15.611846</ele>
        <time>2022-04-02T09:06:50.000Z</time>
      </trkpt>
      <trkpt lat="39.46272" lon="-0.317">
        <ele>-15.601676</ele>
        <time>2022-04-02T09:06:51.000Z</time>
      </trkpt>
      <trkpt lat="39.46272" lon="-0.31698">
        <ele>-15.585817</ele>
        <time>2022-04-02T09:06:53.000Z</time>
      </trkpt>
      <trkpt lat="39.46272" lon="-0.31693">
        <ele>-15.5893</ele>
        <time>2022-04-02T09:06:57.000Z</time>
      </trkpt>
      <trkpt lat="39.46273" lon="-0.31685">
        <ele>-15.716292</ele>
        <time>2022-04-02T09:07:03.000Z</time>
      </trkpt>
      <trkpt lat="39.46274" lon="-0.31682">
        <ele>-15.753652</ele>
        <time>2022-04-02T09:07:05.000Z</time>
      </trkpt>
      <trkpt lat="39.46275" lon="-0.31677">
        <ele>-15.835548</ele>
        <time>2022-04-02T09:07:09.000Z</time>
      </trkpt>
      <trkpt lat="39.46275" lon="-0.3167">
        <ele>-15.927734</ele>
        <time>2022-04-02T09:07:14.000Z</time>
      </trkpt>
      <trkpt lat="39.46275" lon="-0.31669">
        <ele>-15.942367</ele>
        <time>2022-04-02T09:07:15.000Z</time>
      </trkpt>
      <trkpt lat="39.46274" lon="-0.31664">
        <ele>-16.021746</ele>
        <time>2022-04-02T09:07:19.000Z</time>
      </trkpt>
      <trkpt lat="39.46275" lon="-0.31662">
        <ele>-16.054819</ele>
        <time>2022-04-02T09:07:21.000Z</time>
      </trkpt>
      <trkpt lat="39.46274" lon="-0.31659">
        <ele>-16.10022</ele>
        <time>2022-04-02T09:07:24.000Z</time>
      </trkpt>
      <trkpt lat="39.46274" lon="-0.31654">
        <ele>-16.163255</ele>
        <time>2022-04-02T09:07:27.000Z</time>
      </trkpt>
      <trkpt lat="39.46273" lon="-0.31644">
        <ele>-16.319863</ele>
        <time>2022-04-02T09:07:36.000Z</time>
      </trkpt>
      <trkpt lat="39.46273" lon="-0.31641">
        <ele>-16.356494</ele>
        <time>2022-04-02T09:07:38.000Z</time>
      </trkpt>
      <trkpt lat="39.46273" lon="-0.31641">
        <ele>-16.366911</ele>
        <time>2022-04-02T09:07:40.000Z</time>
      </trkpt>
      <trkpt lat="39.46273" lon="-0.31641">
        <ele>-16.366911</ele>
        <time>2022-04-02T09:07:44.000Z</time>
      </trkpt>
      <trkpt lat="39.46273" lon="-0.31641">
        <ele>-16.366911</ele>
        <time>2022-04-02T09:07:49.000Z</time>
      </trkpt>
      <trkpt lat="39.46273" lon="-0.3164">
        <ele>-16.371301</ele>
        <time>2022-04-02T09:07:53.000Z</time>
      </trkpt>
      <trkpt lat="39.46272" lon="-0.31634">
        <ele>-16.461839</ele>
        <time>2022-04-02T09:07:57.000Z</time>
      </trkpt>
      <trkpt lat="39.46272" lon="-0.31631">
        <ele>-16.511735</ele>
        <time>2022-04-02T09:07:59.000Z</time>
      </trkpt>
      <trkpt lat="39.46272" lon="-0.3162">
        <ele>-16.666854</ele>
        <time>2022-04-02T09:08:07.000Z</time>
      </trkpt>
      <trkpt lat="39.46271" lon="-0.31616">
        <ele>-16.73338</ele>
        <time>2022-04-02T09:08:11.000Z</time>
      </trkpt>
      <trkpt lat="39.46271" lon="-0.31609">
        <ele>-16.825644</ele>
        <time>2022-04-02T09:08:16.000Z</time>
      </trkpt>
      <trkpt lat="39.46271" lon="-0.31607">
        <ele>-16.862275</ele>
        <time>2022-04-02T09:08:18.000Z</time>
      </trkpt>
      <trkpt lat="39.46271" lon="-0.31596">
        <ele>-17.02471</ele>
        <time>2022-04-02T09:08:27.000Z</time>
      </trkpt>
      <trkpt lat="39.46271" lon="-0.31593">
        <ele>-17.05988</ele>
        <time>2022-04-02T09:08:29.000Z</time>
      </trkpt>
      <trkpt lat="39.46271" lon="-0.31592">
        <ele>-17.076087</ele>
        <time>2022-04-02T09:08:30.000Z</time>
      </trkpt>
      <trkpt lat="39.4627" lon="-0.31587">
        <ele>-17.154103</ele>
        <time>2022-04-02T09:08:35.000Z</time>
      </trkpt>
      <trkpt lat="39.46269" lon="-0.31585">
        <ele>-17.18626</ele>
        <time>2022-04-02T09:08:37.000Z</time>
      </trkpt>
      <trkpt lat="39.46269" lon="-0.3158">
        <ele>-17.261103</ele>
        <time>2022-04-02T09:08:41.000Z</time>
      </trkpt>
      <trkpt lat="39.46269" lon="-0.3157">
        <ele>-17.411868</ele>
        <time>2022-04-02T09:08:49.000Z</time>
      </trkpt>
      <trkpt lat="39.46269" lon="-0.31561">
        <ele>-17.533689</ele>
        <time>2022-04-02T09:08:56.000Z</time>
      </trkpt>
      <trkpt lat="39.46269" lon="-0.31558">
        <ele>-17.583441</ele>
        <time>2022-04-02T09:08:58.000Z</time>
      </trkpt>
      <trkpt lat="39.46268" lon="-0.31554">
        <ele>-17.639078</ele>
        <time>2022-04-02T09:09:01.000Z</time>
      </trkpt>
      <trkpt lat="39.46268" lon="-0.31546">
        <ele>-17.753606</ele>
        <time>2022-04-02T09:09:07.000Z</time>
      </trkpt>
      <trkpt lat="39.46267" lon="-0.31541">
        <ele>-17.827963</ele>
        <time>2022-04-02T09:09:11.000Z</time>
      </trkpt>
      <trkpt lat="39.46267" lon="-0.31539">
        <ele>-17.860377</ele>
        <time>2022-04-02T09:09:13.000Z</time>
      </trkpt>
      <trkpt lat="39.46268" lon="-0.31538">
        <ele>-17.878834</ele>
        <time>2022-04-02T09:09:14.000Z</time>
      </trkpt>
      <trkpt lat="39.46268" lon="-0.31534">
        <ele>-17.941784</ele>
        <time>2022-04-02T09:09:18.000Z</time>
      </trkpt>
      <trkpt lat="39.46268" lon="-0.3153">
        <ele>-17.997388</ele>
        <time>2022-04-02T09:09:21.000Z</time>
      </trkpt>
      <trkpt lat="39.46268" lon="-0.31526">
        <ele>-18.048638</ele>
        <time>2022-04-02T09:09:24.000Z</time>
      </trkpt>
      <trkpt lat="39.46268" lon="-0.31519">
        <ele>-18.152548</ele>
        <time>2022-04-02T09:09:30.000Z</time>
      </trkpt>
      <trkpt lat="39.46267" lon="-0.31519">
        <ele>-18.162992</ele>
        <time>2022-04-02T09:09:31.000Z</time>
      </trkpt>
      <trkpt lat="39.46266" lon="-0.31514">
        <ele>-18.245217</ele>
        <time>2022-04-02T09:09:36.000Z</time>
      </trkpt>
      <trkpt lat="39.46266" lon="-0.31506">
        <ele>-18.353649</ele>
        <time>2022-04-02T09:09:42.000Z</time>
      </trkpt>
      <trkpt lat="39.46265" lon="-0.31496">
        <ele>-18.496395</ele>
        <time>2022-04-02T09:09:49.000Z</time>
      </trkpt>
      <trkpt lat="39.46265" lon="-0.31492">
        <ele>-18.559572</ele>
        <time>2022-04-02T09:09:52.000Z</time>
      </trkpt>
      <trkpt lat="39.46264" lon="-0.31488">
        <ele>-18.616922</ele>
        <time>2022-04-02T09:09:55.000Z</time>
      </trkpt>
      <trkpt lat="39.46259" lon="-0.31453">
        <ele>-19.094862</ele>
        <time>2022-04-02T09:11:10.000Z</time>
      </trkpt>
      <trkpt lat="39.46259" lon="-0.31453">
        <ele>-19.094862</ele>
        <time>2022-04-02T09:11:11.000Z</time>
      </trkpt>
      <trkpt lat="39.46259" lon="-0.31453">
        <ele>-19.094862</ele>
        <time>2022-04-02T09:11:12.000Z</time>
      </trkpt>
      <trkpt lat="39.46257" lon="-0.31451">
        <ele>-19.118454</ele>
        <time>2022-04-02T09:11:25.000Z</time>
      </trkpt>
      <trkpt lat="39.46255" lon="-0.31448">
        <ele>-19.162323</ele>
        <time>2022-04-02T09:11:28.000Z</time>
      </trkpt>
      <trkpt lat="39.46254" lon="-0.31448">
        <ele>-19.171649</ele>
        <time>2022-04-02T09:11:33.000Z</time>
      </trkpt>
      <trkpt lat="39.46253" lon="-0.31444">
        <ele>-19.212329</ele>
        <time>2022-04-02T09:11:34.000Z</time>
      </trkpt>
      <trkpt lat="39.46248" lon="-0.31421">
        <ele>-19.454406</ele>
        <time>2022-04-02T09:11:39.000Z</time>
      </trkpt>
      <trkpt lat="39.46243" lon="-0.31378">
        <ele>-19.897871</ele>
        <time>2022-04-02T09:11:46.000Z</time>
      </trkpt>
      <trkpt lat="39.46241" lon="-0.31332">
        <ele>-20.361151</ele>
        <time>2022-04-02T09:11:53.000Z</time>
      </trkpt>
      <trkpt lat="39.46239" lon="-0.31284">
        <ele>-20.842472</ele>
        <time>2022-04-02T09:12:00.000Z</time>
      </trkpt>
      <trkpt lat="39.46238" lon="-0.31277">
        <ele>-20.911148</ele>
        <time>2022-04-02T09:12:01.000Z</time>
      </trkpt>
      <trkpt lat="39.46233" lon="-0.31235">
        <ele>-21.313695</ele>
        <time>2022-04-02T09:12:08.000Z</time>
      </trkpt>
      <trkpt lat="39.46228" lon="-0.31222">
        <ele>-21.242531</ele>
        <time>2022-04-02T09:12:11.000Z</time>
      </trkpt>
      <trkpt lat="39.46224" lon="-0.3121">
        <ele>-21.174532</ele>
        <time>2022-04-02T09:12:14.000Z</time>
      </trkpt>
      <trkpt lat="39.46214" lon="-0.31201">
        <ele>-21.094397</ele>
        <time>2022-04-02T09:12:18.000Z</time>
      </trkpt>
      <trkpt lat="39.46205" lon="-0.31203">
        <ele>-21.030434</ele>
        <time>2022-04-02T09:12:21.000Z</time>
      </trkpt>
      <trkpt lat="39.46202" lon="-0.31203">
        <ele>-21.009049</ele>
        <time>2022-04-02T09:12:22.000Z</time>
      </trkpt>
      <trkpt lat="39.46196" lon="-0.31201">
        <ele>-20.966843</ele>
        <time>2022-04-02T09:12:24.000Z</time>
      </trkpt>
      <trkpt lat="39.46186" lon="-0.31199">
        <ele>-20.899475</ele>
        <time>2022-04-02T09:12:27.000Z</time>
      </trkpt>
      <trkpt lat="39.46182" lon="-0.31198">
        <ele>-20.876763</ele>
        <time>2022-04-02T09:12:28.000Z</time>
      </trkpt>
      <trkpt lat="39.46176" lon="-0.31194">
        <ele>-20.831546</ele>
        <time>2022-04-02T09:12:30.000Z</time>
      </trkpt>
      <trkpt lat="39.46174" lon="-0.3119">
        <ele>-20.805718</ele>
        <time>2022-04-02T09:12:31.000Z</time>
      </trkpt>
      <trkpt lat="39.46171" lon="-0.31186">
        <ele>-20.779201</ele>
        <time>2022-04-02T09:12:32.000Z</time>
      </trkpt>
      <trkpt lat="39.46163" lon="-0.31168">
        <ele>-20.673099</ele>
        <time>2022-04-02T09:12:36.000Z</time>
      </trkpt>
      <trkpt lat="39.4616" lon="-0.31159">
        <ele>-20.62386</ele>
        <time>2022-04-02T09:12:38.000Z</time>
      </trkpt>
      <trkpt lat="39.46154" lon="-0.31137">
        <ele>-20.502552</ele>
        <time>2022-04-02T09:12:43.000Z</time>
      </trkpt>
      <trkpt lat="39.4614" lon="-0.31125">
        <ele>-20.391776</ele>
        <time>2022-04-02T09:12:47.000Z</time>
      </trkpt>
      <trkpt lat="39.46118" lon="-0.31113">
        <ele>-20.228159</ele>
        <time>2022-04-02T09:12:54.000Z</time>
      </trkpt>
      <trkpt lat="39.46114" lon="-0.31116">
        <ele>-20.198578</ele>
        <time>2022-04-02T09:12:56.000Z</time>
      </trkpt>
      <trkpt lat="39.46109" lon="-0.31116">
        <ele>-20.166584</ele>
        <time>2022-04-02T09:12:58.000Z</time>
      </trkpt>
      <trkpt lat="39.46107" lon="-0.31114">
        <ele>-20.150052</ele>
        <time>2022-04-02T09:12:59.000Z</time>
      </trkpt>
      <trkpt lat="39.46105" lon="-0.31111">
        <ele>-20.133341</ele>
        <time>2022-04-02T09:13:00.000Z</time>
      </trkpt>
      <trkpt lat="39.46102" lon="-0.31107">
        <ele>-20.130801</ele>
        <time>2022-04-02T09:13:02.000Z</time>
      </trkpt>
      <trkpt lat="39.46099" lon="-0.31103">
        <ele>-20.135186</ele>
        <time>2022-04-02T09:13:04.000Z</time>
      </trkpt>
      <trkpt lat="39.46098" lon="-0.31101">
        <ele>-20.1373</ele>
        <time>2022-04-02T09:13:05.000Z</time>
      </trkpt>
      <trkpt lat="39.46095" lon="-0.31096">
        <ele>-20.142873</ele>
        <time>2022-04-02T09:13:08.000Z</time>
      </trkpt>
      <trkpt lat="39.46095" lon="-0.31095">
        <ele>-20.143465</ele>
        <time>2022-04-02T09:13:11.000Z</time>
      </trkpt>
      <trkpt lat="39.46095" lon="-0.31095">
        <ele>-20.143465</ele>
        <time>2022-04-02T09:13:34.000Z</time>
      </trkpt>
      <trkpt lat="39.46095" lon="-0.31095">
        <ele>-20.143465</ele>
        <time>2022-04-02T09:13:36.000Z</time>
      </trkpt>
      <trkpt lat="39.46095" lon="-0.31095">
        <ele>-20.143465</ele>
        <time>2022-04-02T09:13:39.000Z</time>
      </trkpt>
      <trkpt lat="39.46095" lon="-0.31095">
        <ele>-20.143465</ele>
        <time>2022-04-02T09:13:47.000Z</time>
      </trkpt>
      <trkpt lat="39.46094" lon="-0.31095">
        <ele>-20.144466</ele>
        <time>2022-04-02T09:13:53.000Z</time>
      </trkpt>
      <trkpt lat="39.46094" lon="-0.31095">
        <ele>-20.144466</ele>
        <time>2022-04-02T09:13:58.000Z</time>
      </trkpt>
      <trkpt lat="39.46094" lon="-0.31095">
        <ele>-20.144466</ele>
        <time>2022-04-02T09:14:06.000Z</time>
      </trkpt>
      <trkpt lat="39.46094" lon="-0.31095">
        <ele>-20.144466</ele>
        <time>2022-04-02T09:14:08.000Z</time>
      </trkpt>
      <trkpt lat="39.46094" lon="-0.31095">
        <ele>-20.144466</ele>
        <time>2022-04-02T09:14:09.000Z</time>
      </trkpt>
      <trkpt lat="39.46094" lon="-0.31095">
        <ele>-20.144466</ele>
        <time>2022-04-02T09:14:10.000Z</time>
      </trkpt>
      <trkpt lat="39.46094" lon="-0.31095">
        <ele>-20.144466</ele>
        <time>2022-04-02T09:14:16.000Z</time>
      </trkpt>
      <trkpt lat="39.46093" lon="-0.31097">
        <ele>-20.146523</ele>
        <time>2022-04-02T09:14:25.000Z</time>
      </trkpt>
      <trkpt lat="39.46093" lon="-0.31103">
        <ele>-20.151163</ele>
        <time>2022-04-02T09:14:27.000Z</time>
      </trkpt>
      <trkpt lat="39.46094" lon="-0.31105">
        <ele>-20.1533</ele>
        <time>2022-04-02T09:14:28.000Z</time>
      </trkpt>
      <trkpt lat="39.46095" lon="-0.31108">
        <ele>-20.156199</ele>
        <time>2022-04-02T09:14:30.000Z</time>
      </trkpt>
      <trkpt lat="39.46098" lon="-0.3111">
        <ele>-20.159626</ele>
        <time>2022-04-02T09:14:32.000Z</time>
      </trkpt>
      <trkpt lat="39.46104" lon="-0.31111">
        <ele>-20.166511</ele>
        <time>2022-04-02T09:14:36.000Z</time>
      </trkpt>
      <trkpt lat="39.46113" lon="-0.31111">
        <ele>-20.176269</ele>
        <time>2022-04-02T09:14:40.000Z</time>
      </trkpt>
      <trkpt lat="39.46126" lon="-0.31117">
        <ele>-20.190981</ele>
        <time>2022-04-02T09:14:45.000Z</time>
      </trkpt>
      <trkpt lat="39.46129" lon="-0.31118">
        <ele>-20.194069</ele>
        <time>2022-04-02T09:14:46.000Z</time>
      </trkpt>
      <trkpt lat="39.46147" lon="-0.31129">
        <ele>-20.21572</ele>
        <time>2022-04-02T09:14:52.000Z</time>
      </trkpt>
      <trkpt lat="39.46162" lon="-0.3114">
        <ele>-20.233989</ele>
        <time>2022-04-02T09:14:56.000Z</time>
      </trkpt>
      <trkpt lat="39.46165" lon="-0.31144">
        <ele>-20.238479</ele>
        <time>2022-04-02T09:14:57.000Z</time>
      </trkpt>
      <trkpt lat="39.46168" lon="-0.31148">
        <ele>-20.243189</ele>
        <time>2022-04-02T09:14:58.000Z</time>
      </trkpt>
      <trkpt lat="39.46179" lon="-0.31159">
        <ele>-20.258176</ele>
        <time>2022-04-02T09:15:01.000Z</time>
      </trkpt>
      <trkpt lat="39.46183" lon="-0.31163">
        <ele>-20.26317</ele>
        <time>2022-04-02T09:15:02.000Z</time>
      </trkpt>
      <trkpt lat="39.46195" lon="-0.31171">
        <ele>-20.27777</ele>
        <time>2022-04-02T09:15:05.000Z</time>
      </trkpt>
      <trkpt lat="39.46199" lon="-0.31175">
        <ele>-20.283052</ele>
        <time>2022-04-02T09:15:06.000Z</time>
      </trkpt>
      <trkpt lat="39.46222" lon="-0.31204">
        <ele>-20.317901</ele>
        <time>2022-04-02T09:15:13.000Z</time>
      </trkpt>
      <trkpt lat="39.46225" lon="-0.31208">
        <ele>-20.296416</ele>
        <time>2022-04-02T09:15:14.000Z</time>
      </trkpt>
      <trkpt lat="39.46231" lon="-0.31216">
        <ele>-20.211035</ele>
        <time>2022-04-02T09:15:16.000Z</time>
      </trkpt>
      <trkpt lat="39.46236" lon="-0.31233">
        <ele>-20.077747</ele>
        <time>2022-04-02T09:15:19.000Z</time>
      </trkpt>
      <trkpt lat="39.46238" lon="-0.31238">
        <ele>-20.032332</ele>
        <time>2022-04-02T09:15:20.000Z</time>
      </trkpt>
      <trkpt lat="39.4624" lon="-0.3125">
        <ele>-19.943129</ele>
        <time>2022-04-02T09:15:22.000Z</time>
      </trkpt>
      <trkpt lat="39.46242" lon="-0.31267">
        <ele>-19.816749</ele>
        <time>2022-04-02T09:15:25.000Z</time>
      </trkpt>
      <trkpt lat="39.46244" lon="-0.31281">
        <ele>-19.706477</ele>
        <time>2022-04-02T09:15:28.000Z</time>
      </trkpt>
      <trkpt lat="39.46245" lon="-0.31295">
        <ele>-19.605365</ele>
        <time>2022-04-02T09:15:31.000Z</time>
      </trkpt>
      <trkpt lat="39.46245" lon="-0.31299">
        <ele>-19.57166</ele>
        <time>2022-04-02T09:15:32.000Z</time>
      </trkpt>
      <trkpt lat="39.46247" lon="-0.31329">
        <ele>-19.344344</ele>
        <time>2022-04-02T09:15:39.000Z</time>
      </trkpt>
      <trkpt lat="39.46247" lon="-0.31346">
        <ele>-19.221525</ele>
        <time>2022-04-02T09:15:44.000Z</time>
      </trkpt>
      <trkpt lat="39.46247" lon="-0.31355">
        <ele>-19.154716</ele>
        <time>2022-04-02T09:15:46.000Z</time>
      </trkpt>
      <trkpt lat="39.46249" lon="-0.31364">
        <ele>-19.082056</ele>
        <time>2022-04-02T09:15:48.000Z</time>
      </trkpt>
      <trkpt lat="39.46249" lon="-0.31375">
        <ele>-19.004844</ele>
        <time>2022-04-02T09:15:50.000Z</time>
      </trkpt>
      <trkpt lat="39.4625" lon="-0.31396">
        <ele>-18.847322</ele>
        <time>2022-04-02T09:15:54.000Z</time>
      </trkpt>
      <trkpt lat="39.46251" lon="-0.31412">
        <ele>-18.724975</ele>
        <time>2022-04-02T09:15:57.000Z</time>
      </trkpt>
      <trkpt lat="39.46253" lon="-0.31434">
        <ele>-18.5612</ele>
        <time>2022-04-02T09:16:01.000Z</time>
      </trkpt>
      <trkpt lat="39.46253" lon="-0.31453">
        <ele>-18.461986</ele>
        <time>2022-04-02T09:16:04.000Z</time>
      </trkpt>
      <trkpt lat="39.46254" lon="-0.31476">
        <ele>-18.341965</ele>
        <time>2022-04-02T09:16:08.000Z</time>
      </trkpt>
      <trkpt lat="39.46255" lon="-0.31518">
        <ele>-18.114804</ele>
        <time>2022-04-02T09:16:16.000Z</time>
      </trkpt>
      <trkpt lat="39.46255" lon="-0.31523">
        <ele>-18.089302</ele>
        <time>2022-04-02T09:16:17.000Z</time>
      </trkpt>
      <trkpt lat="39.46256" lon="-0.31533">
        <ele>-18.035563</ele>
        <time>2022-04-02T09:16:19.000Z</time>
      </trkpt>
      <trkpt lat="39.46256" lon="-0.31549">
        <ele>-17.953262</ele>
        <time>2022-04-02T09:16:22.000Z</time>
      </trkpt>
      <trkpt lat="39.46257" lon="-0.3156">
        <ele>-17.896349</ele>
        <time>2022-04-02T09:16:24.000Z</time>
      </trkpt>
      <trkpt lat="39.46257" lon="-0.31565">
        <ele>-17.867627</ele>
        <time>2022-04-02T09:16:25.000Z</time>
      </trkpt>
      <trkpt lat="39.46257" lon="-0.3157">
        <ele>-17.839964</ele>
        <time>2022-04-02T09:16:26.000Z</time>
      </trkpt>
      <trkpt lat="39.46258" lon="-0.31581">
        <ele>-17.781013</ele>
        <time>2022-04-02T09:16:28.000Z</time>
      </trkpt>
      <trkpt lat="39.4626" lon="-0.31608">
        <ele>-17.638564</ele>
        <time>2022-04-02T09:16:33.000Z</time>
      </trkpt>
      <trkpt lat="39.46261" lon="-0.31643">
        <ele>-17.450662</ele>
        <time>2022-04-02T09:16:40.000Z</time>
      </trkpt>
      <trkpt lat="39.46262" lon="-0.31655">
        <ele>-17.390573</ele>
        <time>2022-04-02T09:16:42.000Z</time>
      </trkpt>
      <trkpt lat="39.46263" lon="-0.31675">
        <ele>-17.227183</ele>
        <time>2022-04-02T09:16:46.000Z</time>
      </trkpt>
      <trkpt lat="39.46263" lon="-0.31694">
        <ele>-17.038475</ele>
        <time>2022-04-02T09:16:50.000Z</time>
      </trkpt>
      <trkpt lat="39.46263" lon="-0.31699">
        <ele>-16.991991</ele>
        <time>2022-04-02T09:16:51.000Z</time>
      </trkpt>
      <trkpt lat="39.46259" lon="-0.31732">
        <ele>-16.648581</ele>
        <time>2022-04-02T09:16:58.000Z</time>
      </trkpt>
      <trkpt lat="39.46259" lon="-0.31737">
        <ele>-16.597983</ele>
        <time>2022-04-02T09:16:59.000Z</time>
      </trkpt>
      <trkpt lat="39.46258" lon="-0.31742">
        <ele>-16.546264</ele>
        <time>2022-04-02T09:17:00.000Z</time>
      </trkpt>
      <trkpt lat="39.46258" lon="-0.31747">
        <ele>-16.494792</ele>
        <time>2022-04-02T09:17:01.000Z</time>
      </trkpt>
      <trkpt lat="39.46259" lon="-0.31773">
        <ele>-16.240381</ele>
        <time>2022-04-02T09:17:06.000Z</time>
      </trkpt>
      <trkpt lat="39.46262" lon="-0.31819">
        <ele>-15.775947</ele>
        <time>2022-04-02T09:17:15.000Z</time>
      </trkpt>
      <trkpt lat="39.46264" lon="-0.31859">
        <ele>-15.365652</ele>
        <time>2022-04-02T09:17:23.000Z</time>
      </trkpt>
      <trkpt lat="39.46264" lon="-0.31864">
        <ele>-15.314131</ele>
        <time>2022-04-02T09:17:24.000Z</time>
      </trkpt>
      <trkpt lat="39.46264" lon="-0.31886">
        <ele>-15.093998</ele>
        <time>2022-04-02T09:17:29.000Z</time>
      </trkpt>
      <trkpt lat="39.46267" lon="-0.31894">
        <ele>-15.004505</ele>
        <time>2022-04-02T09:17:33.000Z</time>
      </trkpt>
      <trkpt lat="39.46272" lon="-0.31902">
        <ele>-14.968256</ele>
        <time>2022-04-02T09:17:36.000Z</time>
      </trkpt>
      <trkpt lat="39.46272" lon="-0.31909">
        <ele>-14.949883</ele>
        <time>2022-04-02T09:17:38.000Z</time>
      </trkpt>
      <trkpt lat="39.46275" lon="-0.3193">
        <ele>-14.892439</ele>
        <time>2022-04-02T09:17:44.000Z</time>
      </trkpt>
      <trkpt lat="39.46275" lon="-0.31934">
        <ele>-14.883253</ele>
        <time>2022-04-02T09:17:45.000Z</time>
      </trkpt>
      <trkpt lat="39.46275" lon="-0.31957">
        <ele>-14.82195</ele>
        <time>2022-04-02T09:17:52.000Z</time>
      </trkpt>
      <trkpt lat="39.46274" lon="-0.31963">
        <ele>-14.806636</ele>
        <time>2022-04-02T09:17:54.000Z</time>
      </trkpt>
      <trkpt lat="39.46272" lon="-0.31969">
        <ele>-14.788001</ele>
        <time>2022-04-02T09:17:56.000Z</time>
      </trkpt>
      <trkpt lat="39.46269" lon="-0.31975">
        <ele>-14.771248</ele>
        <time>2022-04-02T09:17:58.000Z</time>
      </trkpt>
      <trkpt lat="39.46268" lon="-0.31977">
        <ele>-14.763818</ele>
        <time>2022-04-02T09:17:59.000Z</time>
      </trkpt>
      <trkpt lat="39.46268" lon="-0.31989">
        <ele>-14.73302</ele>
        <time>2022-04-02T09:18:03.000Z</time>
      </trkpt>
      <trkpt lat="39.46269" lon="-0.31996">
        <ele>-14.714421</ele>
        <time>2022-04-02T09:18:05.000Z</time>
      </trkpt>
      <trkpt lat="39.46269" lon="-0.32">
        <ele>-14.704769</ele>
        <time>2022-04-02T09:18:06.000Z</time>
      </trkpt>
      <trkpt lat="39.4627" lon="-0.32016">
        <ele>-14.662086</ele>
        <time>2022-04-02T09:18:11.000Z</time>
      </trkpt>
      <trkpt lat="39.4627" lon="-0.3202">
        <ele>-14.653191</ele>
        <time>2022-04-02T09:18:12.000Z</time>
      </trkpt>
      <trkpt lat="39.4627" lon="-0.3206">
        <ele>-14.547015</ele>
        <time>2022-04-02T09:18:22.000Z</time>
      </trkpt>
      <trkpt lat="39.46273" lon="-0.3209">
        <ele>-14.46856</ele>
        <time>2022-04-02T09:18:29.000Z</time>
      </trkpt>
      <trkpt lat="39.46274" lon="-0.32113">
        <ele>-14.409257</ele>
        <time>2022-04-02T09:18:34.000Z</time>
      </trkpt>
      <trkpt lat="39.46273" lon="-0.32134">
        <ele>-14.381369</ele>
        <time>2022-04-02T09:18:38.000Z</time>
      </trkpt>
      <trkpt lat="39.46273" lon="-0.32152">
        <ele>-14.381353</ele>
        <time>2022-04-02T09:18:42.000Z</time>
      </trkpt>
      <trkpt lat="39.46271" lon="-0.32166">
        <ele>-14.381341</ele>
        <time>2022-04-02T09:18:45.000Z</time>
      </trkpt>
      <trkpt lat="39.4627" lon="-0.32179">
        <ele>-14.381329</ele>
        <time>2022-04-02T09:18:48.000Z</time>
      </trkpt>
      <trkpt lat="39.46267" lon="-0.3221">
        <ele>-14.381303</ele>
        <time>2022-04-02T09:18:55.000Z</time>
      </trkpt>
      <trkpt lat="39.46262" lon="-0.32236">
        <ele>-14.38128</ele>
        <time>2022-04-02T09:19:00.000Z</time>
      </trkpt>
      <trkpt lat="39.46259" lon="-0.32257">
        <ele>-14.381262</ele>
        <time>2022-04-02T09:19:04.000Z</time>
      </trkpt>
      <trkpt lat="39.46252" lon="-0.32291">
        <ele>-14.381232</ele>
        <time>2022-04-02T09:19:10.000Z</time>
      </trkpt>
      <trkpt lat="39.46251" lon="-0.32296">
        <ele>-14.381227</ele>
        <time>2022-04-02T09:19:11.000Z</time>
      </trkpt>
      <trkpt lat="39.4625" lon="-0.32302">
        <ele>-14.381222</ele>
        <time>2022-04-02T09:19:12.000Z</time>
      </trkpt>
      <trkpt lat="39.46245" lon="-0.32319">
        <ele>-14.381206</ele>
        <time>2022-04-02T09:19:15.000Z</time>
      </trkpt>
      <trkpt lat="39.46235" lon="-0.3235">
        <ele>-14.381189</ele>
        <time>2022-04-02T09:19:20.000Z</time>
      </trkpt>
      <trkpt lat="39.46229" lon="-0.3237">
        <ele>-14.392596</ele>
        <time>2022-04-02T09:19:23.000Z</time>
      </trkpt>
      <trkpt lat="39.46226" lon="-0.32377">
        <ele>-14.396444</ele>
        <time>2022-04-02T09:19:24.000Z</time>
      </trkpt>
      <trkpt lat="39.46224" lon="-0.32383">
        <ele>-14.399892</ele>
        <time>2022-04-02T09:19:25.000Z</time>
      </trkpt>
      <trkpt lat="39.46222" lon="-0.32388">
        <ele>-14.403228</ele>
        <time>2022-04-02T09:19:26.000Z</time>
      </trkpt>
      <trkpt lat="39.4622" lon="-0.32394">
        <ele>-14.406487</ele>
        <time>2022-04-02T09:19:27.000Z</time>
      </trkpt>
      <trkpt lat="39.46216" lon="-0.32405">
        <ele>-14.412747</ele>
        <time>2022-04-02T09:19:29.000Z</time>
      </trkpt>
      <trkpt lat="39.46211" lon="-0.32422">
        <ele>-14.422418</ele>
        <time>2022-04-02T09:19:32.000Z</time>
      </trkpt>
      <trkpt lat="39.46209" lon="-0.32434">
        <ele>-14.428947</ele>
        <time>2022-04-02T09:19:34.000Z</time>
      </trkpt>
      <trkpt lat="39.46213" lon="-0.32491">
        <ele>-14.458993</ele>
        <time>2022-04-02T09:19:43.000Z</time>
      </trkpt>
      <trkpt lat="39.46216" lon="-0.32542">
        <ele>-14.485365</ele>
        <time>2022-04-02T09:19:51.000Z</time>
      </trkpt>
      <trkpt lat="39.46218" lon="-0.32573">
        <ele>-14.501758</ele>
        <time>2022-04-02T09:19:57.000Z</time>
      </trkpt>
      <trkpt lat="39.46218" lon="-0.32578">
        <ele>-14.506754</ele>
        <time>2022-04-02T09:19:58.000Z</time>
      </trkpt>
      <trkpt lat="39.46217" lon="-0.32596">
        <ele>-14.535241</ele>
        <time>2022-04-02T09:20:02.000Z</time>
      </trkpt>
      <trkpt lat="39.46203" lon="-0.32613">
        <ele>-14.574238</ele>
        <time>2022-04-02T09:20:07.000Z</time>
      </trkpt>
      <trkpt lat="39.4618" lon="-0.32634">
        <ele>-14.632301</ele>
        <time>2022-04-02T09:20:14.000Z</time>
      </trkpt>
      <trkpt lat="39.46168" lon="-0.3265">
        <ele>-14.666963</ele>
        <time>2022-04-02T09:20:19.000Z</time>
      </trkpt>
      <trkpt lat="39.46165" lon="-0.32668">
        <ele>-14.696874</ele>
        <time>2022-04-02T09:20:23.000Z</time>
      </trkpt>
      <trkpt lat="39.46165" lon="-0.32672">
        <ele>-14.703833</ele>
        <time>2022-04-02T09:20:24.000Z</time>
      </trkpt>
      <trkpt lat="39.46165" lon="-0.32698">
        <ele>-14.744791</ele>
        <time>2022-04-02T09:20:30.000Z</time>
      </trkpt>
      <trkpt lat="39.46167" lon="-0.32717">
        <ele>-14.774538</ele>
        <time>2022-04-02T09:20:34.000Z</time>
      </trkpt>
      <trkpt lat="39.46168" lon="-0.32732">
        <ele>-14.79897</ele>
        <time>2022-04-02T09:20:37.000Z</time>
      </trkpt>
      <trkpt lat="39.46169" lon="-0.32738">
        <ele>-14.807359</ele>
        <time>2022-04-02T09:20:38.000Z</time>
      </trkpt>
      <trkpt lat="39.4617" lon="-0.32753">
        <ele>-14.832164</ele>
        <time>2022-04-02T09:20:41.000Z</time>
      </trkpt>
      <trkpt lat="39.46172" lon="-0.32781">
        <ele>-14.867571</ele>
        <time>2022-04-02T09:20:46.000Z</time>
      </trkpt>
      <trkpt lat="39.46172" lon="-0.32786">
        <ele>-14.860543</ele>
        <time>2022-04-02T09:20:47.000Z</time>
      </trkpt>
      <trkpt lat="39.46174" lon="-0.32834">
        <ele>-14.79517</ele>
        <time>2022-04-02T09:20:56.000Z</time>
      </trkpt>
      <trkpt lat="39.46174" lon="-0.32854">
        <ele>-14.76827</ele>
        <time>2022-04-02T09:21:00.000Z</time>
      </trkpt>
      <trkpt lat="39.46172" lon="-0.32877">
        <ele>-14.736264</ele>
        <time>2022-04-02T09:21:05.000Z</time>
      </trkpt>
      <trkpt lat="39.46171" lon="-0.32892">
        <ele>-14.716553</ele>
        <time>2022-04-02T09:21:08.000Z</time>
      </trkpt>
      <trkpt lat="39.46173" lon="-0.32904">
        <ele>-14.699401</ele>
        <time>2022-04-02T09:21:11.000Z</time>
      </trkpt>
      <trkpt lat="39.46173" lon="-0.32908">
        <ele>-14.693557</ele>
        <time>2022-04-02T09:21:12.000Z</time>
      </trkpt>
      <trkpt lat="39.46172" lon="-0.32918">
        <ele>-14.680895</ele>
        <time>2022-04-02T09:21:14.000Z</time>
      </trkpt>
      <trkpt lat="39.46173" lon="-0.32927">
        <ele>-14.668402</ele>
        <time>2022-04-02T09:21:16.000Z</time>
      </trkpt>
      <trkpt lat="39.46173" lon="-0.32941">
        <ele>-14.649124</ele>
        <time>2022-04-02T09:21:19.000Z</time>
      </trkpt>
      <trkpt lat="39.46176" lon="-0.32961">
        <ele>-14.621615</ele>
        <time>2022-04-02T09:21:24.000Z</time>
      </trkpt>
      <trkpt lat="39.46169" lon="-0.32975">
        <ele>-14.598737</ele>
        <time>2022-04-02T09:21:28.000Z</time>
      </trkpt>
      <trkpt lat="39.46162" lon="-0.32988">
        <ele>-14.578109</ele>
        <time>2022-04-02T09:21:31.000Z</time>
      </trkpt>
      <trkpt lat="39.4616" lon="-0.32992">
        <ele>-14.571621</ele>
        <time>2022-04-02T09:21:32.000Z</time>
      </trkpt>
      <trkpt lat="39.46158" lon="-0.32995">
        <ele>-14.565607</ele>
        <time>2022-04-02T09:21:33.000Z</time>
      </trkpt>
      <trkpt lat="39.46151" lon="-0.33005">
        <ele>-14.540748</ele>
        <time>2022-04-02T09:21:36.000Z</time>
      </trkpt>
      <trkpt lat="39.46133" lon="-0.33024">
        <ele>-14.468319</ele>
        <time>2022-04-02T09:21:43.000Z</time>
      </trkpt>
      <trkpt lat="39.46121" lon="-0.33039">
        <ele>-14.416295</ele>
        <time>2022-04-02T09:21:49.000Z</time>
      </trkpt>
      <trkpt lat="39.46119" lon="-0.33042">
        <ele>-14.40784</ele>
        <time>2022-04-02T09:21:50.000Z</time>
      </trkpt>
      <trkpt lat="39.46115" lon="-0.33046">
        <ele>-14.389915</ele>
        <time>2022-04-02T09:21:52.000Z</time>
      </trkpt>
      <trkpt lat="39.46107" lon="-0.33054">
        <ele>-14.360926</ele>
        <time>2022-04-02T09:21:55.000Z</time>
      </trkpt>
      <trkpt lat="39.46103" lon="-0.3306">
        <ele>-14.342715</ele>
        <time>2022-04-02T09:21:57.000Z</time>
      </trkpt>
      <trkpt lat="39.46095" lon="-0.33066">
        <ele>-14.313151</ele>
        <time>2022-04-02T09:22:00.000Z</time>
      </trkpt>
      <trkpt lat="39.46093" lon="-0.33068">
        <ele>-14.30599</ele>
        <time>2022-04-02T09:22:01.000Z</time>
      </trkpt>
      <trkpt lat="39.46083" lon="-0.33078">
        <ele>-14.266161</ele>
        <time>2022-04-02T09:22:05.000Z</time>
      </trkpt>
      <trkpt lat="39.4608" lon="-0.3308">
        <ele>-14.254963</ele>
        <time>2022-04-02T09:22:06.000Z</time>
      </trkpt>
      <trkpt lat="39.46065" lon="-0.33092">
        <ele>-14.201834</ele>
        <time>2022-04-02T09:22:11.000Z</time>
      </trkpt>
      <trkpt lat="39.46057" lon="-0.33097">
        <ele>-14.173557</ele>
        <time>2022-04-02T09:22:14.000Z</time>
      </trkpt>
      <trkpt lat="39.46046" lon="-0.3311">
        <ele>-14.127947</ele>
        <time>2022-04-02T09:22:19.000Z</time>
      </trkpt>
      <trkpt lat="39.46039" lon="-0.33122">
        <ele>-14.090806</ele>
        <time>2022-04-02T09:22:21.000Z</time>
      </trkpt>
      <trkpt lat="39.46035" lon="-0.33132">
        <ele>-14.065899</ele>
        <time>2022-04-02T09:22:24.000Z</time>
      </trkpt>
      <trkpt lat="39.46028" lon="-0.33138">
        <ele>-14.039076</ele>
        <time>2022-04-02T09:22:27.000Z</time>
      </trkpt>
      <trkpt lat="39.46022" lon="-0.33142">
        <ele>-14.017807</ele>
        <time>2022-04-02T09:22:29.000Z</time>
      </trkpt>
      <trkpt lat="39.46014" lon="-0.33147">
        <ele>-14.008932</ele>
        <time>2022-04-02T09:22:32.000Z</time>
      </trkpt>
      <trkpt lat="39.46006" lon="-0.3315">
        <ele>-14.053247</ele>
        <time>2022-04-02T09:22:35.000Z</time>
      </trkpt>
      <trkpt lat="39.46003" lon="-0.33152">
        <ele>-14.067669</ele>
        <time>2022-04-02T09:22:36.000Z</time>
      </trkpt>
      <trkpt lat="39.45997" lon="-0.33155">
        <ele>-14.098264</ele>
        <time>2022-04-02T09:22:38.000Z</time>
      </trkpt>
      <trkpt lat="39.45989" lon="-0.33161">
        <ele>-14.142437</ele>
        <time>2022-04-02T09:22:41.000Z</time>
      </trkpt>
      <trkpt lat="39.45985" lon="-0.33167">
        <ele>-14.171826</ele>
        <time>2022-04-02T09:22:43.000Z</time>
      </trkpt>
      <trkpt lat="39.4598" lon="-0.33174">
        <ele>-14.209468</ele>
        <time>2022-04-02T09:22:46.000Z</time>
      </trkpt>
      <trkpt lat="39.45974" lon="-0.33183">
        <ele>-14.25243</ele>
        <time>2022-04-02T09:22:49.000Z</time>
      </trkpt>
      <trkpt lat="39.45969" lon="-0.33192">
        <ele>-14.296943</ele>
        <time>2022-04-02T09:22:52.000Z</time>
      </trkpt>
      <trkpt lat="39.45963" lon="-0.33206">
        <ele>-14.356087</ele>
        <time>2022-04-02T09:22:56.000Z</time>
      </trkpt>
      <trkpt lat="39.45957" lon="-0.33213">
        <ele>-14.392085</ele>
        <time>2022-04-02T09:22:59.000Z</time>
      </trkpt>
      <trkpt lat="39.45952" lon="-0.3322">
        <ele>-14.427782</ele>
        <time>2022-04-02T09:23:02.000Z</time>
      </trkpt>
      <trkpt lat="39.4594" lon="-0.33221">
        <ele>-14.490062</ele>
        <time>2022-04-02T09:23:06.000Z</time>
      </trkpt>
      <trkpt lat="39.4591" lon="-0.33206">
        <ele>-14.64337</ele>
        <time>2022-04-02T09:23:14.000Z</time>
      </trkpt>
      <trkpt lat="39.45899" lon="-0.33201">
        <ele>-14.703565</ele>
        <time>2022-04-02T09:23:17.000Z</time>
      </trkpt>
      <trkpt lat="39.45891" lon="-0.33197">
        <ele>-14.742672</ele>
        <time>2022-04-02T09:23:19.000Z</time>
      </trkpt>
      <trkpt lat="39.45887" lon="-0.33196">
        <ele>-14.762862</ele>
        <time>2022-04-02T09:23:20.000Z</time>
      </trkpt>
      <trkpt lat="39.45872" lon="-0.3319">
        <ele>-14.840941</ele>
        <time>2022-04-02T09:23:24.000Z</time>
      </trkpt>
      <trkpt lat="39.4586" lon="-0.33185">
        <ele>-14.910016</ele>
        <time>2022-04-02T09:23:27.000Z</time>
      </trkpt>
      <trkpt lat="39.45845" lon="-0.33177">
        <ele>-15.019938</ele>
        <time>2022-04-02T09:23:31.000Z</time>
      </trkpt>
      <trkpt lat="39.45821" lon="-0.33165">
        <ele>-15.190501</ele>
        <time>2022-04-02T09:23:37.000Z</time>
      </trkpt>
      <trkpt lat="39.45818" lon="-0.33162">
        <ele>-15.218231</ele>
        <time>2022-04-02T09:23:38.000Z</time>
      </trkpt>
      <trkpt lat="39.45815" lon="-0.33159">
        <ele>-15.244597</ele>
        <time>2022-04-02T09:23:39.000Z</time>
      </trkpt>
      <trkpt lat="39.45805" lon="-0.33152">
        <ele>-15.318421</ele>
        <time>2022-04-02T09:23:42.000Z</time>
      </trkpt>
      <trkpt lat="39.45802" lon="-0.3315">
        <ele>-15.341875</ele>
        <time>2022-04-02T09:23:43.000Z</time>
      </trkpt>
      <trkpt lat="39.45791" lon="-0.3314">
        <ele>-15.428967</ele>
        <time>2022-04-02T09:23:47.000Z</time>
      </trkpt>
      <trkpt lat="39.45782" lon="-0.33135">
        <ele>-15.49194</ele>
        <time>2022-04-02T09:23:50.000Z</time>
      </trkpt>
      <trkpt lat="39.45767" lon="-0.33121">
        <ele>-15.616158</ele>
        <time>2022-04-02T09:23:55.000Z</time>
      </trkpt>
      <trkpt lat="39.4576" lon="-0.33116">
        <ele>-15.669207</ele>
        <time>2022-04-02T09:23:57.000Z</time>
      </trkpt>
      <trkpt lat="39.45728" lon="-0.33088">
        <ele>-15.923815</ele>
        <time>2022-04-02T09:24:06.000Z</time>
      </trkpt>
      <trkpt lat="39.45695" lon="-0.33062">
        <ele>-16.080058</ele>
        <time>2022-04-02T09:24:15.000Z</time>
      </trkpt>
      <trkpt lat="39.45687" lon="-0.33057">
        <ele>-16.087702</ele>
        <time>2022-04-02T09:24:17.000Z</time>
      </trkpt>
      <trkpt lat="39.4566" lon="-0.33032">
        <ele>-16.115327</ele>
        <time>2022-04-02T09:24:24.000Z</time>
      </trkpt>
      <trkpt lat="39.45653" lon="-0.33023">
        <ele>-16.12325</ele>
        <time>2022-04-02T09:24:26.000Z</time>
      </trkpt>
      <trkpt lat="39.45645" lon="-0.33009">
        <ele>-16.134693</ele>
        <time>2022-04-02T09:24:29.000Z</time>
      </trkpt>
      <trkpt lat="39.45642" lon="-0.33004">
        <ele>-16.1385</ele>
        <time>2022-04-02T09:24:30.000Z</time>
      </trkpt>
      <trkpt lat="39.45622" lon="-0.3297">
        <ele>-16.165978</ele>
        <time>2022-04-02T09:24:37.000Z</time>
      </trkpt>
      <trkpt lat="39.45616" lon="-0.32959">
        <ele>-16.174224</ele>
        <time>2022-04-02T09:24:39.000Z</time>
      </trkpt>
      <trkpt lat="39.45601" lon="-0.32933">
        <ele>-16.195331</ele>
        <time>2022-04-02T09:24:44.000Z</time>
      </trkpt>
      <trkpt lat="39.45596" lon="-0.32922">
        <ele>-16.203839</ele>
        <time>2022-04-02T09:24:46.000Z</time>
      </trkpt>
      <trkpt lat="39.45574" lon="-0.32888">
        <ele>-16.028069</ele>
        <time>2022-04-02T09:24:53.000Z</time>
      </trkpt>
      <trkpt lat="39.45563" lon="-0.32871">
        <ele>-15.868961</ele>
        <time>2022-04-02T09:24:58.000Z</time>
      </trkpt>
      <trkpt lat="39.45554" lon="-0.32857">
        <ele>-15.745066</ele>
        <time>2022-04-02T09:25:03.000Z</time>
      </trkpt>
      <trkpt lat="39.45554" lon="-0.32856">
        <ele>-15.740471</ele>
        <time>2022-04-02T09:25:07.000Z</time>
      </trkpt>
      <trkpt lat="39.45554" lon="-0.32856">
        <ele>-15.740471</ele>
        <time>2022-04-02T09:25:15.000Z</time>
      </trkpt>
      <trkpt lat="39.45554" lon="-0.32856">
        <ele>-15.740471</ele>
        <time>2022-04-02T09:25:23.000Z</time>
      </trkpt>
      <trkpt lat="39.45554" lon="-0.32856">
        <ele>-15.740471</ele>
        <time>2022-04-02T09:25:28.000Z</time>
      </trkpt>
      <trkpt lat="39.45554" lon="-0.32856">
        <ele>-15.740471</ele>
        <time>2022-04-02T09:25:30.000Z</time>
      </trkpt>
      <trkpt lat="39.45554" lon="-0.32856">
        <ele>-15.740471</ele>
        <time>2022-04-02T09:25:33.000Z</time>
      </trkpt>
      <trkpt lat="39.45554" lon="-0.32856">
        <ele>-15.740471</ele>
        <time>2022-04-02T09:25:39.000Z</time>
      </trkpt>
      <trkpt lat="39.45554" lon="-0.32856">
        <ele>-15.740471</ele>
        <time>2022-04-02T09:25:42.000Z</time>
      </trkpt>
      <trkpt lat="39.45554" lon="-0.32856">
        <ele>-15.740471</ele>
        <time>2022-04-02T09:25:45.000Z</time>
      </trkpt>
      <trkpt lat="39.45554" lon="-0.32856">
        <ele>-15.740471</ele>
        <time>2022-04-02T09:25:49.000Z</time>
      </trkpt>
      <trkpt lat="39.45554" lon="-0.32856">
        <ele>-15.740471</ele>
        <time>2022-04-02T09:25:53.000Z</time>
      </trkpt>
      <trkpt lat="39.45554" lon="-0.32856">
        <ele>-15.740471</ele>
        <time>2022-04-02T09:25:58.000Z</time>
      </trkpt>
      <trkpt lat="39.45554" lon="-0.32856">
        <ele>-15.740471</ele>
        <time>2022-04-02T09:26:09.000Z</time>
      </trkpt>
      <trkpt lat="39.45554" lon="-0.32856">
        <ele>-15.740471</ele>
        <time>2022-04-02T09:26:10.000Z</time>
      </trkpt>
      <trkpt lat="39.45554" lon="-0.32856">
        <ele>-15.740471</ele>
        <time>2022-04-02T09:26:11.000Z</time>
      </trkpt>
      <trkpt lat="39.45554" lon="-0.32856">
        <ele>-15.740471</ele>
        <time>2022-04-02T09:26:13.000Z</time>
      </trkpt>
      <trkpt lat="39.45554" lon="-0.32856">
        <ele>-15.740471</ele>
        <time>2022-04-02T09:26:16.000Z</time>
      </trkpt>
      <trkpt lat="39.45554" lon="-0.32856">
        <ele>-15.740471</ele>
        <time>2022-04-02T09:26:17.000Z</time>
      </trkpt>
      <trkpt lat="39.45554" lon="-0.32856">
        <ele>-15.740471</ele>
        <time>2022-04-02T09:26:21.000Z</time>
      </trkpt>
      <trkpt lat="39.45553" lon="-0.32856">
        <ele>-15.733165</ele>
        <time>2022-04-02T09:26:39.000Z</time>
      </trkpt>
      <trkpt lat="39.45553" lon="-0.32856">
        <ele>-15.733165</ele>
        <time>2022-04-02T09:27:05.000Z</time>
      </trkpt>
      <trkpt lat="39.45553" lon="-0.32856">
        <ele>-15.733165</ele>
        <time>2022-04-02T09:27:10.000Z</time>
      </trkpt>
      <trkpt lat="39.45553" lon="-0.32856">
        <ele>-15.732256</ele>
        <time>2022-04-02T09:27:19.000Z</time>
      </trkpt>
      <trkpt lat="39.45553" lon="-0.32856">
        <ele>-15.732256</ele>
        <time>2022-04-02T09:27:21.000Z</time>
      </trkpt>
      <trkpt lat="39.45554" lon="-0.32856">
        <ele>-15.725553</ele>
        <time>2022-04-02T09:27:28.000Z</time>
      </trkpt>
      <trkpt lat="39.45554" lon="-0.32856">
        <ele>-15.724405</ele>
        <time>2022-04-02T09:27:31.000Z</time>
      </trkpt>
      <trkpt lat="39.45551" lon="-0.32857">
        <ele>-15.695798</ele>
        <time>2022-04-02T09:27:33.000Z</time>
      </trkpt>
      <trkpt lat="39.45545" lon="-0.3287">
        <ele>-15.590936</ele>
        <time>2022-04-02T09:27:38.000Z</time>
      </trkpt>
      <trkpt lat="39.45547" lon="-0.32885">
        <ele>-15.488367</ele>
        <time>2022-04-02T09:27:44.000Z</time>
      </trkpt>
      <trkpt lat="39.45547" lon="-0.32886">
        <ele>-15.47494</ele>
        <time>2022-04-02T09:27:45.000Z</time>
      </trkpt>
      <trkpt lat="39.45549" lon="-0.32898">
        <ele>-15.394748</ele>
        <time>2022-04-02T09:27:50.000Z</time>
      </trkpt>
      <trkpt lat="39.45549" lon="-0.329">
        <ele>-15.378604</ele>
        <time>2022-04-02T09:27:51.000Z</time>
      </trkpt>
      <trkpt lat="39.4555" lon="-0.32909">
        <ele>-15.312816</ele>
        <time>2022-04-02T09:27:56.000Z</time>
      </trkpt>
      <trkpt lat="39.45552" lon="-0.32912">
        <ele>-15.286042</ele>
        <time>2022-04-02T09:27:58.000Z</time>
      </trkpt>
      <trkpt lat="39.45553" lon="-0.32913">
        <ele>-15.273162</ele>
        <time>2022-04-02T09:27:59.000Z</time>
      </trkpt>
      <trkpt lat="39.45553" lon="-0.32915">
        <ele>-15.261694</ele>
        <time>2022-04-02T09:28:00.000Z</time>
      </trkpt>
      <trkpt lat="39.45553" lon="-0.32916">
        <ele>-15.25239</ele>
        <time>2022-04-02T09:28:01.000Z</time>
      </trkpt>
      <trkpt lat="39.45552" lon="-0.32918">
        <ele>-15.236311</ele>
        <time>2022-04-02T09:28:03.000Z</time>
      </trkpt>
      <trkpt lat="39.45549" lon="-0.32913">
        <ele>-15.195752</ele>
        <time>2022-04-02T09:28:06.000Z</time>
      </trkpt>
      <trkpt lat="39.45549" lon="-0.3291">
        <ele>-15.172999</ele>
        <time>2022-04-02T09:28:07.000Z</time>
      </trkpt>
      <trkpt lat="39.45548" lon="-0.32897">
        <ele>-15.086358</ele>
        <time>2022-04-02T09:28:10.000Z</time>
      </trkpt>
      <trkpt lat="39.45546" lon="-0.32884">
        <ele>-14.989655</ele>
        <time>2022-04-02T09:28:13.000Z</time>
      </trkpt>
      <trkpt lat="39.45537" lon="-0.32863">
        <ele>-14.819563</ele>
        <time>2022-04-02T09:28:19.000Z</time>
      </trkpt>
      <trkpt lat="39.45521" lon="-0.32847">
        <ele>-14.638525</ele>
        <time>2022-04-02T09:28:26.000Z</time>
      </trkpt>
      <trkpt lat="39.45511" lon="-0.32843">
        <ele>-14.586461</ele>
        <time>2022-04-02T09:28:30.000Z</time>
      </trkpt>
      <trkpt lat="39.45507" lon="-0.32846">
        <ele>-14.595242</ele>
        <time>2022-04-02T09:28:32.000Z</time>
      </trkpt>
      <trkpt lat="39.45501" lon="-0.32851">
        <ele>-14.608135</ele>
        <time>2022-04-02T09:28:35.000Z</time>
      </trkpt>
      <trkpt lat="39.45501" lon="-0.32851">
        <ele>-14.609595</ele>
        <time>2022-04-02T09:28:36.000Z</time>
      </trkpt>
      <trkpt lat="39.45498" lon="-0.3285">
        <ele>-14.613764</ele>
        <time>2022-04-02T09:28:40.000Z</time>
      </trkpt>
      <trkpt lat="39.45497" lon="-0.3285">
        <ele>-14.616503</ele>
        <time>2022-04-02T09:28:41.000Z</time>
      </trkpt>
      <trkpt lat="39.45486" lon="-0.32843">
        <ele>-14.638029</ele>
        <time>2022-04-02T09:28:46.000Z</time>
      </trkpt>
      <trkpt lat="39.45483" lon="-0.32842">
        <ele>-14.645115</ele>
        <time>2022-04-02T09:28:48.000Z</time>
      </trkpt>
      <trkpt lat="39.45479" lon="-0.32844">
        <ele>-14.652619</ele>
        <time>2022-04-02T09:28:50.000Z</time>
      </trkpt>
      <trkpt lat="39.4547" lon="-0.32854">
        <ele>-14.674078</ele>
        <time>2022-04-02T09:28:54.000Z</time>
      </trkpt>
      <trkpt lat="39.45466" lon="-0.32856">
        <ele>-14.68125</ele>
        <time>2022-04-02T09:28:55.000Z</time>
      </trkpt>
      <trkpt lat="39.45448" lon="-0.32868">
        <ele>-14.717764</ele>
        <time>2022-04-02T09:29:01.000Z</time>
      </trkpt>
      <trkpt lat="39.45439" lon="-0.32873">
        <ele>-14.736774</ele>
        <time>2022-04-02T09:29:04.000Z</time>
      </trkpt>
      <trkpt lat="39.45423" lon="-0.32881">
        <ele>-14.767148</ele>
        <time>2022-04-02T09:29:09.000Z</time>
      </trkpt>
      <trkpt lat="39.45412" lon="-0.32889">
        <ele>-14.789659</ele>
        <time>2022-04-02T09:29:14.000Z</time>
      </trkpt>
      <trkpt lat="39.45405" lon="-0.32893">
        <ele>-14.803628</ele>
        <time>2022-04-02T09:29:19.000Z</time>
      </trkpt>
      <trkpt lat="39.45398" lon="-0.32892">
        <ele>-14.816405</ele>
        <time>2022-04-02T09:29:24.000Z</time>
      </trkpt>
      <trkpt lat="39.45398" lon="-0.32891">
        <ele>-14.816961</ele>
        <time>2022-04-02T09:29:25.000Z</time>
      </trkpt>
      <trkpt lat="39.45398" lon="-0.32891">
        <ele>-14.816961</ele>
        <time>2022-04-02T09:29:29.000Z</time>
      </trkpt>
      <trkpt lat="39.45398" lon="-0.32891">
        <ele>-14.816961</ele>
        <time>2022-04-02T09:29:30.000Z</time>
      </trkpt>
      <trkpt lat="39.45398" lon="-0.32891">
        <ele>-14.816961</ele>
        <time>2022-04-02T09:29:32.000Z</time>
      </trkpt>
      <trkpt lat="39.45398" lon="-0.32891">
        <ele>-14.816961</ele>
        <time>2022-04-02T09:29:34.000Z</time>
      </trkpt>
      <trkpt lat="39.45398" lon="-0.32891">
        <ele>-14.816961</ele>
        <time>2022-04-02T09:29:36.000Z</time>
      </trkpt>
      <trkpt lat="39.45398" lon="-0.32891">
        <ele>-14.816961</ele>
        <time>2022-04-02T09:29:37.000Z</time>
      </trkpt>
      <trkpt lat="39.45398" lon="-0.32891">
        <ele>-14.816961</ele>
        <time>2022-04-02T09:29:38.000Z</time>
      </trkpt>
      <trkpt lat="39.45398" lon="-0.32891">
        <ele>-14.817142</ele>
        <time>2022-04-02T09:29:47.000Z</time>
      </trkpt>
      <trkpt lat="39.45397" lon="-0.32891">
        <ele>-14.818061</ele>
        <time>2022-04-02T09:29:57.000Z</time>
      </trkpt>
      <trkpt lat="39.45397" lon="-0.32891">
        <ele>-14.81884</ele>
        <time>2022-04-02T09:30:02.000Z</time>
      </trkpt>
      <trkpt lat="39.45397" lon="-0.32891">
        <ele>-14.81884</ele>
        <time>2022-04-02T09:30:04.000Z</time>
      </trkpt>
      <trkpt lat="39.45397" lon="-0.32891">
        <ele>-14.81884</ele>
        <time>2022-04-02T09:30:12.000Z</time>
      </trkpt>
      <trkpt lat="39.45397" lon="-0.32891">
        <ele>-14.81884</ele>
        <time>2022-04-02T09:30:23.000Z</time>
      </trkpt>
      <trkpt lat="39.45397" lon="-0.32891">
        <ele>-14.81884</ele>
        <time>2022-04-02T09:30:27.000Z</time>
      </trkpt>
      <trkpt lat="39.45397" lon="-0.32891">
        <ele>-14.81884</ele>
        <time>2022-04-02T09:30:31.000Z</time>
      </trkpt>
      <trkpt lat="39.45399" lon="-0.32892">
        <ele>-14.823068</ele>
        <time>2022-04-02T09:30:35.000Z</time>
      </trkpt>
      <trkpt lat="39.45404" lon="-0.32894">
        <ele>-14.832457</ele>
        <time>2022-04-02T09:30:37.000Z</time>
      </trkpt>
      <trkpt lat="39.45407" lon="-0.32895">
        <ele>-14.838312</ele>
        <time>2022-04-02T09:30:38.000Z</time>
      </trkpt>
      <trkpt lat="39.45419" lon="-0.32896">
        <ele>-14.859172</ele>
        <time>2022-04-02T09:30:41.000Z</time>
      </trkpt>
      <trkpt lat="39.45423" lon="-0.32897">
        <ele>-14.866486</ele>
        <time>2022-04-02T09:30:42.000Z</time>
      </trkpt>
      <trkpt lat="39.45434" lon="-0.32897">
        <ele>-14.886648</ele>
        <time>2022-04-02T09:30:45.000Z</time>
      </trkpt>
      <trkpt lat="39.4544" lon="-0.32897">
        <ele>-14.898818</ele>
        <time>2022-04-02T09:30:47.000Z</time>
      </trkpt>
      <trkpt lat="39.4545" lon="-0.32896">
        <ele>-14.847689</ele>
        <time>2022-04-02T09:30:50.000Z</time>
      </trkpt>
      <trkpt lat="39.45453" lon="-0.32896">
        <ele>-14.81558</ele>
        <time>2022-04-02T09:30:51.000Z</time>
      </trkpt>
      <trkpt lat="39.4547" lon="-0.32888">
        <ele>-14.619229</ele>
        <time>2022-04-02T09:30:57.000Z</time>
      </trkpt>
      <trkpt lat="39.45481" lon="-0.32875">
        <ele>-14.464318</ele>
        <time>2022-04-02T09:31:01.000Z</time>
      </trkpt>
      <trkpt lat="39.45489" lon="-0.32864">
        <ele>-14.334118</ele>
        <time>2022-04-02T09:31:04.000Z</time>
      </trkpt>
      <trkpt lat="39.45493" lon="-0.3286">
        <ele>-14.288526</ele>
        <time>2022-04-02T09:31:05.000Z</time>
      </trkpt>
      <trkpt lat="39.455" lon="-0.32855">
        <ele>-14.195469</ele>
        <time>2022-04-02T09:31:07.000Z</time>
      </trkpt>
      <trkpt lat="39.45509" lon="-0.32852">
        <ele>-14.10108</ele>
        <time>2022-04-02T09:31:09.000Z</time>
      </trkpt>
      <trkpt lat="39.45513" lon="-0.32851">
        <ele>-14.055704</ele>
        <time>2022-04-02T09:31:10.000Z</time>
      </trkpt>
      <trkpt lat="39.45521" lon="-0.32851">
        <ele>-13.967993</ele>
        <time>2022-04-02T09:31:12.000Z</time>
      </trkpt>
      <trkpt lat="39.45529" lon="-0.32855">
        <ele>-13.880207</ele>
        <time>2022-04-02T09:31:14.000Z</time>
      </trkpt>
      <trkpt lat="39.45532" lon="-0.32858">
        <ele>-13.835344</ele>
        <time>2022-04-02T09:31:15.000Z</time>
      </trkpt>
      <trkpt lat="39.45536" lon="-0.32861">
        <ele>-13.79042</ele>
        <time>2022-04-02T09:31:16.000Z</time>
      </trkpt>
      <trkpt lat="39.45541" lon="-0.3287">
        <ele>-13.69694</ele>
        <time>2022-04-02T09:31:18.000Z</time>
      </trkpt>
      <trkpt lat="39.45544" lon="-0.32875">
        <ele>-13.649614</ele>
        <time>2022-04-02T09:31:19.000Z</time>
      </trkpt>
      <trkpt lat="39.45546" lon="-0.3288">
        <ele>-13.601828</ele>
        <time>2022-04-02T09:31:20.000Z</time>
      </trkpt>
      <trkpt lat="39.45547" lon="-0.32892">
        <ele>-13.505576</ele>
        <time>2022-04-02T09:31:22.000Z</time>
      </trkpt>
      <trkpt lat="39.45548" lon="-0.32903">
        <ele>-13.410569</ele>
        <time>2022-04-02T09:31:24.000Z</time>
      </trkpt>
      <trkpt lat="39.45548" lon="-0.32908">
        <ele>-13.366711</ele>
        <time>2022-04-02T09:31:25.000Z</time>
      </trkpt>
      <trkpt lat="39.4555" lon="-0.32918">
        <ele>-13.286436</ele>
        <time>2022-04-02T09:31:27.000Z</time>
      </trkpt>
      <trkpt lat="39.45552" lon="-0.32921">
        <ele>-13.254972</ele>
        <time>2022-04-02T09:31:28.000Z</time>
      </trkpt>
      <trkpt lat="39.45556" lon="-0.32926">
        <ele>-13.193948</ele>
        <time>2022-04-02T09:31:32.000Z</time>
      </trkpt>
      <trkpt lat="39.45556" lon="-0.32927">
        <ele>-13.186761</ele>
        <time>2022-04-02T09:31:36.000Z</time>
      </trkpt>
      <trkpt lat="39.45556" lon="-0.32928">
        <ele>-13.175821</ele>
        <time>2022-04-02T09:31:38.000Z</time>
      </trkpt>
      <trkpt lat="39.45556" lon="-0.32931">
        <ele>-13.151039</ele>
        <time>2022-04-02T09:31:40.000Z</time>
      </trkpt>
      <trkpt lat="39.45555" lon="-0.32935">
        <ele>-13.118532</ele>
        <time>2022-04-02T09:31:42.000Z</time>
      </trkpt>
      <trkpt lat="39.45547" lon="-0.32946">
        <ele>-12.991597</ele>
        <time>2022-04-02T09:31:48.000Z</time>
      </trkpt>
      <trkpt lat="39.45544" lon="-0.32947">
        <ele>-12.956501</ele>
        <time>2022-04-02T09:31:49.000Z</time>
      </trkpt>
      <trkpt lat="39.45542" lon="-0.32949">
        <ele>-12.918073</ele>
        <time>2022-04-02T09:31:50.000Z</time>
      </trkpt>
      <trkpt lat="39.45535" lon="-0.3296">
        <ele>-12.753867</ele>
        <time>2022-04-02T09:31:54.000Z</time>
      </trkpt>
      <trkpt lat="39.45523" lon="-0.32976">
        <ele>-12.49592</ele>
        <time>2022-04-02T09:31:59.000Z</time>
      </trkpt>
      <trkpt lat="39.45518" lon="-0.32981">
        <ele>-12.39666</ele>
        <time>2022-04-02T09:32:01.000Z</time>
      </trkpt>
      <trkpt lat="39.45516" lon="-0.32984">
        <ele>-12.34931</ele>
        <time>2022-04-02T09:32:02.000Z</time>
      </trkpt>
      <trkpt lat="39.45502" lon="-0.32994">
        <ele>-12.115444</ele>
        <time>2022-04-02T09:32:07.000Z</time>
      </trkpt>
      <trkpt lat="39.45485" lon="-0.33009">
        <ele>-11.803166</ele>
        <time>2022-04-02T09:32:13.000Z</time>
      </trkpt>
      <trkpt lat="39.4547" lon="-0.33022">
        <ele>-11.527167</ele>
        <time>2022-04-02T09:32:17.000Z</time>
      </trkpt>
      <trkpt lat="39.4546" lon="-0.33031">
        <ele>-11.350834</ele>
        <time>2022-04-02T09:32:20.000Z</time>
      </trkpt>
      <trkpt lat="39.45457" lon="-0.33034">
        <ele>-11.290355</ele>
        <time>2022-04-02T09:32:21.000Z</time>
      </trkpt>
      <trkpt lat="39.45432" lon="-0.33058">
        <ele>-10.822653</ele>
        <time>2022-04-02T09:32:30.000Z</time>
      </trkpt>
      <trkpt lat="39.45415" lon="-0.33074">
        <ele>-10.512944</ele>
        <time>2022-04-02T09:32:36.000Z</time>
      </trkpt>
      <trkpt lat="39.45409" lon="-0.33079">
        <ele>-10.397664</ele>
        <time>2022-04-02T09:32:38.000Z</time>
      </trkpt>
      <trkpt lat="39.45405" lon="-0.33082">
        <ele>-10.338436</ele>
        <time>2022-04-02T09:32:39.000Z</time>
      </trkpt>
      <trkpt lat="39.45402" lon="-0.33084">
        <ele>-10.286039</ele>
        <time>2022-04-02T09:32:40.000Z</time>
      </trkpt>
      <trkpt lat="39.45382" lon="-0.33103">
        <ele>-10.462751</ele>
        <time>2022-04-02T09:32:47.000Z</time>
      </trkpt>
      <trkpt lat="39.45375" lon="-0.33109">
        <ele>-10.519811</ele>
        <time>2022-04-02T09:32:49.000Z</time>
      </trkpt>
      <trkpt lat="39.45369" lon="-0.33116">
        <ele>-10.577316</ele>
        <time>2022-04-02T09:32:51.000Z</time>
      </trkpt>
      <trkpt lat="39.45352" lon="-0.33131">
        <ele>-10.720945</ele>
        <time>2022-04-02T09:32:56.000Z</time>
      </trkpt>
      <trkpt lat="39.45335" lon="-0.33146">
        <ele>-10.866377</ele>
        <time>2022-04-02T09:33:02.000Z</time>
      </trkpt>
      <trkpt lat="39.45328" lon="-0.33153">
        <ele>-10.927114</ele>
        <time>2022-04-02T09:33:04.000Z</time>
      </trkpt>
      <trkpt lat="39.45313" lon="-0.33167">
        <ele>-11.06203</ele>
        <time>2022-04-02T09:33:10.000Z</time>
      </trkpt>
      <trkpt lat="39.45294" lon="-0.33184">
        <ele>-11.221115</ele>
        <time>2022-04-02T09:33:17.000Z</time>
      </trkpt>
      <trkpt lat="39.45288" lon="-0.33189">
        <ele>-11.274929</ele>
        <time>2022-04-02T09:33:20.000Z</time>
      </trkpt>
      <trkpt lat="39.45275" lon="-0.332">
        <ele>-11.379271</ele>
        <time>2022-04-02T09:33:26.000Z</time>
      </trkpt>
      <trkpt lat="39.45273" lon="-0.33201">
        <ele>-11.39871</ele>
        <time>2022-04-02T09:33:27.000Z</time>
      </trkpt>
      <trkpt lat="39.45269" lon="-0.33203">
        <ele>-11.428533</ele>
        <time>2022-04-02T09:33:29.000Z</time>
      </trkpt>
      <trkpt lat="39.45268" lon="-0.33204">
        <ele>-11.435479</ele>
        <time>2022-04-02T09:33:30.000Z</time>
      </trkpt>
      <trkpt lat="39.45268" lon="-0.33204">
        <ele>-11.437635</ele>
        <time>2022-04-02T09:33:31.000Z</time>
      </trkpt>
      <trkpt lat="39.45268" lon="-0.33204">
        <ele>-11.43893</ele>
        <time>2022-04-02T09:33:35.000Z</time>
      </trkpt>
      <trkpt lat="39.45268" lon="-0.33203">
        <ele>-11.440562</ele>
        <time>2022-04-02T09:33:39.000Z</time>
      </trkpt>
      <trkpt lat="39.45268" lon="-0.33203">
        <ele>-11.440562</ele>
        <time>2022-04-02T09:33:42.000Z</time>
      </trkpt>
      <trkpt lat="39.45268" lon="-0.33203">
        <ele>-11.440562</ele>
        <time>2022-04-02T09:33:46.000Z</time>
      </trkpt>
      <trkpt lat="39.45268" lon="-0.33203">
        <ele>-11.440562</ele>
        <time>2022-04-02T09:33:47.000Z</time>
      </trkpt>
      <trkpt lat="39.45268" lon="-0.33203">
        <ele>-11.440562</ele>
        <time>2022-04-02T09:33:53.000Z</time>
      </trkpt>
      <trkpt lat="39.45268" lon="-0.33203">
        <ele>-11.440562</ele>
        <time>2022-04-02T09:33:54.000Z</time>
      </trkpt>
      <trkpt lat="39.45268" lon="-0.33203">
        <ele>-11.440562</ele>
        <time>2022-04-02T09:33:59.000Z</time>
      </trkpt>
      <trkpt lat="39.45268" lon="-0.33203">
        <ele>-11.441105</ele>
        <time>2022-04-02T09:34:01.000Z</time>
      </trkpt>
      <trkpt lat="39.45268" lon="-0.33203">
        <ele>-11.441105</ele>
        <time>2022-04-02T09:34:07.000Z</time>
      </trkpt>
      <trkpt lat="39.45268" lon="-0.33203">
        <ele>-11.441105</ele>
        <time>2022-04-02T09:34:09.000Z</time>
      </trkpt>
      <trkpt lat="39.45268" lon="-0.33203">
        <ele>-11.441105</ele>
        <time>2022-04-02T09:34:12.000Z</time>
      </trkpt>
      <trkpt lat="39.45268" lon="-0.33203">
        <ele>-11.441105</ele>
        <time>2022-04-02T09:34:14.000Z</time>
      </trkpt>
      <trkpt lat="39.45268" lon="-0.33205">
        <ele>-11.447669</ele>
        <time>2022-04-02T09:34:16.000Z</time>
      </trkpt>
      <trkpt lat="39.45266" lon="-0.33208">
        <ele>-11.4684</ele>
        <time>2022-04-02T09:34:18.000Z</time>
      </trkpt>
      <trkpt lat="39.45265" lon="-0.3321">
        <ele>-11.484835</ele>
        <time>2022-04-02T09:34:19.000Z</time>
      </trkpt>
      <trkpt lat="39.45257" lon="-0.33219">
        <ele>-11.555443</ele>
        <time>2022-04-02T09:34:22.000Z</time>
      </trkpt>
      <trkpt lat="39.45255" lon="-0.33223">
        <ele>-11.58625</ele>
        <time>2022-04-02T09:34:23.000Z</time>
      </trkpt>
      <trkpt lat="39.4525" lon="-0.33232">
        <ele>-11.650809</ele>
        <time>2022-04-02T09:34:25.000Z</time>
      </trkpt>
      <trkpt lat="39.45248" lon="-0.33237">
        <ele>-11.685258</ele>
        <time>2022-04-02T09:34:26.000Z</time>
      </trkpt>
      <trkpt lat="39.45243" lon="-0.33254">
        <ele>-11.790428</ele>
        <time>2022-04-02T09:34:29.000Z</time>
      </trkpt>
      <trkpt lat="39.45243" lon="-0.3326">
        <ele>-11.825045</ele>
        <time>2022-04-02T09:34:30.000Z</time>
      </trkpt>
      <trkpt lat="39.45244" lon="-0.33277">
        <ele>-11.928376</ele>
        <time>2022-04-02T09:34:33.000Z</time>
      </trkpt>
      <trkpt lat="39.45247" lon="-0.33294">
        <ele>-12.032933</ele>
        <time>2022-04-02T09:34:36.000Z</time>
      </trkpt>
      <trkpt lat="39.45252" lon="-0.33317">
        <ele>-12.174402</ele>
        <time>2022-04-02T09:34:40.000Z</time>
      </trkpt>
      <trkpt lat="39.45254" lon="-0.33325">
        <ele>-12.219829</ele>
        <time>2022-04-02T09:34:42.000Z</time>
      </trkpt>
      <trkpt lat="39.45255" lon="-0.33328">
        <ele>-12.240225</ele>
        <time>2022-04-02T09:34:43.000Z</time>
      </trkpt>
      <trkpt lat="39.45256" lon="-0.33331">
        <ele>-12.26142</ele>
        <time>2022-04-02T09:34:44.000Z</time>
      </trkpt>
      <trkpt lat="39.4526" lon="-0.33353">
        <ele>-12.393721</ele>
        <time>2022-04-02T09:34:49.000Z</time>
      </trkpt>
      <trkpt lat="39.45264" lon="-0.33378">
        <ele>-12.541232</ele>
        <time>2022-04-02T09:34:54.000Z</time>
      </trkpt>
      <trkpt lat="39.45267" lon="-0.33392">
        <ele>-12.629753</ele>
        <time>2022-04-02T09:34:57.000Z</time>
      </trkpt>
      <trkpt lat="39.45271" lon="-0.3341">
        <ele>-12.736178</ele>
        <time>2022-04-02T09:35:01.000Z</time>
      </trkpt>
      <trkpt lat="39.45272" lon="-0.33416">
        <ele>-12.776047</ele>
        <time>2022-04-02T09:35:03.000Z</time>
      </trkpt>
      <trkpt lat="39.45273" lon="-0.33428">
        <ele>-12.844478</ele>
        <time>2022-04-02T09:35:08.000Z</time>
      </trkpt>
      <trkpt lat="39.45269" lon="-0.33441">
        <ele>-12.926186</ele>
        <time>2022-04-02T09:35:13.000Z</time>
      </trkpt>
      <trkpt lat="39.45266" lon="-0.33447">
        <ele>-12.921062</ele>
        <time>2022-04-02T09:35:15.000Z</time>
      </trkpt>
      <trkpt lat="39.45265" lon="-0.3345">
        <ele>-12.918525</ele>
        <time>2022-04-02T09:35:16.000Z</time>
      </trkpt>
      <trkpt lat="39.45256" lon="-0.33467">
        <ele>-12.902885</ele>
        <time>2022-04-02T09:35:22.000Z</time>
      </trkpt>
      <trkpt lat="39.45249" lon="-0.33476">
        <ele>-12.893558</ele>
        <time>2022-04-02T09:35:25.000Z</time>
      </trkpt>
      <trkpt lat="39.45243" lon="-0.33484">
        <ele>-12.884838</ele>
        <time>2022-04-02T09:35:29.000Z</time>
      </trkpt>
      <trkpt lat="39.45236" lon="-0.33495">
        <ele>-12.874864</ele>
        <time>2022-04-02T09:35:33.000Z</time>
      </trkpt>
      <trkpt lat="39.45236" lon="-0.33498">
        <ele>-12.872027</ele>
        <time>2022-04-02T09:35:34.000Z</time>
      </trkpt>
      <trkpt lat="39.45237" lon="-0.33508">
        <ele>-12.865181</ele>
        <time>2022-04-02T09:35:37.000Z</time>
      </trkpt>
      <trkpt lat="39.45238" lon="-0.3351">
        <ele>-12.863279</ele>
        <time>2022-04-02T09:35:38.000Z</time>
      </trkpt>
      <trkpt lat="39.45238" lon="-0.33512">
        <ele>-12.861566</ele>
        <time>2022-04-02T09:35:40.000Z</time>
      </trkpt>
      <trkpt lat="39.45238" lon="-0.33515">
        <ele>-12.859553</ele>
        <time>2022-04-02T09:35:45.000Z</time>
      </trkpt>
      <trkpt lat="39.45238" lon="-0.33515">
        <ele>-12.859255</ele>
        <time>2022-04-02T09:35:46.000Z</time>
      </trkpt>
      <trkpt lat="39.45238" lon="-0.33515">
        <ele>-12.859255</ele>
        <time>2022-04-02T09:35:49.000Z</time>
      </trkpt>
      <trkpt lat="39.45238" lon="-0.33515">
        <ele>-12.859255</ele>
        <time>2022-04-02T09:35:52.000Z</time>
      </trkpt>
      <trkpt lat="39.45238" lon="-0.33515">
        <ele>-12.859255</ele>
        <time>2022-04-02T09:35:54.000Z</time>
      </trkpt>
      <trkpt lat="39.45238" lon="-0.33515">
        <ele>-12.859255</ele>
        <time>2022-04-02T09:35:55.000Z</time>
      </trkpt>
      <trkpt lat="39.45238" lon="-0.33515">
        <ele>-12.859255</ele>
        <time>2022-04-02T09:35:59.000Z</time>
      </trkpt>
      <trkpt lat="39.45238" lon="-0.33515">
        <ele>-12.859255</ele>
        <time>2022-04-02T09:36:04.000Z</time>
      </trkpt>
      <trkpt lat="39.45238" lon="-0.33515">
        <ele>-12.859255</ele>
        <time>2022-04-02T09:36:10.000Z</time>
      </trkpt>
      <trkpt lat="39.45238" lon="-0.33515">
        <ele>-12.859255</ele>
        <time>2022-04-02T09:36:13.000Z</time>
      </trkpt>
      <trkpt lat="39.45238" lon="-0.33515">
        <ele>-12.859255</ele>
        <time>2022-04-02T09:36:15.000Z</time>
      </trkpt>
      <trkpt lat="39.45238" lon="-0.33515">
        <ele>-12.859255</ele>
        <time>2022-04-02T09:36:19.000Z</time>
      </trkpt>
      <trkpt lat="39.45238" lon="-0.33515">
        <ele>-12.859255</ele>
        <time>2022-04-02T09:36:21.000Z</time>
      </trkpt>
      <trkpt lat="39.45238" lon="-0.33515">
        <ele>-12.858942</ele>
        <time>2022-04-02T09:36:24.000Z</time>
      </trkpt>
      <trkpt lat="39.45238" lon="-0.33515">
        <ele>-12.858735</ele>
        <time>2022-04-02T09:36:25.000Z</time>
      </trkpt>
      <trkpt lat="39.45243" lon="-0.33522">
        <ele>-12.851954</ele>
        <time>2022-04-02T09:36:28.000Z</time>
      </trkpt>
      <trkpt lat="39.45253" lon="-0.33541">
        <ele>-12.834612</ele>
        <time>2022-04-02T09:36:34.000Z</time>
      </trkpt>
      <trkpt lat="39.45265" lon="-0.33553">
        <ele>-12.819813</ele>
        <time>2022-04-02T09:36:39.000Z</time>
      </trkpt>
      <trkpt lat="39.4528" lon="-0.33564">
        <ele>-12.803973</ele>
        <time>2022-04-02T09:36:44.000Z</time>
      </trkpt>
      <trkpt lat="39.45278" lon="-0.33578">
        <ele>-12.793108</ele>
        <time>2022-04-02T09:36:48.000Z</time>
      </trkpt>
      <trkpt lat="39.45269" lon="-0.33612">
        <ele>-12.76643</ele>
        <time>2022-04-02T09:36:56.000Z</time>
      </trkpt>
      <trkpt lat="39.45265" lon="-0.33622">
        <ele>-12.75824</ele>
        <time>2022-04-02T09:36:59.000Z</time>
      </trkpt>
      <trkpt lat="39.4526" lon="-0.33628">
        <ele>-12.741258</ele>
        <time>2022-04-02T09:37:01.000Z</time>
      </trkpt>
      <trkpt lat="39.45258" lon="-0.33641">
        <ele>-12.589036</ele>
        <time>2022-04-02T09:37:04.000Z</time>
      </trkpt>
      <trkpt lat="39.45257" lon="-0.33645">
        <ele>-12.541407</ele>
        <time>2022-04-02T09:37:05.000Z</time>
      </trkpt>
      <trkpt lat="39.45253" lon="-0.33658">
        <ele>-12.382735</ele>
        <time>2022-04-02T09:37:08.000Z</time>
      </trkpt>
      <trkpt lat="39.45249" lon="-0.3368">
        <ele>-12.136669</ele>
        <time>2022-04-02T09:37:13.000Z</time>
      </trkpt>
      <trkpt lat="39.45249" lon="-0.33683">
        <ele>-12.096338</ele>
        <time>2022-04-02T09:37:14.000Z</time>
      </trkpt>
      <trkpt lat="39.45249" lon="-0.33695">
        <ele>-11.965593</ele>
        <time>2022-04-02T09:37:17.000Z</time>
      </trkpt>
      <trkpt lat="39.45245" lon="-0.33707">
        <ele>-11.820568</ele>
        <time>2022-04-02T09:37:20.000Z</time>
      </trkpt>
      <trkpt lat="39.45241" lon="-0.33721">
        <ele>-11.648407</ele>
        <time>2022-04-02T09:37:24.000Z</time>
      </trkpt>
      <trkpt lat="39.45235" lon="-0.3374">
        <ele>-11.418536</ele>
        <time>2022-04-02T09:37:29.000Z</time>
      </trkpt>
      <trkpt lat="39.45233" lon="-0.33752">
        <ele>-11.285711</ele>
        <time>2022-04-02T09:37:32.000Z</time>
      </trkpt>
      <trkpt lat="39.45224" lon="-0.33789">
        <ele>-10.853486</ele>
        <time>2022-04-02T09:37:40.000Z</time>
      </trkpt>
      <trkpt lat="39.45219" lon="-0.33803">
        <ele>-10.67989</ele>
        <time>2022-04-02T09:37:43.000Z</time>
      </trkpt>
      <trkpt lat="39.45213" lon="-0.33829">
        <ele>-10.382222</ele>
        <time>2022-04-02T09:37:48.000Z</time>
      </trkpt>
      <trkpt lat="39.45212" lon="-0.33834">
        <ele>-10.315809</ele>
        <time>2022-04-02T09:37:49.000Z</time>
      </trkpt>
      <trkpt lat="39.45209" lon="-0.33846">
        <ele>-10.173802</ele>
        <time>2022-04-02T09:37:51.000Z</time>
      </trkpt>
      <trkpt lat="39.45203" lon="-0.33868">
        <ele>-10.222351</ele>
        <time>2022-04-02T09:37:55.000Z</time>
      </trkpt>
      <trkpt lat="39.45201" lon="-0.33874">
        <ele>-10.245408</ele>
        <time>2022-04-02T09:37:56.000Z</time>
      </trkpt>
      <trkpt lat="39.45198" lon="-0.33888">
        <ele>-10.29749</ele>
        <time>2022-04-02T09:37:59.000Z</time>
      </trkpt>
      <trkpt lat="39.45197" lon="-0.33892">
        <ele>-10.31378</ele>
        <time>2022-04-02T09:38:00.000Z</time>
      </trkpt>
      <trkpt lat="39.45197" lon="-0.33897">
        <ele>-10.330859</ele>
        <time>2022-04-02T09:38:01.000Z</time>
      </trkpt>
      <trkpt lat="39.45196" lon="-0.33902">
        <ele>-10.349518</ele>
        <time>2022-04-02T09:38:02.000Z</time>
      </trkpt>
      <trkpt lat="39.45195" lon="-0.33907">
        <ele>-10.368334</ele>
        <time>2022-04-02T09:38:03.000Z</time>
      </trkpt>
      <trkpt lat="39.45191" lon="-0.33924">
        <ele>-10.430433</ele>
        <time>2022-04-02T09:38:06.000Z</time>
      </trkpt>
      <trkpt lat="39.45189" lon="-0.33929">
        <ele>-10.450465</ele>
        <time>2022-04-02T09:38:07.000Z</time>
      </trkpt>
      <trkpt lat="39.45185" lon="-0.33944">
        <ele>-10.508401</ele>
        <time>2022-04-02T09:38:10.000Z</time>
      </trkpt>
      <trkpt lat="39.45182" lon="-0.33953">
        <ele>-10.539858</ele>
        <time>2022-04-02T09:38:12.000Z</time>
      </trkpt>
      <trkpt lat="39.45175" lon="-0.33981">
        <ele>-10.646226</ele>
        <time>2022-04-02T09:38:18.000Z</time>
      </trkpt>
      <trkpt lat="39.45169" lon="-0.34002">
        <ele>-10.724292</ele>
        <time>2022-04-02T09:38:22.000Z</time>
      </trkpt>
      <trkpt lat="39.45163" lon="-0.34021">
        <ele>-10.797797</ele>
        <time>2022-04-02T09:38:26.000Z</time>
      </trkpt>
      <trkpt lat="39.4516" lon="-0.3403">
        <ele>-10.833241</ele>
        <time>2022-04-02T09:38:28.000Z</time>
      </trkpt>
      <trkpt lat="39.45157" lon="-0.34039">
        <ele>-10.865852</ele>
        <time>2022-04-02T09:38:30.000Z</time>
      </trkpt>
      <trkpt lat="39.45156" lon="-0.34043">
        <ele>-10.882005</ele>
        <time>2022-04-02T09:38:31.000Z</time>
      </trkpt>
      <trkpt lat="39.45154" lon="-0.34052">
        <ele>-10.913749</ele>
        <time>2022-04-02T09:38:33.000Z</time>
      </trkpt>
      <trkpt lat="39.45152" lon="-0.34063">
        <ele>-10.95683</ele>
        <time>2022-04-02T09:38:36.000Z</time>
      </trkpt>
      <trkpt lat="39.4515" lon="-0.34071">
        <ele>-10.97514</ele>
        <time>2022-04-02T09:38:38.000Z</time>
      </trkpt>
      <trkpt lat="39.45147" lon="-0.34077">
        <ele>-10.971518</ele>
        <time>2022-04-02T09:38:40.000Z</time>
      </trkpt>
      <trkpt lat="39.45144" lon="-0.34078">
        <ele>-10.969834</ele>
        <time>2022-04-02T09:38:41.000Z</time>
      </trkpt>
      <trkpt lat="39.45131" lon="-0.34073">
        <ele>-10.961461</ele>
        <time>2022-04-02T09:38:45.000Z</time>
      </trkpt>
      <trkpt lat="39.45125" lon="-0.34072">
        <ele>-10.957246</ele>
        <time>2022-04-02T09:38:47.000Z</time>
      </trkpt>
      <trkpt lat="39.4512" lon="-0.34078">
        <ele>-10.953007</ele>
        <time>2022-04-02T09:38:49.000Z</time>
      </trkpt>
      <trkpt lat="39.45108" lon="-0.34089">
        <ele>-10.94411</ele>
        <time>2022-04-02T09:38:53.000Z</time>
      </trkpt>
      <trkpt lat="39.45098" lon="-0.34087">
        <ele>-10.937247</ele>
        <time>2022-04-02T09:38:57.000Z</time>
      </trkpt>
      <trkpt lat="39.4509" lon="-0.3408">
        <ele>-10.931658</ele>
        <time>2022-04-02T09:39:01.000Z</time>
      </trkpt>
      <trkpt lat="39.4509" lon="-0.34079">
        <ele>-10.930731</ele>
        <time>2022-04-02T09:39:02.000Z</time>
      </trkpt>
      <trkpt lat="39.45089" lon="-0.34078">
        <ele>-10.930307</ele>
        <time>2022-04-02T09:39:07.000Z</time>
      </trkpt>
      <trkpt lat="39.45089" lon="-0.34078">
        <ele>-10.930307</ele>
        <time>2022-04-02T09:39:14.000Z</time>
      </trkpt>
      <trkpt lat="39.45089" lon="-0.34078">
        <ele>-10.930307</ele>
        <time>2022-04-02T09:39:18.000Z</time>
      </trkpt>
      <trkpt lat="39.45089" lon="-0.34078">
        <ele>-10.930307</ele>
        <time>2022-04-02T09:39:24.000Z</time>
      </trkpt>
      <trkpt lat="39.45089" lon="-0.34078">
        <ele>-10.930094</ele>
        <time>2022-04-02T09:39:27.000Z</time>
      </trkpt>
      <trkpt lat="39.45083" lon="-0.34083">
        <ele>-10.925597</ele>
        <time>2022-04-02T09:39:29.000Z</time>
      </trkpt>
      <trkpt lat="39.45081" lon="-0.34086">
        <ele>-10.923939</ele>
        <time>2022-04-02T09:39:30.000Z</time>
      </trkpt>
      <trkpt lat="39.45081" lon="-0.34089">
        <ele>-10.922478</ele>
        <time>2022-04-02T09:39:31.000Z</time>
      </trkpt>
      <trkpt lat="39.45082" lon="-0.34093">
        <ele>-10.920624</ele>
        <time>2022-04-02T09:39:32.000Z</time>
      </trkpt>
      <trkpt lat="39.45082" lon="-0.34097">
        <ele>-10.918628</ele>
        <time>2022-04-02T09:39:33.000Z</time>
      </trkpt>
      <trkpt lat="39.45079" lon="-0.34105">
        <ele>-10.914264</ele>
        <time>2022-04-02T09:39:35.000Z</time>
      </trkpt>
      <trkpt lat="39.45068" lon="-0.34112">
        <ele>-10.906084</ele>
        <time>2022-04-02T09:39:38.000Z</time>
      </trkpt>
      <trkpt lat="39.45059" lon="-0.34116">
        <ele>-10.900011</ele>
        <time>2022-04-02T09:39:40.000Z</time>
      </trkpt>
      <trkpt lat="39.45049" lon="-0.34119">
        <ele>-10.89392</ele>
        <time>2022-04-02T09:39:42.000Z</time>
      </trkpt>
      <trkpt lat="39.45039" lon="-0.34121">
        <ele>-10.887369</ele>
        <time>2022-04-02T09:39:44.000Z</time>
      </trkpt>
      <trkpt lat="39.45023" lon="-0.34121">
        <ele>-10.877599</ele>
        <time>2022-04-02T09:39:47.000Z</time>
      </trkpt>
      <trkpt lat="39.45013" lon="-0.3412">
        <ele>-10.871098</ele>
        <time>2022-04-02T09:39:49.000Z</time>
      </trkpt>
      <trkpt lat="39.45008" lon="-0.3412">
        <ele>-10.867996</ele>
        <time>2022-04-02T09:39:50.000Z</time>
      </trkpt>
      <trkpt lat="39.45003" lon="-0.34119">
        <ele>-10.864898</ele>
        <time>2022-04-02T09:39:51.000Z</time>
      </trkpt>
      <trkpt lat="39.44998" lon="-0.34119">
        <ele>-10.866295</ele>
        <time>2022-04-02T09:39:52.000Z</time>
      </trkpt>
      <trkpt lat="39.44987" lon="-0.34117">
        <ele>-10.881553</ele>
        <time>2022-04-02T09:39:54.000Z</time>
      </trkpt>
      <trkpt lat="39.4496" lon="-0.34115">
        <ele>-10.920233</ele>
        <time>2022-04-02T09:39:59.000Z</time>
      </trkpt>
      <trkpt lat="39.44949" lon="-0.34114">
        <ele>-10.935754</ele>
        <time>2022-04-02T09:40:01.000Z</time>
      </trkpt>
      <trkpt lat="39.44904" lon="-0.3411">
        <ele>-10.998699</ele>
        <time>2022-04-02T09:40:09.000Z</time>
      </trkpt>
      <trkpt lat="39.44893" lon="-0.34108">
        <ele>-11.014799</ele>
        <time>2022-04-02T09:40:11.000Z</time>
      </trkpt>
      <trkpt lat="39.44863" lon="-0.34105">
        <ele>-11.056732</ele>
        <time>2022-04-02T09:40:16.000Z</time>
      </trkpt>
      <trkpt lat="39.44852" lon="-0.34104">
        <ele>-11.073271</ele>
        <time>2022-04-02T09:40:18.000Z</time>
      </trkpt>
      <trkpt lat="39.4484" lon="-0.34102">
        <ele>-11.089996</ele>
        <time>2022-04-02T09:40:20.000Z</time>
      </trkpt>
      <trkpt lat="39.44827" lon="-0.34101">
        <ele>-11.10804</ele>
        <time>2022-04-02T09:40:22.000Z</time>
      </trkpt>
      <trkpt lat="39.44771" lon="-0.34096">
        <ele>-11.13854</ele>
        <time>2022-04-02T09:40:31.000Z</time>
      </trkpt>
      <trkpt lat="39.44765" lon="-0.34095">
        <ele>-11.141272</ele>
        <time>2022-04-02T09:40:32.000Z</time>
      </trkpt>
      <trkpt lat="39.44759" lon="-0.34095">
        <ele>-11.143961</ele>
        <time>2022-04-02T09:40:33.000Z</time>
      </trkpt>
      <trkpt lat="39.44747" lon="-0.34094">
        <ele>-11.149507</ele>
        <time>2022-04-02T09:40:35.000Z</time>
      </trkpt>
      <trkpt lat="39.44692" lon="-0.34088">
        <ele>-11.174073</ele>
        <time>2022-04-02T09:40:44.000Z</time>
      </trkpt>
      <trkpt lat="39.44632" lon="-0.34082">
        <ele>-11.254079</ele>
        <time>2022-04-02T09:40:54.000Z</time>
      </trkpt>
      <trkpt lat="39.44626" lon="-0.34082">
        <ele>-11.291033</ele>
        <time>2022-04-02T09:40:55.000Z</time>
      </trkpt>
      <trkpt lat="39.44578" lon="-0.34078">
        <ele>-11.583489</ele>
        <time>2022-04-02T09:41:03.000Z</time>
      </trkpt>
      <trkpt lat="39.44566" lon="-0.34076">
        <ele>-11.653409</ele>
        <time>2022-04-02T09:41:05.000Z</time>
      </trkpt>
      <trkpt lat="39.44561" lon="-0.34075">
        <ele>-11.684045</ele>
        <time>2022-04-02T09:41:06.000Z</time>
      </trkpt>
      <trkpt lat="39.44558" lon="-0.34073">
        <ele>-11.70919</ele>
        <time>2022-04-02T09:41:07.000Z</time>
      </trkpt>
      <trkpt lat="39.44555" lon="-0.34069">
        <ele>-11.729667</ele>
        <time>2022-04-02T09:41:08.000Z</time>
      </trkpt>
      <trkpt lat="39.44553" lon="-0.34055">
        <ele>-11.797354</ele>
        <time>2022-04-02T09:41:11.000Z</time>
      </trkpt>
      <trkpt lat="39.44553" lon="-0.3405">
        <ele>-11.820709</ele>
        <time>2022-04-02T09:41:12.000Z</time>
      </trkpt>
      <trkpt lat="39.44552" lon="-0.34041">
        <ele>-11.865485</ele>
        <time>2022-04-02T09:41:14.000Z</time>
      </trkpt>
      <trkpt lat="39.44548" lon="-0.34036">
        <ele>-11.896469</ele>
        <time>2022-04-02T09:41:16.000Z</time>
      </trkpt>
      <trkpt lat="39.44541" lon="-0.34026">
        <ele>-11.961531</ele>
        <time>2022-04-02T09:41:20.000Z</time>
      </trkpt>
      <trkpt lat="39.44532" lon="-0.34018">
        <ele>-12.029225</ele>
        <time>2022-04-02T09:41:24.000Z</time>
      </trkpt>
      <trkpt lat="39.44526" lon="-0.34019">
        <ele>-12.062321</ele>
        <time>2022-04-02T09:41:28.000Z</time>
      </trkpt>
      <trkpt lat="39.44526" lon="-0.34019">
        <ele>-12.062321</ele>
        <time>2022-04-02T09:41:35.000Z</time>
      </trkpt>
      <trkpt lat="39.44526" lon="-0.34019">
        <ele>-12.062321</ele>
        <time>2022-04-02T09:41:37.000Z</time>
      </trkpt>
      <trkpt lat="39.44526" lon="-0.34019">
        <ele>-12.062321</ele>
        <time>2022-04-02T09:41:50.000Z</time>
      </trkpt>
      <trkpt lat="39.44526" lon="-0.34019">
        <ele>-12.062321</ele>
        <time>2022-04-02T09:41:52.000Z</time>
      </trkpt>
      <trkpt lat="39.44526" lon="-0.34019">
        <ele>-12.062321</ele>
        <time>2022-04-02T09:42:01.000Z</time>
      </trkpt>
      <trkpt lat="39.44526" lon="-0.34019">
        <ele>-12.063529</ele>
        <time>2022-04-02T09:42:04.000Z</time>
      </trkpt>
      <trkpt lat="39.44524" lon="-0.34018">
        <ele>-12.073472</ele>
        <time>2022-04-02T09:42:05.000Z</time>
      </trkpt>
      <trkpt lat="39.44522" lon="-0.34018">
        <ele>-12.085541</ele>
        <time>2022-04-02T09:42:06.000Z</time>
      </trkpt>
      <trkpt lat="39.4452" lon="-0.34017">
        <ele>-12.098532</ele>
        <time>2022-04-02T09:42:07.000Z</time>
      </trkpt>
      <trkpt lat="39.44512" lon="-0.3402">
        <ele>-12.148356</ele>
        <time>2022-04-02T09:42:10.000Z</time>
      </trkpt>
      <trkpt lat="39.44509" lon="-0.34022">
        <ele>-12.171748</ele>
        <time>2022-04-02T09:42:11.000Z</time>
      </trkpt>
      <trkpt lat="39.44503" lon="-0.34027">
        <ele>-12.214362</ele>
        <time>2022-04-02T09:42:13.000Z</time>
      </trkpt>
      <trkpt lat="39.44489" lon="-0.34037">
        <ele>-12.314391</ele>
        <time>2022-04-02T09:42:17.000Z</time>
      </trkpt>
      <trkpt lat="39.4448" lon="-0.34039">
        <ele>-12.372981</ele>
        <time>2022-04-02T09:42:19.000Z</time>
      </trkpt>
      <trkpt lat="39.44471" lon="-0.34037">
        <ele>-12.435569</ele>
        <time>2022-04-02T09:42:21.000Z</time>
      </trkpt>
      <trkpt lat="39.44442" lon="-0.3402">
        <ele>-12.64491</ele>
        <time>2022-04-02T09:42:27.000Z</time>
      </trkpt>
      <trkpt lat="39.44427" lon="-0.34007">
        <ele>-12.761455</ele>
        <time>2022-04-02T09:42:30.000Z</time>
      </trkpt>
      <trkpt lat="39.44423" lon="-0.34003">
        <ele>-12.801222</ele>
        <time>2022-04-02T09:42:31.000Z</time>
      </trkpt>
      <trkpt lat="39.44408" lon="-0.33988">
        <ele>-12.923863</ele>
        <time>2022-04-02T09:42:34.000Z</time>
      </trkpt>
      <trkpt lat="39.44373" lon="-0.33954">
        <ele>-13.212474</ele>
        <time>2022-04-02T09:42:41.000Z</time>
      </trkpt>
      <trkpt lat="39.44358" lon="-0.33941">
        <ele>-13.332064</ele>
        <time>2022-04-02T09:42:44.000Z</time>
      </trkpt>
      <trkpt lat="39.44348" lon="-0.33933">
        <ele>-13.409169</ele>
        <time>2022-04-02T09:42:46.000Z</time>
      </trkpt>
      <trkpt lat="39.44316" lon="-0.33909">
        <ele>-13.433043</ele>
        <time>2022-04-02T09:42:52.000Z</time>
      </trkpt>
      <trkpt lat="39.44306" lon="-0.339">
        <ele>-13.415032</ele>
        <time>2022-04-02T09:42:54.000Z</time>
      </trkpt>
      <trkpt lat="39.44258" lon="-0.33869">
        <ele>-13.33959</ele>
        <time>2022-04-02T09:43:02.000Z</time>
      </trkpt>
      <trkpt lat="39.44228" lon="-0.33851">
        <ele>-13.292278</ele>
        <time>2022-04-02T09:43:07.000Z</time>
      </trkpt>
      <trkpt lat="39.44203" lon="-0.33839">
        <ele>-13.255026</ele>
        <time>2022-04-02T09:43:11.000Z</time>
      </trkpt>
      <trkpt lat="39.44154" lon="-0.33819">
        <ele>-12.936601</ele>
        <time>2022-04-02T09:43:19.000Z</time>
      </trkpt>
      <trkpt lat="39.4411" lon="-0.33804">
        <ele>-12.440028</ele>
        <time>2022-04-02T09:43:26.000Z</time>
      </trkpt>
      <trkpt lat="39.44099" lon="-0.33801">
        <ele>-12.305867</ele>
        <time>2022-04-02T09:43:28.000Z</time>
      </trkpt>
      <trkpt lat="39.44093" lon="-0.33799">
        <ele>-12.239526</ele>
        <time>2022-04-02T09:43:29.000Z</time>
      </trkpt>
      <trkpt lat="39.44087" lon="-0.33797">
        <ele>-12.173368</ele>
        <time>2022-04-02T09:43:30.000Z</time>
      </trkpt>
      <trkpt lat="39.44081" lon="-0.33796">
        <ele>-12.106452</ele>
        <time>2022-04-02T09:43:31.000Z</time>
      </trkpt>
      <trkpt lat="39.44058" lon="-0.33791">
        <ele>-11.844733</ele>
        <time>2022-04-02T09:43:35.000Z</time>
      </trkpt>
      <trkpt lat="39.4404" lon="-0.33787">
        <ele>-11.642646</ele>
        <time>2022-04-02T09:43:38.000Z</time>
      </trkpt>
      <trkpt lat="39.43999" lon="-0.33781">
        <ele>-11.119621</ele>
        <time>2022-04-02T09:43:45.000Z</time>
      </trkpt>
      <trkpt lat="39.43987" lon="-0.3378">
        <ele>-10.771908</ele>
        <time>2022-04-02T09:43:47.000Z</time>
      </trkpt>
      <trkpt lat="39.43955" lon="-0.3378">
        <ele>-9.823384</ele>
        <time>2022-04-02T09:43:53.000Z</time>
      </trkpt>
      <trkpt lat="39.43946" lon="-0.3378">
        <ele>-9.545027</ele>
        <time>2022-04-02T09:43:55.000Z</time>
      </trkpt>
      <trkpt lat="39.43915" lon="-0.33781">
        <ele>-8.617171</ele>
        <time>2022-04-02T09:44:02.000Z</time>
      </trkpt>
      <trkpt lat="39.43907" lon="-0.33781">
        <ele>-8.371803</ele>
        <time>2022-04-02T09:44:04.000Z</time>
      </trkpt>
      <trkpt lat="39.43899" lon="-0.33781">
        <ele>-8.126436</ele>
        <time>2022-04-02T09:44:06.000Z</time>
      </trkpt>
      <trkpt lat="39.43869" lon="-0.33784">
        <ele>-7.229444</ele>
        <time>2022-04-02T09:44:14.000Z</time>
      </trkpt>
      <trkpt lat="39.43865" lon="-0.33784">
        <ele>-7.120838</ele>
        <time>2022-04-02T09:44:15.000Z</time>
      </trkpt>
      <trkpt lat="39.43851" lon="-0.33786">
        <ele>-6.696666</ele>
        <time>2022-04-02T09:44:19.000Z</time>
      </trkpt>
      <trkpt lat="39.4384" lon="-0.33788">
        <ele>-6.355087</ele>
        <time>2022-04-02T09:44:23.000Z</time>
      </trkpt>
      <trkpt lat="39.43832" lon="-0.3379">
        <ele>-6.115465</ele>
        <time>2022-04-02T09:44:26.000Z</time>
      </trkpt>
      <trkpt lat="39.43821" lon="-0.33792">
        <ele>-5.889589</ele>
        <time>2022-04-02T09:44:30.000Z</time>
      </trkpt>
      <trkpt lat="39.43818" lon="-0.33792">
        <ele>-5.99185</ele>
        <time>2022-04-02T09:44:31.000Z</time>
      </trkpt>
      <trkpt lat="39.43799" lon="-0.33796">
        <ele>-6.699664</ele>
        <time>2022-04-02T09:44:37.000Z</time>
      </trkpt>
      <trkpt lat="39.43793" lon="-0.33797">
        <ele>-6.927834</ele>
        <time>2022-04-02T09:44:39.000Z</time>
      </trkpt>
      <trkpt lat="39.43772" lon="-0.33801">
        <ele>-7.692793</ele>
        <time>2022-04-02T09:44:44.000Z</time>
      </trkpt>
      <trkpt lat="39.4376" lon="-0.33803">
        <ele>-8.123107</ele>
        <time>2022-04-02T09:44:46.000Z</time>
      </trkpt>
      <trkpt lat="39.43754" lon="-0.33804">
        <ele>-8.358898</ele>
        <time>2022-04-02T09:44:47.000Z</time>
      </trkpt>
      <trkpt lat="39.4374" lon="-0.33807">
        <ele>-8.878099</ele>
        <time>2022-04-02T09:44:49.000Z</time>
      </trkpt>
      <trkpt lat="39.43717" lon="-0.33812">
        <ele>-9.705906</ele>
        <time>2022-04-02T09:44:52.000Z</time>
      </trkpt>
      <trkpt lat="39.43703" lon="-0.33817">
        <ele>-10.245741</ele>
        <time>2022-04-02T09:44:54.000Z</time>
      </trkpt>
      <trkpt lat="39.43687" lon="-0.33823">
        <ele>-10.851253</ele>
        <time>2022-04-02T09:44:56.000Z</time>
      </trkpt>
      <trkpt lat="39.43678" lon="-0.33826">
        <ele>-11.169948</ele>
        <time>2022-04-02T09:44:57.000Z</time>
      </trkpt>
      <trkpt lat="39.43662" lon="-0.33833">
        <ele>-11.788932</ele>
        <time>2022-04-02T09:44:59.000Z</time>
      </trkpt>
      <trkpt lat="39.43638" lon="-0.33844">
        <ele>-12.475823</ele>
        <time>2022-04-02T09:45:02.000Z</time>
      </trkpt>
      <trkpt lat="39.43599" lon="-0.33866">
        <ele>-12.927518</ele>
        <time>2022-04-02T09:45:07.000Z</time>
      </trkpt>
      <trkpt lat="39.43557" lon="-0.3389">
        <ele>-13.404074</ele>
        <time>2022-04-02T09:45:13.000Z</time>
      </trkpt>
      <trkpt lat="39.43503" lon="-0.33917">
        <ele>-14.018801</ele>
        <time>2022-04-02T09:45:21.000Z</time>
      </trkpt>
      <trkpt lat="39.43483" lon="-0.33926">
        <ele>-14.24417</ele>
        <time>2022-04-02T09:45:24.000Z</time>
      </trkpt>
      <trkpt lat="39.43454" lon="-0.3394">
        <ele>-14.205892</ele>
        <time>2022-04-02T09:45:28.000Z</time>
      </trkpt>
      <trkpt lat="39.4344" lon="-0.33947">
        <ele>-14.168666</ele>
        <time>2022-04-02T09:45:30.000Z</time>
      </trkpt>
      <trkpt lat="39.43412" lon="-0.33961">
        <ele>-14.095285</ele>
        <time>2022-04-02T09:45:34.000Z</time>
      </trkpt>
      <trkpt lat="39.43396" lon="-0.33968">
        <ele>-14.055301</ele>
        <time>2022-04-02T09:45:36.000Z</time>
      </trkpt>
      <trkpt lat="39.43371" lon="-0.33979">
        <ele>-13.990426</ele>
        <time>2022-04-02T09:45:40.000Z</time>
      </trkpt>
      <trkpt lat="39.43339" lon="-0.33992">
        <ele>-13.910943</ele>
        <time>2022-04-02T09:45:45.000Z</time>
      </trkpt>
      <trkpt lat="39.43326" lon="-0.33996">
        <ele>-13.878264</ele>
        <time>2022-04-02T09:45:47.000Z</time>
      </trkpt>
      <trkpt lat="39.4331" lon="-0.34001">
        <ele>-13.838592</ele>
        <time>2022-04-02T09:45:50.000Z</time>
      </trkpt>
      <trkpt lat="39.43293" lon="-0.34008">
        <ele>-13.917602</ele>
        <time>2022-04-02T09:45:53.000Z</time>
      </trkpt>
      <trkpt lat="39.43281" lon="-0.34012">
        <ele>-13.973268</ele>
        <time>2022-04-02T09:45:55.000Z</time>
      </trkpt>
      <trkpt lat="39.43257" lon="-0.34019">
        <ele>-14.082155</ele>
        <time>2022-04-02T09:45:59.000Z</time>
      </trkpt>
      <trkpt lat="39.43206" lon="-0.34033">
        <ele>-14.310733</ele>
        <time>2022-04-02T09:46:08.000Z</time>
      </trkpt>
      <trkpt lat="39.43195" lon="-0.34036">
        <ele>-14.360677</ele>
        <time>2022-04-02T09:46:10.000Z</time>
      </trkpt>
      <trkpt lat="39.43168" lon="-0.34042">
        <ele>-14.483594</ele>
        <time>2022-04-02T09:46:15.000Z</time>
      </trkpt>
      <trkpt lat="39.43151" lon="-0.34047">
        <ele>-14.56021</ele>
        <time>2022-04-02T09:46:18.000Z</time>
      </trkpt>
      <trkpt lat="39.43092" lon="-0.34058">
        <ele>-14.776561</ele>
        <time>2022-04-02T09:46:28.000Z</time>
      </trkpt>
      <trkpt lat="39.43079" lon="-0.34056">
        <ele>-14.819141</ele>
        <time>2022-04-02T09:46:30.000Z</time>
      </trkpt>
      <trkpt lat="39.43067" lon="-0.34051">
        <ele>-14.862174</ele>
        <time>2022-04-02T09:46:32.000Z</time>
      </trkpt>
      <trkpt lat="39.43055" lon="-0.34046">
        <ele>-14.90381</ele>
        <time>2022-04-02T09:46:34.000Z</time>
      </trkpt>
      <trkpt lat="39.43039" lon="-0.34033">
        <ele>-14.966907</ele>
        <time>2022-04-02T09:46:37.000Z</time>
      </trkpt>
      <trkpt lat="39.43029" lon="-0.34023">
        <ele>-15.007669</ele>
        <time>2022-04-02T09:46:39.000Z</time>
      </trkpt>
      <trkpt lat="39.43025" lon="-0.34017">
        <ele>-15.028953</ele>
        <time>2022-04-02T09:46:40.000Z</time>
      </trkpt>
      <trkpt lat="39.43017" lon="-0.34006">
        <ele>-15.06893</ele>
        <time>2022-04-02T09:46:42.000Z</time>
      </trkpt>
      <trkpt lat="39.43008" lon="-0.33995">
        <ele>-15.10776</ele>
        <time>2022-04-02T09:46:44.000Z</time>
      </trkpt>
      <trkpt lat="39.43005" lon="-0.3399">
        <ele>-15.125484</ele>
        <time>2022-04-02T09:46:45.000Z</time>
      </trkpt>
      <trkpt lat="39.43" lon="-0.33978">
        <ele>-15.159717</ele>
        <time>2022-04-02T09:46:47.000Z</time>
      </trkpt>
      <trkpt lat="39.42993" lon="-0.33946">
        <ele>-15.21047</ele>
        <time>2022-04-02T09:46:52.000Z</time>
      </trkpt>
      <trkpt lat="39.42991" lon="-0.3394">
        <ele>-15.177654</ele>
        <time>2022-04-02T09:46:53.000Z</time>
      </trkpt>
      <trkpt lat="39.42988" lon="-0.33926">
        <ele>-15.110347</ele>
        <time>2022-04-02T09:46:55.000Z</time>
      </trkpt>
      <trkpt lat="39.42987" lon="-0.3391">
        <ele>-15.037926</ele>
        <time>2022-04-02T09:46:57.000Z</time>
      </trkpt>
      <trkpt lat="39.42987" lon="-0.33902">
        <ele>-15.000187</ele>
        <time>2022-04-02T09:46:58.000Z</time>
      </trkpt>
      <trkpt lat="39.42988" lon="-0.33886">
        <ele>-14.92317</ele>
        <time>2022-04-02T09:47:00.000Z</time>
      </trkpt>
      <trkpt lat="39.4299" lon="-0.33878">
        <ele>-14.883312</ele>
        <time>2022-04-02T09:47:01.000Z</time>
      </trkpt>
      <trkpt lat="39.42994" lon="-0.33863">
        <ele>-14.808937</ele>
        <time>2022-04-02T09:47:03.000Z</time>
      </trkpt>
      <trkpt lat="39.42997" lon="-0.33851">
        <ele>-14.751318</ele>
        <time>2022-04-02T09:47:05.000Z</time>
      </trkpt>
      <trkpt lat="39.42996" lon="-0.33842">
        <ele>-14.710158</ele>
        <time>2022-04-02T09:47:07.000Z</time>
      </trkpt>
      <trkpt lat="39.42991" lon="-0.33824">
        <ele>-14.621276</ele>
        <time>2022-04-02T09:47:11.000Z</time>
      </trkpt>
      <trkpt lat="39.42986" lon="-0.33815">
        <ele>-14.569245</ele>
        <time>2022-04-02T09:47:13.000Z</time>
      </trkpt>
      <trkpt lat="39.42978" lon="-0.33808">
        <ele>-14.513022</ele>
        <time>2022-04-02T09:47:15.000Z</time>
      </trkpt>
      <trkpt lat="39.42968" lon="-0.33803">
        <ele>-14.451112</ele>
        <time>2022-04-02T09:47:17.000Z</time>
      </trkpt>
      <trkpt lat="39.42964" lon="-0.33801">
        <ele>-14.419978</ele>
        <time>2022-04-02T09:47:18.000Z</time>
      </trkpt>
      <trkpt lat="39.42953" lon="-0.33799">
        <ele>-14.357443</ele>
        <time>2022-04-02T09:47:20.000Z</time>
      </trkpt>
      <trkpt lat="39.42943" lon="-0.33799">
        <ele>-14.29408</ele>
        <time>2022-04-02T09:47:22.000Z</time>
      </trkpt>
      <trkpt lat="39.42924" lon="-0.33805">
        <ele>-14.180065</ele>
        <time>2022-04-02T09:47:26.000Z</time>
      </trkpt>
      <trkpt lat="39.42917" lon="-0.33811">
        <ele>-14.074265</ele>
        <time>2022-04-02T09:47:28.000Z</time>
      </trkpt>
      <trkpt lat="39.42913" lon="-0.33817">
        <ele>-13.92992</ele>
        <time>2022-04-02T09:47:30.000Z</time>
      </trkpt>
      <trkpt lat="39.42912" lon="-0.33819">
        <ele>-13.901839</ele>
        <time>2022-04-02T09:47:31.000Z</time>
      </trkpt>
      <trkpt lat="39.42912" lon="-0.3382">
        <ele>-13.886554</ele>
        <time>2022-04-02T09:47:34.000Z</time>
      </trkpt>
      <trkpt lat="39.42912" lon="-0.3382">
        <ele>-13.876241</ele>
        <time>2022-04-02T09:47:35.000Z</time>
      </trkpt>
      <trkpt lat="39.42912" lon="-0.3382">
        <ele>-13.876241</ele>
        <time>2022-04-02T09:47:36.000Z</time>
      </trkpt>
      <trkpt lat="39.42912" lon="-0.3382">
        <ele>-13.876241</ele>
        <time>2022-04-02T09:47:41.000Z</time>
      </trkpt>
      <trkpt lat="39.42912" lon="-0.3382">
        <ele>-13.876241</ele>
        <time>2022-04-02T09:47:45.000Z</time>
      </trkpt>
      <trkpt lat="39.42912" lon="-0.3382">
        <ele>-13.876241</ele>
        <time>2022-04-02T09:48:02.000Z</time>
      </trkpt>
      <trkpt lat="39.42912" lon="-0.3382">
        <ele>-13.872146</ele>
        <time>2022-04-02T09:48:08.000Z</time>
      </trkpt>
      <trkpt lat="39.4291" lon="-0.33825">
        <ele>-13.778153</ele>
        <time>2022-04-02T09:48:10.000Z</time>
      </trkpt>
      <trkpt lat="39.42909" lon="-0.33828">
        <ele>-13.717224</ele>
        <time>2022-04-02T09:48:11.000Z</time>
      </trkpt>
      <trkpt lat="39.42909" lon="-0.3384">
        <ele>-13.517793</ele>
        <time>2022-04-02T09:48:14.000Z</time>
      </trkpt>
      <trkpt lat="39.42909" lon="-0.33848">
        <ele>-13.375132</ele>
        <time>2022-04-02T09:48:16.000Z</time>
      </trkpt>
      <trkpt lat="39.42911" lon="-0.33876">
        <ele>-12.898861</ele>
        <time>2022-04-02T09:48:23.000Z</time>
      </trkpt>
      <trkpt lat="39.42907" lon="-0.33895">
        <ele>-12.559267</ele>
        <time>2022-04-02T09:48:27.000Z</time>
      </trkpt>
      <trkpt lat="39.42896" lon="-0.33901">
        <ele>-12.29496</ele>
        <time>2022-04-02T09:48:30.000Z</time>
      </trkpt>
      <trkpt lat="39.42892" lon="-0.33903">
        <ele>-12.207499</ele>
        <time>2022-04-02T09:48:31.000Z</time>
      </trkpt>
      <trkpt lat="39.42872" lon="-0.33907">
        <ele>-11.744812</ele>
        <time>2022-04-02T09:48:36.000Z</time>
      </trkpt>
      <trkpt lat="39.42865" lon="-0.33907">
        <ele>-11.582224</ele>
        <time>2022-04-02T09:48:38.000Z</time>
      </trkpt>
      <trkpt lat="39.4286" lon="-0.33907">
        <ele>-11.470842</ele>
        <time>2022-04-02T09:48:39.000Z</time>
      </trkpt>
      <trkpt lat="39.42852" lon="-0.33907">
        <ele>-11.29269</ele>
        <time>2022-04-02T09:48:41.000Z</time>
      </trkpt>
      <trkpt lat="39.42839" lon="-0.33909">
        <ele>-11.004477</ele>
        <time>2022-04-02T09:48:44.000Z</time>
      </trkpt>
      <trkpt lat="39.42835" lon="-0.3391">
        <ele>-10.914658</ele>
        <time>2022-04-02T09:48:45.000Z</time>
      </trkpt>
      <trkpt lat="39.42813" lon="-0.33917">
        <ele>-10.410908</ele>
        <time>2022-04-02T09:48:51.000Z</time>
      </trkpt>
      <trkpt lat="39.42805" lon="-0.33922">
        <ele>-10.218155</ele>
        <time>2022-04-02T09:48:53.000Z</time>
      </trkpt>
      <trkpt lat="39.42767" lon="-0.33945">
        <ele>-10.298098</ele>
        <time>2022-04-02T09:49:04.000Z</time>
      </trkpt>
      <trkpt lat="39.42757" lon="-0.3395">
        <ele>-10.340668</ele>
        <time>2022-04-02T09:49:07.000Z</time>
      </trkpt>
      <trkpt lat="39.42738" lon="-0.33961">
        <ele>-10.422914</ele>
        <time>2022-04-02T09:49:12.000Z</time>
      </trkpt>
      <trkpt lat="39.42734" lon="-0.33963">
        <ele>-10.437888</ele>
        <time>2022-04-02T09:49:13.000Z</time>
      </trkpt>
      <trkpt lat="39.42724" lon="-0.33969">
        <ele>-10.481055</ele>
        <time>2022-04-02T09:49:16.000Z</time>
      </trkpt>
      <trkpt lat="39.4272" lon="-0.33971">
        <ele>-10.499749</ele>
        <time>2022-04-02T09:49:17.000Z</time>
      </trkpt>
      <trkpt lat="39.42713" lon="-0.33975">
        <ele>-10.528816</ele>
        <time>2022-04-02T09:49:19.000Z</time>
      </trkpt>
      <trkpt lat="39.42709" lon="-0.33977">
        <ele>-10.545215</ele>
        <time>2022-04-02T09:49:20.000Z</time>
      </trkpt>
      <trkpt lat="39.42701" lon="-0.33983">
        <ele>-10.58287</ele>
        <time>2022-04-02T09:49:22.000Z</time>
      </trkpt>
      <trkpt lat="39.42681" lon="-0.33995">
        <ele>-10.670555</ele>
        <time>2022-04-02T09:49:27.000Z</time>
      </trkpt>
      <trkpt lat="39.42677" lon="-0.33997">
        <ele>-10.686833</ele>
        <time>2022-04-02T09:49:28.000Z</time>
      </trkpt>
      <trkpt lat="39.42668" lon="-0.34002">
        <ele>-10.722898</ele>
        <time>2022-04-02T09:49:30.000Z</time>
      </trkpt>
      <trkpt lat="39.4266" lon="-0.34007">
        <ele>-10.757895</ele>
        <time>2022-04-02T09:49:32.000Z</time>
      </trkpt>
      <trkpt lat="39.42644" lon="-0.34017">
        <ele>-10.828085</ele>
        <time>2022-04-02T09:49:36.000Z</time>
      </trkpt>
      <trkpt lat="39.42632" lon="-0.34024">
        <ele>-10.999847</ele>
        <time>2022-04-02T09:49:39.000Z</time>
      </trkpt>
      <trkpt lat="39.42625" lon="-0.34028">
        <ele>-11.192958</ele>
        <time>2022-04-02T09:49:41.000Z</time>
      </trkpt>
      <trkpt lat="39.42617" lon="-0.34033">
        <ele>-11.38402</ele>
        <time>2022-04-02T09:49:43.000Z</time>
      </trkpt>
      <trkpt lat="39.42608" lon="-0.34036">
        <ele>-11.597353</ele>
        <time>2022-04-02T09:49:45.000Z</time>
      </trkpt>
      <trkpt lat="39.42603" lon="-0.34036">
        <ele>-11.714627</ele>
        <time>2022-04-02T09:49:46.000Z</time>
      </trkpt>
      <trkpt lat="39.42597" lon="-0.34035">
        <ele>-11.846455</ele>
        <time>2022-04-02T09:49:47.000Z</time>
      </trkpt>
      <trkpt lat="39.42586" lon="-0.34027">
        <ele>-12.126216</ele>
        <time>2022-04-02T09:49:49.000Z</time>
      </trkpt>
      <trkpt lat="39.42578" lon="-0.34006">
        <ele>-12.540874</ele>
        <time>2022-04-02T09:49:52.000Z</time>
      </trkpt>
      <trkpt lat="39.42574" lon="-0.33983">
        <ele>-12.94143</ele>
        <time>2022-04-02T09:49:55.000Z</time>
      </trkpt>
      <trkpt lat="39.42569" lon="-0.33955">
        <ele>-13.449388</ele>
        <time>2022-04-02T09:49:59.000Z</time>
      </trkpt>
      <trkpt lat="39.42569" lon="-0.33947">
        <ele>-13.58196</ele>
        <time>2022-04-02T09:50:00.000Z</time>
      </trkpt>
      <trkpt lat="39.42569" lon="-0.33932">
        <ele>-13.837879</ele>
        <time>2022-04-02T09:50:02.000Z</time>
      </trkpt>
      <trkpt lat="39.42567" lon="-0.33893">
        <ele>-14.532801</ele>
        <time>2022-04-02T09:50:08.000Z</time>
      </trkpt>
      <trkpt lat="39.42566" lon="-0.33886">
        <ele>-14.648563</ele>
        <time>2022-04-02T09:50:09.000Z</time>
      </trkpt>
      <trkpt lat="39.42559" lon="-0.33868">
        <ele>-14.92741</ele>
        <time>2022-04-02T09:50:12.000Z</time>
      </trkpt>
      <trkpt lat="39.42555" lon="-0.33861">
        <ele>-14.955823</ele>
        <time>2022-04-02T09:50:13.000Z</time>
      </trkpt>
      <trkpt lat="39.42542" lon="-0.33841">
        <ele>-15.050593</ele>
        <time>2022-04-02T09:50:16.000Z</time>
      </trkpt>
      <trkpt lat="39.42523" lon="-0.33787">
        <ele>-15.26697</ele>
        <time>2022-04-02T09:50:24.000Z</time>
      </trkpt>
      <trkpt lat="39.42508" lon="-0.33745">
        <ele>-15.434844</ele>
        <time>2022-04-02T09:50:30.000Z</time>
      </trkpt>
      <trkpt lat="39.42503" lon="-0.33731">
        <ele>-15.491635</ele>
        <time>2022-04-02T09:50:32.000Z</time>
      </trkpt>
      <trkpt lat="39.42501" lon="-0.33725">
        <ele>-15.514339</ele>
        <time>2022-04-02T09:50:33.000Z</time>
      </trkpt>
      <trkpt lat="39.4248" lon="-0.33668">
        <ele>-15.744872</ele>
        <time>2022-04-02T09:50:41.000Z</time>
      </trkpt>
      <trkpt lat="39.42471" lon="-0.33641">
        <ele>-15.950115</ele>
        <time>2022-04-02T09:50:45.000Z</time>
      </trkpt>
      <trkpt lat="39.42466" lon="-0.33629">
        <ele>-16.050289</ele>
        <time>2022-04-02T09:50:47.000Z</time>
      </trkpt>
      <trkpt lat="39.42451" lon="-0.33584">
        <ele>-16.400516</ele>
        <time>2022-04-02T09:50:54.000Z</time>
      </trkpt>
      <trkpt lat="39.42439" lon="-0.3355">
        <ele>-16.670175</ele>
        <time>2022-04-02T09:51:00.000Z</time>
      </trkpt>
      <trkpt lat="39.42439" lon="-0.33546">
        <ele>-16.699251</ele>
        <time>2022-04-02T09:51:01.000Z</time>
      </trkpt>
      <trkpt lat="39.42434" lon="-0.33542">
        <ele>-16.75038</ele>
        <time>2022-04-02T09:51:05.000Z</time>
      </trkpt>
      <trkpt lat="39.42423" lon="-0.33543">
        <ele>-16.853636</ele>
        <time>2022-04-02T09:51:10.000Z</time>
      </trkpt>
      <trkpt lat="39.42421" lon="-0.33541">
        <ele>-16.884729</ele>
        <time>2022-04-02T09:51:11.000Z</time>
      </trkpt>
      <trkpt lat="39.42415" lon="-0.33527">
        <ele>-16.990857</ele>
        <time>2022-04-02T09:51:14.000Z</time>
      </trkpt>
      <trkpt lat="39.42399" lon="-0.33493">
        <ele>-17.281654</ele>
        <time>2022-04-02T09:51:21.000Z</time>
      </trkpt>
      <trkpt lat="39.42394" lon="-0.33488">
        <ele>-17.343688</ele>
        <time>2022-04-02T09:51:23.000Z</time>
      </trkpt>
      <trkpt lat="39.4239" lon="-0.33487">
        <ele>-17.378193</ele>
        <time>2022-04-02T09:51:24.000Z</time>
      </trkpt>
      <trkpt lat="39.42361" lon="-0.33479">
        <ele>-17.581108</ele>
        <time>2022-04-02T09:51:31.000Z</time>
      </trkpt>
      <trkpt lat="39.42332" lon="-0.3347">
        <ele>-17.763371</ele>
        <time>2022-04-02T09:51:37.000Z</time>
      </trkpt>
      <trkpt lat="39.42328" lon="-0.33468">
        <ele>-17.794423</ele>
        <time>2022-04-02T09:51:38.000Z</time>
      </trkpt>
      <trkpt lat="39.42291" lon="-0.33458">
        <ele>-18.026041</ele>
        <time>2022-04-02T09:51:45.000Z</time>
      </trkpt>
      <trkpt lat="39.42281" lon="-0.33455">
        <ele>-18.092145</ele>
        <time>2022-04-02T09:51:47.000Z</time>
      </trkpt>
      <trkpt lat="39.42266" lon="-0.33451">
        <ele>-18.188524</ele>
        <time>2022-04-02T09:51:50.000Z</time>
      </trkpt>
      <trkpt lat="39.42234" lon="-0.33442">
        <ele>-18.386937</ele>
        <time>2022-04-02T09:51:56.000Z</time>
      </trkpt>
      <trkpt lat="39.42229" lon="-0.3344">
        <ele>-18.422072</ele>
        <time>2022-04-02T09:51:57.000Z</time>
      </trkpt>
      <trkpt lat="39.42213" lon="-0.33435">
        <ele>-18.522535</ele>
        <time>2022-04-02T09:52:00.000Z</time>
      </trkpt>
      <trkpt lat="39.42187" lon="-0.33428">
        <ele>-18.701235</ele>
        <time>2022-04-02T09:52:05.000Z</time>
      </trkpt>
      <trkpt lat="39.42171" lon="-0.33424">
        <ele>-18.811111</ele>
        <time>2022-04-02T09:52:08.000Z</time>
      </trkpt>
      <trkpt lat="39.42145" lon="-0.3342">
        <ele>-18.981955</ele>
        <time>2022-04-02T09:52:13.000Z</time>
      </trkpt>
      <trkpt lat="39.42136" lon="-0.33418">
        <ele>-19.043045</ele>
        <time>2022-04-02T09:52:15.000Z</time>
      </trkpt>
      <trkpt lat="39.42132" lon="-0.33417">
        <ele>-19.074339</ele>
        <time>2022-04-02T09:52:16.000Z</time>
      </trkpt>
      <trkpt lat="39.42115" lon="-0.33412">
        <ele>-19.190741</ele>
        <time>2022-04-02T09:52:20.000Z</time>
      </trkpt>
      <trkpt lat="39.42098" lon="-0.33408">
        <ele>-19.305769</ele>
        <time>2022-04-02T09:52:24.000Z</time>
      </trkpt>
      <trkpt lat="39.42073" lon="-0.33402">
        <ele>-19.474551</ele>
        <time>2022-04-02T09:52:30.000Z</time>
      </trkpt>
      <trkpt lat="39.42067" lon="-0.33401">
        <ele>-19.518231</ele>
        <time>2022-04-02T09:52:32.000Z</time>
      </trkpt>
      <trkpt lat="39.42057" lon="-0.33402">
        <ele>-19.58192</ele>
        <time>2022-04-02T09:52:35.000Z</time>
      </trkpt>
      <trkpt lat="39.4205" lon="-0.33406">
        <ele>-19.630244</ele>
        <time>2022-04-02T09:52:37.000Z</time>
      </trkpt>
      <trkpt lat="39.42018" lon="-0.33424">
        <ele>-20.195193</ele>
        <time>2022-04-02T09:52:46.000Z</time>
      </trkpt>
      <trkpt lat="39.42001" lon="-0.3343">
        <ele>-20.620684</ele>
        <time>2022-04-02T09:52:50.000Z</time>
      </trkpt>
      <trkpt lat="39.41992" lon="-0.33431">
        <ele>-20.837988</ele>
        <time>2022-04-02T09:52:52.000Z</time>
      </trkpt>
      <trkpt lat="39.41988" lon="-0.33431">
        <ele>-20.944951</ele>
        <time>2022-04-02T09:52:53.000Z</time>
      </trkpt>
      <trkpt lat="39.41966" lon="-0.33431">
        <ele>-21.496876</ele>
        <time>2022-04-02T09:52:58.000Z</time>
      </trkpt>
      <trkpt lat="39.41952" lon="-0.33432">
        <ele>-21.835227</ele>
        <time>2022-04-02T09:53:02.000Z</time>
      </trkpt>
      <trkpt lat="39.41952" lon="-0.33432">
        <ele>-21.849838</ele>
        <time>2022-04-02T09:53:05.000Z</time>
      </trkpt>
      <trkpt lat="39.41951" lon="-0.33433">
        <ele>-21.865545</ele>
        <time>2022-04-02T09:53:06.000Z</time>
      </trkpt>
      <trkpt lat="39.41951" lon="-0.33433">
        <ele>-21.886864</ele>
        <time>2022-04-02T09:53:07.000Z</time>
      </trkpt>
      <trkpt lat="39.41951" lon="-0.33433">
        <ele>-21.90178</ele>
        <time>2022-04-02T09:53:11.000Z</time>
      </trkpt>
      <trkpt lat="39.41951" lon="-0.33433">
        <ele>-21.909237</ele>
        <time>2022-04-02T09:53:16.000Z</time>
      </trkpt>
      <trkpt lat="39.41951" lon="-0.33433">
        <ele>-21.909237</ele>
        <time>2022-04-02T09:53:18.000Z</time>
      </trkpt>
      <trkpt lat="39.41952" lon="-0.33433">
        <ele>-21.915512</ele>
        <time>2022-04-02T09:53:19.000Z</time>
      </trkpt>
      <trkpt lat="39.41952" lon="-0.33438">
        <ele>-22.008891</ele>
        <time>2022-04-02T09:53:22.000Z</time>
      </trkpt>
      <trkpt lat="39.41951" lon="-0.3344">
        <ele>-22.040916</ele>
        <time>2022-04-02T09:53:23.000Z</time>
      </trkpt>
      <trkpt lat="39.41951" lon="-0.3344">
        <ele>-22.061787</ele>
        <time>2022-04-02T09:53:24.000Z</time>
      </trkpt>
      <trkpt lat="39.4195" lon="-0.3344">
        <ele>-22.085442</ele>
        <time>2022-04-02T09:53:25.000Z</time>
      </trkpt>
      <trkpt lat="39.41949" lon="-0.33439">
        <ele>-22.100053</ele>
        <time>2022-04-02T09:53:26.000Z</time>
      </trkpt>
      <trkpt lat="39.41949" lon="-0.33439">
        <ele>-22.116831</ele>
        <time>2022-04-02T09:53:27.000Z</time>
      </trkpt>
      <trkpt lat="39.41947" lon="-0.33438">
        <ele>-22.173149</ele>
        <time>2022-04-02T09:53:30.000Z</time>
      </trkpt>
      <trkpt lat="39.41946" lon="-0.33438">
        <ele>-22.183092</ele>
        <time>2022-04-02T09:53:34.000Z</time>
      </trkpt>
      <trkpt lat="39.41946" lon="-0.33438">
        <ele>-22.183092</ele>
        <time>2022-04-02T09:53:37.000Z</time>
      </trkpt>
      <trkpt lat="39.41946" lon="-0.33438">
        <ele>-22.183092</ele>
        <time>2022-04-02T09:53:43.000Z</time>
      </trkpt>
      <trkpt lat="39.41946" lon="-0.33438">
        <ele>-22.183092</ele>
        <time>2022-04-02T09:53:44.000Z</time>
      </trkpt>
      <trkpt lat="39.41946" lon="-0.33438">
        <ele>-22.183092</ele>
        <time>2022-04-02T09:53:48.000Z</time>
      </trkpt>
      <trkpt lat="39.41948" lon="-0.33437">
        <ele>-22.23513</ele>
        <time>2022-04-02T09:53:53.000Z</time>
      </trkpt>
      <trkpt lat="39.41948" lon="-0.33437">
        <ele>-22.23513</ele>
        <time>2022-04-02T09:53:56.000Z</time>
      </trkpt>
      <trkpt lat="39.41948" lon="-0.33437">
        <ele>-22.23513</ele>
        <time>2022-04-02T09:53:57.000Z</time>
      </trkpt>
      <trkpt lat="39.41948" lon="-0.33437">
        <ele>-22.23513</ele>
        <time>2022-04-02T09:53:59.000Z</time>
      </trkpt>
      <trkpt lat="39.41948" lon="-0.33437">
        <ele>-22.23513</ele>
        <time>2022-04-02T09:54:00.000Z</time>
      </trkpt>
      <trkpt lat="39.41948" lon="-0.33437">
        <ele>-22.245943</ele>
        <time>2022-04-02T09:54:06.000Z</time>
      </trkpt>
      <trkpt lat="39.41948" lon="-0.33437">
        <ele>-22.248429</ele>
        <time>2022-04-02T09:54:10.000Z</time>
      </trkpt>
      <trkpt lat="39.41948" lon="-0.33437">
        <ele>-22.268684</ele>
        <time>2022-04-02T09:54:11.000Z</time>
      </trkpt>
      <trkpt lat="39.41947" lon="-0.33437">
        <ele>-22.283722</ele>
        <time>2022-04-02T09:54:14.000Z</time>
      </trkpt>
      <trkpt lat="39.41947" lon="-0.33437">
        <ele>-22.286208</ele>
        <time>2022-04-02T09:54:20.000Z</time>
      </trkpt>
      <trkpt lat="39.41946" lon="-0.33437">
        <ele>-22.314612</ele>
        <time>2022-04-02T09:54:31.000Z</time>
      </trkpt>
      <trkpt lat="39.41946" lon="-0.33437">
        <ele>-22.314612</ele>
        <time>2022-04-02T09:54:38.000Z</time>
      </trkpt>
      <trkpt lat="39.41946" lon="-0.33437">
        <ele>-22.314612</ele>
        <time>2022-04-02T09:54:41.000Z</time>
      </trkpt>
      <trkpt lat="39.41946" lon="-0.33436">
        <ele>-22.326134</ele>
        <time>2022-04-02T09:54:45.000Z</time>
      </trkpt>
      <trkpt lat="39.41946" lon="-0.33436">
        <ele>-22.326134</ele>
        <time>2022-04-02T09:54:47.000Z</time>
      </trkpt>
      <trkpt lat="39.41946" lon="-0.33436">
        <ele>-22.326134</ele>
        <time>2022-04-02T09:54:50.000Z</time>
      </trkpt>
      <trkpt lat="39.41946" lon="-0.33436">
        <ele>-22.326134</ele>
        <time>2022-04-02T09:54:52.000Z</time>
      </trkpt>
      <trkpt lat="39.41946" lon="-0.33436">
        <ele>-22.328054</ele>
        <time>2022-04-02T09:55:03.000Z</time>
      </trkpt>
      <trkpt lat="39.41946" lon="-0.33436">
        <ele>-22.340212</ele>
        <time>2022-04-02T09:55:29.000Z</time>
      </trkpt>
      <trkpt lat="39.41946" lon="-0.33436">
        <ele>-22.340212</ele>
        <time>2022-04-02T09:55:38.000Z</time>
      </trkpt>
      <trkpt lat="39.41936" lon="-0.33473">
        <ele>-23.10388</ele>
        <time>2022-04-02T10:11:00.000Z</time>
      </trkpt>
      <trkpt lat="39.41946" lon="-0.33439">
        <ele>-23.815121</ele>
        <time>2022-04-02T10:16:00.000Z</time>
      </trkpt>
      <trkpt lat="39.41946" lon="-0.33439">
        <ele>-23.815121</ele>
        <time>2022-04-02T10:16:01.000Z</time>
      </trkpt>
      <trkpt lat="39.41946" lon="-0.33438">
        <ele>-23.82767</ele>
        <time>2022-04-02T10:16:08.000Z</time>
      </trkpt>
      <trkpt lat="39.41946" lon="-0.33438">
        <ele>-23.835352</ele>
        <time>2022-04-02T10:16:16.000Z</time>
      </trkpt>
      <trkpt lat="39.41947" lon="-0.33437">
        <ele>-23.872944</ele>
        <time>2022-04-02T10:16:21.000Z</time>
      </trkpt>
      <trkpt lat="39.41949" lon="-0.33436">
        <ele>-23.912694</ele>
        <time>2022-04-02T10:16:24.000Z</time>
      </trkpt>
      <trkpt lat="39.4195" lon="-0.33435">
        <ele>-23.937627</ele>
        <time>2022-04-02T10:16:42.000Z</time>
      </trkpt>
      <trkpt lat="39.4195" lon="-0.33436">
        <ele>-23.942957</ele>
        <time>2022-04-02T10:16:46.000Z</time>
      </trkpt>
      <trkpt lat="39.41953" lon="-0.3344">
        <ele>-24.05313</ele>
        <time>2022-04-02T10:16:50.000Z</time>
      </trkpt>
      <trkpt lat="39.41955" lon="-0.33438">
        <ele>-24.119097</ele>
        <time>2022-04-02T10:16:54.000Z</time>
      </trkpt>
      <trkpt lat="39.41954" lon="-0.33435">
        <ele>-24.165216</ele>
        <time>2022-04-02T10:16:56.000Z</time>
      </trkpt>
      <trkpt lat="39.41953" lon="-0.33433">
        <ele>-24.216896</ele>
        <time>2022-04-02T10:16:58.000Z</time>
      </trkpt>
      <trkpt lat="39.41949" lon="-0.33432">
        <ele>-24.22846</ele>
        <time>2022-04-02T10:17:02.000Z</time>
      </trkpt>
      <trkpt lat="39.41946" lon="-0.33432">
        <ele>-24.233544</ele>
        <time>2022-04-02T10:17:03.000Z</time>
      </trkpt>
      <trkpt lat="39.4194" lon="-0.33432">
        <ele>-24.246217</ele>
        <time>2022-04-02T10:17:05.000Z</time>
      </trkpt>
      <trkpt lat="39.41936" lon="-0.33433">
        <ele>-24.253429</ele>
        <time>2022-04-02T10:17:06.000Z</time>
      </trkpt>
      <trkpt lat="39.41928" lon="-0.33432">
        <ele>-24.268817</ele>
        <time>2022-04-02T10:17:08.000Z</time>
      </trkpt>
      <trkpt lat="39.41914" lon="-0.33433">
        <ele>-24.295734</ele>
        <time>2022-04-02T10:17:11.000Z</time>
      </trkpt>
      <trkpt lat="39.41904" lon="-0.33434">
        <ele>-24.315406</ele>
        <time>2022-04-02T10:17:13.000Z</time>
      </trkpt>
      <trkpt lat="39.41874" lon="-0.33437">
        <ele>-24.374417</ele>
        <time>2022-04-02T10:17:19.000Z</time>
      </trkpt>
      <trkpt lat="39.41869" lon="-0.33439">
        <ele>-24.384469</ele>
        <time>2022-04-02T10:17:20.000Z</time>
      </trkpt>
      <trkpt lat="39.4186" lon="-0.33445">
        <ele>-24.404254</ele>
        <time>2022-04-02T10:17:22.000Z</time>
      </trkpt>
      <trkpt lat="39.41845" lon="-0.33453">
        <ele>-24.435388</ele>
        <time>2022-04-02T10:17:25.000Z</time>
      </trkpt>
      <trkpt lat="39.4184" lon="-0.33453">
        <ele>-24.445376</ele>
        <time>2022-04-02T10:17:26.000Z</time>
      </trkpt>
      <trkpt lat="39.41804" lon="-0.33454">
        <ele>-24.514522</ele>
        <time>2022-04-02T10:17:34.000Z</time>
      </trkpt>
      <trkpt lat="39.41782" lon="-0.33465">
        <ele>-24.561622</ele>
        <time>2022-04-02T10:17:40.000Z</time>
      </trkpt>
      <trkpt lat="39.41762" lon="-0.33463">
        <ele>-24.517706</ele>
        <time>2022-04-02T10:17:45.000Z</time>
      </trkpt>
      <trkpt lat="39.41754" lon="-0.33461">
        <ele>-24.489802</ele>
        <time>2022-04-02T10:17:47.000Z</time>
      </trkpt>
      <trkpt lat="39.41737" lon="-0.33456">
        <ele>-24.432308</ele>
        <time>2022-04-02T10:17:51.000Z</time>
      </trkpt>
      <trkpt lat="39.41731" lon="-0.33449">
        <ele>-24.403783</ele>
        <time>2022-04-02T10:17:53.000Z</time>
      </trkpt>
      <trkpt lat="39.41722" lon="-0.33436">
        <ele>-24.358647</ele>
        <time>2022-04-02T10:17:56.000Z</time>
      </trkpt>
      <trkpt lat="39.41716" lon="-0.3343">
        <ele>-24.330405</ele>
        <time>2022-04-02T10:17:58.000Z</time>
      </trkpt>
      <trkpt lat="39.41706" lon="-0.33425">
        <ele>-24.294059</ele>
        <time>2022-04-02T10:18:00.000Z</time>
      </trkpt>
      <trkpt lat="39.41686" lon="-0.33419">
        <ele>-24.224082</ele>
        <time>2022-04-02T10:18:04.000Z</time>
      </trkpt>
      <trkpt lat="39.41635" lon="-0.33403">
        <ele>-24.043843</ele>
        <time>2022-04-02T10:18:14.000Z</time>
      </trkpt>
      <trkpt lat="39.4163" lon="-0.33402">
        <ele>-24.026516</ele>
        <time>2022-04-02T10:18:15.000Z</time>
      </trkpt>
      <trkpt lat="39.41611" lon="-0.33405">
        <ele>-23.962256</ele>
        <time>2022-04-02T10:18:19.000Z</time>
      </trkpt>
      <trkpt lat="39.41606" lon="-0.33406">
        <ele>-23.950022</ele>
        <time>2022-04-02T10:18:20.000Z</time>
      </trkpt>
      <trkpt lat="39.41602" lon="-0.33407">
        <ele>-23.940994</ele>
        <time>2022-04-02T10:18:21.000Z</time>
      </trkpt>
      <trkpt lat="39.41589" lon="-0.33403">
        <ele>-23.915469</ele>
        <time>2022-04-02T10:18:24.000Z</time>
      </trkpt>
      <trkpt lat="39.41555" lon="-0.33391">
        <ele>-23.844282</ele>
        <time>2022-04-02T10:18:32.000Z</time>
      </trkpt>
      <trkpt lat="39.41547" lon="-0.33384">
        <ele>-23.825678</ele>
        <time>2022-04-02T10:18:34.000Z</time>
      </trkpt>
      <trkpt lat="39.41542" lon="-0.33377">
        <ele>-23.810344</ele>
        <time>2022-04-02T10:18:36.000Z</time>
      </trkpt>
      <trkpt lat="39.41538" lon="-0.33373">
        <ele>-23.800316</ele>
        <time>2022-04-02T10:18:37.000Z</time>
      </trkpt>
      <trkpt lat="39.41531" lon="-0.33367">
        <ele>-23.782217</ele>
        <time>2022-04-02T10:18:39.000Z</time>
      </trkpt>
      <trkpt lat="39.41516" lon="-0.33359">
        <ele>-23.750288</ele>
        <time>2022-04-02T10:18:42.000Z</time>
      </trkpt>
      <trkpt lat="39.41484" lon="-0.33346">
        <ele>-23.683162</ele>
        <time>2022-04-02T10:18:48.000Z</time>
      </trkpt>
      <trkpt lat="39.41473" lon="-0.33341">
        <ele>-23.661283</ele>
        <time>2022-04-02T10:18:50.000Z</time>
      </trkpt>
      <trkpt lat="39.41445" lon="-0.33325">
        <ele>-23.599341</ele>
        <time>2022-04-02T10:18:56.000Z</time>
      </trkpt>
      <trkpt lat="39.41435" lon="-0.33319">
        <ele>-23.565069</ele>
        <time>2022-04-02T10:18:58.000Z</time>
      </trkpt>
      <trkpt lat="39.41415" lon="-0.33309">
        <ele>-23.490481</ele>
        <time>2022-04-02T10:19:02.000Z</time>
      </trkpt>
      <trkpt lat="39.414" lon="-0.33302">
        <ele>-23.437333</ele>
        <time>2022-04-02T10:19:05.000Z</time>
      </trkpt>
      <trkpt lat="39.41395" lon="-0.33302">
        <ele>-23.420419</ele>
        <time>2022-04-02T10:19:06.000Z</time>
      </trkpt>
      <trkpt lat="39.4137" lon="-0.33305">
        <ele>-23.333062</ele>
        <time>2022-04-02T10:19:11.000Z</time>
      </trkpt>
      <trkpt lat="39.41365" lon="-0.33306">
        <ele>-23.314783</ele>
        <time>2022-04-02T10:19:13.000Z</time>
      </trkpt>
      <trkpt lat="39.4131" lon="-0.33316">
        <ele>-23.125584</ele>
        <time>2022-04-02T10:19:23.000Z</time>
      </trkpt>
      <trkpt lat="39.413" lon="-0.33325">
        <ele>-23.083526</ele>
        <time>2022-04-02T10:19:26.000Z</time>
      </trkpt>
      <trkpt lat="39.41296" lon="-0.33326">
        <ele>-23.068645</ele>
        <time>2022-04-02T10:19:27.000Z</time>
      </trkpt>
      <trkpt lat="39.41292" lon="-0.33326">
        <ele>-23.054174</ele>
        <time>2022-04-02T10:19:28.000Z</time>
      </trkpt>
      <trkpt lat="39.41279" lon="-0.33322">
        <ele>-23.008662</ele>
        <time>2022-04-02T10:19:31.000Z</time>
      </trkpt>
      <trkpt lat="39.41274" lon="-0.33321">
        <ele>-22.991599</ele>
        <time>2022-04-02T10:19:32.000Z</time>
      </trkpt>
      <trkpt lat="39.41242" lon="-0.33315">
        <ele>-22.911063</ele>
        <time>2022-04-02T10:19:38.000Z</time>
      </trkpt>
      <trkpt lat="39.4121" lon="-0.3331">
        <ele>-22.830931</ele>
        <time>2022-04-02T10:19:45.000Z</time>
      </trkpt>
      <trkpt lat="39.41199" lon="-0.33309">
        <ele>-22.804148</ele>
        <time>2022-04-02T10:19:46.000Z</time>
      </trkpt>
      <trkpt lat="39.41193" lon="-0.3331">
        <ele>-22.790223</ele>
        <time>2022-04-02T10:19:48.000Z</time>
      </trkpt>
      <trkpt lat="39.41177" lon="-0.33315">
        <ele>-22.7493</ele>
        <time>2022-04-02T10:19:51.000Z</time>
      </trkpt>
      <trkpt lat="39.41167" lon="-0.3332">
        <ele>-22.724106</ele>
        <time>2022-04-02T10:19:52.000Z</time>
      </trkpt>
      <trkpt lat="39.41152" lon="-0.3333">
        <ele>-22.684326</ele>
        <time>2022-04-02T10:19:55.000Z</time>
      </trkpt>
      <trkpt lat="39.41137" lon="-0.33335">
        <ele>-22.646987</ele>
        <time>2022-04-02T10:19:58.000Z</time>
      </trkpt>
      <trkpt lat="39.41125" lon="-0.33334">
        <ele>-22.616084</ele>
        <time>2022-04-02T10:20:00.000Z</time>
      </trkpt>
      <trkpt lat="39.41096" lon="-0.33328">
        <ele>-22.545443</ele>
        <time>2022-04-02T10:20:05.000Z</time>
      </trkpt>
      <trkpt lat="39.4109" lon="-0.33327">
        <ele>-22.537676</ele>
        <time>2022-04-02T10:20:06.000Z</time>
      </trkpt>
      <trkpt lat="39.41079" lon="-0.33324">
        <ele>-22.52702</ele>
        <time>2022-04-02T10:20:09.000Z</time>
      </trkpt>
      <trkpt lat="39.41056" lon="-0.3332">
        <ele>-22.505127</ele>
        <time>2022-04-02T10:20:12.000Z</time>
      </trkpt>
      <trkpt lat="39.41021" lon="-0.33313">
        <ele>-22.471569</ele>
        <time>2022-04-02T10:20:18.000Z</time>
      </trkpt>
      <trkpt lat="39.40973" lon="-0.33303">
        <ele>-22.426005</ele>
        <time>2022-04-02T10:20:26.000Z</time>
      </trkpt>
      <trkpt lat="39.40956" lon="-0.333">
        <ele>-22.409049</ele>
        <time>2022-04-02T10:20:29.000Z</time>
      </trkpt>
      <trkpt lat="39.40938" lon="-0.33297">
        <ele>-22.391762</ele>
        <time>2022-04-02T10:20:32.000Z</time>
      </trkpt>
      <trkpt lat="39.4092" lon="-0.33293">
        <ele>-22.375326</ele>
        <time>2022-04-02T10:20:35.000Z</time>
      </trkpt>
      <trkpt lat="39.4087" lon="-0.33283">
        <ele>-22.297428</ele>
        <time>2022-04-02T10:20:44.000Z</time>
      </trkpt>
      <trkpt lat="39.40833" lon="-0.33277">
        <ele>-22.238777</ele>
        <time>2022-04-02T10:20:51.000Z</time>
      </trkpt>
      <trkpt lat="39.40828" lon="-0.33276">
        <ele>-22.230035</ele>
        <time>2022-04-02T10:20:52.000Z</time>
      </trkpt>
      <trkpt lat="39.40813" lon="-0.33273">
        <ele>-22.206022</ele>
        <time>2022-04-02T10:20:55.000Z</time>
      </trkpt>
      <trkpt lat="39.40803" lon="-0.33271">
        <ele>-22.190778</ele>
        <time>2022-04-02T10:20:57.000Z</time>
      </trkpt>
      <trkpt lat="39.40794" lon="-0.33269">
        <ele>-22.175802</ele>
        <time>2022-04-02T10:20:59.000Z</time>
      </trkpt>
      <trkpt lat="39.40776" lon="-0.33265">
        <ele>-22.14631</ele>
        <time>2022-04-02T10:21:03.000Z</time>
      </trkpt>
      <trkpt lat="39.40748" lon="-0.33259">
        <ele>-22.101709</ele>
        <time>2022-04-02T10:21:09.000Z</time>
      </trkpt>
      <trkpt lat="39.40725" lon="-0.33253">
        <ele>-22.116214</ele>
        <time>2022-04-02T10:21:14.000Z</time>
      </trkpt>
      <trkpt lat="39.40696" lon="-0.33246">
        <ele>-22.172456</ele>
        <time>2022-04-02T10:21:20.000Z</time>
      </trkpt>
      <trkpt lat="39.40638" lon="-0.33235">
        <ele>-22.285979</ele>
        <time>2022-04-02T10:21:31.000Z</time>
      </trkpt>
      <trkpt lat="39.4058" lon="-0.33229">
        <ele>-22.399216</ele>
        <time>2022-04-02T10:21:42.000Z</time>
      </trkpt>
      <trkpt lat="39.40532" lon="-0.33226">
        <ele>-22.502659</ele>
        <time>2022-04-02T10:21:50.000Z</time>
      </trkpt>
      <trkpt lat="39.40499" lon="-0.33227">
        <ele>-22.578619</ele>
        <time>2022-04-02T10:21:55.000Z</time>
      </trkpt>
      <trkpt lat="39.40486" lon="-0.33226">
        <ele>-22.609367</ele>
        <time>2022-04-02T10:21:57.000Z</time>
      </trkpt>
      <trkpt lat="39.40441" lon="-0.33225">
        <ele>-22.711935</ele>
        <time>2022-04-02T10:22:04.000Z</time>
      </trkpt>
      <trkpt lat="39.40416" lon="-0.33224">
        <ele>-22.768665</ele>
        <time>2022-04-02T10:22:08.000Z</time>
      </trkpt>
      <trkpt lat="39.40393" lon="-0.3322">
        <ele>-22.823523</ele>
        <time>2022-04-02T10:22:12.000Z</time>
      </trkpt>
      <trkpt lat="39.40376" lon="-0.33214">
        <ele>-22.83182</ele>
        <time>2022-04-02T10:22:15.000Z</time>
      </trkpt>
      <trkpt lat="39.4034" lon="-0.33193">
        <ele>-22.71138</ele>
        <time>2022-04-02T10:22:22.000Z</time>
      </trkpt>
      <trkpt lat="39.40309" lon="-0.33166">
        <ele>-22.599076</ele>
        <time>2022-04-02T10:22:28.000Z</time>
      </trkpt>
      <trkpt lat="39.40284" lon="-0.33145">
        <ele>-22.508469</ele>
        <time>2022-04-02T10:22:33.000Z</time>
      </trkpt>
      <trkpt lat="39.40273" lon="-0.33139">
        <ele>-22.473211</ele>
        <time>2022-04-02T10:22:35.000Z</time>
      </trkpt>
      <trkpt lat="39.40225" lon="-0.3312">
        <ele>-22.320446</ele>
        <time>2022-04-02T10:22:44.000Z</time>
      </trkpt>
      <trkpt lat="39.40185" lon="-0.33106">
        <ele>-22.485795</ele>
        <time>2022-04-02T10:22:52.000Z</time>
      </trkpt>
      <trkpt lat="39.40147" lon="-0.33093">
        <ele>-22.675572</ele>
        <time>2022-04-02T10:22:59.000Z</time>
      </trkpt>
      <trkpt lat="39.40142" lon="-0.33092">
        <ele>-22.701411</ele>
        <time>2022-04-02T10:23:00.000Z</time>
      </trkpt>
      <trkpt lat="39.40137" lon="-0.33092">
        <ele>-22.727092</ele>
        <time>2022-04-02T10:23:01.000Z</time>
      </trkpt>
      <trkpt lat="39.40132" lon="-0.33095">
        <ele>-22.752119</ele>
        <time>2022-04-02T10:23:02.000Z</time>
      </trkpt>
      <trkpt lat="39.40122" lon="-0.33103">
        <ele>-22.809853</ele>
        <time>2022-04-02T10:23:04.000Z</time>
      </trkpt>
      <trkpt lat="39.40111" lon="-0.33107">
        <ele>-22.868336</ele>
        <time>2022-04-02T10:23:06.000Z</time>
      </trkpt>
      <trkpt lat="39.40098" lon="-0.33108">
        <ele>-22.929483</ele>
        <time>2022-04-02T10:23:08.000Z</time>
      </trkpt>
      <trkpt lat="39.40092" lon="-0.33106">
        <ele>-22.959445</ele>
        <time>2022-04-02T10:23:09.000Z</time>
      </trkpt>
      <trkpt lat="39.40086" lon="-0.33104">
        <ele>-22.990265</ele>
        <time>2022-04-02T10:23:10.000Z</time>
      </trkpt>
      <trkpt lat="39.40065" lon="-0.33095">
        <ele>-23.102379</ele>
        <time>2022-04-02T10:23:14.000Z</time>
      </trkpt>
      <trkpt lat="39.40017" lon="-0.33081">
        <ele>-23.150818</ele>
        <time>2022-04-02T10:23:22.000Z</time>
      </trkpt>
      <trkpt lat="39.3996" lon="-0.33065">
        <ele>-23.075286</ele>
        <time>2022-04-02T10:23:32.000Z</time>
      </trkpt>
      <trkpt lat="39.39948" lon="-0.33062">
        <ele>-23.059388</ele>
        <time>2022-04-02T10:23:34.000Z</time>
      </trkpt>
      <trkpt lat="39.39894" lon="-0.33047">
        <ele>-22.989042</ele>
        <time>2022-04-02T10:23:43.000Z</time>
      </trkpt>
      <trkpt lat="39.39889" lon="-0.33045">
        <ele>-22.981881</ele>
        <time>2022-04-02T10:23:44.000Z</time>
      </trkpt>
      <trkpt lat="39.39873" lon="-0.33042">
        <ele>-22.961713</ele>
        <time>2022-04-02T10:23:47.000Z</time>
      </trkpt>
      <trkpt lat="39.39864" lon="-0.33037">
        <ele>-22.964224</ele>
        <time>2022-04-02T10:23:49.000Z</time>
      </trkpt>
      <trkpt lat="39.39851" lon="-0.33027">
        <ele>-22.973344</ele>
        <time>2022-04-02T10:23:52.000Z</time>
      </trkpt>
      <trkpt lat="39.39841" lon="-0.33022">
        <ele>-22.979609</ele>
        <time>2022-04-02T10:23:54.000Z</time>
      </trkpt>
      <trkpt lat="39.39836" lon="-0.33021">
        <ele>-22.982771</ele>
        <time>2022-04-02T10:23:55.000Z</time>
      </trkpt>
      <trkpt lat="39.39794" lon="-0.33019">
        <ele>-23.007412</ele>
        <time>2022-04-02T10:24:02.000Z</time>
      </trkpt>
      <trkpt lat="39.39782" lon="-0.33018">
        <ele>-23.014527</ele>
        <time>2022-04-02T10:24:04.000Z</time>
      </trkpt>
      <trkpt lat="39.39769" lon="-0.33021">
        <ele>-23.022049</ele>
        <time>2022-04-02T10:24:07.000Z</time>
      </trkpt>
      <trkpt lat="39.39758" lon="-0.33024">
        <ele>-23.029148</ele>
        <time>2022-04-02T10:24:08.000Z</time>
      </trkpt>
      <trkpt lat="39.39752" lon="-0.33023">
        <ele>-23.032604</ele>
        <time>2022-04-02T10:24:10.000Z</time>
      </trkpt>
      <trkpt lat="39.39718" lon="-0.33008">
        <ele>-23.053589</ele>
        <time>2022-04-02T10:24:15.000Z</time>
      </trkpt>
      <trkpt lat="39.39713" lon="-0.33005">
        <ele>-23.057048</ele>
        <time>2022-04-02T10:24:16.000Z</time>
      </trkpt>
      <trkpt lat="39.39709" lon="-0.33">
        <ele>-23.060588</ele>
        <time>2022-04-02T10:24:17.000Z</time>
      </trkpt>
      <trkpt lat="39.39701" lon="-0.32988">
        <ele>-23.044627</ele>
        <time>2022-04-02T10:24:19.000Z</time>
      </trkpt>
      <trkpt lat="39.39699" lon="-0.3298">
        <ele>-23.0002</ele>
        <time>2022-04-02T10:24:20.000Z</time>
      </trkpt>
      <trkpt lat="39.39697" lon="-0.32973">
        <ele>-22.956236</ele>
        <time>2022-04-02T10:24:21.000Z</time>
      </trkpt>
      <trkpt lat="39.39698" lon="-0.32958">
        <ele>-22.872018</ele>
        <time>2022-04-02T10:24:24.000Z</time>
      </trkpt>
      <trkpt lat="39.39697" lon="-0.32943">
        <ele>-22.78693</ele>
        <time>2022-04-02T10:24:25.000Z</time>
      </trkpt>
      <trkpt lat="39.39693" lon="-0.32928">
        <ele>-22.700447</ele>
        <time>2022-04-02T10:24:27.000Z</time>
      </trkpt>
      <trkpt lat="39.3969" lon="-0.32923">
        <ele>-22.665779</ele>
        <time>2022-04-02T10:24:28.000Z</time>
      </trkpt>
      <trkpt lat="39.39687" lon="-0.3292">
        <ele>-22.632526</ele>
        <time>2022-04-02T10:24:29.000Z</time>
      </trkpt>
      <trkpt lat="39.39677" lon="-0.32916">
        <ele>-22.559212</ele>
        <time>2022-04-02T10:24:31.000Z</time>
      </trkpt>
      <trkpt lat="39.39667" lon="-0.32914">
        <ele>-22.483788</ele>
        <time>2022-04-02T10:24:33.000Z</time>
      </trkpt>
      <trkpt lat="39.39635" lon="-0.32906">
        <ele>-22.251191</ele>
        <time>2022-04-02T10:24:39.000Z</time>
      </trkpt>
      <trkpt lat="39.39631" lon="-0.32904">
        <ele>-22.215386</ele>
        <time>2022-04-02T10:24:40.000Z</time>
      </trkpt>
      <trkpt lat="39.39627" lon="-0.32899">
        <ele>-22.177605</ele>
        <time>2022-04-02T10:24:41.000Z</time>
      </trkpt>
      <trkpt lat="39.39623" lon="-0.32894">
        <ele>-22.138952</ele>
        <time>2022-04-02T10:24:42.000Z</time>
      </trkpt>
      <trkpt lat="39.39621" lon="-0.32888">
        <ele>-22.10034</ele>
        <time>2022-04-02T10:24:43.000Z</time>
      </trkpt>
      <trkpt lat="39.39618" lon="-0.32875">
        <ele>-22.026749</ele>
        <time>2022-04-02T10:24:45.000Z</time>
      </trkpt>
      <trkpt lat="39.39615" lon="-0.32871">
        <ele>-21.994651</ele>
        <time>2022-04-02T10:24:46.000Z</time>
      </trkpt>
      <trkpt lat="39.39612" lon="-0.32867">
        <ele>-21.962318</ele>
        <time>2022-04-02T10:24:47.000Z</time>
      </trkpt>
      <trkpt lat="39.39602" lon="-0.32865">
        <ele>-21.894541</ele>
        <time>2022-04-02T10:24:49.000Z</time>
      </trkpt>
      <trkpt lat="39.39593" lon="-0.32865">
        <ele>-21.827615</ele>
        <time>2022-04-02T10:24:51.000Z</time>
      </trkpt>
      <trkpt lat="39.39554" lon="-0.32861">
        <ele>-21.667872</ele>
        <time>2022-04-02T10:24:59.000Z</time>
      </trkpt>
      <trkpt lat="39.39519" lon="-0.32858">
        <ele>-21.560189</ele>
        <time>2022-04-02T10:25:06.000Z</time>
      </trkpt>
      <trkpt lat="39.39509" lon="-0.32855">
        <ele>-21.528221</ele>
        <time>2022-04-02T10:25:08.000Z</time>
      </trkpt>
      <trkpt lat="39.39503" lon="-0.32855">
        <ele>-21.511861</ele>
        <time>2022-04-02T10:25:09.000Z</time>
      </trkpt>
      <trkpt lat="39.39482" lon="-0.32859">
        <ele>-21.44493</ele>
        <time>2022-04-02T10:25:13.000Z</time>
      </trkpt>
      <trkpt lat="39.39441" lon="-0.32862">
        <ele>-21.318359</ele>
        <time>2022-04-02T10:25:21.000Z</time>
      </trkpt>
      <trkpt lat="39.39391" lon="-0.32864">
        <ele>-21.198057</ele>
        <time>2022-04-02T10:25:30.000Z</time>
      </trkpt>
      <trkpt lat="39.39374" lon="-0.3287">
        <ele>-21.186524</ele>
        <time>2022-04-02T10:25:33.000Z</time>
      </trkpt>
      <trkpt lat="39.39369" lon="-0.32872">
        <ele>-21.182672</ele>
        <time>2022-04-02T10:25:34.000Z</time>
      </trkpt>
      <trkpt lat="39.39352" lon="-0.32874">
        <ele>-21.170791</ele>
        <time>2022-04-02T10:25:37.000Z</time>
      </trkpt>
      <trkpt lat="39.39295" lon="-0.3288">
        <ele>-21.131772</ele>
        <time>2022-04-02T10:25:47.000Z</time>
      </trkpt>
      <trkpt lat="39.39241" lon="-0.32883">
        <ele>-21.095074</ele>
        <time>2022-04-02T10:25:56.000Z</time>
      </trkpt>
      <trkpt lat="39.39234" lon="-0.32885">
        <ele>-21.089949</ele>
        <time>2022-04-02T10:25:57.000Z</time>
      </trkpt>
      <trkpt lat="39.39206" lon="-0.32899">
        <ele>-21.222281</ele>
        <time>2022-04-02T10:26:02.000Z</time>
      </trkpt>
      <trkpt lat="39.39176" lon="-0.32924">
        <ele>-21.441462</ele>
        <time>2022-04-02T10:26:08.000Z</time>
      </trkpt>
      <trkpt lat="39.39171" lon="-0.32928">
        <ele>-21.477347</ele>
        <time>2022-04-02T10:26:09.000Z</time>
      </trkpt>
      <trkpt lat="39.39121" lon="-0.32969">
        <ele>-21.839318</ele>
        <time>2022-04-02T10:26:19.000Z</time>
      </trkpt>
      <trkpt lat="39.39121" lon="-0.32969">
        <ele>-21.839318</ele>
        <time>2022-04-02T10:26:20.000Z</time>
      </trkpt>
      <trkpt lat="39.39097" lon="-0.32989">
        <ele>-22.016421</ele>
        <time>2022-04-02T10:26:24.000Z</time>
      </trkpt>
      <trkpt lat="39.39087" lon="-0.32997">
        <ele>-22.088965</ele>
        <time>2022-04-02T10:26:26.000Z</time>
      </trkpt>
      <trkpt lat="39.39067" lon="-0.33013">
        <ele>-22.233385</ele>
        <time>2022-04-02T10:26:30.000Z</time>
      </trkpt>
      <trkpt lat="39.39043" lon="-0.33034">
        <ele>-22.419253</ele>
        <time>2022-04-02T10:26:35.000Z</time>
      </trkpt>
      <trkpt lat="39.39039" lon="-0.33037">
        <ele>-22.453023</ele>
        <time>2022-04-02T10:26:37.000Z</time>
      </trkpt>
      <trkpt lat="39.39032" lon="-0.33046">
        <ele>-22.514216</ele>
        <time>2022-04-02T10:26:38.000Z</time>
      </trkpt>
      <trkpt lat="39.3903" lon="-0.33055">
        <ele>-22.560618</ele>
        <time>2022-04-02T10:26:40.000Z</time>
      </trkpt>
      <trkpt lat="39.39031" lon="-0.33059">
        <ele>-22.579561</ele>
        <time>2022-04-02T10:26:41.000Z</time>
      </trkpt>
      <trkpt lat="39.39032" lon="-0.33063">
        <ele>-22.600209</ele>
        <time>2022-04-02T10:26:42.000Z</time>
      </trkpt>
      <trkpt lat="39.39036" lon="-0.33076">
        <ele>-22.670689</ele>
        <time>2022-04-02T10:26:46.000Z</time>
      </trkpt>
      <trkpt lat="39.3903" lon="-0.33079">
        <ele>-22.713048</ele>
        <time>2022-04-02T10:26:49.000Z</time>
      </trkpt>
      <trkpt lat="39.39021" lon="-0.33081">
        <ele>-22.775545</ele>
        <time>2022-04-02T10:26:53.000Z</time>
      </trkpt>
      <trkpt lat="39.39011" lon="-0.33085">
        <ele>-22.841104</ele>
        <time>2022-04-02T10:26:55.000Z</time>
      </trkpt>
      <trkpt lat="39.38995" lon="-0.33091">
        <ele>-22.945509</ele>
        <time>2022-04-02T10:27:00.000Z</time>
      </trkpt>
      <trkpt lat="39.38981" lon="-0.33096">
        <ele>-23.041513</ele>
        <time>2022-04-02T10:27:02.000Z</time>
      </trkpt>
      <trkpt lat="39.38954" lon="-0.33106">
        <ele>-23.223483</ele>
        <time>2022-04-02T10:27:09.000Z</time>
      </trkpt>
      <trkpt lat="39.38941" lon="-0.33111">
        <ele>-23.311994</ele>
        <time>2022-04-02T10:27:12.000Z</time>
      </trkpt>
      <trkpt lat="39.38931" lon="-0.33114">
        <ele>-23.332647</ele>
        <time>2022-04-02T10:27:13.000Z</time>
      </trkpt>
      <trkpt lat="39.38921" lon="-0.33114">
        <ele>-23.29016</ele>
        <time>2022-04-02T10:27:15.000Z</time>
      </trkpt>
      <trkpt lat="39.38909" lon="-0.33112">
        <ele>-23.24346</ele>
        <time>2022-04-02T10:27:18.000Z</time>
      </trkpt>
      <trkpt lat="39.38903" lon="-0.33114">
        <ele>-23.22172</ele>
        <time>2022-04-02T10:27:20.000Z</time>
      </trkpt>
      <trkpt lat="39.38895" lon="-0.33118">
        <ele>-23.186406</ele>
        <time>2022-04-02T10:27:25.000Z</time>
      </trkpt>
      <trkpt lat="39.38892" lon="-0.3312">
        <ele>-23.173939</ele>
        <time>2022-04-02T10:27:26.000Z</time>
      </trkpt>
      <trkpt lat="39.38892" lon="-0.33121">
        <ele>-23.171969</ele>
        <time>2022-04-02T10:27:30.000Z</time>
      </trkpt>
      <trkpt lat="39.38892" lon="-0.33121">
        <ele>-23.171969</ele>
        <time>2022-04-02T10:27:35.000Z</time>
      </trkpt>
      <trkpt lat="39.38892" lon="-0.33121">
        <ele>-23.171969</ele>
        <time>2022-04-02T10:27:37.000Z</time>
      </trkpt>
      <trkpt lat="39.38892" lon="-0.33121">
        <ele>-23.171969</ele>
        <time>2022-04-02T10:27:45.000Z</time>
      </trkpt>
      <trkpt lat="39.38892" lon="-0.33121">
        <ele>-23.171969</ele>
        <time>2022-04-02T10:27:51.000Z</time>
      </trkpt>
      <trkpt lat="39.38892" lon="-0.33121">
        <ele>-23.171969</ele>
        <time>2022-04-02T10:27:59.000Z</time>
      </trkpt>
      <trkpt lat="39.38892" lon="-0.33121">
        <ele>-23.171969</ele>
        <time>2022-04-02T10:28:00.000Z</time>
      </trkpt>
      <trkpt lat="39.38891" lon="-0.33122">
        <ele>-23.166724</ele>
        <time>2022-04-02T10:28:10.000Z</time>
      </trkpt>
      <trkpt lat="39.38888" lon="-0.33126">
        <ele>-23.150466</ele>
        <time>2022-04-02T10:28:12.000Z</time>
      </trkpt>
      <trkpt lat="39.38872" lon="-0.33136">
        <ele>-23.081819</ele>
        <time>2022-04-02T10:28:17.000Z</time>
      </trkpt>
      <trkpt lat="39.38843" lon="-0.33143">
        <ele>-22.966395</ele>
        <time>2022-04-02T10:28:24.000Z</time>
      </trkpt>
      <trkpt lat="39.38828" lon="-0.33147">
        <ele>-22.908023</ele>
        <time>2022-04-02T10:28:28.000Z</time>
      </trkpt>
      <trkpt lat="39.38821" lon="-0.33149">
        <ele>-22.87859</ele>
        <time>2022-04-02T10:28:30.000Z</time>
      </trkpt>
      <trkpt lat="39.38814" lon="-0.33152">
        <ele>-22.848452</ele>
        <time>2022-04-02T10:28:32.000Z</time>
      </trkpt>
      <trkpt lat="39.38806" lon="-0.33155">
        <ele>-22.816836</ele>
        <time>2022-04-02T10:28:34.000Z</time>
      </trkpt>
      <trkpt lat="39.38785" lon="-0.33158">
        <ele>-22.735355</ele>
        <time>2022-04-02T10:28:39.000Z</time>
      </trkpt>
      <trkpt lat="39.38776" lon="-0.33161">
        <ele>-22.699654</ele>
        <time>2022-04-02T10:28:41.000Z</time>
      </trkpt>
      <trkpt lat="39.38763" lon="-0.33168">
        <ele>-22.645982</ele>
        <time>2022-04-02T10:28:44.000Z</time>
      </trkpt>
      <trkpt lat="39.3873" lon="-0.33177">
        <ele>-22.590747</ele>
        <time>2022-04-02T10:28:51.000Z</time>
      </trkpt>
      <trkpt lat="39.38725" lon="-0.33178">
        <ele>-22.582805</ele>
        <time>2022-04-02T10:28:52.000Z</time>
      </trkpt>
      <trkpt lat="39.38715" lon="-0.33179">
        <ele>-22.566735</ele>
        <time>2022-04-02T10:28:54.000Z</time>
      </trkpt>
      <trkpt lat="39.38675" lon="-0.33183">
        <ele>-22.502329</ele>
        <time>2022-04-02T10:29:02.000Z</time>
      </trkpt>
      <trkpt lat="39.38629" lon="-0.33187">
        <ele>-22.427322</ele>
        <time>2022-04-02T10:29:11.000Z</time>
      </trkpt>
      <trkpt lat="39.38613" lon="-0.33188">
        <ele>-22.402419</ele>
        <time>2022-04-02T10:29:14.000Z</time>
      </trkpt>
      <trkpt lat="39.38598" lon="-0.33189">
        <ele>-22.377715</ele>
        <time>2022-04-02T10:29:17.000Z</time>
      </trkpt>
      <trkpt lat="39.38582" lon="-0.3319">
        <ele>-22.349019</ele>
        <time>2022-04-02T10:29:20.000Z</time>
      </trkpt>
      <trkpt lat="39.38578" lon="-0.3319">
        <ele>-22.336638</ele>
        <time>2022-04-02T10:29:21.000Z</time>
      </trkpt>
      <trkpt lat="39.3853" lon="-0.33193">
        <ele>-22.203814</ele>
        <time>2022-04-02T10:29:30.000Z</time>
      </trkpt>
      <trkpt lat="39.38507" lon="-0.33197">
        <ele>-22.141116</ele>
        <time>2022-04-02T10:29:34.000Z</time>
      </trkpt>
      <trkpt lat="39.38497" lon="-0.33201">
        <ele>-22.112616</ele>
        <time>2022-04-02T10:29:37.000Z</time>
      </trkpt>
      <trkpt lat="39.38447" lon="-0.3322">
        <ele>-21.969597</ele>
        <time>2022-04-02T10:29:45.000Z</time>
      </trkpt>
      <trkpt lat="39.3843" lon="-0.33226">
        <ele>-21.921271</ele>
        <time>2022-04-02T10:29:48.000Z</time>
      </trkpt>
      <trkpt lat="39.3842" lon="-0.3323">
        <ele>-21.893186</ele>
        <time>2022-04-02T10:29:51.000Z</time>
      </trkpt>
      <trkpt lat="39.38405" lon="-0.33234">
        <ele>-21.838435</ele>
        <time>2022-04-02T10:29:54.000Z</time>
      </trkpt>
      <trkpt lat="39.38397" lon="-0.33235">
        <ele>-21.786016</ele>
        <time>2022-04-02T10:29:55.000Z</time>
      </trkpt>
      <trkpt lat="39.38383" lon="-0.33239">
        <ele>-21.703469</ele>
        <time>2022-04-02T10:29:58.000Z</time>
      </trkpt>
      <trkpt lat="39.38375" lon="-0.33238">
        <ele>-21.652346</ele>
        <time>2022-04-02T10:30:01.000Z</time>
      </trkpt>
      <trkpt lat="39.38366" lon="-0.33236">
        <ele>-21.599759</ele>
        <time>2022-04-02T10:30:02.000Z</time>
      </trkpt>
      <trkpt lat="39.38362" lon="-0.33235">
        <ele>-21.576162</ele>
        <time>2022-04-02T10:30:04.000Z</time>
      </trkpt>
      <trkpt lat="39.3835" lon="-0.33233">
        <ele>-21.503524</ele>
        <time>2022-04-02T10:30:07.000Z</time>
      </trkpt>
      <trkpt lat="39.38333" lon="-0.33232">
        <ele>-21.398314</ele>
        <time>2022-04-02T10:30:10.000Z</time>
      </trkpt>
      <trkpt lat="39.38327" lon="-0.33232">
        <ele>-21.36159</ele>
        <time>2022-04-02T10:30:13.000Z</time>
      </trkpt>
      <trkpt lat="39.38303" lon="-0.33227">
        <ele>-21.217074</ele>
        <time>2022-04-02T10:30:19.000Z</time>
      </trkpt>
      <trkpt lat="39.38284" lon="-0.33218">
        <ele>-21.0934</ele>
        <time>2022-04-02T10:30:24.000Z</time>
      </trkpt>
      <trkpt lat="39.38275" lon="-0.33207">
        <ele>-21.020523</ele>
        <time>2022-04-02T10:30:28.000Z</time>
      </trkpt>
      <trkpt lat="39.38273" lon="-0.33207">
        <ele>-21.009069</ele>
        <time>2022-04-02T10:30:29.000Z</time>
      </trkpt>
      <trkpt lat="39.38258" lon="-0.33215">
        <ele>-20.912336</ele>
        <time>2022-04-02T10:30:35.000Z</time>
      </trkpt>
      <trkpt lat="39.38251" lon="-0.33219">
        <ele>-20.86242</ele>
        <time>2022-04-02T10:30:38.000Z</time>
      </trkpt>
      <trkpt lat="39.38243" lon="-0.33218">
        <ele>-20.816043</ele>
        <time>2022-04-02T10:30:40.000Z</time>
      </trkpt>
      <trkpt lat="39.38239" lon="-0.33218">
        <ele>-20.793807</ele>
        <time>2022-04-02T10:30:41.000Z</time>
      </trkpt>
      <trkpt lat="39.38221" lon="-0.3322">
        <ele>-20.78032</ele>
        <time>2022-04-02T10:30:47.000Z</time>
      </trkpt>
      <trkpt lat="39.38202" lon="-0.33217">
        <ele>-20.779306</ele>
        <time>2022-04-02T10:30:53.000Z</time>
      </trkpt>
      <trkpt lat="39.38173" lon="-0.33218">
        <ele>-20.777796</ele>
        <time>2022-04-02T10:31:00.000Z</time>
      </trkpt>
      <trkpt lat="39.38157" lon="-0.33217">
        <ele>-20.776943</ele>
        <time>2022-04-02T10:31:05.000Z</time>
      </trkpt>
      <trkpt lat="39.38147" lon="-0.33217">
        <ele>-20.776424</ele>
        <time>2022-04-02T10:31:08.000Z</time>
      </trkpt>
      <trkpt lat="39.38138" lon="-0.33218">
        <ele>-20.775952</ele>
        <time>2022-04-02T10:31:11.000Z</time>
      </trkpt>
      <trkpt lat="39.38127" lon="-0.33217">
        <ele>-20.775362</ele>
        <time>2022-04-02T10:31:15.000Z</time>
      </trkpt>
      <trkpt lat="39.38125" lon="-0.33217">
        <ele>-20.775224</ele>
        <time>2022-04-02T10:31:16.000Z</time>
      </trkpt>
      <trkpt lat="39.38122" lon="-0.33218">
        <ele>-20.775087</ele>
        <time>2022-04-02T10:31:17.000Z</time>
      </trkpt>
      <trkpt lat="39.3812" lon="-0.33221">
        <ele>-20.774929</ele>
        <time>2022-04-02T10:31:18.000Z</time>
      </trkpt>
      <trkpt lat="39.38117" lon="-0.33222">
        <ele>-20.774765</ele>
        <time>2022-04-02T10:31:19.000Z</time>
      </trkpt>
      <trkpt lat="39.38114" lon="-0.33223">
        <ele>-20.774588</ele>
        <time>2022-04-02T10:31:20.000Z</time>
      </trkpt>
      <trkpt lat="39.38111" lon="-0.33223">
        <ele>-20.774413</ele>
        <time>2022-04-02T10:31:22.000Z</time>
      </trkpt>
      <trkpt lat="39.38087" lon="-0.3322">
        <ele>-20.773174</ele>
        <time>2022-04-02T10:31:27.000Z</time>
      </trkpt>
      <trkpt lat="39.38074" lon="-0.33219">
        <ele>-20.772463</ele>
        <time>2022-04-02T10:31:30.000Z</time>
      </trkpt>
      <trkpt lat="39.38055" lon="-0.33217">
        <ele>-20.768327</ele>
        <time>2022-04-02T10:31:35.000Z</time>
      </trkpt>
      <trkpt lat="39.38036" lon="-0.33214">
        <ele>-20.750596</ele>
        <time>2022-04-02T10:31:38.000Z</time>
      </trkpt>
      <trkpt lat="39.38025" lon="-0.33213">
        <ele>-20.74027</ele>
        <time>2022-04-02T10:31:40.000Z</time>
      </trkpt>
      <trkpt lat="39.38016" lon="-0.33212">
        <ele>-20.731706</ele>
        <time>2022-04-02T10:31:42.000Z</time>
      </trkpt>
      <trkpt lat="39.37984" lon="-0.33207">
        <ele>-20.702483</ele>
        <time>2022-04-02T10:31:48.000Z</time>
      </trkpt>
      <trkpt lat="39.37974" lon="-0.33206">
        <ele>-20.692907</ele>
        <time>2022-04-02T10:31:50.000Z</time>
      </trkpt>
      <trkpt lat="39.37974" lon="-0.33206">
        <ele>-20.692907</ele>
        <time>2022-04-02T10:31:51.000Z</time>
      </trkpt>
      <trkpt lat="39.37952" lon="-0.33203">
        <ele>-20.673154</ele>
        <time>2022-04-02T10:31:54.000Z</time>
      </trkpt>
      <trkpt lat="39.37936" lon="-0.332">
        <ele>-20.658373</ele>
        <time>2022-04-02T10:31:57.000Z</time>
      </trkpt>
      <trkpt lat="39.3792" lon="-0.33197">
        <ele>-20.643493</ele>
        <time>2022-04-02T10:32:00.000Z</time>
      </trkpt>
      <trkpt lat="39.37909" lon="-0.33195">
        <ele>-20.6333</ele>
        <time>2022-04-02T10:32:02.000Z</time>
      </trkpt>
      <trkpt lat="39.37882" lon="-0.3319">
        <ele>-20.608027</ele>
        <time>2022-04-02T10:32:07.000Z</time>
      </trkpt>
      <trkpt lat="39.37868" lon="-0.33187">
        <ele>-20.600643</ele>
        <time>2022-04-02T10:32:11.000Z</time>
      </trkpt>
      <trkpt lat="39.37829" lon="-0.33179">
        <ele>-20.582538</ele>
        <time>2022-04-02T10:32:18.000Z</time>
      </trkpt>
      <trkpt lat="39.37796" lon="-0.33171">
        <ele>-20.566721</ele>
        <time>2022-04-02T10:32:25.000Z</time>
      </trkpt>
      <trkpt lat="39.37737" lon="-0.33161">
        <ele>-20.539222</ele>
        <time>2022-04-02T10:32:34.000Z</time>
      </trkpt>
      <trkpt lat="39.377" lon="-0.33153">
        <ele>-20.524195</ele>
        <time>2022-04-02T10:32:41.000Z</time>
      </trkpt>
      <trkpt lat="39.37663" lon="-0.33143">
        <ele>-20.54597</ele>
        <time>2022-04-02T10:32:48.000Z</time>
      </trkpt>
      <trkpt lat="39.37663" lon="-0.33143">
        <ele>-20.54597</ele>
        <time>2022-04-02T10:32:49.000Z</time>
      </trkpt>
      <trkpt lat="39.37625" lon="-0.33136">
        <ele>-20.567718</ele>
        <time>2022-04-02T10:32:56.000Z</time>
      </trkpt>
      <trkpt lat="39.37609" lon="-0.33134">
        <ele>-20.576608</ele>
        <time>2022-04-02T10:32:59.000Z</time>
      </trkpt>
      <trkpt lat="39.37588" lon="-0.3313">
        <ele>-20.588464</ele>
        <time>2022-04-02T10:33:03.000Z</time>
      </trkpt>
      <trkpt lat="39.37572" lon="-0.33126">
        <ele>-20.598026</ele>
        <time>2022-04-02T10:33:06.000Z</time>
      </trkpt>
      <trkpt lat="39.37561" lon="-0.33124">
        <ele>-20.604133</ele>
        <time>2022-04-02T10:33:08.000Z</time>
      </trkpt>
      <trkpt lat="39.37546" lon="-0.33119">
        <ele>-20.613297</ele>
        <time>2022-04-02T10:33:12.000Z</time>
      </trkpt>
      <trkpt lat="39.37509" lon="-0.33107">
        <ele>-20.619342</ele>
        <time>2022-04-02T10:33:18.000Z</time>
      </trkpt>
      <trkpt lat="39.37509" lon="-0.33107">
        <ele>-20.619342</ele>
        <time>2022-04-02T10:33:19.000Z</time>
      </trkpt>
      <trkpt lat="39.37488" lon="-0.33101">
        <ele>-20.612783</ele>
        <time>2022-04-02T10:33:22.000Z</time>
      </trkpt>
      <trkpt lat="39.37453" lon="-0.33091">
        <ele>-20.601813</ele>
        <time>2022-04-02T10:33:29.000Z</time>
      </trkpt>
      <trkpt lat="39.37447" lon="-0.33089">
        <ele>-20.600159</ele>
        <time>2022-04-02T10:33:30.000Z</time>
      </trkpt>
      <trkpt lat="39.3741" lon="-0.33076">
        <ele>-20.588249</ele>
        <time>2022-04-02T10:33:37.000Z</time>
      </trkpt>
      <trkpt lat="39.37356" lon="-0.33057">
        <ele>-20.571193</ele>
        <time>2022-04-02T10:33:47.000Z</time>
      </trkpt>
      <trkpt lat="39.37302" lon="-0.33041">
        <ele>-20.807032</ele>
        <time>2022-04-02T10:33:57.000Z</time>
      </trkpt>
      <trkpt lat="39.37274" lon="-0.33032">
        <ele>-20.943455</ele>
        <time>2022-04-02T10:34:03.000Z</time>
      </trkpt>
      <trkpt lat="39.37247" lon="-0.33025">
        <ele>-21.076614</ele>
        <time>2022-04-02T10:34:07.000Z</time>
      </trkpt>
      <trkpt lat="39.37231" lon="-0.3302">
        <ele>-21.15414</ele>
        <time>2022-04-02T10:34:11.000Z</time>
      </trkpt>
      <trkpt lat="39.37227" lon="-0.33018">
        <ele>-21.175266</ele>
        <time>2022-04-02T10:34:12.000Z</time>
      </trkpt>
      <trkpt lat="39.37184" lon="-0.33007">
        <ele>-21.380054</ele>
        <time>2022-04-02T10:34:19.000Z</time>
      </trkpt>
      <trkpt lat="39.37173" lon="-0.33005">
        <ele>-21.453032</ele>
        <time>2022-04-02T10:34:21.000Z</time>
      </trkpt>
      <trkpt lat="39.37147" lon="-0.32999">
        <ele>-21.794807</ele>
        <time>2022-04-02T10:34:26.000Z</time>
      </trkpt>
      <trkpt lat="39.37132" lon="-0.32996">
        <ele>-21.996409</ele>
        <time>2022-04-02T10:34:30.000Z</time>
      </trkpt>
      <trkpt lat="39.37123" lon="-0.32993">
        <ele>-22.120582</ele>
        <time>2022-04-02T10:34:33.000Z</time>
      </trkpt>
      <trkpt lat="39.37123" lon="-0.32993">
        <ele>-22.120582</ele>
        <time>2022-04-02T10:34:42.000Z</time>
      </trkpt>
      <trkpt lat="39.37123" lon="-0.32993">
        <ele>-22.120582</ele>
        <time>2022-04-02T10:34:56.000Z</time>
      </trkpt>
      <trkpt lat="39.37123" lon="-0.32993">
        <ele>-22.120582</ele>
        <time>2022-04-02T10:35:03.000Z</time>
      </trkpt>
      <trkpt lat="39.37123" lon="-0.32993">
        <ele>-22.120582</ele>
        <time>2022-04-02T10:35:05.000Z</time>
      </trkpt>
      <trkpt lat="39.37123" lon="-0.32993">
        <ele>-22.120582</ele>
        <time>2022-04-02T10:35:08.000Z</time>
      </trkpt>
      <trkpt lat="39.37123" lon="-0.32993">
        <ele>-22.120582</ele>
        <time>2022-04-02T10:35:10.000Z</time>
      </trkpt>
      <trkpt lat="39.37123" lon="-0.32993">
        <ele>-22.120582</ele>
        <time>2022-04-02T10:35:11.000Z</time>
      </trkpt>
      <trkpt lat="39.37123" lon="-0.32993">
        <ele>-22.120582</ele>
        <time>2022-04-02T10:35:21.000Z</time>
      </trkpt>
      <trkpt lat="39.37123" lon="-0.32993">
        <ele>-22.120582</ele>
        <time>2022-04-02T10:35:48.000Z</time>
      </trkpt>
      <trkpt lat="39.37123" lon="-0.32993">
        <ele>-22.120582</ele>
        <time>2022-04-02T10:35:54.000Z</time>
      </trkpt>
      <trkpt lat="39.37123" lon="-0.32993">
        <ele>-22.120582</ele>
        <time>2022-04-02T10:36:04.000Z</time>
      </trkpt>
      <trkpt lat="39.37123" lon="-0.32993">
        <ele>-22.120582</ele>
        <time>2022-04-02T10:36:19.000Z</time>
      </trkpt>
      <trkpt lat="39.37123" lon="-0.32993">
        <ele>-22.123187</ele>
        <time>2022-04-02T10:36:35.000Z</time>
      </trkpt>
      <trkpt lat="39.37119" lon="-0.32993">
        <ele>-22.170475</ele>
        <time>2022-04-02T10:36:39.000Z</time>
      </trkpt>
      <trkpt lat="39.37119" lon="-0.32993">
        <ele>-22.170475</ele>
        <time>2022-04-02T10:36:40.000Z</time>
      </trkpt>
      <trkpt lat="39.37119" lon="-0.32993">
        <ele>-22.170475</ele>
        <time>2022-04-02T10:36:51.000Z</time>
      </trkpt>
      <trkpt lat="39.37118" lon="-0.32993">
        <ele>-22.180946</ele>
        <time>2022-04-02T10:36:58.000Z</time>
      </trkpt>
      <trkpt lat="39.37118" lon="-0.32993">
        <ele>-22.180946</ele>
        <time>2022-04-02T10:37:00.000Z</time>
      </trkpt>
      <trkpt lat="39.37118" lon="-0.32993">
        <ele>-22.180946</ele>
        <time>2022-04-02T10:37:13.000Z</time>
      </trkpt>
      <trkpt lat="39.37118" lon="-0.32993">
        <ele>-22.18296</ele>
        <time>2022-04-02T10:37:14.000Z</time>
      </trkpt>
      <trkpt lat="39.37119" lon="-0.32992">
        <ele>-22.195358</ele>
        <time>2022-04-02T10:37:18.000Z</time>
      </trkpt>
      <trkpt lat="39.37123" lon="-0.32992">
        <ele>-22.243655</ele>
        <time>2022-04-02T10:37:25.000Z</time>
      </trkpt>
      <trkpt lat="39.37125" lon="-0.32993">
        <ele>-22.272756</ele>
        <time>2022-04-02T10:37:26.000Z</time>
      </trkpt>
      <trkpt lat="39.37125" lon="-0.32993">
        <ele>-22.272756</ele>
        <time>2022-04-02T10:37:27.000Z</time>
      </trkpt>
      <trkpt lat="39.37144" lon="-0.32997">
        <ele>-22.518076</ele>
        <time>2022-04-02T10:37:32.000Z</time>
      </trkpt>
      <trkpt lat="39.37144" lon="-0.32997">
        <ele>-22.518076</ele>
        <time>2022-04-02T10:37:33.000Z</time>
      </trkpt>
      <trkpt lat="39.37158" lon="-0.33">
        <ele>-22.702957</ele>
        <time>2022-04-02T10:37:36.000Z</time>
      </trkpt>
      <trkpt lat="39.37173" lon="-0.33004">
        <ele>-22.910145</ele>
        <time>2022-04-02T10:37:40.000Z</time>
      </trkpt>
      <trkpt lat="39.37193" lon="-0.3301">
        <ele>-23.173766</ele>
        <time>2022-04-02T10:37:45.000Z</time>
      </trkpt>
      <trkpt lat="39.37206" lon="-0.33013">
        <ele>-23.34105</ele>
        <time>2022-04-02T10:37:48.000Z</time>
      </trkpt>
      <trkpt lat="39.37255" lon="-0.33026">
        <ele>-23.619152</ele>
        <time>2022-04-02T10:37:59.000Z</time>
      </trkpt>
      <trkpt lat="39.37279" lon="-0.33033">
        <ele>-23.419208</ele>
        <time>2022-04-02T10:38:04.000Z</time>
      </trkpt>
      <trkpt lat="39.37299" lon="-0.33039">
        <ele>-23.250884</ele>
        <time>2022-04-02T10:38:08.000Z</time>
      </trkpt>
      <trkpt lat="39.37299" lon="-0.33039">
        <ele>-23.250884</ele>
        <time>2022-04-02T10:38:09.000Z</time>
      </trkpt>
      <trkpt lat="39.37352" lon="-0.33054">
        <ele>-22.817912</ele>
        <time>2022-04-02T10:38:18.000Z</time>
      </trkpt>
      <trkpt lat="39.37383" lon="-0.33065">
        <ele>-22.556895</ele>
        <time>2022-04-02T10:38:24.000Z</time>
      </trkpt>
      <trkpt lat="39.37383" lon="-0.33065">
        <ele>-22.556895</ele>
        <time>2022-04-02T10:38:25.000Z</time>
      </trkpt>
      <trkpt lat="39.37398" lon="-0.33071">
        <ele>-22.429026</ele>
        <time>2022-04-02T10:38:28.000Z</time>
      </trkpt>
      <trkpt lat="39.37432" lon="-0.33083">
        <ele>-22.307822</ele>
        <time>2022-04-02T10:38:34.000Z</time>
      </trkpt>
      <trkpt lat="39.37442" lon="-0.33087">
        <ele>-22.305401</ele>
        <time>2022-04-02T10:38:36.000Z</time>
      </trkpt>
      <trkpt lat="39.37466" lon="-0.33095">
        <ele>-22.299299</ele>
        <time>2022-04-02T10:38:41.000Z</time>
      </trkpt>
      <trkpt lat="39.37471" lon="-0.33096">
        <ele>-22.298142</ele>
        <time>2022-04-02T10:38:42.000Z</time>
      </trkpt>
      <trkpt lat="39.3748" lon="-0.33098">
        <ele>-22.295756</ele>
        <time>2022-04-02T10:38:45.000Z</time>
      </trkpt>
      <trkpt lat="39.37513" lon="-0.33108">
        <ele>-22.287527</ele>
        <time>2022-04-02T10:38:52.000Z</time>
      </trkpt>
      <trkpt lat="39.3754" lon="-0.33115">
        <ele>-22.280848</ele>
        <time>2022-04-02T10:38:57.000Z</time>
      </trkpt>
      <trkpt lat="39.37575" lon="-0.33124">
        <ele>-22.27211</ele>
        <time>2022-04-02T10:39:05.000Z</time>
      </trkpt>
      <trkpt lat="39.3758" lon="-0.33125">
        <ele>-22.270929</ele>
        <time>2022-04-02T10:39:07.000Z</time>
      </trkpt>
      <trkpt lat="39.3759" lon="-0.33127">
        <ele>-22.256069</ele>
        <time>2022-04-02T10:39:08.000Z</time>
      </trkpt>
      <trkpt lat="39.37603" lon="-0.3313">
        <ele>-22.184103</ele>
        <time>2022-04-02T10:39:12.000Z</time>
      </trkpt>
      <trkpt lat="39.37636" lon="-0.33137">
        <ele>-22.011236</ele>
        <time>2022-04-02T10:39:18.000Z</time>
      </trkpt>
      <trkpt lat="39.37659" lon="-0.3314">
        <ele>-21.893274</ele>
        <time>2022-04-02T10:39:23.000Z</time>
      </trkpt>
      <trkpt lat="39.37672" lon="-0.33143">
        <ele>-21.825621</ele>
        <time>2022-04-02T10:39:26.000Z</time>
      </trkpt>
      <trkpt lat="39.37688" lon="-0.33147">
        <ele>-21.736046</ele>
        <time>2022-04-02T10:39:30.000Z</time>
      </trkpt>
      <trkpt lat="39.37697" lon="-0.33149">
        <ele>-21.689484</ele>
        <time>2022-04-02T10:39:33.000Z</time>
      </trkpt>
      <trkpt lat="39.37711" lon="-0.33152">
        <ele>-21.618232</ele>
        <time>2022-04-02T10:39:35.000Z</time>
      </trkpt>
      <trkpt lat="39.37715" lon="-0.33153">
        <ele>-21.593923</ele>
        <time>2022-04-02T10:39:36.000Z</time>
      </trkpt>
      <trkpt lat="39.37751" lon="-0.33161">
        <ele>-21.402738</ele>
        <time>2022-04-02T10:39:45.000Z</time>
      </trkpt>
      <trkpt lat="39.37765" lon="-0.33164">
        <ele>-21.332895</ele>
        <time>2022-04-02T10:39:47.000Z</time>
      </trkpt>
      <trkpt lat="39.37778" lon="-0.33167">
        <ele>-21.240435</ele>
        <time>2022-04-02T10:39:50.000Z</time>
      </trkpt>
      <trkpt lat="39.37818" lon="-0.33176">
        <ele>-20.952064</ele>
        <time>2022-04-02T10:39:59.000Z</time>
      </trkpt>
      <trkpt lat="39.37842" lon="-0.33181">
        <ele>-20.781729</ele>
        <time>2022-04-02T10:40:04.000Z</time>
      </trkpt>
      <trkpt lat="39.37851" lon="-0.33183">
        <ele>-20.716941</ele>
        <time>2022-04-02T10:40:07.000Z</time>
      </trkpt>
      <trkpt lat="39.37861" lon="-0.33185">
        <ele>-20.650776</ele>
        <time>2022-04-02T10:40:08.000Z</time>
      </trkpt>
      <trkpt lat="39.37916" lon="-0.33197">
        <ele>-20.261381</ele>
        <time>2022-04-02T10:40:19.000Z</time>
      </trkpt>
      <trkpt lat="39.37931" lon="-0.33199">
        <ele>-20.15376</ele>
        <time>2022-04-02T10:40:23.000Z</time>
      </trkpt>
      <trkpt lat="39.37962" lon="-0.33204">
        <ele>-19.909092</ele>
        <time>2022-04-02T10:40:29.000Z</time>
      </trkpt>
      <trkpt lat="39.37972" lon="-0.33206">
        <ele>-19.821343</ele>
        <time>2022-04-02T10:40:30.000Z</time>
      </trkpt>
      <trkpt lat="39.37992" lon="-0.33209">
        <ele>-19.650057</ele>
        <time>2022-04-02T10:40:35.000Z</time>
      </trkpt>
      <trkpt lat="39.38023" lon="-0.33213">
        <ele>-19.385967</ele>
        <time>2022-04-02T10:40:40.000Z</time>
      </trkpt>
      <trkpt lat="39.38038" lon="-0.33214">
        <ele>-19.259391</ele>
        <time>2022-04-02T10:40:43.000Z</time>
      </trkpt>
      <trkpt lat="39.38043" lon="-0.33214">
        <ele>-19.21616</ele>
        <time>2022-04-02T10:40:44.000Z</time>
      </trkpt>
      <trkpt lat="39.38043" lon="-0.33214">
        <ele>-19.21616</ele>
        <time>2022-04-02T10:40:45.000Z</time>
      </trkpt>
      <trkpt lat="39.38087" lon="-0.3322">
        <ele>-18.842405</ele>
        <time>2022-04-02T10:40:54.000Z</time>
      </trkpt>
      <trkpt lat="39.38117" lon="-0.33222">
        <ele>-18.59039</ele>
        <time>2022-04-02T10:40:59.000Z</time>
      </trkpt>
      <trkpt lat="39.38123" lon="-0.3322">
        <ele>-18.545123</ele>
        <time>2022-04-02T10:41:01.000Z</time>
      </trkpt>
      <trkpt lat="39.38131" lon="-0.33216">
        <ele>-18.529537</ele>
        <time>2022-04-02T10:41:04.000Z</time>
      </trkpt>
      <trkpt lat="39.38134" lon="-0.33216">
        <ele>-18.524287</ele>
        <time>2022-04-02T10:41:06.000Z</time>
      </trkpt>
      <trkpt lat="39.38145" lon="-0.33216">
        <ele>-18.504249</ele>
        <time>2022-04-02T10:41:09.000Z</time>
      </trkpt>
      <trkpt lat="39.38154" lon="-0.33215">
        <ele>-18.486988</ele>
        <time>2022-04-02T10:41:12.000Z</time>
      </trkpt>
      <trkpt lat="39.38157" lon="-0.33215">
        <ele>-18.480997</ele>
        <time>2022-04-02T10:41:13.000Z</time>
      </trkpt>
      <trkpt lat="39.38172" lon="-0.33218">
        <ele>-18.452907</ele>
        <time>2022-04-02T10:41:18.000Z</time>
      </trkpt>
      <trkpt lat="39.38178" lon="-0.33218">
        <ele>-18.442015</ele>
        <time>2022-04-02T10:41:20.000Z</time>
      </trkpt>
      <trkpt lat="39.38203" lon="-0.33219">
        <ele>-18.395389</ele>
        <time>2022-04-02T10:41:29.000Z</time>
      </trkpt>
      <trkpt lat="39.38222" lon="-0.33222">
        <ele>-18.358088</ele>
        <time>2022-04-02T10:41:36.000Z</time>
      </trkpt>
      <trkpt lat="39.38239" lon="-0.33219">
        <ele>-18.326072</ele>
        <time>2022-04-02T10:41:41.000Z</time>
      </trkpt>
      <trkpt lat="39.38252" lon="-0.33207">
        <ele>-18.296601</ele>
        <time>2022-04-02T10:41:47.000Z</time>
      </trkpt>
      <trkpt lat="39.38252" lon="-0.33207">
        <ele>-18.296601</ele>
        <time>2022-04-02T10:41:52.000Z</time>
      </trkpt>
      <trkpt lat="39.38252" lon="-0.33207">
        <ele>-18.296601</ele>
        <time>2022-04-02T10:41:56.000Z</time>
      </trkpt>
      <trkpt lat="39.38252" lon="-0.33207">
        <ele>-18.296601</ele>
        <time>2022-04-02T10:42:00.000Z</time>
      </trkpt>
      <trkpt lat="39.38252" lon="-0.33207">
        <ele>-18.296601</ele>
        <time>2022-04-02T10:42:03.000Z</time>
      </trkpt>
      <trkpt lat="39.38252" lon="-0.33207">
        <ele>-18.296601</ele>
        <time>2022-04-02T10:42:07.000Z</time>
      </trkpt>
      <trkpt lat="39.38252" lon="-0.33207">
        <ele>-18.296601</ele>
        <time>2022-04-02T10:42:09.000Z</time>
      </trkpt>
      <trkpt lat="39.38252" lon="-0.33207">
        <ele>-18.296601</ele>
        <time>2022-04-02T10:42:11.000Z</time>
      </trkpt>
      <trkpt lat="39.38252" lon="-0.33207">
        <ele>-18.296601</ele>
        <time>2022-04-02T10:42:17.000Z</time>
      </trkpt>
      <trkpt lat="39.38252" lon="-0.33207">
        <ele>-18.296601</ele>
        <time>2022-04-02T10:42:22.000Z</time>
      </trkpt>
      <trkpt lat="39.38255" lon="-0.33207">
        <ele>-18.290986</ele>
        <time>2022-04-02T10:42:34.000Z</time>
      </trkpt>
      <trkpt lat="39.38258" lon="-0.33207">
        <ele>-18.285931</ele>
        <time>2022-04-02T10:42:35.000Z</time>
      </trkpt>
      <trkpt lat="39.38271" lon="-0.33208">
        <ele>-18.262129</ele>
        <time>2022-04-02T10:42:40.000Z</time>
      </trkpt>
      <trkpt lat="39.38289" lon="-0.33223">
        <ele>-18.222521</ele>
        <time>2022-04-02T10:42:45.000Z</time>
      </trkpt>
      <trkpt lat="39.38294" lon="-0.33227">
        <ele>-18.215484</ele>
        <time>2022-04-02T10:42:47.000Z</time>
      </trkpt>
      <trkpt lat="39.38297" lon="-0.33228">
        <ele>-18.229658</ele>
        <time>2022-04-02T10:42:49.000Z</time>
      </trkpt>
      <trkpt lat="39.38328" lon="-0.33235">
        <ele>-18.356155</ele>
        <time>2022-04-02T10:42:57.000Z</time>
      </trkpt>
      <trkpt lat="39.38365" lon="-0.33236">
        <ele>-18.511068</ele>
        <time>2022-04-02T10:43:05.000Z</time>
      </trkpt>
      <trkpt lat="39.38387" lon="-0.3324">
        <ele>-18.600538</ele>
        <time>2022-04-02T10:43:10.000Z</time>
      </trkpt>
      <trkpt lat="39.3841" lon="-0.33235">
        <ele>-18.698991</ele>
        <time>2022-04-02T10:43:15.000Z</time>
      </trkpt>
      <trkpt lat="39.38415" lon="-0.33233">
        <ele>-18.71918</ele>
        <time>2022-04-02T10:43:16.000Z</time>
      </trkpt>
      <trkpt lat="39.38425" lon="-0.3323">
        <ele>-18.759364</ele>
        <time>2022-04-02T10:43:18.000Z</time>
      </trkpt>
      <trkpt lat="39.38438" lon="-0.33225">
        <ele>-18.817748</ele>
        <time>2022-04-02T10:43:21.000Z</time>
      </trkpt>
      <trkpt lat="39.38452" lon="-0.33219">
        <ele>-18.87631</ele>
        <time>2022-04-02T10:43:24.000Z</time>
      </trkpt>
      <trkpt lat="39.38461" lon="-0.33216">
        <ele>-18.914306</ele>
        <time>2022-04-02T10:43:26.000Z</time>
      </trkpt>
      <trkpt lat="39.38494" lon="-0.33201">
        <ele>-19.000638</ele>
        <time>2022-04-02T10:43:33.000Z</time>
      </trkpt>
      <trkpt lat="39.38504" lon="-0.33197">
        <ele>-19.019504</ele>
        <time>2022-04-02T10:43:36.000Z</time>
      </trkpt>
      <trkpt lat="39.3853" lon="-0.33192">
        <ele>-19.067246</ele>
        <time>2022-04-02T10:43:40.000Z</time>
      </trkpt>
      <trkpt lat="39.38541" lon="-0.33191">
        <ele>-19.088383</ele>
        <time>2022-04-02T10:43:42.000Z</time>
      </trkpt>
      <trkpt lat="39.38559" lon="-0.3319">
        <ele>-19.121079</ele>
        <time>2022-04-02T10:43:45.000Z</time>
      </trkpt>
      <trkpt lat="39.38577" lon="-0.33189">
        <ele>-19.154911</ele>
        <time>2022-04-02T10:43:48.000Z</time>
      </trkpt>
      <trkpt lat="39.38589" lon="-0.33188">
        <ele>-19.176064</ele>
        <time>2022-04-02T10:43:50.000Z</time>
      </trkpt>
      <trkpt lat="39.38627" lon="-0.33185">
        <ele>-19.246144</ele>
        <time>2022-04-02T10:43:57.000Z</time>
      </trkpt>
      <trkpt lat="39.38632" lon="-0.33185">
        <ele>-19.255701</ele>
        <time>2022-04-02T10:43:58.000Z</time>
      </trkpt>
      <trkpt lat="39.38653" lon="-0.33183">
        <ele>-19.284591</ele>
        <time>2022-04-02T10:44:02.000Z</time>
      </trkpt>
      <trkpt lat="39.38669" lon="-0.33182">
        <ele>-19.288059</ele>
        <time>2022-04-02T10:44:05.000Z</time>
      </trkpt>
      <trkpt lat="39.38689" lon="-0.3318">
        <ele>-19.292494</ele>
        <time>2022-04-02T10:44:09.000Z</time>
      </trkpt>
      <trkpt lat="39.38709" lon="-0.33178">
        <ele>-19.297017</ele>
        <time>2022-04-02T10:44:14.000Z</time>
      </trkpt>
      <trkpt lat="39.38745" lon="-0.33172">
        <ele>-19.305113</ele>
        <time>2022-04-02T10:44:20.000Z</time>
      </trkpt>
      <trkpt lat="39.38755" lon="-0.33169">
        <ele>-19.307268</ele>
        <time>2022-04-02T10:44:23.000Z</time>
      </trkpt>
      <trkpt lat="39.38779" lon="-0.33161">
        <ele>-19.312736</ele>
        <time>2022-04-02T10:44:27.000Z</time>
      </trkpt>
      <trkpt lat="39.38787" lon="-0.33158">
        <ele>-19.314787</ele>
        <time>2022-04-02T10:44:29.000Z</time>
      </trkpt>
      <trkpt lat="39.38796" lon="-0.33158">
        <ele>-19.31666</ele>
        <time>2022-04-02T10:44:31.000Z</time>
      </trkpt>
      <trkpt lat="39.38811" lon="-0.33156">
        <ele>-19.319968</ele>
        <time>2022-04-02T10:44:35.000Z</time>
      </trkpt>
      <trkpt lat="39.38814" lon="-0.33155">
        <ele>-19.320835</ele>
        <time>2022-04-02T10:44:36.000Z</time>
      </trkpt>
      <trkpt lat="39.38849" lon="-0.33143">
        <ele>-18.995935</ele>
        <time>2022-04-02T10:44:44.000Z</time>
      </trkpt>
      <trkpt lat="39.38863" lon="-0.33139">
        <ele>-18.812679</ele>
        <time>2022-04-02T10:44:47.000Z</time>
      </trkpt>
      <trkpt lat="39.3888" lon="-0.33136">
        <ele>-18.590212</ele>
        <time>2022-04-02T10:44:51.000Z</time>
      </trkpt>
      <trkpt lat="39.38887" lon="-0.3313">
        <ele>-18.475949</ele>
        <time>2022-04-02T10:44:53.000Z</time>
      </trkpt>
      <trkpt lat="39.38893" lon="-0.33121">
        <ele>-18.359417</ele>
        <time>2022-04-02T10:44:55.000Z</time>
      </trkpt>
      <trkpt lat="39.38897" lon="-0.33114">
        <ele>-18.267495</ele>
        <time>2022-04-02T10:44:57.000Z</time>
      </trkpt>
      <trkpt lat="39.38896" lon="-0.33108">
        <ele>-18.207268</ele>
        <time>2022-04-02T10:44:59.000Z</time>
      </trkpt>
      <trkpt lat="39.38895" lon="-0.33106">
        <ele>-18.17864</ele>
        <time>2022-04-02T10:45:00.000Z</time>
      </trkpt>
      <trkpt lat="39.38892" lon="-0.33102">
        <ele>-18.124239</ele>
        <time>2022-04-02T10:45:02.000Z</time>
      </trkpt>
      <trkpt lat="39.3889" lon="-0.331">
        <ele>-18.096397</ele>
        <time>2022-04-02T10:45:03.000Z</time>
      </trkpt>
      <trkpt lat="39.38884" lon="-0.33084">
        <ele>-17.914189</ele>
        <time>2022-04-02T10:45:08.000Z</time>
      </trkpt>
      <trkpt lat="39.38883" lon="-0.33079">
        <ele>-17.864402</ele>
        <time>2022-04-02T10:45:09.000Z</time>
      </trkpt>
      <trkpt lat="39.38882" lon="-0.33067">
        <ele>-17.742531</ele>
        <time>2022-04-02T10:45:12.000Z</time>
      </trkpt>
      <trkpt lat="39.38881" lon="-0.33063">
        <ele>-17.697</ele>
        <time>2022-04-02T10:45:13.000Z</time>
      </trkpt>
      <trkpt lat="39.38876" lon="-0.33046">
        <ele>-17.518975</ele>
        <time>2022-04-02T10:45:17.000Z</time>
      </trkpt>
      <trkpt lat="39.38874" lon="-0.33042">
        <ele>-17.463946</ele>
        <time>2022-04-02T10:45:18.000Z</time>
      </trkpt>
      <trkpt lat="39.38865" lon="-0.33013">
        <ele>-17.159373</ele>
        <time>2022-04-02T10:45:24.000Z</time>
      </trkpt>
      <trkpt lat="39.3886" lon="-0.32997">
        <ele>-16.996333</ele>
        <time>2022-04-02T10:45:27.000Z</time>
      </trkpt>
      <trkpt lat="39.38853" lon="-0.32982">
        <ele>-17.049134</ele>
        <time>2022-04-02T10:45:30.000Z</time>
      </trkpt>
      <trkpt lat="39.3885" lon="-0.3297">
        <ele>-17.086898</ele>
        <time>2022-04-02T10:45:32.000Z</time>
      </trkpt>
      <trkpt lat="39.38849" lon="-0.32958">
        <ele>-17.124709</ele>
        <time>2022-04-02T10:45:34.000Z</time>
      </trkpt>
      <trkpt lat="39.38849" lon="-0.32952">
        <ele>-17.143799</ele>
        <time>2022-04-02T10:45:35.000Z</time>
      </trkpt>
      <trkpt lat="39.38849" lon="-0.32933">
        <ele>-17.20107</ele>
        <time>2022-04-02T10:45:38.000Z</time>
      </trkpt>
      <trkpt lat="39.38844" lon="-0.32915">
        <ele>-17.259481</ele>
        <time>2022-04-02T10:45:41.000Z</time>
      </trkpt>
      <trkpt lat="39.38835" lon="-0.32886">
        <ele>-17.356839</ele>
        <time>2022-04-02T10:45:46.000Z</time>
      </trkpt>
      <trkpt lat="39.38827" lon="-0.32872">
        <ele>-17.409987</ele>
        <time>2022-04-02T10:45:49.000Z</time>
      </trkpt>
      <trkpt lat="39.38818" lon="-0.32853">
        <ele>-17.478701</ele>
        <time>2022-04-02T10:45:53.000Z</time>
      </trkpt>
      <trkpt lat="39.38813" lon="-0.32839">
        <ele>-17.527137</ele>
        <time>2022-04-02T10:45:56.000Z</time>
      </trkpt>
      <trkpt lat="39.38812" lon="-0.32833">
        <ele>-17.544434</ele>
        <time>2022-04-02T10:45:57.000Z</time>
      </trkpt>
      <trkpt lat="39.38808" lon="-0.32812">
        <ele>-17.611014</ele>
        <time>2022-04-02T10:46:01.000Z</time>
      </trkpt>
      <trkpt lat="39.38806" lon="-0.32805">
        <ele>-17.634993</ele>
        <time>2022-04-02T10:46:03.000Z</time>
      </trkpt>
      <trkpt lat="39.38802" lon="-0.32798">
        <ele>-17.659711</ele>
        <time>2022-04-02T10:46:05.000Z</time>
      </trkpt>
      <trkpt lat="39.38799" lon="-0.3279">
        <ele>-17.688279</ele>
        <time>2022-04-02T10:46:07.000Z</time>
      </trkpt>
      <trkpt lat="39.38797" lon="-0.32786">
        <ele>-17.703333</ele>
        <time>2022-04-02T10:46:08.000Z</time>
      </trkpt>
      <trkpt lat="39.38795" lon="-0.32782">
        <ele>-17.721141</ele>
        <time>2022-04-02T10:46:09.000Z</time>
      </trkpt>
      <trkpt lat="39.38791" lon="-0.32774">
        <ele>-17.759615</ele>
        <time>2022-04-02T10:46:11.000Z</time>
      </trkpt>
      <trkpt lat="39.38785" lon="-0.32767">
        <ele>-17.802706</ele>
        <time>2022-04-02T10:46:14.000Z</time>
      </trkpt>
      <trkpt lat="39.38786" lon="-0.32763">
        <ele>-17.820695</ele>
        <time>2022-04-02T10:46:16.000Z</time>
      </trkpt>
      <trkpt lat="39.38788" lon="-0.32762">
        <ele>-17.830403</ele>
        <time>2022-04-02T10:46:17.000Z</time>
      </trkpt>
      <trkpt lat="39.38792" lon="-0.32755">
        <ele>-17.864101</ele>
        <time>2022-04-02T10:46:22.000Z</time>
      </trkpt>
      <trkpt lat="39.38792" lon="-0.32751">
        <ele>-17.881786</ele>
        <time>2022-04-02T10:46:23.000Z</time>
      </trkpt>
      <trkpt lat="39.3879" lon="-0.32743">
        <ele>-17.913458</ele>
        <time>2022-04-02T10:46:26.000Z</time>
      </trkpt>
      <trkpt lat="39.38788" lon="-0.32741">
        <ele>-17.926895</ele>
        <time>2022-04-02T10:46:28.000Z</time>
      </trkpt>
      <trkpt lat="39.38783" lon="-0.32738">
        <ele>-17.953628</ele>
        <time>2022-04-02T10:46:29.000Z</time>
      </trkpt>
      <trkpt lat="39.38777" lon="-0.32738">
        <ele>-17.984821</ele>
        <time>2022-04-02T10:46:31.000Z</time>
      </trkpt>
      <trkpt lat="39.38766" lon="-0.32748">
        <ele>-18.056403</ele>
        <time>2022-04-02T10:46:36.000Z</time>
      </trkpt>
      <trkpt lat="39.38764" lon="-0.3275">
        <ele>-18.067245</ele>
        <time>2022-04-02T10:46:40.000Z</time>
      </trkpt>
      <trkpt lat="39.38764" lon="-0.3275">
        <ele>-18.069965</ele>
        <time>2022-04-02T10:46:42.000Z</time>
      </trkpt>
      <trkpt lat="39.38762" lon="-0.32747">
        <ele>-18.083318</ele>
        <time>2022-04-02T10:46:43.000Z</time>
      </trkpt>
      <trkpt lat="39.38761" lon="-0.32745">
        <ele>-18.094987</ele>
        <time>2022-04-02T10:46:44.000Z</time>
      </trkpt>
      <trkpt lat="39.38762" lon="-0.32742">
        <ele>-18.105638</ele>
        <time>2022-04-02T10:46:45.000Z</time>
      </trkpt>
      <trkpt lat="39.38766" lon="-0.32738">
        <ele>-18.13036</ele>
        <time>2022-04-02T10:46:47.000Z</time>
      </trkpt>
      <trkpt lat="39.38768" lon="-0.32737">
        <ele>-18.145359</ele>
        <time>2022-04-02T10:46:48.000Z</time>
      </trkpt>
      <trkpt lat="39.38768" lon="-0.32737">
        <ele>-18.145359</ele>
        <time>2022-04-02T10:46:49.000Z</time>
      </trkpt>
      <trkpt lat="39.38782" lon="-0.32735">
        <ele>-18.219342</ele>
        <time>2022-04-02T10:46:52.000Z</time>
      </trkpt>
      <trkpt lat="39.38786" lon="-0.32737">
        <ele>-18.237006</ele>
        <time>2022-04-02T10:46:53.000Z</time>
      </trkpt>
      <trkpt lat="39.38788" lon="-0.32739">
        <ele>-18.252621</ele>
        <time>2022-04-02T10:46:54.000Z</time>
      </trkpt>
      <trkpt lat="39.38789" lon="-0.32742">
        <ele>-18.265402</ele>
        <time>2022-04-02T10:46:56.000Z</time>
      </trkpt>
      <trkpt lat="39.38792" lon="-0.32755">
        <ele>-18.320984</ele>
        <time>2022-04-02T10:47:01.000Z</time>
      </trkpt>
      <trkpt lat="39.38795" lon="-0.32771">
        <ele>-18.387287</ele>
        <time>2022-04-02T10:47:05.000Z</time>
      </trkpt>
      <trkpt lat="39.38799" lon="-0.32779">
        <ele>-18.423616</ele>
        <time>2022-04-02T10:47:07.000Z</time>
      </trkpt>
      <trkpt lat="39.38801" lon="-0.32783">
        <ele>-18.441104</ele>
        <time>2022-04-02T10:47:08.000Z</time>
      </trkpt>
      <trkpt lat="39.38811" lon="-0.32807">
        <ele>-18.553913</ele>
        <time>2022-04-02T10:47:14.000Z</time>
      </trkpt>
      <trkpt lat="39.38817" lon="-0.3283">
        <ele>-18.643922</ele>
        <time>2022-04-02T10:47:19.000Z</time>
      </trkpt>
      <trkpt lat="39.38821" lon="-0.32844">
        <ele>-18.644618</ele>
        <time>2022-04-02T10:47:22.000Z</time>
      </trkpt>
      <trkpt lat="39.38834" lon="-0.32875">
        <ele>-18.64634</ele>
        <time>2022-04-02T10:47:29.000Z</time>
      </trkpt>
      <trkpt lat="39.38848" lon="-0.32909">
        <ele>-18.648179</ele>
        <time>2022-04-02T10:47:36.000Z</time>
      </trkpt>
      <trkpt lat="39.38851" lon="-0.3292">
        <ele>-18.648722</ele>
        <time>2022-04-02T10:47:38.000Z</time>
      </trkpt>
      <trkpt lat="39.38853" lon="-0.32931">
        <ele>-18.649274</ele>
        <time>2022-04-02T10:47:40.000Z</time>
      </trkpt>
      <trkpt lat="39.38855" lon="-0.32943">
        <ele>-18.649864</ele>
        <time>2022-04-02T10:47:42.000Z</time>
      </trkpt>
      <trkpt lat="39.38855" lon="-0.32955">
        <ele>-18.650435</ele>
        <time>2022-04-02T10:47:44.000Z</time>
      </trkpt>
      <trkpt lat="39.38855" lon="-0.32955">
        <ele>-18.650435</ele>
        <time>2022-04-02T10:47:45.000Z</time>
      </trkpt>
      <trkpt lat="39.38856" lon="-0.32967">
        <ele>-18.650993</ele>
        <time>2022-04-02T10:47:46.000Z</time>
      </trkpt>
      <trkpt lat="39.38857" lon="-0.32972">
        <ele>-18.651275</ele>
        <time>2022-04-02T10:47:47.000Z</time>
      </trkpt>
      <trkpt lat="39.38858" lon="-0.32978">
        <ele>-18.651558</ele>
        <time>2022-04-02T10:47:48.000Z</time>
      </trkpt>
      <trkpt lat="39.38862" lon="-0.32989">
        <ele>-18.652108</ele>
        <time>2022-04-02T10:47:50.000Z</time>
      </trkpt>
      <trkpt lat="39.38872" lon="-0.3302">
        <ele>-18.653739</ele>
        <time>2022-04-02T10:47:56.000Z</time>
      </trkpt>
      <trkpt lat="39.38873" lon="-0.33026">
        <ele>-18.654013</ele>
        <time>2022-04-02T10:47:57.000Z</time>
      </trkpt>
      <trkpt lat="39.38876" lon="-0.33036">
        <ele>-18.654567</ele>
        <time>2022-04-02T10:47:59.000Z</time>
      </trkpt>
      <trkpt lat="39.38881" lon="-0.33047">
        <ele>-18.677877</ele>
        <time>2022-04-02T10:48:01.000Z</time>
      </trkpt>
      <trkpt lat="39.38883" lon="-0.33052">
        <ele>-18.719015</ele>
        <time>2022-04-02T10:48:02.000Z</time>
      </trkpt>
      <trkpt lat="39.38887" lon="-0.3307">
        <ele>-18.845319</ele>
        <time>2022-04-02T10:48:05.000Z</time>
      </trkpt>
      <trkpt lat="39.38889" lon="-0.33085">
        <ele>-18.953828</ele>
        <time>2022-04-02T10:48:08.000Z</time>
      </trkpt>
      <trkpt lat="39.38901" lon="-0.33109">
        <ele>-19.149342</ele>
        <time>2022-04-02T10:48:14.000Z</time>
      </trkpt>
      <trkpt lat="39.38905" lon="-0.33111">
        <ele>-19.191021</ele>
        <time>2022-04-02T10:48:16.000Z</time>
      </trkpt>
      <trkpt lat="39.38907" lon="-0.33111">
        <ele>-19.206354</ele>
        <time>2022-04-02T10:48:17.000Z</time>
      </trkpt>
      <trkpt lat="39.38918" lon="-0.33111">
        <ele>-19.303855</ele>
        <time>2022-04-02T10:48:22.000Z</time>
      </trkpt>
      <trkpt lat="39.38924" lon="-0.33113">
        <ele>-19.361369</ele>
        <time>2022-04-02T10:48:23.000Z</time>
      </trkpt>
      <trkpt lat="39.38938" lon="-0.33114">
        <ele>-19.489287</ele>
        <time>2022-04-02T10:48:28.000Z</time>
      </trkpt>
      <trkpt lat="39.3896" lon="-0.33106">
        <ele>-19.685213</ele>
        <time>2022-04-02T10:48:32.000Z</time>
      </trkpt>
      <trkpt lat="39.38969" lon="-0.33102">
        <ele>-19.774933</ele>
        <time>2022-04-02T10:48:34.000Z</time>
      </trkpt>
      <trkpt lat="39.38974" lon="-0.33101">
        <ele>-19.819933</ele>
        <time>2022-04-02T10:48:35.000Z</time>
      </trkpt>
      <trkpt lat="39.38979" lon="-0.33099">
        <ele>-19.862328</ele>
        <time>2022-04-02T10:48:36.000Z</time>
      </trkpt>
      <trkpt lat="39.38988" lon="-0.33095">
        <ele>-19.952505</ele>
        <time>2022-04-02T10:48:38.000Z</time>
      </trkpt>
      <trkpt lat="39.38998" lon="-0.33092">
        <ele>-20.040412</ele>
        <time>2022-04-02T10:48:40.000Z</time>
      </trkpt>
      <trkpt lat="39.39016" lon="-0.33087">
        <ele>-20.209913</ele>
        <time>2022-04-02T10:48:44.000Z</time>
      </trkpt>
      <trkpt lat="39.3904" lon="-0.33081">
        <ele>-20.252595</ele>
        <time>2022-04-02T10:48:49.000Z</time>
      </trkpt>
      <trkpt lat="39.3904" lon="-0.33081">
        <ele>-20.252595</ele>
        <time>2022-04-02T10:48:50.000Z</time>
      </trkpt>
      <trkpt lat="39.39074" lon="-0.33083">
        <ele>-20.234099</ele>
        <time>2022-04-02T10:48:56.000Z</time>
      </trkpt>
      <trkpt lat="39.39088" lon="-0.33083">
        <ele>-20.226659</ele>
        <time>2022-04-02T10:48:59.000Z</time>
      </trkpt>
      <trkpt lat="39.39115" lon="-0.33086">
        <ele>-20.212343</ele>
        <time>2022-04-02T10:49:05.000Z</time>
      </trkpt>
      <trkpt lat="39.39151" lon="-0.33089">
        <ele>-20.192593</ele>
        <time>2022-04-02T10:49:14.000Z</time>
      </trkpt>
      <trkpt lat="39.39208" lon="-0.33088">
        <ele>-20.14057</ele>
        <time>2022-04-02T10:49:25.000Z</time>
      </trkpt>
      <trkpt lat="39.39222" lon="-0.33088">
        <ele>-20.087266</ele>
        <time>2022-04-02T10:49:28.000Z</time>
      </trkpt>
      <trkpt lat="39.39251" lon="-0.33087">
        <ele>-19.981009</ele>
        <time>2022-04-02T10:49:34.000Z</time>
      </trkpt>
      <trkpt lat="39.39255" lon="-0.33086">
        <ele>-19.963174</ele>
        <time>2022-04-02T10:49:35.000Z</time>
      </trkpt>
      <trkpt lat="39.39269" lon="-0.33083">
        <ele>-19.911526</ele>
        <time>2022-04-02T10:49:38.000Z</time>
      </trkpt>
      <trkpt lat="39.39274" lon="-0.33083">
        <ele>-19.893845</ele>
        <time>2022-04-02T10:49:40.000Z</time>
      </trkpt>
      <trkpt lat="39.39274" lon="-0.33083">
        <ele>-19.891201</ele>
        <time>2022-04-02T10:49:42.000Z</time>
      </trkpt>
      <trkpt lat="39.39274" lon="-0.33083">
        <ele>-19.891201</ele>
        <time>2022-04-02T10:49:44.000Z</time>
      </trkpt>
      <trkpt lat="39.39274" lon="-0.33084">
        <ele>-19.889136</ele>
        <time>2022-04-02T10:49:53.000Z</time>
      </trkpt>
      <trkpt lat="39.39274" lon="-0.33084">
        <ele>-19.889136</ele>
        <time>2022-04-02T10:50:07.000Z</time>
      </trkpt>
      <trkpt lat="39.39274" lon="-0.33084">
        <ele>-19.889136</ele>
        <time>2022-04-02T10:50:10.000Z</time>
      </trkpt>
      <trkpt lat="39.39274" lon="-0.33084">
        <ele>-19.889136</ele>
        <time>2022-04-02T10:50:22.000Z</time>
      </trkpt>
      <trkpt lat="39.39274" lon="-0.33084">
        <ele>-19.889136</ele>
        <time>2022-04-02T10:50:24.000Z</time>
      </trkpt>
      <trkpt lat="39.39274" lon="-0.33084">
        <ele>-19.888846</ele>
        <time>2022-04-02T10:50:35.000Z</time>
      </trkpt>
      <trkpt lat="39.39274" lon="-0.33084">
        <ele>-19.888846</ele>
        <time>2022-04-02T10:50:37.000Z</time>
      </trkpt>
      <trkpt lat="39.39274" lon="-0.33084">
        <ele>-19.887464</ele>
        <time>2022-04-02T10:50:38.000Z</time>
      </trkpt>
      <trkpt lat="39.39273" lon="-0.33086">
        <ele>-19.880372</ele>
        <time>2022-04-02T10:50:39.000Z</time>
      </trkpt>
      <trkpt lat="39.39265" lon="-0.33091">
        <ele>-19.846457</ele>
        <time>2022-04-02T10:50:42.000Z</time>
      </trkpt>
      <trkpt lat="39.39259" lon="-0.33095">
        <ele>-19.821253</ele>
        <time>2022-04-02T10:50:44.000Z</time>
      </trkpt>
      <trkpt lat="39.39251" lon="-0.33097">
        <ele>-19.791767</ele>
        <time>2022-04-02T10:50:46.000Z</time>
      </trkpt>
      <trkpt lat="39.39237" lon="-0.33097">
        <ele>-19.739945</ele>
        <time>2022-04-02T10:50:49.000Z</time>
      </trkpt>
      <trkpt lat="39.39222" lon="-0.33096">
        <ele>-19.684737</ele>
        <time>2022-04-02T10:50:52.000Z</time>
      </trkpt>
      <trkpt lat="39.39201" lon="-0.33096">
        <ele>-19.605155</ele>
        <time>2022-04-02T10:50:56.000Z</time>
      </trkpt>
      <trkpt lat="39.39196" lon="-0.33096">
        <ele>-19.585258</ele>
        <time>2022-04-02T10:50:57.000Z</time>
      </trkpt>
      <trkpt lat="39.39167" lon="-0.33096">
        <ele>-19.486544</ele>
        <time>2022-04-02T10:51:02.000Z</time>
      </trkpt>
      <trkpt lat="39.39144" lon="-0.33095">
        <ele>-19.458995</ele>
        <time>2022-04-02T10:51:06.000Z</time>
      </trkpt>
      <trkpt lat="39.3909" lon="-0.33091">
        <ele>-19.394571</ele>
        <time>2022-04-02T10:51:16.000Z</time>
      </trkpt>
      <trkpt lat="39.39079" lon="-0.3309">
        <ele>-19.381657</ele>
        <time>2022-04-02T10:51:18.000Z</time>
      </trkpt>
      <trkpt lat="39.3905" lon="-0.33089">
        <ele>-19.347248</ele>
        <time>2022-04-02T10:51:24.000Z</time>
      </trkpt>
      <trkpt lat="39.39046" lon="-0.33088">
        <ele>-19.342989</ele>
        <time>2022-04-02T10:51:25.000Z</time>
      </trkpt>
      <trkpt lat="39.39036" lon="-0.33084">
        <ele>-19.330476</ele>
        <time>2022-04-02T10:51:28.000Z</time>
      </trkpt>
      <trkpt lat="39.39036" lon="-0.33081">
        <ele>-19.327558</ele>
        <time>2022-04-02T10:51:29.000Z</time>
      </trkpt>
      <trkpt lat="39.39035" lon="-0.33072">
        <ele>-19.319699</ele>
        <time>2022-04-02T10:51:32.000Z</time>
      </trkpt>
      <trkpt lat="39.39032" lon="-0.33066">
        <ele>-19.312784</ele>
        <time>2022-04-02T10:51:34.000Z</time>
      </trkpt>
      <trkpt lat="39.39033" lon="-0.33045">
        <ele>-19.294328</ele>
        <time>2022-04-02T10:51:39.000Z</time>
      </trkpt>
      <trkpt lat="39.39044" lon="-0.33032">
        <ele>-19.276156</ele>
        <time>2022-04-02T10:51:43.000Z</time>
      </trkpt>
      <trkpt lat="39.39051" lon="-0.33026">
        <ele>-19.269145</ele>
        <time>2022-04-02T10:51:46.000Z</time>
      </trkpt>
      <trkpt lat="39.39071" lon="-0.3301">
        <ele>-19.24731</ele>
        <time>2022-04-02T10:51:51.000Z</time>
      </trkpt>
      <trkpt lat="39.39093" lon="-0.3299">
        <ele>-19.222751</ele>
        <time>2022-04-02T10:51:57.000Z</time>
      </trkpt>
      <trkpt lat="39.39109" lon="-0.32978">
        <ele>-19.205661</ele>
        <time>2022-04-02T10:52:01.000Z</time>
      </trkpt>
      <trkpt lat="39.39126" lon="-0.32964">
        <ele>-19.187772</ele>
        <time>2022-04-02T10:52:05.000Z</time>
      </trkpt>
      <trkpt lat="39.39138" lon="-0.32954">
        <ele>-19.174403</ele>
        <time>2022-04-02T10:52:08.000Z</time>
      </trkpt>
      <trkpt lat="39.39142" lon="-0.3295">
        <ele>-19.169919</ele>
        <time>2022-04-02T10:52:10.000Z</time>
      </trkpt>
      <trkpt lat="39.39151" lon="-0.32944">
        <ele>-19.160841</ele>
        <time>2022-04-02T10:52:11.000Z</time>
      </trkpt>
      <trkpt lat="39.39155" lon="-0.3294">
        <ele>-19.156282</ele>
        <time>2022-04-02T10:52:12.000Z</time>
      </trkpt>
      <trkpt lat="39.39159" lon="-0.32937">
        <ele>-19.151839</ele>
        <time>2022-04-02T10:52:13.000Z</time>
      </trkpt>
      <trkpt lat="39.39163" lon="-0.32933">
        <ele>-19.147395</ele>
        <time>2022-04-02T10:52:14.000Z</time>
      </trkpt>
      <trkpt lat="39.39172" lon="-0.32927">
        <ele>-19.138193</ele>
        <time>2022-04-02T10:52:16.000Z</time>
      </trkpt>
      <trkpt lat="39.39176" lon="-0.32923">
        <ele>-19.133632</ele>
        <time>2022-04-02T10:52:17.000Z</time>
      </trkpt>
      <trkpt lat="39.39185" lon="-0.32916">
        <ele>-19.124399</ele>
        <time>2022-04-02T10:52:19.000Z</time>
      </trkpt>
      <trkpt lat="39.39189" lon="-0.32912">
        <ele>-19.119802</ele>
        <time>2022-04-02T10:52:20.000Z</time>
      </trkpt>
      <trkpt lat="39.39197" lon="-0.32905">
        <ele>-19.133815</ele>
        <time>2022-04-02T10:52:22.000Z</time>
      </trkpt>
      <trkpt lat="39.39202" lon="-0.32902">
        <ele>-19.165844</ele>
        <time>2022-04-02T10:52:24.000Z</time>
      </trkpt>
      <trkpt lat="39.3921" lon="-0.32895">
        <ele>-19.229231</ele>
        <time>2022-04-02T10:52:25.000Z</time>
      </trkpt>
      <trkpt lat="39.39215" lon="-0.32892">
        <ele>-19.262854</ele>
        <time>2022-04-02T10:52:26.000Z</time>
      </trkpt>
      <trkpt lat="39.39241" lon="-0.32882">
        <ele>-19.426933</ele>
        <time>2022-04-02T10:52:31.000Z</time>
      </trkpt>
      <trkpt lat="39.39246" lon="-0.32881">
        <ele>-19.459001</ele>
        <time>2022-04-02T10:52:32.000Z</time>
      </trkpt>
      <trkpt lat="39.39277" lon="-0.32878">
        <ele>-19.654906</ele>
        <time>2022-04-02T10:52:38.000Z</time>
      </trkpt>
      <trkpt lat="39.39282" lon="-0.32878">
        <ele>-19.687173</ele>
        <time>2022-04-02T10:52:39.000Z</time>
      </trkpt>
      <trkpt lat="39.39288" lon="-0.32878">
        <ele>-19.718838</ele>
        <time>2022-04-02T10:52:40.000Z</time>
      </trkpt>
      <trkpt lat="39.39345" lon="-0.32873">
        <ele>-20.07625</ele>
        <time>2022-04-02T10:52:51.000Z</time>
      </trkpt>
      <trkpt lat="39.3935" lon="-0.32872">
        <ele>-20.108592</ele>
        <time>2022-04-02T10:52:52.000Z</time>
      </trkpt>
      <trkpt lat="39.3936" lon="-0.32871">
        <ele>-20.170265</ele>
        <time>2022-04-02T10:52:54.000Z</time>
      </trkpt>
      <trkpt lat="39.3938" lon="-0.32867">
        <ele>-20.246367</ele>
        <time>2022-04-02T10:52:58.000Z</time>
      </trkpt>
      <trkpt lat="39.394" lon="-0.32862">
        <ele>-20.28184</ele>
        <time>2022-04-02T10:53:02.000Z</time>
      </trkpt>
      <trkpt lat="39.39426" lon="-0.3286">
        <ele>-20.326504</ele>
        <time>2022-04-02T10:53:07.000Z</time>
      </trkpt>
      <trkpt lat="39.39447" lon="-0.3286">
        <ele>-20.360959</ele>
        <time>2022-04-02T10:53:11.000Z</time>
      </trkpt>
      <trkpt lat="39.39456" lon="-0.32859">
        <ele>-20.377767</ele>
        <time>2022-04-02T10:53:13.000Z</time>
      </trkpt>
      <trkpt lat="39.39472" lon="-0.32859">
        <ele>-20.403913</ele>
        <time>2022-04-02T10:53:17.000Z</time>
      </trkpt>
      <trkpt lat="39.39487" lon="-0.32857">
        <ele>-20.43013</ele>
        <time>2022-04-02T10:53:19.000Z</time>
      </trkpt>
      <trkpt lat="39.39497" lon="-0.32854">
        <ele>-20.447466</ele>
        <time>2022-04-02T10:53:21.000Z</time>
      </trkpt>
      <trkpt lat="39.39506" lon="-0.32853">
        <ele>-20.463068</ele>
        <time>2022-04-02T10:53:23.000Z</time>
      </trkpt>
      <trkpt lat="39.39514" lon="-0.32853">
        <ele>-20.47549</ele>
        <time>2022-04-02T10:53:25.000Z</time>
      </trkpt>
      <trkpt lat="39.39525" lon="-0.32857">
        <ele>-20.494595</ele>
        <time>2022-04-02T10:53:28.000Z</time>
      </trkpt>
      <trkpt lat="39.39547" lon="-0.3286">
        <ele>-20.532332</ele>
        <time>2022-04-02T10:53:33.000Z</time>
      </trkpt>
      <trkpt lat="39.39592" lon="-0.32865">
        <ele>-20.753777</ele>
        <time>2022-04-02T10:53:42.000Z</time>
      </trkpt>
      <trkpt lat="39.39617" lon="-0.32868">
        <ele>-20.879915</ele>
        <time>2022-04-02T10:53:47.000Z</time>
      </trkpt>
      <trkpt lat="39.3962" lon="-0.3287">
        <ele>-20.899339</ele>
        <time>2022-04-02T10:53:48.000Z</time>
      </trkpt>
      <trkpt lat="39.39623" lon="-0.32873">
        <ele>-20.917349</ele>
        <time>2022-04-02T10:53:49.000Z</time>
      </trkpt>
      <trkpt lat="39.39625" lon="-0.32883">
        <ele>-20.955754</ele>
        <time>2022-04-02T10:53:51.000Z</time>
      </trkpt>
      <trkpt lat="39.39628" lon="-0.32894">
        <ele>-20.999333</ele>
        <time>2022-04-02T10:53:53.000Z</time>
      </trkpt>
      <trkpt lat="39.39633" lon="-0.32902">
        <ele>-21.04304</ele>
        <time>2022-04-02T10:53:55.000Z</time>
      </trkpt>
      <trkpt lat="39.39638" lon="-0.32905">
        <ele>-21.066005</ele>
        <time>2022-04-02T10:53:56.000Z</time>
      </trkpt>
      <trkpt lat="39.39642" lon="-0.32907">
        <ele>-21.088092</ele>
        <time>2022-04-02T10:53:57.000Z</time>
      </trkpt>
      <trkpt lat="39.39655" lon="-0.3291">
        <ele>-21.156748</ele>
        <time>2022-04-02T10:54:00.000Z</time>
      </trkpt>
      <trkpt lat="39.39664" lon="-0.32913">
        <ele>-21.20262</ele>
        <time>2022-04-02T10:54:02.000Z</time>
      </trkpt>
      <trkpt lat="39.39688" lon="-0.3292">
        <ele>-21.323486</ele>
        <time>2022-04-02T10:54:07.000Z</time>
      </trkpt>
      <trkpt lat="39.39696" lon="-0.32926">
        <ele>-21.369799</ele>
        <time>2022-04-02T10:54:09.000Z</time>
      </trkpt>
      <trkpt lat="39.39699" lon="-0.32936">
        <ele>-21.412222</ele>
        <time>2022-04-02T10:54:11.000Z</time>
      </trkpt>
      <trkpt lat="39.397" lon="-0.32941">
        <ele>-21.432727</ele>
        <time>2022-04-02T10:54:12.000Z</time>
      </trkpt>
      <trkpt lat="39.39701" lon="-0.32957">
        <ele>-21.451574</ele>
        <time>2022-04-02T10:54:15.000Z</time>
      </trkpt>
      <trkpt lat="39.39701" lon="-0.32972">
        <ele>-21.469595</ele>
        <time>2022-04-02T10:54:19.000Z</time>
      </trkpt>
      <trkpt lat="39.39706" lon="-0.32991">
        <ele>-21.49417</ele>
        <time>2022-04-02T10:54:22.000Z</time>
      </trkpt>
      <trkpt lat="39.39716" lon="-0.33006">
        <ele>-21.518651</ele>
        <time>2022-04-02T10:54:26.000Z</time>
      </trkpt>
      <trkpt lat="39.39724" lon="-0.3301">
        <ele>-21.53134</ele>
        <time>2022-04-02T10:54:28.000Z</time>
      </trkpt>
      <trkpt lat="39.3975" lon="-0.33021">
        <ele>-21.574706</ele>
        <time>2022-04-02T10:54:34.000Z</time>
      </trkpt>
      <trkpt lat="39.39759" lon="-0.33024">
        <ele>-21.589598</ele>
        <time>2022-04-02T10:54:36.000Z</time>
      </trkpt>
      <trkpt lat="39.39768" lon="-0.33023">
        <ele>-21.60445</ele>
        <time>2022-04-02T10:54:38.000Z</time>
      </trkpt>
      <trkpt lat="39.39777" lon="-0.3302">
        <ele>-21.618542</ele>
        <time>2022-04-02T10:54:40.000Z</time>
      </trkpt>
      <trkpt lat="39.39781" lon="-0.33019">
        <ele>-21.625095</ele>
        <time>2022-04-02T10:54:41.000Z</time>
      </trkpt>
      <trkpt lat="39.39785" lon="-0.33019">
        <ele>-21.63219</ele>
        <time>2022-04-02T10:54:42.000Z</time>
      </trkpt>
      <trkpt lat="39.39794" lon="-0.33019">
        <ele>-21.645156</ele>
        <time>2022-04-02T10:54:44.000Z</time>
      </trkpt>
      <trkpt lat="39.39801" lon="-0.3302">
        <ele>-21.657468</ele>
        <time>2022-04-02T10:54:46.000Z</time>
      </trkpt>
      <trkpt lat="39.39813" lon="-0.33021">
        <ele>-21.675779</ele>
        <time>2022-04-02T10:54:49.000Z</time>
      </trkpt>
      <trkpt lat="39.39824" lon="-0.33022">
        <ele>-21.692661</ele>
        <time>2022-04-02T10:54:52.000Z</time>
      </trkpt>
      <trkpt lat="39.39853" lon="-0.33028">
        <ele>-21.737881</ele>
        <time>2022-04-02T10:55:00.000Z</time>
      </trkpt>
      <trkpt lat="39.39876" lon="-0.33042">
        <ele>-21.776398</ele>
        <time>2022-04-02T10:55:06.000Z</time>
      </trkpt>
      <trkpt lat="39.39885" lon="-0.33044">
        <ele>-21.790753</ele>
        <time>2022-04-02T10:55:08.000Z</time>
      </trkpt>
      <trkpt lat="39.39889" lon="-0.33045">
        <ele>-21.796804</ele>
        <time>2022-04-02T10:55:09.000Z</time>
      </trkpt>
      <trkpt lat="39.39918" lon="-0.33051">
        <ele>-21.840037</ele>
        <time>2022-04-02T10:55:17.000Z</time>
      </trkpt>
      <trkpt lat="39.39927" lon="-0.33054">
        <ele>-21.854441</ele>
        <time>2022-04-02T10:55:18.000Z</time>
      </trkpt>
      <trkpt lat="39.39961" lon="-0.33064">
        <ele>-21.90669</ele>
        <time>2022-04-02T10:55:26.000Z</time>
      </trkpt>
      <trkpt lat="39.39974" lon="-0.33068">
        <ele>-21.927623</ele>
        <time>2022-04-02T10:55:29.000Z</time>
      </trkpt>
      <trkpt lat="39.40022" lon="-0.33082">
        <ele>-21.860754</ele>
        <time>2022-04-02T10:55:40.000Z</time>
      </trkpt>
      <trkpt lat="39.40072" lon="-0.33095">
        <ele>-21.196038</ele>
        <time>2022-04-02T10:55:51.000Z</time>
      </trkpt>
      <trkpt lat="39.40098" lon="-0.33106">
        <ele>-20.842475</ele>
        <time>2022-04-02T10:55:57.000Z</time>
      </trkpt>
      <trkpt lat="39.40106" lon="-0.33108">
        <ele>-20.728277</ele>
        <time>2022-04-02T10:55:59.000Z</time>
      </trkpt>
      <trkpt lat="39.40111" lon="-0.33108">
        <ele>-20.672225</ele>
        <time>2022-04-02T10:56:00.000Z</time>
      </trkpt>
      <trkpt lat="39.4012" lon="-0.33106">
        <ele>-20.548289</ele>
        <time>2022-04-02T10:56:02.000Z</time>
      </trkpt>
      <trkpt lat="39.40131" lon="-0.33102">
        <ele>-20.399713</ele>
        <time>2022-04-02T10:56:05.000Z</time>
      </trkpt>
      <trkpt lat="39.40134" lon="-0.331">
        <ele>-20.348823</ele>
        <time>2022-04-02T10:56:06.000Z</time>
      </trkpt>
      <trkpt lat="39.40144" lon="-0.33092">
        <ele>-20.195087</ele>
        <time>2022-04-02T10:56:10.000Z</time>
      </trkpt>
      <trkpt lat="39.40151" lon="-0.33092">
        <ele>-20.110263</ele>
        <time>2022-04-02T10:56:11.000Z</time>
      </trkpt>
      <trkpt lat="39.40163" lon="-0.33097">
        <ele>-19.950293</ele>
        <time>2022-04-02T10:56:14.000Z</time>
      </trkpt>
      <trkpt lat="39.40202" lon="-0.33111">
        <ele>-19.637498</ele>
        <time>2022-04-02T10:56:23.000Z</time>
      </trkpt>
      <trkpt lat="39.40211" lon="-0.33114">
        <ele>-19.634667</ele>
        <time>2022-04-02T10:56:26.000Z</time>
      </trkpt>
      <trkpt lat="39.40231" lon="-0.33122">
        <ele>-19.628094</ele>
        <time>2022-04-02T10:56:29.000Z</time>
      </trkpt>
      <trkpt lat="39.40253" lon="-0.33129">
        <ele>-19.620913</ele>
        <time>2022-04-02T10:56:33.000Z</time>
      </trkpt>
      <trkpt lat="39.40269" lon="-0.33135">
        <ele>-19.61572</ele>
        <time>2022-04-02T10:56:36.000Z</time>
      </trkpt>
      <trkpt lat="39.40298" lon="-0.33152">
        <ele>-19.60575</ele>
        <time>2022-04-02T10:56:42.000Z</time>
      </trkpt>
      <trkpt lat="39.40326" lon="-0.33178">
        <ele>-19.594861</ele>
        <time>2022-04-02T10:56:49.000Z</time>
      </trkpt>
      <trkpt lat="39.4037" lon="-0.33209">
        <ele>-19.542993</ele>
        <time>2022-04-02T10:56:59.000Z</time>
      </trkpt>
      <trkpt lat="39.40404" lon="-0.33221">
        <ele>-19.47777</ele>
        <time>2022-04-02T10:57:06.000Z</time>
      </trkpt>
      <trkpt lat="39.4041" lon="-0.33222">
        <ele>-19.466585</ele>
        <time>2022-04-02T10:57:07.000Z</time>
      </trkpt>
      <trkpt lat="39.40442" lon="-0.33224">
        <ele>-19.408369</ele>
        <time>2022-04-02T10:57:13.000Z</time>
      </trkpt>
      <trkpt lat="39.40442" lon="-0.33224">
        <ele>-19.408369</ele>
        <time>2022-04-02T10:57:14.000Z</time>
      </trkpt>
      <trkpt lat="39.40456" lon="-0.33225">
        <ele>-19.382344</ele>
        <time>2022-04-02T10:57:16.000Z</time>
      </trkpt>
      <trkpt lat="39.40502" lon="-0.33226">
        <ele>-19.296677</ele>
        <time>2022-04-02T10:57:26.000Z</time>
      </trkpt>
      <trkpt lat="39.40554" lon="-0.33228">
        <ele>-19.228072</ele>
        <time>2022-04-02T10:57:35.000Z</time>
      </trkpt>
      <trkpt lat="39.40564" lon="-0.33229">
        <ele>-19.219464</ele>
        <time>2022-04-02T10:57:37.000Z</time>
      </trkpt>
      <trkpt lat="39.40569" lon="-0.33229">
        <ele>-19.215162</ele>
        <time>2022-04-02T10:57:38.000Z</time>
      </trkpt>
      <trkpt lat="39.40583" lon="-0.33229">
        <ele>-19.202522</ele>
        <time>2022-04-02T10:57:41.000Z</time>
      </trkpt>
      <trkpt lat="39.40597" lon="-0.3323">
        <ele>-19.189878</ele>
        <time>2022-04-02T10:57:44.000Z</time>
      </trkpt>
      <trkpt lat="39.40625" lon="-0.33233">
        <ele>-19.164424</ele>
        <time>2022-04-02T10:57:50.000Z</time>
      </trkpt>
      <trkpt lat="39.40635" lon="-0.33234">
        <ele>-19.156041</ele>
        <time>2022-04-02T10:57:52.000Z</time>
      </trkpt>
      <trkpt lat="39.40643" lon="-0.33235">
        <ele>-19.14813</ele>
        <time>2022-04-02T10:57:55.000Z</time>
      </trkpt>
      <trkpt lat="39.40656" lon="-0.33237">
        <ele>-19.136575</ele>
        <time>2022-04-02T10:57:58.000Z</time>
      </trkpt>
      <trkpt lat="39.40664" lon="-0.33238">
        <ele>-19.129131</ele>
        <time>2022-04-02T10:57:59.000Z</time>
      </trkpt>
      <trkpt lat="39.4067" lon="-0.33237">
        <ele>-19.124429</ele>
        <time>2022-04-02T10:58:01.000Z</time>
      </trkpt>
      <trkpt lat="39.40671" lon="-0.33235">
        <ele>-19.122885</ele>
        <time>2022-04-02T10:58:02.000Z</time>
      </trkpt>
      <trkpt lat="39.4067" lon="-0.3323">
        <ele>-19.119127</ele>
        <time>2022-04-02T10:58:04.000Z</time>
      </trkpt>
      <trkpt lat="39.40671" lon="-0.33215">
        <ele>-19.108744</ele>
        <time>2022-04-02T10:58:09.000Z</time>
      </trkpt>
      <trkpt lat="39.40671" lon="-0.33208">
        <ele>-19.104211</ele>
        <time>2022-04-02T10:58:12.000Z</time>
      </trkpt>
      <trkpt lat="39.4067" lon="-0.33208">
        <ele>-19.103758</ele>
        <time>2022-04-02T10:58:14.000Z</time>
      </trkpt>
      <trkpt lat="39.4067" lon="-0.33208">
        <ele>-19.103758</ele>
        <time>2022-04-02T10:58:18.000Z</time>
      </trkpt>
      <trkpt lat="39.40669" lon="-0.33207">
        <ele>-19.102515</ele>
        <time>2022-04-02T10:58:22.000Z</time>
      </trkpt>
      <trkpt lat="39.40666" lon="-0.33205">
        <ele>-19.099104</ele>
        <time>2022-04-02T10:58:23.000Z</time>
      </trkpt>
      <trkpt lat="39.40662" lon="-0.33206">
        <ele>-19.095388</ele>
        <time>2022-04-02T10:58:26.000Z</time>
      </trkpt>
      <trkpt lat="39.4066" lon="-0.33212">
        <ele>-19.093309</ele>
        <time>2022-04-02T10:58:29.000Z</time>
      </trkpt>
      <trkpt lat="39.4066" lon="-0.33214">
        <ele>-19.093328</ele>
        <time>2022-04-02T10:58:31.000Z</time>
      </trkpt>
      <trkpt lat="39.40658" lon="-0.33219">
        <ele>-19.093373</ele>
        <time>2022-04-02T10:58:32.000Z</time>
      </trkpt>
      <trkpt lat="39.40658" lon="-0.33221">
        <ele>-19.093391</ele>
        <time>2022-04-02T10:58:33.000Z</time>
      </trkpt>
      <trkpt lat="39.4066" lon="-0.3323">
        <ele>-19.093471</ele>
        <time>2022-04-02T10:58:37.000Z</time>
      </trkpt>
      <trkpt lat="39.40664" lon="-0.33234">
        <ele>-19.093523</ele>
        <time>2022-04-02T10:58:39.000Z</time>
      </trkpt>
      <trkpt lat="39.40673" lon="-0.33239">
        <ele>-19.093632</ele>
        <time>2022-04-02T10:58:42.000Z</time>
      </trkpt>
      <trkpt lat="39.40679" lon="-0.3324">
        <ele>-19.093699</ele>
        <time>2022-04-02T10:58:45.000Z</time>
      </trkpt>
      <trkpt lat="39.40697" lon="-0.33244">
        <ele>-19.093912</ele>
        <time>2022-04-02T10:58:49.000Z</time>
      </trkpt>
      <trkpt lat="39.40714" lon="-0.33249">
        <ele>-19.094107</ele>
        <time>2022-04-02T10:58:53.000Z</time>
      </trkpt>
      <trkpt lat="39.40732" lon="-0.33253">
        <ele>-19.094309</ele>
        <time>2022-04-02T10:58:57.000Z</time>
      </trkpt>
      <trkpt lat="39.4074" lon="-0.33255">
        <ele>-19.094404</ele>
        <time>2022-04-02T10:58:59.000Z</time>
      </trkpt>
      <trkpt lat="39.4076" lon="-0.3326">
        <ele>-19.094632</ele>
        <time>2022-04-02T10:59:03.000Z</time>
      </trkpt>
      <trkpt lat="39.40817" lon="-0.33274">
        <ele>-19.095279</ele>
        <time>2022-04-02T10:59:15.000Z</time>
      </trkpt>
      <trkpt lat="39.40829" lon="-0.33276">
        <ele>-19.18777</ele>
        <time>2022-04-02T10:59:17.000Z</time>
      </trkpt>
      <trkpt lat="39.40849" lon="-0.33279">
        <ele>-19.380521</ele>
        <time>2022-04-02T10:59:21.000Z</time>
      </trkpt>
      <trkpt lat="39.4086" lon="-0.33281">
        <ele>-19.489712</ele>
        <time>2022-04-02T10:59:23.000Z</time>
      </trkpt>
      <trkpt lat="39.40864" lon="-0.33282">
        <ele>-19.527602</ele>
        <time>2022-04-02T10:59:24.000Z</time>
      </trkpt>
      <trkpt lat="39.40875" lon="-0.33284">
        <ele>-19.633118</ele>
        <time>2022-04-02T10:59:26.000Z</time>
      </trkpt>
      <trkpt lat="39.40885" lon="-0.33286">
        <ele>-19.731226</ele>
        <time>2022-04-02T10:59:29.000Z</time>
      </trkpt>
      <trkpt lat="39.40929" lon="-0.33294">
        <ele>-20.156311</ele>
        <time>2022-04-02T10:59:37.000Z</time>
      </trkpt>
      <trkpt lat="39.40953" lon="-0.33299">
        <ele>-20.387759</ele>
        <time>2022-04-02T10:59:42.000Z</time>
      </trkpt>
      <trkpt lat="39.40971" lon="-0.33302">
        <ele>-20.561023</ele>
        <time>2022-04-02T10:59:46.000Z</time>
      </trkpt>
      <trkpt lat="39.40995" lon="-0.33306">
        <ele>-20.796458</ele>
        <time>2022-04-02T10:59:51.000Z</time>
      </trkpt>
      <trkpt lat="39.41017" lon="-0.3331">
        <ele>-20.789638</ele>
        <time>2022-04-02T10:59:56.000Z</time>
      </trkpt>
      <trkpt lat="39.41037" lon="-0.33314">
        <ele>-20.7634</ele>
        <time>2022-04-02T11:00:02.000Z</time>
      </trkpt>
      <trkpt lat="39.41045" lon="-0.33315">
        <ele>-20.75426</ele>
        <time>2022-04-02T11:00:03.000Z</time>
      </trkpt>
      <trkpt lat="39.41049" lon="-0.33316">
        <ele>-20.748961</ele>
        <time>2022-04-02T11:00:05.000Z</time>
      </trkpt>
      <trkpt lat="39.41066" lon="-0.33319">
        <ele>-20.727048</ele>
        <time>2022-04-02T11:00:08.000Z</time>
      </trkpt>
      <trkpt lat="39.41086" lon="-0.33324">
        <ele>-20.700392</ele>
        <time>2022-04-02T11:00:13.000Z</time>
      </trkpt>
      <trkpt lat="39.41108" lon="-0.33327">
        <ele>-20.672336</ele>
        <time>2022-04-02T11:00:18.000Z</time>
      </trkpt>
      <trkpt lat="39.4113" lon="-0.33331">
        <ele>-20.643492</ele>
        <time>2022-04-02T11:00:23.000Z</time>
      </trkpt>
      <trkpt lat="39.41145" lon="-0.33332">
        <ele>-20.624904</ele>
        <time>2022-04-02T11:00:26.000Z</time>
      </trkpt>
      <trkpt lat="39.41156" lon="-0.33328">
        <ele>-20.609247</ele>
        <time>2022-04-02T11:00:29.000Z</time>
      </trkpt>
      <trkpt lat="39.41162" lon="-0.33326">
        <ele>-20.602187</ele>
        <time>2022-04-02T11:00:30.000Z</time>
      </trkpt>
      <trkpt lat="39.41175" lon="-0.33316">
        <ele>-20.582634</ele>
        <time>2022-04-02T11:00:33.000Z</time>
      </trkpt>
      <trkpt lat="39.4118" lon="-0.33314">
        <ele>-20.575839</ele>
        <time>2022-04-02T11:00:34.000Z</time>
      </trkpt>
      <trkpt lat="39.41199" lon="-0.33308">
        <ele>-20.549144</ele>
        <time>2022-04-02T11:00:38.000Z</time>
      </trkpt>
      <trkpt lat="39.41209" lon="-0.33308">
        <ele>-20.535602</ele>
        <time>2022-04-02T11:00:40.000Z</time>
      </trkpt>
      <trkpt lat="39.4124" lon="-0.33311">
        <ele>-20.495222</ele>
        <time>2022-04-02T11:00:46.000Z</time>
      </trkpt>
      <trkpt lat="39.4126" lon="-0.33315">
        <ele>-20.467555</ele>
        <time>2022-04-02T11:00:50.000Z</time>
      </trkpt>
      <trkpt lat="39.41266" lon="-0.33315">
        <ele>-20.460746</ele>
        <time>2022-04-02T11:00:51.000Z</time>
      </trkpt>
      <trkpt lat="39.41274" lon="-0.33316">
        <ele>-20.449393</ele>
        <time>2022-04-02T11:00:53.000Z</time>
      </trkpt>
      <trkpt lat="39.41285" lon="-0.33318">
        <ele>-20.434936</ele>
        <time>2022-04-02T11:00:55.000Z</time>
      </trkpt>
      <trkpt lat="39.4129" lon="-0.33319">
        <ele>-20.428496</ele>
        <time>2022-04-02T11:00:56.000Z</time>
      </trkpt>
      <trkpt lat="39.41299" lon="-0.33321">
        <ele>-20.416316</ele>
        <time>2022-04-02T11:00:58.000Z</time>
      </trkpt>
      <trkpt lat="39.41307" lon="-0.33323">
        <ele>-20.405084</ele>
        <time>2022-04-02T11:01:00.000Z</time>
      </trkpt>
      <trkpt lat="39.41313" lon="-0.33318">
        <ele>-20.395944</ele>
        <time>2022-04-02T11:01:02.000Z</time>
      </trkpt>
      <trkpt lat="39.4132" lon="-0.33313">
        <ele>-20.385686</ele>
        <time>2022-04-02T11:01:04.000Z</time>
      </trkpt>
      <trkpt lat="39.41327" lon="-0.33312">
        <ele>-20.375986</ele>
        <time>2022-04-02T11:01:06.000Z</time>
      </trkpt>
      <trkpt lat="39.41334" lon="-0.33311">
        <ele>-20.36625</ele>
        <time>2022-04-02T11:01:08.000Z</time>
      </trkpt>
      <trkpt lat="39.41341" lon="-0.3331">
        <ele>-20.356911</ele>
        <time>2022-04-02T11:01:10.000Z</time>
      </trkpt>
      <trkpt lat="39.41354" lon="-0.33309">
        <ele>-20.299631</ele>
        <time>2022-04-02T11:01:14.000Z</time>
      </trkpt>
      <trkpt lat="39.41364" lon="-0.33307">
        <ele>-20.211921</ele>
        <time>2022-04-02T11:01:17.000Z</time>
      </trkpt>
      <trkpt lat="39.41368" lon="-0.33306">
        <ele>-20.180914</ele>
        <time>2022-04-02T11:01:19.000Z</time>
      </trkpt>
      <trkpt lat="39.41381" lon="-0.33304">
        <ele>-20.062284</ele>
        <time>2022-04-02T11:01:22.000Z</time>
      </trkpt>
      <trkpt lat="39.41385" lon="-0.33303">
        <ele>-20.025309</ele>
        <time>2022-04-02T11:01:25.000Z</time>
      </trkpt>
      <trkpt lat="39.41386" lon="-0.33302">
        <ele>-20.021979</ele>
        <time>2022-04-02T11:01:31.000Z</time>
      </trkpt>
      <trkpt lat="39.41386" lon="-0.33302">
        <ele>-20.021979</ele>
        <time>2022-04-02T11:01:40.000Z</time>
      </trkpt>
      <trkpt lat="39.41386" lon="-0.33302">
        <ele>-20.021979</ele>
        <time>2022-04-02T11:01:42.000Z</time>
      </trkpt>
      <trkpt lat="39.41386" lon="-0.33302">
        <ele>-20.021979</ele>
        <time>2022-04-02T11:01:45.000Z</time>
      </trkpt>
      <trkpt lat="39.41386" lon="-0.33302">
        <ele>-20.02087</ele>
        <time>2022-04-02T11:01:53.000Z</time>
      </trkpt>
      <trkpt lat="39.41387" lon="-0.33303">
        <ele>-20.010885</ele>
        <time>2022-04-02T11:01:57.000Z</time>
      </trkpt>
      <trkpt lat="39.41387" lon="-0.33304">
        <ele>-20.006001</ele>
        <time>2022-04-02T11:02:06.000Z</time>
      </trkpt>
      <trkpt lat="39.41387" lon="-0.33308">
        <ele>-19.978168</ele>
        <time>2022-04-02T11:02:10.000Z</time>
      </trkpt>
      <trkpt lat="39.41387" lon="-0.33308">
        <ele>-19.978168</ele>
        <time>2022-04-02T11:02:16.000Z</time>
      </trkpt>
      <trkpt lat="39.41388" lon="-0.33308">
        <ele>-19.969385</ele>
        <time>2022-04-02T11:02:18.000Z</time>
      </trkpt>
      <trkpt lat="39.41388" lon="-0.33308">
        <ele>-19.968028</ele>
        <time>2022-04-02T11:02:23.000Z</time>
      </trkpt>
      <trkpt lat="39.41388" lon="-0.33309">
        <ele>-19.9626</ele>
        <time>2022-04-02T11:02:24.000Z</time>
      </trkpt>
      <trkpt lat="39.41388" lon="-0.33309">
        <ele>-19.961921</ele>
        <time>2022-04-02T11:02:34.000Z</time>
      </trkpt>
      <trkpt lat="39.41388" lon="-0.33309">
        <ele>-19.961921</ele>
        <time>2022-04-02T11:02:38.000Z</time>
      </trkpt>
      <trkpt lat="39.41388" lon="-0.33309">
        <ele>-19.961921</ele>
        <time>2022-04-02T11:02:41.000Z</time>
      </trkpt>
      <trkpt lat="39.41388" lon="-0.33309">
        <ele>-19.961921</ele>
        <time>2022-04-02T11:02:44.000Z</time>
      </trkpt>
      <trkpt lat="39.41388" lon="-0.33309">
        <ele>-19.961921</ele>
        <time>2022-04-02T11:02:50.000Z</time>
      </trkpt>
      <trkpt lat="39.41388" lon="-0.33309">
        <ele>-19.961921</ele>
        <time>2022-04-02T11:02:52.000Z</time>
      </trkpt>
      <trkpt lat="39.41388" lon="-0.33309">
        <ele>-19.961921</ele>
        <time>2022-04-02T11:02:54.000Z</time>
      </trkpt>
      <trkpt lat="39.41388" lon="-0.33309">
        <ele>-19.961921</ele>
        <time>2022-04-02T11:02:58.000Z</time>
      </trkpt>
      <trkpt lat="39.41388" lon="-0.33309">
        <ele>-19.961921</ele>
        <time>2022-04-02T11:03:04.000Z</time>
      </trkpt>
      <trkpt lat="39.41388" lon="-0.33309">
        <ele>-19.961921</ele>
        <time>2022-04-02T11:03:09.000Z</time>
      </trkpt>
      <trkpt lat="39.41388" lon="-0.33309">
        <ele>-19.961921</ele>
        <time>2022-04-02T11:03:20.000Z</time>
      </trkpt>
      <trkpt lat="39.41388" lon="-0.33309">
        <ele>-19.961921</ele>
        <time>2022-04-02T11:03:34.000Z</time>
      </trkpt>
      <trkpt lat="39.41388" lon="-0.33309">
        <ele>-19.961921</ele>
        <time>2022-04-02T11:03:43.000Z</time>
      </trkpt>
      <trkpt lat="39.41388" lon="-0.33309">
        <ele>-19.961921</ele>
        <time>2022-04-02T11:03:45.000Z</time>
      </trkpt>
      <trkpt lat="39.41388" lon="-0.33309">
        <ele>-19.961921</ele>
        <time>2022-04-02T11:03:47.000Z</time>
      </trkpt>
      <trkpt lat="39.41388" lon="-0.33309">
        <ele>-19.961921</ele>
        <time>2022-04-02T11:03:49.000Z</time>
      </trkpt>
      <trkpt lat="39.41388" lon="-0.33309">
        <ele>-19.961921</ele>
        <time>2022-04-02T11:03:53.000Z</time>
      </trkpt>
      <trkpt lat="39.41388" lon="-0.33309">
        <ele>-19.961921</ele>
        <time>2022-04-02T11:03:58.000Z</time>
      </trkpt>
      <trkpt lat="39.41388" lon="-0.33309">
        <ele>-19.961921</ele>
        <time>2022-04-02T11:04:05.000Z</time>
      </trkpt>
      <trkpt lat="39.41388" lon="-0.33309">
        <ele>-19.961921</ele>
        <time>2022-04-02T11:04:15.000Z</time>
      </trkpt>
      <trkpt lat="39.41388" lon="-0.33309">
        <ele>-19.961921</ele>
        <time>2022-04-02T11:04:22.000Z</time>
      </trkpt>
      <trkpt lat="39.41388" lon="-0.33309">
        <ele>-19.961921</ele>
        <time>2022-04-02T11:04:23.000Z</time>
      </trkpt>
      <trkpt lat="39.41388" lon="-0.33309">
        <ele>-19.961921</ele>
        <time>2022-04-02T11:04:40.000Z</time>
      </trkpt>
      <trkpt lat="39.41388" lon="-0.33309">
        <ele>-19.961921</ele>
        <time>2022-04-02T11:04:45.000Z</time>
      </trkpt>
      <trkpt lat="39.41388" lon="-0.33309">
        <ele>-19.961921</ele>
        <time>2022-04-02T11:04:57.000Z</time>
      </trkpt>
      <trkpt lat="39.41388" lon="-0.33309">
        <ele>-19.961921</ele>
        <time>2022-04-02T11:05:02.000Z</time>
      </trkpt>
      <trkpt lat="39.41388" lon="-0.33309">
        <ele>-19.961921</ele>
        <time>2022-04-02T11:05:06.000Z</time>
      </trkpt>
      <trkpt lat="39.41388" lon="-0.33309">
        <ele>-19.961921</ele>
        <time>2022-04-02T11:05:13.000Z</time>
      </trkpt>
      <trkpt lat="39.41388" lon="-0.33309">
        <ele>-19.961921</ele>
        <time>2022-04-02T11:05:18.000Z</time>
      </trkpt>
      <trkpt lat="39.41388" lon="-0.33309">
        <ele>-19.961921</ele>
        <time>2022-04-02T11:05:31.000Z</time>
      </trkpt>
      <trkpt lat="39.41388" lon="-0.33309">
        <ele>-19.961921</ele>
        <time>2022-04-02T11:05:33.000Z</time>
      </trkpt>
      <trkpt lat="39.41388" lon="-0.33309">
        <ele>-19.961921</ele>
        <time>2022-04-02T11:05:59.000Z</time>
      </trkpt>
      <trkpt lat="39.41388" lon="-0.33309">
        <ele>-19.961921</ele>
        <time>2022-04-02T11:06:03.000Z</time>
      </trkpt>
      <trkpt lat="39.41388" lon="-0.33309">
        <ele>-19.961921</ele>
        <time>2022-04-02T11:06:05.000Z</time>
      </trkpt>
      <trkpt lat="39.41388" lon="-0.33309">
        <ele>-19.961921</ele>
        <time>2022-04-02T11:06:07.000Z</time>
      </trkpt>
      <trkpt lat="39.41388" lon="-0.33309">
        <ele>-19.961921</ele>
        <time>2022-04-02T11:06:09.000Z</time>
      </trkpt>
      <trkpt lat="39.41388" lon="-0.33309">
        <ele>-19.961921</ele>
        <time>2022-04-02T11:06:11.000Z</time>
      </trkpt>
      <trkpt lat="39.41388" lon="-0.33309">
        <ele>-19.961921</ele>
        <time>2022-04-02T11:06:19.000Z</time>
      </trkpt>
      <trkpt lat="39.41388" lon="-0.33309">
        <ele>-19.961921</ele>
        <time>2022-04-02T11:06:22.000Z</time>
      </trkpt>
      <trkpt lat="39.41388" lon="-0.33309">
        <ele>-19.961921</ele>
        <time>2022-04-02T11:06:24.000Z</time>
      </trkpt>
      <trkpt lat="39.41388" lon="-0.33309">
        <ele>-19.961921</ele>
        <time>2022-04-02T11:06:31.000Z</time>
      </trkpt>
      <trkpt lat="39.41388" lon="-0.33311">
        <ele>-19.944399</ele>
        <time>2022-04-02T11:06:45.000Z</time>
      </trkpt>
      <trkpt lat="39.41389" lon="-0.33313">
        <ele>-19.934271</ele>
        <time>2022-04-02T11:06:47.000Z</time>
      </trkpt>
      <trkpt lat="39.41391" lon="-0.33315">
        <ele>-19.913437</ele>
        <time>2022-04-02T11:06:52.000Z</time>
      </trkpt>
      <trkpt lat="39.41392" lon="-0.33316">
        <ele>-19.903448</ele>
        <time>2022-04-02T11:06:53.000Z</time>
      </trkpt>
      <trkpt lat="39.41392" lon="-0.33316">
        <ele>-19.899935</ele>
        <time>2022-04-02T11:06:56.000Z</time>
      </trkpt>
      <trkpt lat="39.41392" lon="-0.33316">
        <ele>-19.899935</ele>
        <time>2022-04-02T11:06:58.000Z</time>
      </trkpt>
      <trkpt lat="39.41392" lon="-0.33316">
        <ele>-19.899057</ele>
        <time>2022-04-02T11:07:07.000Z</time>
      </trkpt>
      <trkpt lat="39.41392" lon="-0.33315">
        <ele>-19.896093</ele>
        <time>2022-04-02T11:07:21.000Z</time>
      </trkpt>
      <trkpt lat="39.41392" lon="-0.33315">
        <ele>-19.892515</ele>
        <time>2022-04-02T11:07:22.000Z</time>
      </trkpt>
      <trkpt lat="39.41393" lon="-0.33315">
        <ele>-19.883294</ele>
        <time>2022-04-02T11:07:25.000Z</time>
      </trkpt>
      <trkpt lat="39.41393" lon="-0.33315">
        <ele>-19.87885</ele>
        <time>2022-04-02T11:07:32.000Z</time>
      </trkpt>
      <trkpt lat="39.41395" lon="-0.33315">
        <ele>-19.86392</ele>
        <time>2022-04-02T11:07:38.000Z</time>
      </trkpt>
      <trkpt lat="39.41396" lon="-0.33315">
        <ele>-19.858478</ele>
        <time>2022-04-02T11:07:39.000Z</time>
      </trkpt>
      <trkpt lat="39.41398" lon="-0.33315">
        <ele>-19.838267</ele>
        <time>2022-04-02T11:07:42.000Z</time>
      </trkpt>
      <trkpt lat="39.41398" lon="-0.33315">
        <ele>-19.838267</ele>
        <time>2022-04-02T11:07:44.000Z</time>
      </trkpt>
      <trkpt lat="39.41398" lon="-0.33315">
        <ele>-19.835414</ele>
        <time>2022-04-02T11:07:46.000Z</time>
      </trkpt>
      <trkpt lat="39.41398" lon="-0.33316">
        <ele>-19.831119</ele>
        <time>2022-04-02T11:07:47.000Z</time>
      </trkpt>
      <trkpt lat="39.41398" lon="-0.33316">
        <ele>-19.831119</ele>
        <time>2022-04-02T11:07:50.000Z</time>
      </trkpt>
      <trkpt lat="39.41398" lon="-0.33316">
        <ele>-19.831119</ele>
        <time>2022-04-02T11:07:52.000Z</time>
      </trkpt>
      <trkpt lat="39.41398" lon="-0.33316">
        <ele>-19.827048</ele>
        <time>2022-04-02T11:07:54.000Z</time>
      </trkpt>
      <trkpt lat="39.41396" lon="-0.3332">
        <ele>-19.800612</ele>
        <time>2022-04-02T11:08:10.000Z</time>
      </trkpt>
      <trkpt lat="39.41396" lon="-0.3332">
        <ele>-19.797924</ele>
        <time>2022-04-02T11:08:15.000Z</time>
      </trkpt>
      <trkpt lat="39.41396" lon="-0.3332">
        <ele>-19.797924</ele>
        <time>2022-04-02T11:08:16.000Z</time>
      </trkpt>
      <trkpt lat="39.41396" lon="-0.3332">
        <ele>-19.797924</ele>
        <time>2022-04-02T11:08:18.000Z</time>
      </trkpt>
      <trkpt lat="39.41396" lon="-0.3332">
        <ele>-19.797924</ele>
        <time>2022-04-02T11:08:21.000Z</time>
      </trkpt>
      <trkpt lat="39.41395" lon="-0.33322">
        <ele>-19.783833</ele>
        <time>2022-04-02T11:08:25.000Z</time>
      </trkpt>
      <trkpt lat="39.41417" lon="-0.33308">
        <ele>-19.567622</ele>
        <time>2022-04-02T11:26:28.000Z</time>
      </trkpt>
      <trkpt lat="39.41418" lon="-0.33308">
        <ele>-19.555159</ele>
        <time>2022-04-02T11:26:29.000Z</time>
      </trkpt>
      <trkpt lat="39.41419" lon="-0.33308">
        <ele>-19.550563</ele>
        <time>2022-04-02T11:26:30.000Z</time>
      </trkpt>
      <trkpt lat="39.4142" lon="-0.33309">
        <ele>-19.538383</ele>
        <time>2022-04-02T11:26:33.000Z</time>
      </trkpt>
      <trkpt lat="39.41424" lon="-0.33311">
        <ele>-19.501726</ele>
        <time>2022-04-02T11:26:35.000Z</time>
      </trkpt>
      <trkpt lat="39.41431" lon="-0.33316">
        <ele>-19.432367</ele>
        <time>2022-04-02T11:26:38.000Z</time>
      </trkpt>
      <trkpt lat="39.41444" lon="-0.33323">
        <ele>-19.303342</ele>
        <time>2022-04-02T11:26:42.000Z</time>
      </trkpt>
      <trkpt lat="39.41452" lon="-0.33327">
        <ele>-19.22859</ele>
        <time>2022-04-02T11:26:44.000Z</time>
      </trkpt>
      <trkpt lat="39.41478" lon="-0.33342">
        <ele>-18.986387</ele>
        <time>2022-04-02T11:26:51.000Z</time>
      </trkpt>
      <trkpt lat="39.41481" lon="-0.33343">
        <ele>-18.957625</ele>
        <time>2022-04-02T11:26:52.000Z</time>
      </trkpt>
      <trkpt lat="39.41487" lon="-0.33347">
        <ele>-18.90007</ele>
        <time>2022-04-02T11:26:54.000Z</time>
      </trkpt>
      <trkpt lat="39.41498" lon="-0.33352">
        <ele>-18.79263</ele>
        <time>2022-04-02T11:26:58.000Z</time>
      </trkpt>
      <trkpt lat="39.41501" lon="-0.33353">
        <ele>-18.767085</ele>
        <time>2022-04-02T11:26:59.000Z</time>
      </trkpt>
      <trkpt lat="39.41507" lon="-0.33356">
        <ele>-18.73683</ele>
        <time>2022-04-02T11:27:01.000Z</time>
      </trkpt>
      <trkpt lat="39.41517" lon="-0.33361">
        <ele>-18.687672</ele>
        <time>2022-04-02T11:27:04.000Z</time>
      </trkpt>
      <trkpt lat="39.41541" lon="-0.33372">
        <ele>-18.568574</ele>
        <time>2022-04-02T11:27:12.000Z</time>
      </trkpt>
      <trkpt lat="39.41549" lon="-0.33381">
        <ele>-18.521859</ele>
        <time>2022-04-02T11:27:15.000Z</time>
      </trkpt>
      <trkpt lat="39.41556" lon="-0.3339">
        <ele>-18.476973</ele>
        <time>2022-04-02T11:27:18.000Z</time>
      </trkpt>
      <trkpt lat="39.41574" lon="-0.33399">
        <ele>-18.391031</ele>
        <time>2022-04-02T11:27:23.000Z</time>
      </trkpt>
      <trkpt lat="39.41578" lon="-0.334">
        <ele>-18.369697</ele>
        <time>2022-04-02T11:27:24.000Z</time>
      </trkpt>
      <trkpt lat="39.41603" lon="-0.33407">
        <ele>-18.253685</ele>
        <time>2022-04-02T11:27:29.000Z</time>
      </trkpt>
      <trkpt lat="39.41608" lon="-0.33408">
        <ele>-18.231465</ele>
        <time>2022-04-02T11:27:30.000Z</time>
      </trkpt>
      <trkpt lat="39.41613" lon="-0.33408">
        <ele>-18.20758</ele>
        <time>2022-04-02T11:27:31.000Z</time>
      </trkpt>
      <trkpt lat="39.41635" lon="-0.33404">
        <ele>-18.103904</ele>
        <time>2022-04-02T11:27:35.000Z</time>
      </trkpt>
      <trkpt lat="39.41662" lon="-0.33412">
        <ele>-17.980036</ele>
        <time>2022-04-02T11:27:40.000Z</time>
      </trkpt>
      <trkpt lat="39.41673" lon="-0.33415">
        <ele>-17.925318</ele>
        <time>2022-04-02T11:27:42.000Z</time>
      </trkpt>
      <trkpt lat="39.41718" lon="-0.33431">
        <ele>-17.699589</ele>
        <time>2022-04-02T11:27:50.000Z</time>
      </trkpt>
      <trkpt lat="39.41723" lon="-0.33434">
        <ele>-17.674478</ele>
        <time>2022-04-02T11:27:51.000Z</time>
      </trkpt>
      <trkpt lat="39.4173" lon="-0.33441">
        <ele>-17.629244</ele>
        <time>2022-04-02T11:27:53.000Z</time>
      </trkpt>
      <trkpt lat="39.41732" lon="-0.33446">
        <ele>-17.608175</ele>
        <time>2022-04-02T11:27:54.000Z</time>
      </trkpt>
      <trkpt lat="39.41735" lon="-0.3345">
        <ele>-17.588207</ele>
        <time>2022-04-02T11:27:55.000Z</time>
      </trkpt>
      <trkpt lat="39.4174" lon="-0.33457">
        <ele>-17.549554</ele>
        <time>2022-04-02T11:27:57.000Z</time>
      </trkpt>
      <trkpt lat="39.41744" lon="-0.33459">
        <ele>-17.53037</ele>
        <time>2022-04-02T11:27:58.000Z</time>
      </trkpt>
      <trkpt lat="39.41768" lon="-0.33464">
        <ele>-17.414784</ele>
        <time>2022-04-02T11:28:04.000Z</time>
      </trkpt>
      <trkpt lat="39.41771" lon="-0.33465">
        <ele>-17.395964</ele>
        <time>2022-04-02T11:28:05.000Z</time>
      </trkpt>
      <trkpt lat="39.41779" lon="-0.33467">
        <ele>-17.356783</ele>
        <time>2022-04-02T11:28:07.000Z</time>
      </trkpt>
      <trkpt lat="39.41791" lon="-0.33464">
        <ele>-17.297532</ele>
        <time>2022-04-02T11:28:10.000Z</time>
      </trkpt>
      <trkpt lat="39.41796" lon="-0.33462">
        <ele>-17.276266</ele>
        <time>2022-04-02T11:28:11.000Z</time>
      </trkpt>
      <trkpt lat="39.41808" lon="-0.33456">
        <ele>-17.210155</ele>
        <time>2022-04-02T11:28:14.000Z</time>
      </trkpt>
      <trkpt lat="39.41817" lon="-0.33453">
        <ele>-17.166583</ele>
        <time>2022-04-02T11:28:16.000Z</time>
      </trkpt>
      <trkpt lat="39.41822" lon="-0.33453">
        <ele>-17.143259</ele>
        <time>2022-04-02T11:28:17.000Z</time>
      </trkpt>
      <trkpt lat="39.41837" lon="-0.33454">
        <ele>-17.070928</ele>
        <time>2022-04-02T11:28:20.000Z</time>
      </trkpt>
      <trkpt lat="39.41846" lon="-0.33453">
        <ele>-17.047312</ele>
        <time>2022-04-02T11:28:22.000Z</time>
      </trkpt>
      <trkpt lat="39.41851" lon="-0.33452">
        <ele>-17.036539</ele>
        <time>2022-04-02T11:28:23.000Z</time>
      </trkpt>
      <trkpt lat="39.4186" lon="-0.33449">
        <ele>-17.014311</ele>
        <time>2022-04-02T11:28:25.000Z</time>
      </trkpt>
      <trkpt lat="39.41865" lon="-0.33446">
        <ele>-17.003112</ele>
        <time>2022-04-02T11:28:26.000Z</time>
      </trkpt>
      <trkpt lat="39.41873" lon="-0.3344">
        <ele>-16.981224</ele>
        <time>2022-04-02T11:28:28.000Z</time>
      </trkpt>
      <trkpt lat="39.41882" lon="-0.33436">
        <ele>-16.959269</ele>
        <time>2022-04-02T11:28:30.000Z</time>
      </trkpt>
      <trkpt lat="39.41902" lon="-0.33435">
        <ele>-16.91377</ele>
        <time>2022-04-02T11:28:34.000Z</time>
      </trkpt>
      <trkpt lat="39.41917" lon="-0.33435">
        <ele>-16.879682</ele>
        <time>2022-04-02T11:28:37.000Z</time>
      </trkpt>
      <trkpt lat="39.41927" lon="-0.33434">
        <ele>-16.856875</ele>
        <time>2022-04-02T11:28:39.000Z</time>
      </trkpt>
      <trkpt lat="39.41954" lon="-0.33432">
        <ele>-16.797291</ele>
        <time>2022-04-02T11:28:44.000Z</time>
      </trkpt>
      <trkpt lat="39.41975" lon="-0.33431">
        <ele>-16.749074</ele>
        <time>2022-04-02T11:28:48.000Z</time>
      </trkpt>
      <trkpt lat="39.41991" lon="-0.33431">
        <ele>-16.71338</ele>
        <time>2022-04-02T11:28:51.000Z</time>
      </trkpt>
      <trkpt lat="39.42006" lon="-0.3343">
        <ele>-16.678362</ele>
        <time>2022-04-02T11:28:54.000Z</time>
      </trkpt>
      <trkpt lat="39.42026" lon="-0.33424">
        <ele>-16.616762</ele>
        <time>2022-04-02T11:28:58.000Z</time>
      </trkpt>
      <trkpt lat="39.4206" lon="-0.33405">
        <ele>-16.480376</ele>
        <time>2022-04-02T11:29:06.000Z</time>
      </trkpt>
      <trkpt lat="39.42064" lon="-0.33403">
        <ele>-16.464946</ele>
        <time>2022-04-02T11:29:07.000Z</time>
      </trkpt>
      <trkpt lat="39.42072" lon="-0.33402">
        <ele>-16.435633</ele>
        <time>2022-04-02T11:29:09.000Z</time>
      </trkpt>
      <trkpt lat="39.42076" lon="-0.33403">
        <ele>-16.421287</ele>
        <time>2022-04-02T11:29:10.000Z</time>
      </trkpt>
      <trkpt lat="39.42099" lon="-0.33407">
        <ele>-16.336805</ele>
        <time>2022-04-02T11:29:16.000Z</time>
      </trkpt>
      <trkpt lat="39.42108" lon="-0.3341">
        <ele>-16.302553</ele>
        <time>2022-04-02T11:29:18.000Z</time>
      </trkpt>
      <trkpt lat="39.42146" lon="-0.3342">
        <ele>-16.159308</ele>
        <time>2022-04-02T11:29:27.000Z</time>
      </trkpt>
      <trkpt lat="39.42151" lon="-0.33421">
        <ele>-16.143077</ele>
        <time>2022-04-02T11:29:28.000Z</time>
      </trkpt>
      <trkpt lat="39.42186" lon="-0.33429">
        <ele>-16.013887</ele>
        <time>2022-04-02T11:29:36.000Z</time>
      </trkpt>
      <trkpt lat="39.4219" lon="-0.3343">
        <ele>-16.000427</ele>
        <time>2022-04-02T11:29:37.000Z</time>
      </trkpt>
      <trkpt lat="39.42202" lon="-0.33433">
        <ele>-15.968984</ele>
        <time>2022-04-02T11:29:40.000Z</time>
      </trkpt>
      <trkpt lat="39.42211" lon="-0.33436">
        <ele>-15.946229</ele>
        <time>2022-04-02T11:29:42.000Z</time>
      </trkpt>
      <trkpt lat="39.42231" lon="-0.33442">
        <ele>-15.897139</ele>
        <time>2022-04-02T11:29:46.000Z</time>
      </trkpt>
      <trkpt lat="39.42259" lon="-0.33449">
        <ele>-15.824735</ele>
        <time>2022-04-02T11:29:52.000Z</time>
      </trkpt>
      <trkpt lat="39.42278" lon="-0.33455">
        <ele>-15.778743</ele>
        <time>2022-04-02T11:29:56.000Z</time>
      </trkpt>
      <trkpt lat="39.42323" lon="-0.33468">
        <ele>-15.662634</ele>
        <time>2022-04-02T11:30:06.000Z</time>
      </trkpt>
      <trkpt lat="39.42341" lon="-0.33474">
        <ele>-15.618435</ele>
        <time>2022-04-02T11:30:10.000Z</time>
      </trkpt>
      <trkpt lat="39.42366" lon="-0.33481">
        <ele>-15.538236</ele>
        <time>2022-04-02T11:30:16.000Z</time>
      </trkpt>
      <trkpt lat="39.42375" lon="-0.33484">
        <ele>-15.458837</ele>
        <time>2022-04-02T11:30:18.000Z</time>
      </trkpt>
      <trkpt lat="39.424" lon="-0.33491">
        <ele>-15.214613</ele>
        <time>2022-04-02T11:30:25.000Z</time>
      </trkpt>
      <trkpt lat="39.42409" lon="-0.33504">
        <ele>-15.097627</ele>
        <time>2022-04-02T11:30:29.000Z</time>
      </trkpt>
      <trkpt lat="39.42422" lon="-0.33539">
        <ele>-14.821436</ele>
        <time>2022-04-02T11:30:38.000Z</time>
      </trkpt>
      <trkpt lat="39.42424" lon="-0.33545">
        <ele>-14.77149</ele>
        <time>2022-04-02T11:30:40.000Z</time>
      </trkpt>
      <trkpt lat="39.42425" lon="-0.33547">
        <ele>-14.753921</ele>
        <time>2022-04-02T11:30:41.000Z</time>
      </trkpt>
      <trkpt lat="39.42429" lon="-0.33547">
        <ele>-14.721232</ele>
        <time>2022-04-02T11:30:43.000Z</time>
      </trkpt>
      <trkpt lat="39.42439" lon="-0.33546">
        <ele>-14.625202</ele>
        <time>2022-04-02T11:30:48.000Z</time>
      </trkpt>
      <trkpt lat="39.4244" lon="-0.33547">
        <ele>-14.61558</ele>
        <time>2022-04-02T11:30:49.000Z</time>
      </trkpt>
      <trkpt lat="39.42443" lon="-0.33553">
        <ele>-14.561482</ele>
        <time>2022-04-02T11:30:54.000Z</time>
      </trkpt>
      <trkpt lat="39.42445" lon="-0.33561">
        <ele>-14.500912</ele>
        <time>2022-04-02T11:30:57.000Z</time>
      </trkpt>
      <trkpt lat="39.42448" lon="-0.33569">
        <ele>-14.443689</ele>
        <time>2022-04-02T11:30:59.000Z</time>
      </trkpt>
      <trkpt lat="39.42455" lon="-0.3359">
        <ele>-14.27213</ele>
        <time>2022-04-02T11:31:04.000Z</time>
      </trkpt>
      <trkpt lat="39.42459" lon="-0.33601">
        <ele>-14.190102</ele>
        <time>2022-04-02T11:31:06.000Z</time>
      </trkpt>
      <trkpt lat="39.42475" lon="-0.33649">
        <ele>-13.803739</ele>
        <time>2022-04-02T11:31:16.000Z</time>
      </trkpt>
      <trkpt lat="39.42486" lon="-0.33677">
        <ele>-13.539914</ele>
        <time>2022-04-02T11:31:22.000Z</time>
      </trkpt>
      <trkpt lat="39.42492" lon="-0.33694">
        <ele>-13.380109</ele>
        <time>2022-04-02T11:31:26.000Z</time>
      </trkpt>
      <trkpt lat="39.42497" lon="-0.33708">
        <ele>-13.254724</ele>
        <time>2022-04-02T11:31:29.000Z</time>
      </trkpt>
      <trkpt lat="39.42501" lon="-0.33719">
        <ele>-13.149194</ele>
        <time>2022-04-02T11:31:32.000Z</time>
      </trkpt>
      <trkpt lat="39.42504" lon="-0.33728">
        <ele>-13.069142</ele>
        <time>2022-04-02T11:31:34.000Z</time>
      </trkpt>
      <trkpt lat="39.42506" lon="-0.33733">
        <ele>-13.026991</ele>
        <time>2022-04-02T11:31:35.000Z</time>
      </trkpt>
      <trkpt lat="39.42511" lon="-0.33746">
        <ele>-12.90009</ele>
        <time>2022-04-02T11:31:38.000Z</time>
      </trkpt>
      <trkpt lat="39.42522" lon="-0.33778">
        <ele>-12.608687</ele>
        <time>2022-04-02T11:31:46.000Z</time>
      </trkpt>
      <trkpt lat="39.42529" lon="-0.33797">
        <ele>-12.435064</ele>
        <time>2022-04-02T11:31:50.000Z</time>
      </trkpt>
      <trkpt lat="39.42533" lon="-0.33807">
        <ele>-12.33908</ele>
        <time>2022-04-02T11:31:52.000Z</time>
      </trkpt>
      <trkpt lat="39.42534" lon="-0.33812">
        <ele>-12.294263</ele>
        <time>2022-04-02T11:31:53.000Z</time>
      </trkpt>
      <trkpt lat="39.4254" lon="-0.33828">
        <ele>-12.150226</ele>
        <time>2022-04-02T11:31:56.000Z</time>
      </trkpt>
      <trkpt lat="39.42542" lon="-0.33833">
        <ele>-12.10318</ele>
        <time>2022-04-02T11:31:57.000Z</time>
      </trkpt>
      <trkpt lat="39.42547" lon="-0.33848">
        <ele>-11.964151</ele>
        <time>2022-04-02T11:32:00.000Z</time>
      </trkpt>
      <trkpt lat="39.4255" lon="-0.33854">
        <ele>-11.929441</ele>
        <time>2022-04-02T11:32:01.000Z</time>
      </trkpt>
      <trkpt lat="39.42552" lon="-0.33857">
        <ele>-11.908767</ele>
        <time>2022-04-02T11:32:02.000Z</time>
      </trkpt>
      <trkpt lat="39.42555" lon="-0.33861">
        <ele>-11.885483</ele>
        <time>2022-04-02T11:32:03.000Z</time>
      </trkpt>
      <trkpt lat="39.42563" lon="-0.33874">
        <ele>-11.806518</ele>
        <time>2022-04-02T11:32:07.000Z</time>
      </trkpt>
      <trkpt lat="39.4257" lon="-0.3389">
        <ele>-11.723989</ele>
        <time>2022-04-02T11:32:11.000Z</time>
      </trkpt>
      <trkpt lat="39.42572" lon="-0.33895">
        <ele>-11.700518</ele>
        <time>2022-04-02T11:32:12.000Z</time>
      </trkpt>
      <trkpt lat="39.42574" lon="-0.33914">
        <ele>-11.610295</ele>
        <time>2022-04-02T11:32:16.000Z</time>
      </trkpt>
      <trkpt lat="39.42574" lon="-0.33931">
        <ele>-11.533788</ele>
        <time>2022-04-02T11:32:19.000Z</time>
      </trkpt>
      <trkpt lat="39.42575" lon="-0.33953">
        <ele>-11.431258</ele>
        <time>2022-04-02T11:32:23.000Z</time>
      </trkpt>
      <trkpt lat="39.42576" lon="-0.33971">
        <ele>-11.351168</ele>
        <time>2022-04-02T11:32:26.000Z</time>
      </trkpt>
      <trkpt lat="39.42586" lon="-0.34017">
        <ele>-11.1292</ele>
        <time>2022-04-02T11:32:34.000Z</time>
      </trkpt>
      <trkpt lat="39.42588" lon="-0.34023">
        <ele>-11.1021</ele>
        <time>2022-04-02T11:32:35.000Z</time>
      </trkpt>
      <trkpt lat="39.42593" lon="-0.34033">
        <ele>-11.047405</ele>
        <time>2022-04-02T11:32:37.000Z</time>
      </trkpt>
      <trkpt lat="39.42597" lon="-0.34036">
        <ele>-11.0218</ele>
        <time>2022-04-02T11:32:38.000Z</time>
      </trkpt>
      <trkpt lat="39.42601" lon="-0.34037">
        <ele>-10.995427</ele>
        <time>2022-04-02T11:32:39.000Z</time>
      </trkpt>
      <trkpt lat="39.42611" lon="-0.34036">
        <ele>-10.939338</ele>
        <time>2022-04-02T11:32:41.000Z</time>
      </trkpt>
      <trkpt lat="39.42618" lon="-0.34033">
        <ele>-10.892667</ele>
        <time>2022-04-02T11:32:43.000Z</time>
      </trkpt>
      <trkpt lat="39.42625" lon="-0.3403">
        <ele>-10.892027</ele>
        <time>2022-04-02T11:32:45.000Z</time>
      </trkpt>
      <trkpt lat="39.42628" lon="-0.34028">
        <ele>-10.893553</ele>
        <time>2022-04-02T11:32:46.000Z</time>
      </trkpt>
      <trkpt lat="39.42643" lon="-0.34019">
        <ele>-10.901154</ele>
        <time>2022-04-02T11:32:51.000Z</time>
      </trkpt>
      <trkpt lat="39.42649" lon="-0.34015">
        <ele>-10.904438</ele>
        <time>2022-04-02T11:32:53.000Z</time>
      </trkpt>
      <trkpt lat="39.42653" lon="-0.34013">
        <ele>-10.90616</ele>
        <time>2022-04-02T11:32:54.000Z</time>
      </trkpt>
      <trkpt lat="39.4266" lon="-0.34008">
        <ele>-10.909779</ele>
        <time>2022-04-02T11:32:56.000Z</time>
      </trkpt>
      <trkpt lat="39.42674" lon="-0.33998">
        <ele>-10.917151</ele>
        <time>2022-04-02T11:33:00.000Z</time>
      </trkpt>
      <trkpt lat="39.42681" lon="-0.33994">
        <ele>-10.920425</ele>
        <time>2022-04-02T11:33:02.000Z</time>
      </trkpt>
      <trkpt lat="39.42687" lon="-0.33991">
        <ele>-10.923337</ele>
        <time>2022-04-02T11:33:04.000Z</time>
      </trkpt>
      <trkpt lat="39.42694" lon="-0.33987">
        <ele>-10.926778</ele>
        <time>2022-04-02T11:33:06.000Z</time>
      </trkpt>
      <trkpt lat="39.42702" lon="-0.33982">
        <ele>-10.931119</ele>
        <time>2022-04-02T11:33:09.000Z</time>
      </trkpt>
      <trkpt lat="39.42709" lon="-0.33979">
        <ele>-10.934422</ele>
        <time>2022-04-02T11:33:11.000Z</time>
      </trkpt>
      <trkpt lat="39.42728" lon="-0.33967">
        <ele>-10.944009</ele>
        <time>2022-04-02T11:33:18.000Z</time>
      </trkpt>
      <trkpt lat="39.42738" lon="-0.33962">
        <ele>-10.948503</ele>
        <time>2022-04-02T11:33:21.000Z</time>
      </trkpt>
      <trkpt lat="39.42741" lon="-0.3396">
        <ele>-10.950001</ele>
        <time>2022-04-02T11:33:22.000Z</time>
      </trkpt>
      <trkpt lat="39.42747" lon="-0.33957">
        <ele>-10.95315</ele>
        <time>2022-04-02T11:33:24.000Z</time>
      </trkpt>
      <trkpt lat="39.42753" lon="-0.33953">
        <ele>-10.956184</ele>
        <time>2022-04-02T11:33:26.000Z</time>
      </trkpt>
      <trkpt lat="39.42756" lon="-0.33951">
        <ele>-10.957724</ele>
        <time>2022-04-02T11:33:27.000Z</time>
      </trkpt>
      <trkpt lat="39.42761" lon="-0.33947">
        <ele>-10.960549</ele>
        <time>2022-04-02T11:33:29.000Z</time>
      </trkpt>
      <trkpt lat="39.42764" lon="-0.33945">
        <ele>-10.961965</ele>
        <time>2022-04-02T11:33:30.000Z</time>
      </trkpt>
      <trkpt lat="39.42773" lon="-0.3394">
        <ele>-10.966308</ele>
        <time>2022-04-02T11:33:33.000Z</time>
      </trkpt>
      <trkpt lat="39.42776" lon="-0.33938">
        <ele>-10.967972</ele>
        <time>2022-04-02T11:33:34.000Z</time>
      </trkpt>
      <trkpt lat="39.42783" lon="-0.33934">
        <ele>-10.998137</ele>
        <time>2022-04-02T11:33:36.000Z</time>
      </trkpt>
      <trkpt lat="39.42795" lon="-0.33926">
        <ele>-11.209569</ele>
        <time>2022-04-02T11:33:39.000Z</time>
      </trkpt>
      <trkpt lat="39.42826" lon="-0.33912">
        <ele>-11.754545</ele>
        <time>2022-04-02T11:33:46.000Z</time>
      </trkpt>
      <trkpt lat="39.4283" lon="-0.3391">
        <ele>-11.82071</ele>
        <time>2022-04-02T11:33:47.000Z</time>
      </trkpt>
      <trkpt lat="39.42847" lon="-0.33906">
        <ele>-12.093946</ele>
        <time>2022-04-02T11:33:50.000Z</time>
      </trkpt>
      <trkpt lat="39.42863" lon="-0.33905">
        <ele>-12.362473</ele>
        <time>2022-04-02T11:33:53.000Z</time>
      </trkpt>
      <trkpt lat="39.42879" lon="-0.33906">
        <ele>-12.613035</ele>
        <time>2022-04-02T11:33:56.000Z</time>
      </trkpt>
      <trkpt lat="39.42891" lon="-0.33905">
        <ele>-12.810394</ele>
        <time>2022-04-02T11:33:58.000Z</time>
      </trkpt>
      <trkpt lat="39.42901" lon="-0.33901">
        <ele>-12.984239</ele>
        <time>2022-04-02T11:34:00.000Z</time>
      </trkpt>
      <trkpt lat="39.42905" lon="-0.339">
        <ele>-13.04852</ele>
        <time>2022-04-02T11:34:01.000Z</time>
      </trkpt>
      <trkpt lat="39.42912" lon="-0.3389">
        <ele>-13.208705</ele>
        <time>2022-04-02T11:34:03.000Z</time>
      </trkpt>
      <trkpt lat="39.42913" lon="-0.33878">
        <ele>-13.367143</ele>
        <time>2022-04-02T11:34:05.000Z</time>
      </trkpt>
      <trkpt lat="39.42913" lon="-0.33873">
        <ele>-13.432786</ele>
        <time>2022-04-02T11:34:06.000Z</time>
      </trkpt>
      <trkpt lat="39.42912" lon="-0.33829">
        <ele>-13.894863</ele>
        <time>2022-04-02T11:34:13.000Z</time>
      </trkpt>
      <trkpt lat="39.42914" lon="-0.33823">
        <ele>-13.894002</ele>
        <time>2022-04-02T11:34:14.000Z</time>
      </trkpt>
      <trkpt lat="39.42916" lon="-0.33819">
        <ele>-13.893287</ele>
        <time>2022-04-02T11:34:15.000Z</time>
      </trkpt>
      <trkpt lat="39.4292" lon="-0.33813">
        <ele>-13.892209</ele>
        <time>2022-04-02T11:34:16.000Z</time>
      </trkpt>
      <trkpt lat="39.42925" lon="-0.33809">
        <ele>-13.891195</ele>
        <time>2022-04-02T11:34:17.000Z</time>
      </trkpt>
      <trkpt lat="39.4293" lon="-0.33805">
        <ele>-13.890202</ele>
        <time>2022-04-02T11:34:18.000Z</time>
      </trkpt>
      <trkpt lat="39.42935" lon="-0.33803">
        <ele>-13.889192</ele>
        <time>2022-04-02T11:34:19.000Z</time>
      </trkpt>
      <trkpt lat="39.42941" lon="-0.33802">
        <ele>-13.888187</ele>
        <time>2022-04-02T11:34:20.000Z</time>
      </trkpt>
      <trkpt lat="39.42957" lon="-0.33799">
        <ele>-13.885289</ele>
        <time>2022-04-02T11:34:23.000Z</time>
      </trkpt>
      <trkpt lat="39.42966" lon="-0.33801">
        <ele>-13.883636</ele>
        <time>2022-04-02T11:34:25.000Z</time>
      </trkpt>
      <trkpt lat="39.4298" lon="-0.33807">
        <ele>-13.880917</ele>
        <time>2022-04-02T11:34:28.000Z</time>
      </trkpt>
      <trkpt lat="39.42987" lon="-0.33812">
        <ele>-13.879549</ele>
        <time>2022-04-02T11:34:30.000Z</time>
      </trkpt>
      <trkpt lat="39.42993" lon="-0.3382">
        <ele>-13.877966</ele>
        <time>2022-04-02T11:34:32.000Z</time>
      </trkpt>
      <trkpt lat="39.42998" lon="-0.33837">
        <ele>-13.875472</ele>
        <time>2022-04-02T11:34:36.000Z</time>
      </trkpt>
      <trkpt lat="39.42999" lon="-0.33843">
        <ele>-13.874647</ele>
        <time>2022-04-02T11:34:37.000Z</time>
      </trkpt>
      <trkpt lat="39.43" lon="-0.33853">
        <ele>-13.873192</ele>
        <time>2022-04-02T11:34:39.000Z</time>
      </trkpt>
      <trkpt lat="39.42999" lon="-0.33865">
        <ele>-13.871573</ele>
        <time>2022-04-02T11:34:41.000Z</time>
      </trkpt>
      <trkpt lat="39.42998" lon="-0.3387">
        <ele>-13.870761</ele>
        <time>2022-04-02T11:34:42.000Z</time>
      </trkpt>
      <trkpt lat="39.42996" lon="-0.33881">
        <ele>-13.869214</ele>
        <time>2022-04-02T11:34:44.000Z</time>
      </trkpt>
      <trkpt lat="39.42993" lon="-0.33896">
        <ele>-13.867118</ele>
        <time>2022-04-02T11:34:46.000Z</time>
      </trkpt>
      <trkpt lat="39.42993" lon="-0.33909">
        <ele>-13.865285</ele>
        <time>2022-04-02T11:34:48.000Z</time>
      </trkpt>
      <trkpt lat="39.42994" lon="-0.33931">
        <ele>-13.932121</ele>
        <time>2022-04-02T11:34:51.000Z</time>
      </trkpt>
      <trkpt lat="39.42997" lon="-0.33947">
        <ele>-14.058189</ele>
        <time>2022-04-02T11:34:54.000Z</time>
      </trkpt>
      <trkpt lat="39.42999" lon="-0.33953">
        <ele>-14.107415</ele>
        <time>2022-04-02T11:34:55.000Z</time>
      </trkpt>
      <trkpt lat="39.43" lon="-0.33958">
        <ele>-14.147743</ele>
        <time>2022-04-02T11:34:56.000Z</time>
      </trkpt>
      <trkpt lat="39.43004" lon="-0.33978">
        <ele>-14.310421</ele>
        <time>2022-04-02T11:35:00.000Z</time>
      </trkpt>
      <trkpt lat="39.43006" lon="-0.33987">
        <ele>-14.385635</ele>
        <time>2022-04-02T11:35:02.000Z</time>
      </trkpt>
      <trkpt lat="39.43012" lon="-0.33998">
        <ele>-14.488688</ele>
        <time>2022-04-02T11:35:04.000Z</time>
      </trkpt>
      <trkpt lat="39.43016" lon="-0.34003">
        <ele>-14.54217</ele>
        <time>2022-04-02T11:35:05.000Z</time>
      </trkpt>
      <trkpt lat="39.43034" lon="-0.34028">
        <ele>-14.804414</ele>
        <time>2022-04-02T11:35:10.000Z</time>
      </trkpt>
      <trkpt lat="39.43038" lon="-0.34031">
        <ele>-14.849774</ele>
        <time>2022-04-02T11:35:11.000Z</time>
      </trkpt>
      <trkpt lat="39.43042" lon="-0.34035">
        <ele>-14.902129</ele>
        <time>2022-04-02T11:35:12.000Z</time>
      </trkpt>
      <trkpt lat="39.43056" lon="-0.34045">
        <ele>-15.062819</ele>
        <time>2022-04-02T11:35:15.000Z</time>
      </trkpt>
      <trkpt lat="39.43064" lon="-0.34049">
        <ele>-15.14967</ele>
        <time>2022-04-02T11:35:17.000Z</time>
      </trkpt>
      <trkpt lat="39.4307" lon="-0.34051">
        <ele>-15.207598</ele>
        <time>2022-04-02T11:35:18.000Z</time>
      </trkpt>
      <trkpt lat="39.43097" lon="-0.3406">
        <ele>-15.485656</ele>
        <time>2022-04-02T11:35:24.000Z</time>
      </trkpt>
      <trkpt lat="39.43101" lon="-0.34059">
        <ele>-15.532169</ele>
        <time>2022-04-02T11:35:25.000Z</time>
      </trkpt>
      <trkpt lat="39.43125" lon="-0.34054">
        <ele>-15.650635</ele>
        <time>2022-04-02T11:35:30.000Z</time>
      </trkpt>
      <trkpt lat="39.43134" lon="-0.34052">
        <ele>-15.64534</ele>
        <time>2022-04-02T11:35:32.000Z</time>
      </trkpt>
      <trkpt lat="39.43152" lon="-0.34047">
        <ele>-15.635484</ele>
        <time>2022-04-02T11:35:36.000Z</time>
      </trkpt>
      <trkpt lat="39.43162" lon="-0.34045">
        <ele>-15.629716</ele>
        <time>2022-04-02T11:35:38.000Z</time>
      </trkpt>
      <trkpt lat="39.43169" lon="-0.34043">
        <ele>-15.625305</ele>
        <time>2022-04-02T11:35:40.000Z</time>
      </trkpt>
      <trkpt lat="39.43183" lon="-0.34039">
        <ele>-15.617527</ele>
        <time>2022-04-02T11:35:43.000Z</time>
      </trkpt>
      <trkpt lat="39.43191" lon="-0.34037">
        <ele>-15.613171</ele>
        <time>2022-04-02T11:35:45.000Z</time>
      </trkpt>
      <trkpt lat="39.43235" lon="-0.34025">
        <ele>-15.58784</ele>
        <time>2022-04-02T11:35:55.000Z</time>
      </trkpt>
      <trkpt lat="39.4328" lon="-0.34012">
        <ele>-15.561833</ele>
        <time>2022-04-02T11:36:05.000Z</time>
      </trkpt>
      <trkpt lat="39.43306" lon="-0.34003">
        <ele>-15.46727</ele>
        <time>2022-04-02T11:36:11.000Z</time>
      </trkpt>
      <trkpt lat="39.43314" lon="-0.34001">
        <ele>-15.425245</ele>
        <time>2022-04-02T11:36:13.000Z</time>
      </trkpt>
      <trkpt lat="39.43324" lon="-0.33997">
        <ele>-15.372443</ele>
        <time>2022-04-02T11:36:15.000Z</time>
      </trkpt>
      <trkpt lat="39.43336" lon="-0.33993">
        <ele>-15.306798</ele>
        <time>2022-04-02T11:36:18.000Z</time>
      </trkpt>
      <trkpt lat="39.43359" lon="-0.33984">
        <ele>-15.177754</ele>
        <time>2022-04-02T11:36:23.000Z</time>
      </trkpt>
      <trkpt lat="39.43363" lon="-0.33981">
        <ele>-15.153632</ele>
        <time>2022-04-02T11:36:24.000Z</time>
      </trkpt>
      <trkpt lat="39.434" lon="-0.33966">
        <ele>-14.952407</ele>
        <time>2022-04-02T11:36:32.000Z</time>
      </trkpt>
      <trkpt lat="39.43419" lon="-0.33957">
        <ele>-14.843135</ele>
        <time>2022-04-02T11:36:37.000Z</time>
      </trkpt>
      <trkpt lat="39.43436" lon="-0.33949">
        <ele>-14.749132</ele>
        <time>2022-04-02T11:36:41.000Z</time>
      </trkpt>
      <trkpt lat="39.43452" lon="-0.33941">
        <ele>-14.659582</ele>
        <time>2022-04-02T11:36:45.000Z</time>
      </trkpt>
      <trkpt lat="39.4346" lon="-0.33938">
        <ele>-14.617693</ele>
        <time>2022-04-02T11:36:47.000Z</time>
      </trkpt>
      <trkpt lat="39.4347" lon="-0.33932">
        <ele>-14.511348</ele>
        <time>2022-04-02T11:36:50.000Z</time>
      </trkpt>
      <trkpt lat="39.43474" lon="-0.3393">
        <ele>-14.472675</ele>
        <time>2022-04-02T11:36:51.000Z</time>
      </trkpt>
      <trkpt lat="39.43479" lon="-0.33928">
        <ele>-14.421555</ele>
        <time>2022-04-02T11:36:52.000Z</time>
      </trkpt>
      <trkpt lat="39.43483" lon="-0.33927">
        <ele>-14.376536</ele>
        <time>2022-04-02T11:36:53.000Z</time>
      </trkpt>
      <trkpt lat="39.43509" lon="-0.33914">
        <ele>-14.104649</ele>
        <time>2022-04-02T11:36:59.000Z</time>
      </trkpt>
      <trkpt lat="39.43545" lon="-0.33896">
        <ele>-13.72901</ele>
        <time>2022-04-02T11:37:06.000Z</time>
      </trkpt>
      <trkpt lat="39.43549" lon="-0.33894">
        <ele>-13.678594</ele>
        <time>2022-04-02T11:37:07.000Z</time>
      </trkpt>
      <trkpt lat="39.43598" lon="-0.33867">
        <ele>-13.160665</ele>
        <time>2022-04-02T11:37:17.000Z</time>
      </trkpt>
      <trkpt lat="39.43634" lon="-0.33848">
        <ele>-12.647479</ele>
        <time>2022-04-02T11:37:25.000Z</time>
      </trkpt>
      <trkpt lat="39.4367" lon="-0.3383">
        <ele>-11.426043</ele>
        <time>2022-04-02T11:37:33.000Z</time>
      </trkpt>
      <trkpt lat="39.43678" lon="-0.33826">
        <ele>-11.168356</ele>
        <time>2022-04-02T11:37:35.000Z</time>
      </trkpt>
      <trkpt lat="39.43691" lon="-0.33821">
        <ele>-10.725977</ele>
        <time>2022-04-02T11:37:39.000Z</time>
      </trkpt>
      <trkpt lat="39.43701" lon="-0.33817">
        <ele>-10.401637</ele>
        <time>2022-04-02T11:37:42.000Z</time>
      </trkpt>
      <trkpt lat="39.43711" lon="-0.33814">
        <ele>-10.077721</ele>
        <time>2022-04-02T11:37:45.000Z</time>
      </trkpt>
      <trkpt lat="39.43715" lon="-0.33813">
        <ele>-9.966441</ele>
        <time>2022-04-02T11:37:46.000Z</time>
      </trkpt>
      <trkpt lat="39.43731" lon="-0.33809">
        <ele>-9.432845</ele>
        <time>2022-04-02T11:37:51.000Z</time>
      </trkpt>
      <trkpt lat="39.43744" lon="-0.33807">
        <ele>-9.050917</ele>
        <time>2022-04-02T11:37:55.000Z</time>
      </trkpt>
      <trkpt lat="39.43757" lon="-0.33804">
        <ele>-8.613931</ele>
        <time>2022-04-02T11:38:00.000Z</time>
      </trkpt>
      <trkpt lat="39.43766" lon="-0.33803">
        <ele>-8.339436</ele>
        <time>2022-04-02T11:38:03.000Z</time>
      </trkpt>
      <trkpt lat="39.43786" lon="-0.33799">
        <ele>-7.710311</ele>
        <time>2022-04-02T11:38:11.000Z</time>
      </trkpt>
      <trkpt lat="39.43791" lon="-0.33798">
        <ele>-7.564268</ele>
        <time>2022-04-02T11:38:13.000Z</time>
      </trkpt>
      <trkpt lat="39.43807" lon="-0.33795">
        <ele>-7.367769</ele>
        <time>2022-04-02T11:38:20.000Z</time>
      </trkpt>
      <trkpt lat="39.4381" lon="-0.33795">
        <ele>-7.45953</ele>
        <time>2022-04-02T11:38:24.000Z</time>
      </trkpt>
      <trkpt lat="39.4381" lon="-0.33795">
        <ele>-7.469002</ele>
        <time>2022-04-02T11:38:31.000Z</time>
      </trkpt>
      <trkpt lat="39.4381" lon="-0.33795">
        <ele>-7.469002</ele>
        <time>2022-04-02T11:38:34.000Z</time>
      </trkpt>
      <trkpt lat="39.4381" lon="-0.33795">
        <ele>-7.469002</ele>
        <time>2022-04-02T11:38:37.000Z</time>
      </trkpt>
      <trkpt lat="39.4381" lon="-0.33795">
        <ele>-7.469002</ele>
        <time>2022-04-02T11:38:38.000Z</time>
      </trkpt>
      <trkpt lat="39.4381" lon="-0.33795">
        <ele>-7.472097</ele>
        <time>2022-04-02T11:38:39.000Z</time>
      </trkpt>
      <trkpt lat="39.43815" lon="-0.33795">
        <ele>-7.62072</ele>
        <time>2022-04-02T11:38:41.000Z</time>
      </trkpt>
      <trkpt lat="39.43817" lon="-0.33794">
        <ele>-7.707898</ele>
        <time>2022-04-02T11:38:42.000Z</time>
      </trkpt>
      <trkpt lat="39.43832" lon="-0.33792">
        <ele>-8.14994</ele>
        <time>2022-04-02T11:38:46.000Z</time>
      </trkpt>
      <trkpt lat="39.4384" lon="-0.3379">
        <ele>-8.422596</ele>
        <time>2022-04-02T11:38:48.000Z</time>
      </trkpt>
      <trkpt lat="39.43855" lon="-0.33786">
        <ele>-8.882175</ele>
        <time>2022-04-02T11:38:51.000Z</time>
      </trkpt>
      <trkpt lat="39.4386" lon="-0.33785">
        <ele>-9.05988</ele>
        <time>2022-04-02T11:38:52.000Z</time>
      </trkpt>
      <trkpt lat="39.43873" lon="-0.33784">
        <ele>-9.438712</ele>
        <time>2022-04-02T11:38:54.000Z</time>
      </trkpt>
      <trkpt lat="39.43885" lon="-0.33782">
        <ele>-9.836052</ele>
        <time>2022-04-02T11:38:56.000Z</time>
      </trkpt>
      <trkpt lat="39.43919" lon="-0.3378">
        <ele>-10.871147</ele>
        <time>2022-04-02T11:39:01.000Z</time>
      </trkpt>
      <trkpt lat="39.43925" lon="-0.3378">
        <ele>-11.078548</ele>
        <time>2022-04-02T11:39:02.000Z</time>
      </trkpt>
      <trkpt lat="39.43953" lon="-0.33779">
        <ele>-11.936054</ele>
        <time>2022-04-02T11:39:06.000Z</time>
      </trkpt>
      <trkpt lat="39.43975" lon="-0.33779">
        <ele>-12.620091</ele>
        <time>2022-04-02T11:39:09.000Z</time>
      </trkpt>
      <trkpt lat="39.43983" lon="-0.33779">
        <ele>-12.829839</ele>
        <time>2022-04-02T11:39:10.000Z</time>
      </trkpt>
      <trkpt lat="39.43998" lon="-0.3378">
        <ele>-13.124099</ele>
        <time>2022-04-02T11:39:12.000Z</time>
      </trkpt>
      <trkpt lat="39.44032" lon="-0.33784">
        <ele>-13.806029</ele>
        <time>2022-04-02T11:39:17.000Z</time>
      </trkpt>
      <trkpt lat="39.44057" lon="-0.33789">
        <ele>-14.291162</ele>
        <time>2022-04-02T11:39:21.000Z</time>
      </trkpt>
      <trkpt lat="39.44074" lon="-0.33793">
        <ele>-14.637182</ele>
        <time>2022-04-02T11:39:24.000Z</time>
      </trkpt>
      <trkpt lat="39.4408" lon="-0.33795">
        <ele>-14.761952</ele>
        <time>2022-04-02T11:39:25.000Z</time>
      </trkpt>
      <trkpt lat="39.44133" lon="-0.3381">
        <ele>-15.83364</ele>
        <time>2022-04-02T11:39:34.000Z</time>
      </trkpt>
      <trkpt lat="39.44139" lon="-0.33812">
        <ele>-15.952098</ele>
        <time>2022-04-02T11:39:35.000Z</time>
      </trkpt>
      <trkpt lat="39.44167" lon="-0.33823">
        <ele>-16.303528</ele>
        <time>2022-04-02T11:39:40.000Z</time>
      </trkpt>
      <trkpt lat="39.44184" lon="-0.3383">
        <ele>-16.270346</ele>
        <time>2022-04-02T11:39:43.000Z</time>
      </trkpt>
      <trkpt lat="39.442" lon="-0.33837">
        <ele>-16.237281</ele>
        <time>2022-04-02T11:39:46.000Z</time>
      </trkpt>
      <trkpt lat="39.44232" lon="-0.33852">
        <ele>-16.173131</ele>
        <time>2022-04-02T11:39:52.000Z</time>
      </trkpt>
      <trkpt lat="39.44247" lon="-0.3386">
        <ele>-16.141856</ele>
        <time>2022-04-02T11:39:55.000Z</time>
      </trkpt>
      <trkpt lat="39.44267" lon="-0.33872">
        <ele>-16.100309</ele>
        <time>2022-04-02T11:39:59.000Z</time>
      </trkpt>
      <trkpt lat="39.44277" lon="-0.33879">
        <ele>-16.079166</ele>
        <time>2022-04-02T11:40:01.000Z</time>
      </trkpt>
      <trkpt lat="39.443" lon="-0.33894">
        <ele>-16.030317</ele>
        <time>2022-04-02T11:40:06.000Z</time>
      </trkpt>
      <trkpt lat="39.4432" lon="-0.3391">
        <ele>-15.985395</ele>
        <time>2022-04-02T11:40:11.000Z</time>
      </trkpt>
      <trkpt lat="39.44325" lon="-0.33913">
        <ele>-15.988304</ele>
        <time>2022-04-02T11:40:12.000Z</time>
      </trkpt>
      <trkpt lat="39.44338" lon="-0.33922">
        <ele>-16.010653</ele>
        <time>2022-04-02T11:40:15.000Z</time>
      </trkpt>
      <trkpt lat="39.44356" lon="-0.33936">
        <ele>-16.042331</ele>
        <time>2022-04-02T11:40:19.000Z</time>
      </trkpt>
      <trkpt lat="39.44382" lon="-0.33959">
        <ele>-16.089924</ele>
        <time>2022-04-02T11:40:25.000Z</time>
      </trkpt>
      <trkpt lat="39.44391" lon="-0.33968">
        <ele>-16.106238</ele>
        <time>2022-04-02T11:40:27.000Z</time>
      </trkpt>
      <trkpt lat="39.44404" lon="-0.3398">
        <ele>-16.130091</ele>
        <time>2022-04-02T11:40:30.000Z</time>
      </trkpt>
      <trkpt lat="39.44429" lon="-0.34006">
        <ele>-16.178105</ele>
        <time>2022-04-02T11:40:36.000Z</time>
      </trkpt>
      <trkpt lat="39.44454" lon="-0.34028">
        <ele>-16.223574</ele>
        <time>2022-04-02T11:40:42.000Z</time>
      </trkpt>
      <trkpt lat="39.44463" lon="-0.34033">
        <ele>-16.238909</ele>
        <time>2022-04-02T11:40:44.000Z</time>
      </trkpt>
      <trkpt lat="39.44483" lon="-0.3404">
        <ele>-16.25927</ele>
        <time>2022-04-02T11:40:48.000Z</time>
      </trkpt>
      <trkpt lat="39.44494" lon="-0.34038">
        <ele>-16.265065</ele>
        <time>2022-04-02T11:40:50.000Z</time>
      </trkpt>
      <trkpt lat="39.44507" lon="-0.34029">
        <ele>-16.273644</ele>
        <time>2022-04-02T11:40:53.000Z</time>
      </trkpt>
      <trkpt lat="39.44511" lon="-0.34025">
        <ele>-16.276609</ele>
        <time>2022-04-02T11:40:54.000Z</time>
      </trkpt>
      <trkpt lat="39.44515" lon="-0.34021">
        <ele>-16.279597</ele>
        <time>2022-04-02T11:40:55.000Z</time>
      </trkpt>
      <trkpt lat="39.44526" lon="-0.34018">
        <ele>-16.285827</ele>
        <time>2022-04-02T11:40:57.000Z</time>
      </trkpt>
      <trkpt lat="39.44529" lon="-0.34018">
        <ele>-16.287771</ele>
        <time>2022-04-02T11:40:58.000Z</time>
      </trkpt>
      <trkpt lat="39.44534" lon="-0.34019">
        <ele>-16.290108</ele>
        <time>2022-04-02T11:40:59.000Z</time>
      </trkpt>
      <trkpt lat="39.44543" lon="-0.34021">
        <ele>-16.295444</ele>
        <time>2022-04-02T11:41:01.000Z</time>
      </trkpt>
      <trkpt lat="39.44546" lon="-0.34023">
        <ele>-16.297336</ele>
        <time>2022-04-02T11:41:02.000Z</time>
      </trkpt>
      <trkpt lat="39.44549" lon="-0.34026">
        <ele>-16.29965</ele>
        <time>2022-04-02T11:41:03.000Z</time>
      </trkpt>
      <trkpt lat="39.44554" lon="-0.34035">
        <ele>-16.30428</ele>
        <time>2022-04-02T11:41:05.000Z</time>
      </trkpt>
      <trkpt lat="39.44557" lon="-0.34039">
        <ele>-16.306693</ele>
        <time>2022-04-02T11:41:06.000Z</time>
      </trkpt>
      <trkpt lat="39.4456" lon="-0.34043">
        <ele>-16.309345</ele>
        <time>2022-04-02T11:41:07.000Z</time>
      </trkpt>
      <trkpt lat="39.44563" lon="-0.34054">
        <ele>-16.314474</ele>
        <time>2022-04-02T11:41:09.000Z</time>
      </trkpt>
      <trkpt lat="39.44563" lon="-0.3406">
        <ele>-16.31703</ele>
        <time>2022-04-02T11:41:10.000Z</time>
      </trkpt>
      <trkpt lat="39.44565" lon="-0.34071">
        <ele>-16.322185</ele>
        <time>2022-04-02T11:41:12.000Z</time>
      </trkpt>
      <trkpt lat="39.44568" lon="-0.34078">
        <ele>-16.325597</ele>
        <time>2022-04-02T11:41:14.000Z</time>
      </trkpt>
      <trkpt lat="39.44571" lon="-0.34078">
        <ele>-16.327389</ele>
        <time>2022-04-02T11:41:15.000Z</time>
      </trkpt>
      <trkpt lat="39.44583" lon="-0.34079">
        <ele>-16.334059</ele>
        <time>2022-04-02T11:41:18.000Z</time>
      </trkpt>
      <trkpt lat="39.44591" lon="-0.3408">
        <ele>-16.338803</ele>
        <time>2022-04-02T11:41:20.000Z</time>
      </trkpt>
      <trkpt lat="39.4462" lon="-0.34082">
        <ele>-16.354513</ele>
        <time>2022-04-02T11:41:27.000Z</time>
      </trkpt>
      <trkpt lat="39.44637" lon="-0.34084">
        <ele>-16.309956</ele>
        <time>2022-04-02T11:41:31.000Z</time>
      </trkpt>
      <trkpt lat="39.44642" lon="-0.34085">
        <ele>-16.298719</ele>
        <time>2022-04-02T11:41:32.000Z</time>
      </trkpt>
      <trkpt lat="39.4465" lon="-0.34086">
        <ele>-16.27877</ele>
        <time>2022-04-02T11:41:34.000Z</time>
      </trkpt>
      <trkpt lat="39.44658" lon="-0.34086">
        <ele>-16.257072</ele>
        <time>2022-04-02T11:41:36.000Z</time>
      </trkpt>
      <trkpt lat="39.44671" lon="-0.34087">
        <ele>-16.225179</ele>
        <time>2022-04-02T11:41:39.000Z</time>
      </trkpt>
      <trkpt lat="39.447" lon="-0.34089">
        <ele>-16.151163</ele>
        <time>2022-04-02T11:41:46.000Z</time>
      </trkpt>
      <trkpt lat="39.44717" lon="-0.34091">
        <ele>-16.106216</ele>
        <time>2022-04-02T11:41:50.000Z</time>
      </trkpt>
      <trkpt lat="39.44756" lon="-0.34095">
        <ele>-16.006371</ele>
        <time>2022-04-02T11:41:58.000Z</time>
      </trkpt>
      <trkpt lat="39.44785" lon="-0.34097">
        <ele>-15.932019</ele>
        <time>2022-04-02T11:42:04.000Z</time>
      </trkpt>
      <trkpt lat="39.44806" lon="-0.34099">
        <ele>-15.900738</ele>
        <time>2022-04-02T11:42:08.000Z</time>
      </trkpt>
      <trkpt lat="39.44811" lon="-0.341">
        <ele>-15.903656</ele>
        <time>2022-04-02T11:42:09.000Z</time>
      </trkpt>
      <trkpt lat="39.44846" lon="-0.34104">
        <ele>-15.923843</ele>
        <time>2022-04-02T11:42:16.000Z</time>
      </trkpt>
      <trkpt lat="39.44851" lon="-0.34105">
        <ele>-15.926726</ele>
        <time>2022-04-02T11:42:17.000Z</time>
      </trkpt>
      <trkpt lat="39.44871" lon="-0.34106">
        <ele>-15.937973</ele>
        <time>2022-04-02T11:42:21.000Z</time>
      </trkpt>
      <trkpt lat="39.44885" lon="-0.34108">
        <ele>-15.946152</ele>
        <time>2022-04-02T11:42:24.000Z</time>
      </trkpt>
      <trkpt lat="39.44918" lon="-0.34111">
        <ele>-15.964597</ele>
        <time>2022-04-02T11:42:31.000Z</time>
      </trkpt>
      <trkpt lat="39.44931" lon="-0.34112">
        <ele>-15.972269</ele>
        <time>2022-04-02T11:42:34.000Z</time>
      </trkpt>
      <trkpt lat="39.44949" lon="-0.34114">
        <ele>-15.982727</ele>
        <time>2022-04-02T11:42:38.000Z</time>
      </trkpt>
      <trkpt lat="39.44959" lon="-0.34115">
        <ele>-15.988151</ele>
        <time>2022-04-02T11:42:40.000Z</time>
      </trkpt>
      <trkpt lat="39.44994" lon="-0.34118">
        <ele>-15.890645</ele>
        <time>2022-04-02T11:42:48.000Z</time>
      </trkpt>
      <trkpt lat="39.45005" lon="-0.34119">
        <ele>-15.811346</ele>
        <time>2022-04-02T11:42:51.000Z</time>
      </trkpt>
      <trkpt lat="39.45032" lon="-0.34122">
        <ele>-15.61979</ele>
        <time>2022-04-02T11:42:58.000Z</time>
      </trkpt>
      <trkpt lat="39.4504" lon="-0.34122">
        <ele>-15.562496</ele>
        <time>2022-04-02T11:43:00.000Z</time>
      </trkpt>
      <trkpt lat="39.45064" lon="-0.34113">
        <ele>-15.388136</ele>
        <time>2022-04-02T11:43:06.000Z</time>
      </trkpt>
      <trkpt lat="39.45078" lon="-0.34106">
        <ele>-15.28029</ele>
        <time>2022-04-02T11:43:10.000Z</time>
      </trkpt>
      <trkpt lat="39.45081" lon="-0.34104">
        <ele>-15.25624</ele>
        <time>2022-04-02T11:43:11.000Z</time>
      </trkpt>
      <trkpt lat="39.45082" lon="-0.34101">
        <ele>-15.236882</ele>
        <time>2022-04-02T11:43:12.000Z</time>
      </trkpt>
      <trkpt lat="39.45082" lon="-0.34092">
        <ele>-15.189325</ele>
        <time>2022-04-02T11:43:14.000Z</time>
      </trkpt>
      <trkpt lat="39.4508" lon="-0.34084">
        <ele>-15.146284</ele>
        <time>2022-04-02T11:43:19.000Z</time>
      </trkpt>
      <trkpt lat="39.45087" lon="-0.34081">
        <ele>-15.096995</ele>
        <time>2022-04-02T11:43:28.000Z</time>
      </trkpt>
      <trkpt lat="39.45095" lon="-0.34079">
        <ele>-15.038925</ele>
        <time>2022-04-02T11:43:31.000Z</time>
      </trkpt>
      <trkpt lat="39.45097" lon="-0.34081">
        <ele>-15.021791</ele>
        <time>2022-04-02T11:43:32.000Z</time>
      </trkpt>
      <trkpt lat="39.4511" lon="-0.34089">
        <ele>-14.918679</ele>
        <time>2022-04-02T11:43:37.000Z</time>
      </trkpt>
      <trkpt lat="39.45121" lon="-0.34084">
        <ele>-14.835132</ele>
        <time>2022-04-02T11:43:40.000Z</time>
      </trkpt>
      <trkpt lat="39.45123" lon="-0.3408">
        <ele>-14.810019</ele>
        <time>2022-04-02T11:43:41.000Z</time>
      </trkpt>
      <trkpt lat="39.45125" lon="-0.34071">
        <ele>-14.759585</ele>
        <time>2022-04-02T11:43:45.000Z</time>
      </trkpt>
      <trkpt lat="39.45125" lon="-0.34071">
        <ele>-14.759585</ele>
        <time>2022-04-02T11:43:50.000Z</time>
      </trkpt>
      <trkpt lat="39.45125" lon="-0.34071">
        <ele>-14.759585</ele>
        <time>2022-04-02T11:43:51.000Z</time>
      </trkpt>
      <trkpt lat="39.45125" lon="-0.34071">
        <ele>-14.759585</ele>
        <time>2022-04-02T11:43:53.000Z</time>
      </trkpt>
      <trkpt lat="39.45125" lon="-0.34071">
        <ele>-14.759585</ele>
        <time>2022-04-02T11:44:24.000Z</time>
      </trkpt>
      <trkpt lat="39.45125" lon="-0.34071">
        <ele>-14.759585</ele>
        <time>2022-04-02T11:44:26.000Z</time>
      </trkpt>
      <trkpt lat="39.45125" lon="-0.34071">
        <ele>-14.759585</ele>
        <time>2022-04-02T11:44:27.000Z</time>
      </trkpt>
      <trkpt lat="39.45125" lon="-0.34071">
        <ele>-14.759585</ele>
        <time>2022-04-02T11:44:29.000Z</time>
      </trkpt>
      <trkpt lat="39.45125" lon="-0.34071">
        <ele>-14.759585</ele>
        <time>2022-04-02T11:44:32.000Z</time>
      </trkpt>
      <trkpt lat="39.45125" lon="-0.34071">
        <ele>-14.759585</ele>
        <time>2022-04-02T11:44:39.000Z</time>
      </trkpt>
      <trkpt lat="39.45125" lon="-0.34071">
        <ele>-14.759585</ele>
        <time>2022-04-02T11:44:54.000Z</time>
      </trkpt>
      <trkpt lat="39.45125" lon="-0.34071">
        <ele>-14.759585</ele>
        <time>2022-04-02T11:45:01.000Z</time>
      </trkpt>
      <trkpt lat="39.45125" lon="-0.34071">
        <ele>-14.759585</ele>
        <time>2022-04-02T11:45:06.000Z</time>
      </trkpt>
      <trkpt lat="39.45125" lon="-0.34071">
        <ele>-14.759585</ele>
        <time>2022-04-02T11:45:09.000Z</time>
      </trkpt>
      <trkpt lat="39.45125" lon="-0.34071">
        <ele>-14.759585</ele>
        <time>2022-04-02T11:45:20.000Z</time>
      </trkpt>
      <trkpt lat="39.45125" lon="-0.34071">
        <ele>-14.759585</ele>
        <time>2022-04-02T11:45:22.000Z</time>
      </trkpt>
      <trkpt lat="39.45125" lon="-0.34071">
        <ele>-14.759585</ele>
        <time>2022-04-02T11:45:23.000Z</time>
      </trkpt>
      <trkpt lat="39.45125" lon="-0.34071">
        <ele>-14.759039</ele>
        <time>2022-04-02T11:45:25.000Z</time>
      </trkpt>
      <trkpt lat="39.45125" lon="-0.34071">
        <ele>-14.759039</ele>
        <time>2022-04-02T11:45:28.000Z</time>
      </trkpt>
      <trkpt lat="39.45123" lon="-0.34074">
        <ele>-14.739381</ele>
        <time>2022-04-02T11:45:32.000Z</time>
      </trkpt>
      <trkpt lat="39.4512" lon="-0.34079">
        <ele>-14.728446</ele>
        <time>2022-04-02T11:45:34.000Z</time>
      </trkpt>
      <trkpt lat="39.45105" lon="-0.34089">
        <ele>-14.733763</ele>
        <time>2022-04-02T11:45:40.000Z</time>
      </trkpt>
      <trkpt lat="39.45101" lon="-0.34088">
        <ele>-14.735216</ele>
        <time>2022-04-02T11:45:42.000Z</time>
      </trkpt>
      <trkpt lat="39.45097" lon="-0.34085">
        <ele>-14.736617</ele>
        <time>2022-04-02T11:45:45.000Z</time>
      </trkpt>
      <trkpt lat="39.45093" lon="-0.34079">
        <ele>-14.738715</ele>
        <time>2022-04-02T11:45:50.000Z</time>
      </trkpt>
      <trkpt lat="39.45091" lon="-0.34078">
        <ele>-14.739299</ele>
        <time>2022-04-02T11:45:51.000Z</time>
      </trkpt>
      <trkpt lat="39.45083" lon="-0.34083">
        <ele>-14.74221</ele>
        <time>2022-04-02T11:45:55.000Z</time>
      </trkpt>
      <trkpt lat="39.45079" lon="-0.34091">
        <ele>-14.744639</ele>
        <time>2022-04-02T11:46:00.000Z</time>
      </trkpt>
      <trkpt lat="39.45078" lon="-0.34092">
        <ele>-14.744966</ele>
        <time>2022-04-02T11:46:01.000Z</time>
      </trkpt>
      <trkpt lat="39.45077" lon="-0.34092">
        <ele>-14.745389</ele>
        <time>2022-04-02T11:46:02.000Z</time>
      </trkpt>
      <trkpt lat="39.45075" lon="-0.34091">
        <ele>-14.745905</ele>
        <time>2022-04-02T11:46:05.000Z</time>
      </trkpt>
      <trkpt lat="39.45075" lon="-0.34086">
        <ele>-14.747036</ele>
        <time>2022-04-02T11:46:11.000Z</time>
      </trkpt>
      <trkpt lat="39.4507" lon="-0.34074">
        <ele>-14.75047</ele>
        <time>2022-04-02T11:46:16.000Z</time>
      </trkpt>
      <trkpt lat="39.45067" lon="-0.34065">
        <ele>-14.753031</ele>
        <time>2022-04-02T11:46:20.000Z</time>
      </trkpt>
      <trkpt lat="39.45066" lon="-0.34055">
        <ele>-14.755502</ele>
        <time>2022-04-02T11:46:23.000Z</time>
      </trkpt>
      <trkpt lat="39.45059" lon="-0.34041">
        <ele>-14.759577</ele>
        <time>2022-04-02T11:46:27.000Z</time>
      </trkpt>
      <trkpt lat="39.45056" lon="-0.34037">
        <ele>-14.761019</ele>
        <time>2022-04-02T11:46:29.000Z</time>
      </trkpt>
      <trkpt lat="39.45054" lon="-0.34036">
        <ele>-14.761657</ele>
        <time>2022-04-02T11:46:33.000Z</time>
      </trkpt>
      <trkpt lat="39.45054" lon="-0.34036">
        <ele>-14.761657</ele>
        <time>2022-04-02T11:46:39.000Z</time>
      </trkpt>
      <trkpt lat="39.45054" lon="-0.34036">
        <ele>-14.761657</ele>
        <time>2022-04-02T11:46:43.000Z</time>
      </trkpt>
      <trkpt lat="39.45055" lon="-0.34038">
        <ele>-14.762273</ele>
        <time>2022-04-02T11:46:48.000Z</time>
      </trkpt>
      <trkpt lat="39.45057" lon="-0.3404">
        <ele>-14.762906</ele>
        <time>2022-04-02T11:46:49.000Z</time>
      </trkpt>
      <trkpt lat="39.45059" lon="-0.34044">
        <ele>-14.764249</ele>
        <time>2022-04-02T11:46:51.000Z</time>
      </trkpt>
      <trkpt lat="39.4506" lon="-0.34046">
        <ele>-14.764984</ele>
        <time>2022-04-02T11:46:52.000Z</time>
      </trkpt>
      <trkpt lat="39.45062" lon="-0.34052">
        <ele>-14.766548</ele>
        <time>2022-04-02T11:46:54.000Z</time>
      </trkpt>
      <trkpt lat="39.45063" lon="-0.34056">
        <ele>-14.767445</ele>
        <time>2022-04-02T11:46:55.000Z</time>
      </trkpt>
      <trkpt lat="39.45073" lon="-0.3408">
        <ele>-14.774486</ele>
        <time>2022-04-02T11:47:03.000Z</time>
      </trkpt>
      <trkpt lat="39.45078" lon="-0.34091">
        <ele>-14.777437</ele>
        <time>2022-04-02T11:47:07.000Z</time>
      </trkpt>
      <trkpt lat="39.45078" lon="-0.34091">
        <ele>-14.777612</ele>
        <time>2022-04-02T11:47:09.000Z</time>
      </trkpt>
      <trkpt lat="39.45077" lon="-0.34092">
        <ele>-14.777781</ele>
        <time>2022-04-02T11:47:15.000Z</time>
      </trkpt>
      <trkpt lat="39.45077" lon="-0.34092">
        <ele>-14.777781</ele>
        <time>2022-04-02T11:47:31.000Z</time>
      </trkpt>
      <trkpt lat="39.45077" lon="-0.34092">
        <ele>-14.777856</ele>
        <time>2022-04-02T11:48:03.000Z</time>
      </trkpt>
      <trkpt lat="39.45076" lon="-0.34089">
        <ele>-14.778618</ele>
        <time>2022-04-02T11:48:15.000Z</time>
      </trkpt>
      <trkpt lat="39.45075" lon="-0.34086">
        <ele>-14.779461</ele>
        <time>2022-04-02T11:48:16.000Z</time>
      </trkpt>
      <trkpt lat="39.45074" lon="-0.34083">
        <ele>-14.780381</ele>
        <time>2022-04-02T11:48:17.000Z</time>
      </trkpt>
      <trkpt lat="39.45067" lon="-0.34067">
        <ele>-14.784814</ele>
        <time>2022-04-02T11:48:21.000Z</time>
      </trkpt>
      <trkpt lat="39.45064" lon="-0.34062">
        <ele>-14.759649</ele>
        <time>2022-04-02T11:48:22.000Z</time>
      </trkpt>
      <trkpt lat="39.45051" lon="-0.34026">
        <ele>-14.483282</ele>
        <time>2022-04-02T11:48:29.000Z</time>
      </trkpt>
      <trkpt lat="39.45049" lon="-0.3402">
        <ele>-14.440901</ele>
        <time>2022-04-02T11:48:30.000Z</time>
      </trkpt>
      <trkpt lat="39.45046" lon="-0.34007">
        <ele>-14.35159</ele>
        <time>2022-04-02T11:48:32.000Z</time>
      </trkpt>
      <trkpt lat="39.45045" lon="-0.34">
        <ele>-14.299159</ele>
        <time>2022-04-02T11:48:33.000Z</time>
      </trkpt>
      <trkpt lat="39.45032" lon="-0.33948">
        <ele>-13.928454</ele>
        <time>2022-04-02T11:48:41.000Z</time>
      </trkpt>
      <trkpt lat="39.45025" lon="-0.33924">
        <ele>-13.754279</ele>
        <time>2022-04-02T11:48:45.000Z</time>
      </trkpt>
      <trkpt lat="39.45023" lon="-0.33913">
        <ele>-13.676305</ele>
        <time>2022-04-02T11:48:47.000Z</time>
      </trkpt>
      <trkpt lat="39.4502" lon="-0.33901">
        <ele>-13.590695</ele>
        <time>2022-04-02T11:48:50.000Z</time>
      </trkpt>
      <trkpt lat="39.45018" lon="-0.339">
        <ele>-13.572484</ele>
        <time>2022-04-02T11:48:51.000Z</time>
      </trkpt>
      <trkpt lat="39.4501" lon="-0.33904">
        <ele>-13.495297</ele>
        <time>2022-04-02T11:48:55.000Z</time>
      </trkpt>
      <trkpt lat="39.45009" lon="-0.33906">
        <ele>-13.480726</ele>
        <time>2022-04-02T11:48:56.000Z</time>
      </trkpt>
      <trkpt lat="39.4501" lon="-0.33908">
        <ele>-13.464811</ele>
        <time>2022-04-02T11:48:57.000Z</time>
      </trkpt>
      <trkpt lat="39.45013" lon="-0.33922">
        <ele>-13.365489</ele>
        <time>2022-04-02T11:49:01.000Z</time>
      </trkpt>
      <trkpt lat="39.4502" lon="-0.33955">
        <ele>-13.001185</ele>
        <time>2022-04-02T11:49:09.000Z</time>
      </trkpt>
      <trkpt lat="39.45027" lon="-0.33985">
        <ele>-12.29118</ele>
        <time>2022-04-02T11:49:17.000Z</time>
      </trkpt>
      <trkpt lat="39.45029" lon="-0.33999">
        <ele>-11.974788</ele>
        <time>2022-04-02T11:49:21.000Z</time>
      </trkpt>
      <trkpt lat="39.45032" lon="-0.34013">
        <ele>-11.664187</ele>
        <time>2022-04-02T11:49:25.000Z</time>
      </trkpt>
      <trkpt lat="39.45038" lon="-0.34039">
        <ele>-11.06452</ele>
        <time>2022-04-02T11:49:33.000Z</time>
      </trkpt>
      <trkpt lat="39.45038" lon="-0.34041">
        <ele>-10.997651</ele>
        <time>2022-04-02T11:49:34.000Z</time>
      </trkpt>
      <trkpt lat="39.45041" lon="-0.3405">
        <ele>-10.787686</ele>
        <time>2022-04-02T11:49:37.000Z</time>
      </trkpt>
      <trkpt lat="39.45041" lon="-0.34053">
        <ele>-10.722136</ele>
        <time>2022-04-02T11:49:38.000Z</time>
      </trkpt>
      <trkpt lat="39.45043" lon="-0.34062">
        <ele>-10.514327</ele>
        <time>2022-04-02T11:49:41.000Z</time>
      </trkpt>
      <trkpt lat="39.45045" lon="-0.34068">
        <ele>-10.38651</ele>
        <time>2022-04-02T11:49:43.000Z</time>
      </trkpt>
      <trkpt lat="39.45048" lon="-0.34084">
        <ele>-10.004626</ele>
        <time>2022-04-02T11:49:49.000Z</time>
      </trkpt>
      <trkpt lat="39.45049" lon="-0.34091">
        <ele>-9.853884</ele>
        <time>2022-04-02T11:49:51.000Z</time>
      </trkpt>
      <trkpt lat="39.45053" lon="-0.34106">
        <ele>-9.500436</ele>
        <time>2022-04-02T11:49:56.000Z</time>
      </trkpt>
      <trkpt lat="39.4506" lon="-0.34129">
        <ele>-8.951904</ele>
        <time>2022-04-02T11:50:04.000Z</time>
      </trkpt>
      <trkpt lat="39.45061" lon="-0.34131">
        <ele>-8.888443</ele>
        <time>2022-04-02T11:50:05.000Z</time>
      </trkpt>
      <trkpt lat="39.45067" lon="-0.34152">
        <ele>-8.382508</ele>
        <time>2022-04-02T11:50:13.000Z</time>
      </trkpt>
      <trkpt lat="39.4507" lon="-0.34164">
        <ele>-8.117293</ele>
        <time>2022-04-02T11:50:17.000Z</time>
      </trkpt>
      <trkpt lat="39.45073" lon="-0.34173">
        <ele>-8.153931</ele>
        <time>2022-04-02T11:50:20.000Z</time>
      </trkpt>
      <trkpt lat="39.45076" lon="-0.34183">
        <ele>-8.464053</ele>
        <time>2022-04-02T11:50:23.000Z</time>
      </trkpt>
      <trkpt lat="39.45083" lon="-0.34206">
        <ele>-9.146038</ele>
        <time>2022-04-02T11:50:28.000Z</time>
      </trkpt>
      <trkpt lat="39.45084" lon="-0.34211">
        <ele>-9.284033</ele>
        <time>2022-04-02T11:50:29.000Z</time>
      </trkpt>
      <trkpt lat="39.45088" lon="-0.34226">
        <ele>-9.734953</ele>
        <time>2022-04-02T11:50:32.000Z</time>
      </trkpt>
      <trkpt lat="39.45093" lon="-0.34242">
        <ele>-10.224057</ele>
        <time>2022-04-02T11:50:35.000Z</time>
      </trkpt>
      <trkpt lat="39.45096" lon="-0.34254">
        <ele>-10.569675</ele>
        <time>2022-04-02T11:50:37.000Z</time>
      </trkpt>
      <trkpt lat="39.45097" lon="-0.34261">
        <ele>-10.77644</ele>
        <time>2022-04-02T11:50:38.000Z</time>
      </trkpt>
      <trkpt lat="39.45098" lon="-0.34266">
        <ele>-10.920289</ele>
        <time>2022-04-02T11:50:39.000Z</time>
      </trkpt>
      <trkpt lat="39.451" lon="-0.34279">
        <ele>-11.298753</ele>
        <time>2022-04-02T11:50:41.000Z</time>
      </trkpt>
      <trkpt lat="39.45105" lon="-0.343">
        <ele>-11.920856</ele>
        <time>2022-04-02T11:50:44.000Z</time>
      </trkpt>
      <trkpt lat="39.45109" lon="-0.34323">
        <ele>-12.592043</ele>
        <time>2022-04-02T11:50:47.000Z</time>
      </trkpt>
      <trkpt lat="39.45111" lon="-0.34331">
        <ele>-12.8194</ele>
        <time>2022-04-02T11:50:48.000Z</time>
      </trkpt>
      <trkpt lat="39.45119" lon="-0.34372">
        <ele>-14.010831</ele>
        <time>2022-04-02T11:50:53.000Z</time>
      </trkpt>
      <trkpt lat="39.4512" lon="-0.34381">
        <ele>-14.258188</ele>
        <time>2022-04-02T11:50:54.000Z</time>
      </trkpt>
      <trkpt lat="39.45125" lon="-0.34406">
        <ele>-14.552029</ele>
        <time>2022-04-02T11:50:57.000Z</time>
      </trkpt>
      <trkpt lat="39.45132" lon="-0.34441">
        <ele>-14.508028</ele>
        <time>2022-04-02T11:51:02.000Z</time>
      </trkpt>
      <trkpt lat="39.45134" lon="-0.34448">
        <ele>-14.500162</ele>
        <time>2022-04-02T11:51:03.000Z</time>
      </trkpt>
      <trkpt lat="39.45136" lon="-0.3446">
        <ele>-14.484968</ele>
        <time>2022-04-02T11:51:05.000Z</time>
      </trkpt>
      <trkpt lat="39.45137" lon="-0.34466">
        <ele>-14.477564</ele>
        <time>2022-04-02T11:51:06.000Z</time>
      </trkpt>
      <trkpt lat="39.45138" lon="-0.34472">
        <ele>-14.470047</ele>
        <time>2022-04-02T11:51:07.000Z</time>
      </trkpt>
      <trkpt lat="39.45139" lon="-0.34478">
        <ele>-14.462805</ele>
        <time>2022-04-02T11:51:08.000Z</time>
      </trkpt>
      <trkpt lat="39.45142" lon="-0.34489">
        <ele>-14.448901</ele>
        <time>2022-04-02T11:51:10.000Z</time>
      </trkpt>
      <trkpt lat="39.45148" lon="-0.34523">
        <ele>-14.405797</ele>
        <time>2022-04-02T11:51:17.000Z</time>
      </trkpt>
      <trkpt lat="39.4515" lon="-0.34532">
        <ele>-14.395078</ele>
        <time>2022-04-02T11:51:19.000Z</time>
      </trkpt>
      <trkpt lat="39.45153" lon="-0.34554">
        <ele>-14.368431</ele>
        <time>2022-04-02T11:51:24.000Z</time>
      </trkpt>
      <trkpt lat="39.45158" lon="-0.34576">
        <ele>-14.340978</ele>
        <time>2022-04-02T11:51:29.000Z</time>
      </trkpt>
      <trkpt lat="39.45159" lon="-0.34583">
        <ele>-14.33156</ele>
        <time>2022-04-02T11:51:31.000Z</time>
      </trkpt>
      <trkpt lat="39.45164" lon="-0.34605">
        <ele>-14.304265</ele>
        <time>2022-04-02T11:51:36.000Z</time>
      </trkpt>
      <trkpt lat="39.45169" lon="-0.34629">
        <ele>-14.250197</ele>
        <time>2022-04-02T11:51:41.000Z</time>
      </trkpt>
      <trkpt lat="39.45177" lon="-0.34672">
        <ele>-14.113309</ele>
        <time>2022-04-02T11:51:50.000Z</time>
      </trkpt>
      <trkpt lat="39.45179" lon="-0.34677">
        <ele>-14.097572</ele>
        <time>2022-04-02T11:51:51.000Z</time>
      </trkpt>
      <trkpt lat="39.4518" lon="-0.34682">
        <ele>-14.083309</ele>
        <time>2022-04-02T11:51:52.000Z</time>
      </trkpt>
      <trkpt lat="39.4518" lon="-0.34686">
        <ele>-14.068768</ele>
        <time>2022-04-02T11:51:53.000Z</time>
      </trkpt>
      <trkpt lat="39.45181" lon="-0.34691">
        <ele>-14.053772</ele>
        <time>2022-04-02T11:51:54.000Z</time>
      </trkpt>
      <trkpt lat="39.45182" lon="-0.34696">
        <ele>-14.039011</ele>
        <time>2022-04-02T11:51:55.000Z</time>
      </trkpt>
      <trkpt lat="39.45182" lon="-0.347">
        <ele>-14.024854</ele>
        <time>2022-04-02T11:51:56.000Z</time>
      </trkpt>
      <trkpt lat="39.45185" lon="-0.34709">
        <ele>-13.995153</ele>
        <time>2022-04-02T11:51:58.000Z</time>
      </trkpt>
      <trkpt lat="39.45191" lon="-0.34724">
        <ele>-13.945041</ele>
        <time>2022-04-02T11:52:01.000Z</time>
      </trkpt>
      <trkpt lat="39.45192" lon="-0.34728">
        <ele>-13.930598</ele>
        <time>2022-04-02T11:52:02.000Z</time>
      </trkpt>
      <trkpt lat="39.45194" lon="-0.34737">
        <ele>-13.901898</ele>
        <time>2022-04-02T11:52:04.000Z</time>
      </trkpt>
      <trkpt lat="39.45196" lon="-0.34741">
        <ele>-13.887636</ele>
        <time>2022-04-02T11:52:05.000Z</time>
      </trkpt>
      <trkpt lat="39.45197" lon="-0.34746">
        <ele>-13.872785</ele>
        <time>2022-04-02T11:52:06.000Z</time>
      </trkpt>
      <trkpt lat="39.45197" lon="-0.34751">
        <ele>-13.85772</ele>
        <time>2022-04-02T11:52:07.000Z</time>
      </trkpt>
      <trkpt lat="39.452" lon="-0.3476">
        <ele>-13.826839</ele>
        <time>2022-04-02T11:52:09.000Z</time>
      </trkpt>
      <trkpt lat="39.45202" lon="-0.34771">
        <ele>-13.79309</ele>
        <time>2022-04-02T11:52:11.000Z</time>
      </trkpt>
      <trkpt lat="39.45206" lon="-0.34787">
        <ele>-13.739636</ele>
        <time>2022-04-02T11:52:14.000Z</time>
      </trkpt>
      <trkpt lat="39.45211" lon="-0.34804">
        <ele>-13.684972</ele>
        <time>2022-04-02T11:52:17.000Z</time>
      </trkpt>
      <trkpt lat="39.4522" lon="-0.34838">
        <ele>-13.57246</ele>
        <time>2022-04-02T11:52:23.000Z</time>
      </trkpt>
      <trkpt lat="39.45224" lon="-0.3485">
        <ele>-13.552293</ele>
        <time>2022-04-02T11:52:25.000Z</time>
      </trkpt>
      <trkpt lat="39.45226" lon="-0.34855">
        <ele>-13.543264</ele>
        <time>2022-04-02T11:52:26.000Z</time>
      </trkpt>
      <trkpt lat="39.45231" lon="-0.34872">
        <ele>-13.515654</ele>
        <time>2022-04-02T11:52:29.000Z</time>
      </trkpt>
      <trkpt lat="39.45239" lon="-0.34894">
        <ele>-13.478928</ele>
        <time>2022-04-02T11:52:33.000Z</time>
      </trkpt>
      <trkpt lat="39.4524" lon="-0.34899">
        <ele>-13.470042</ele>
        <time>2022-04-02T11:52:34.000Z</time>
      </trkpt>
      <trkpt lat="39.45245" lon="-0.34915">
        <ele>-13.444243</ele>
        <time>2022-04-02T11:52:37.000Z</time>
      </trkpt>
      <trkpt lat="39.45248" lon="-0.34925">
        <ele>-13.427613</ele>
        <time>2022-04-02T11:52:39.000Z</time>
      </trkpt>
      <trkpt lat="39.45251" lon="-0.34934">
        <ele>-13.411342</ele>
        <time>2022-04-02T11:52:41.000Z</time>
      </trkpt>
      <trkpt lat="39.45255" lon="-0.34944">
        <ele>-13.394252</ele>
        <time>2022-04-02T11:52:43.000Z</time>
      </trkpt>
      <trkpt lat="39.45256" lon="-0.34949">
        <ele>-13.386208</ele>
        <time>2022-04-02T11:52:44.000Z</time>
      </trkpt>
      <trkpt lat="39.4526" lon="-0.34964">
        <ele>-13.361914</ele>
        <time>2022-04-02T11:52:47.000Z</time>
      </trkpt>
      <trkpt lat="39.45275" lon="-0.35011">
        <ele>-13.284374</ele>
        <time>2022-04-02T11:52:57.000Z</time>
      </trkpt>
      <trkpt lat="39.4529" lon="-0.35057">
        <ele>-13.202701</ele>
        <time>2022-04-02T11:53:07.000Z</time>
      </trkpt>
      <trkpt lat="39.45292" lon="-0.35065">
        <ele>-13.171773</ele>
        <time>2022-04-02T11:53:09.000Z</time>
      </trkpt>
      <trkpt lat="39.45294" lon="-0.35073">
        <ele>-13.144993</ele>
        <time>2022-04-02T11:53:11.000Z</time>
      </trkpt>
      <trkpt lat="39.45296" lon="-0.35079">
        <ele>-13.120764</ele>
        <time>2022-04-02T11:53:13.000Z</time>
      </trkpt>
      <trkpt lat="39.45299" lon="-0.35088">
        <ele>-13.087902</ele>
        <time>2022-04-02T11:53:16.000Z</time>
      </trkpt>
      <trkpt lat="39.45302" lon="-0.35096">
        <ele>-13.056095</ele>
        <time>2022-04-02T11:53:19.000Z</time>
      </trkpt>
      <trkpt lat="39.45304" lon="-0.35102">
        <ele>-13.035098</ele>
        <time>2022-04-02T11:53:21.000Z</time>
      </trkpt>
      <trkpt lat="39.4531" lon="-0.35104">
        <ele>-13.008352</ele>
        <time>2022-04-02T11:53:23.000Z</time>
      </trkpt>
      <trkpt lat="39.4533" lon="-0.35111">
        <ele>-12.917352</ele>
        <time>2022-04-02T11:53:29.000Z</time>
      </trkpt>
      <trkpt lat="39.45347" lon="-0.35118">
        <ele>-12.837629</ele>
        <time>2022-04-02T11:53:36.000Z</time>
      </trkpt>
      <trkpt lat="39.45356" lon="-0.35119">
        <ele>-12.798907</ele>
        <time>2022-04-02T11:53:39.000Z</time>
      </trkpt>
      <trkpt lat="39.45365" lon="-0.35123">
        <ele>-12.756209</ele>
        <time>2022-04-02T11:53:42.000Z</time>
      </trkpt>
      <trkpt lat="39.45368" lon="-0.35126">
        <ele>-12.741157</ele>
        <time>2022-04-02T11:53:43.000Z</time>
      </trkpt>
      <trkpt lat="39.45377" lon="-0.35135">
        <ele>-12.689337</ele>
        <time>2022-04-02T11:53:47.000Z</time>
      </trkpt>
      <trkpt lat="39.45395" lon="-0.35158">
        <ele>-12.579564</ele>
        <time>2022-04-02T11:53:54.000Z</time>
      </trkpt>
      <trkpt lat="39.45402" lon="-0.35182">
        <ele>-12.489653</ele>
        <time>2022-04-02T11:54:00.000Z</time>
      </trkpt>
      <trkpt lat="39.45404" lon="-0.35217">
        <ele>-12.352979</ele>
        <time>2022-04-02T11:54:08.000Z</time>
      </trkpt>
      <trkpt lat="39.45408" lon="-0.35227">
        <ele>-12.302323</ele>
        <time>2022-04-02T11:54:12.000Z</time>
      </trkpt>
      <trkpt lat="39.45419" lon="-0.35235">
        <ele>-12.22883</ele>
        <time>2022-04-02T11:54:17.000Z</time>
      </trkpt>
      <trkpt lat="39.45421" lon="-0.35236">
        <ele>-12.215924</ele>
        <time>2022-04-02T11:54:18.000Z</time>
      </trkpt>
      <trkpt lat="39.45422" lon="-0.35238">
        <ele>-12.204208</ele>
        <time>2022-04-02T11:54:19.000Z</time>
      </trkpt>
      <trkpt lat="39.45429" lon="-0.35248">
        <ele>-12.14322</ele>
        <time>2022-04-02T11:54:25.000Z</time>
      </trkpt>
      <trkpt lat="39.45438" lon="-0.35259">
        <ele>-12.072914</ele>
        <time>2022-04-02T11:54:31.000Z</time>
      </trkpt>
      <trkpt lat="39.45448" lon="-0.35274">
        <ele>-11.979335</ele>
        <time>2022-04-02T11:54:36.000Z</time>
      </trkpt>
      <trkpt lat="39.4545" lon="-0.35278">
        <ele>-11.960952</ele>
        <time>2022-04-02T11:54:37.000Z</time>
      </trkpt>
      <trkpt lat="39.45461" lon="-0.35295">
        <ele>-11.858171</ele>
        <time>2022-04-02T11:54:42.000Z</time>
      </trkpt>
      <trkpt lat="39.45463" lon="-0.35299">
        <ele>-11.837331</ele>
        <time>2022-04-02T11:54:43.000Z</time>
      </trkpt>
      <trkpt lat="39.45473" lon="-0.35313">
        <ele>-11.753086</ele>
        <time>2022-04-02T11:54:47.000Z</time>
      </trkpt>
      <trkpt lat="39.4548" lon="-0.35325">
        <ele>-11.682971</ele>
        <time>2022-04-02T11:54:50.000Z</time>
      </trkpt>
      <trkpt lat="39.45483" lon="-0.35329">
        <ele>-11.658516</ele>
        <time>2022-04-02T11:54:51.000Z</time>
      </trkpt>
      <trkpt lat="39.45495" lon="-0.35348">
        <ele>-11.546413</ele>
        <time>2022-04-02T11:54:55.000Z</time>
      </trkpt>
      <trkpt lat="39.45515" lon="-0.35379">
        <ele>-11.363325</ele>
        <time>2022-04-02T11:55:01.000Z</time>
      </trkpt>
      <trkpt lat="39.4554" lon="-0.35412">
        <ele>-11.142522</ele>
        <time>2022-04-02T11:55:08.000Z</time>
      </trkpt>
      <trkpt lat="39.45543" lon="-0.35417">
        <ele>-11.110502</ele>
        <time>2022-04-02T11:55:09.000Z</time>
      </trkpt>
      <trkpt lat="39.45553" lon="-0.35431">
        <ele>-11.020956</ele>
        <time>2022-04-02T11:55:12.000Z</time>
      </trkpt>
      <trkpt lat="39.45564" lon="-0.35449">
        <ele>-10.911471</ele>
        <time>2022-04-02T11:55:16.000Z</time>
      </trkpt>
      <trkpt lat="39.45582" lon="-0.35478">
        <ele>-10.733016</ele>
        <time>2022-04-02T11:55:23.000Z</time>
      </trkpt>
      <trkpt lat="39.45584" lon="-0.35482">
        <ele>-10.709847</ele>
        <time>2022-04-02T11:55:24.000Z</time>
      </trkpt>
      <trkpt lat="39.45595" lon="-0.35495">
        <ele>-10.617158</ele>
        <time>2022-04-02T11:55:28.000Z</time>
      </trkpt>
      <trkpt lat="39.45597" lon="-0.35498">
        <ele>-10.595948</ele>
        <time>2022-04-02T11:55:29.000Z</time>
      </trkpt>
      <trkpt lat="39.45605" lon="-0.35511">
        <ele>-10.517126</ele>
        <time>2022-04-02T11:55:33.000Z</time>
      </trkpt>
      <trkpt lat="39.45609" lon="-0.35516">
        <ele>-10.485996</ele>
        <time>2022-04-02T11:55:35.000Z</time>
      </trkpt>
      <trkpt lat="39.45614" lon="-0.3552">
        <ele>-10.45268</ele>
        <time>2022-04-02T11:55:38.000Z</time>
      </trkpt>
      <trkpt lat="39.45617" lon="-0.35523">
        <ele>-10.424066</ele>
        <time>2022-04-02T11:55:41.000Z</time>
      </trkpt>
      <trkpt lat="39.45621" lon="-0.35525">
        <ele>-10.400428</ele>
        <time>2022-04-02T11:55:44.000Z</time>
      </trkpt>
      <trkpt lat="39.45623" lon="-0.35526">
        <ele>-10.382157</ele>
        <time>2022-04-02T11:55:46.000Z</time>
      </trkpt>
      <trkpt lat="39.45637" lon="-0.35538">
        <ele>-10.282785</ele>
        <time>2022-04-02T11:55:54.000Z</time>
      </trkpt>
      <trkpt lat="39.45654" lon="-0.35547">
        <ele>-10.24653</ele>
        <time>2022-04-02T11:56:02.000Z</time>
      </trkpt>
      <trkpt lat="39.45659" lon="-0.35543">
        <ele>-10.247201</ele>
        <time>2022-04-02T11:56:05.000Z</time>
      </trkpt>
      <trkpt lat="39.45663" lon="-0.35539">
        <ele>-10.247844</ele>
        <time>2022-04-02T11:56:09.000Z</time>
      </trkpt>
      <trkpt lat="39.45663" lon="-0.35539">
        <ele>-10.247893</ele>
        <time>2022-04-02T11:56:13.000Z</time>
      </trkpt>
      <trkpt lat="39.45663" lon="-0.35539">
        <ele>-10.247893</ele>
        <time>2022-04-02T11:56:17.000Z</time>
      </trkpt>
      <trkpt lat="39.45663" lon="-0.35538">
        <ele>-10.247951</ele>
        <time>2022-04-02T11:56:19.000Z</time>
      </trkpt>
      <trkpt lat="39.45663" lon="-0.35537">
        <ele>-10.248072</ele>
        <time>2022-04-02T11:56:22.000Z</time>
      </trkpt>
      <trkpt lat="39.45663" lon="-0.35537">
        <ele>-10.248072</ele>
        <time>2022-04-02T11:56:23.000Z</time>
      </trkpt>
      <trkpt lat="39.45663" lon="-0.35537">
        <ele>-10.248072</ele>
        <time>2022-04-02T11:56:31.000Z</time>
      </trkpt>
      <trkpt lat="39.45663" lon="-0.35537">
        <ele>-10.248072</ele>
        <time>2022-04-02T11:56:32.000Z</time>
      </trkpt>
      <trkpt lat="39.45663" lon="-0.35537">
        <ele>-10.248072</ele>
        <time>2022-04-02T11:56:34.000Z</time>
      </trkpt>
      <trkpt lat="39.45663" lon="-0.35537">
        <ele>-10.248072</ele>
        <time>2022-04-02T11:56:37.000Z</time>
      </trkpt>
      <trkpt lat="39.45663" lon="-0.35537">
        <ele>-10.248072</ele>
        <time>2022-04-02T11:56:45.000Z</time>
      </trkpt>
      <trkpt lat="39.45664" lon="-0.35537">
        <ele>-10.248107</ele>
        <time>2022-04-02T11:56:49.000Z</time>
      </trkpt>
      <trkpt lat="39.4567" lon="-0.35539">
        <ele>-10.24884</ele>
        <time>2022-04-02T11:56:51.000Z</time>
      </trkpt>
      <trkpt lat="39.45681" lon="-0.35548">
        <ele>-10.25035</ele>
        <time>2022-04-02T11:56:56.000Z</time>
      </trkpt>
      <trkpt lat="39.45687" lon="-0.35555">
        <ele>-10.251346</ele>
        <time>2022-04-02T11:57:02.000Z</time>
      </trkpt>
      <trkpt lat="39.45694" lon="-0.35565">
        <ele>-10.252483</ele>
        <time>2022-04-02T11:57:06.000Z</time>
      </trkpt>
      <trkpt lat="39.45698" lon="-0.3557">
        <ele>-10.25312</ele>
        <time>2022-04-02T11:57:08.000Z</time>
      </trkpt>
      <trkpt lat="39.45713" lon="-0.3559">
        <ele>-10.255588</ele>
        <time>2022-04-02T11:57:15.000Z</time>
      </trkpt>
      <trkpt lat="39.45731" lon="-0.3561">
        <ele>-10.258363</ele>
        <time>2022-04-02T11:57:22.000Z</time>
      </trkpt>
      <trkpt lat="39.45743" lon="-0.3562">
        <ele>-10.260019</ele>
        <time>2022-04-02T11:57:26.000Z</time>
      </trkpt>
      <trkpt lat="39.45755" lon="-0.35634">
        <ele>-10.261893</ele>
        <time>2022-04-02T11:57:31.000Z</time>
      </trkpt>
      <trkpt lat="39.45775" lon="-0.35655">
        <ele>-10.264764</ele>
        <time>2022-04-02T11:57:38.000Z</time>
      </trkpt>
      <trkpt lat="39.45782" lon="-0.3566">
        <ele>-10.265653</ele>
        <time>2022-04-02T11:57:40.000Z</time>
      </trkpt>
      <trkpt lat="39.45788" lon="-0.35664">
        <ele>-10.301911</ele>
        <time>2022-04-02T11:57:42.000Z</time>
      </trkpt>
      <trkpt lat="39.45795" lon="-0.35668">
        <ele>-10.345934</ele>
        <time>2022-04-02T11:57:44.000Z</time>
      </trkpt>
      <trkpt lat="39.45802" lon="-0.35673">
        <ele>-10.393807</ele>
        <time>2022-04-02T11:57:46.000Z</time>
      </trkpt>
      <trkpt lat="39.45813" lon="-0.3568">
        <ele>-10.465167</ele>
        <time>2022-04-02T11:57:49.000Z</time>
      </trkpt>
      <trkpt lat="39.45844" lon="-0.357">
        <ele>-10.663665</ele>
        <time>2022-04-02T11:57:57.000Z</time>
      </trkpt>
      <trkpt lat="39.4585" lon="-0.35705">
        <ele>-10.70981</ele>
        <time>2022-04-02T11:58:00.000Z</time>
      </trkpt>
      <trkpt lat="39.45854" lon="-0.35707">
        <ele>-10.734532</ele>
        <time>2022-04-02T11:58:02.000Z</time>
      </trkpt>
      <trkpt lat="39.45864" lon="-0.35712">
        <ele>-10.798241</ele>
        <time>2022-04-02T11:58:07.000Z</time>
      </trkpt>
      <trkpt lat="39.45867" lon="-0.35712">
        <ele>-10.811138</ele>
        <time>2022-04-02T11:58:08.000Z</time>
      </trkpt>
      <trkpt lat="39.45874" lon="-0.35711">
        <ele>-10.852192</ele>
        <time>2022-04-02T11:58:11.000Z</time>
      </trkpt>
      <trkpt lat="39.45885" lon="-0.35709">
        <ele>-10.92211</ele>
        <time>2022-04-02T11:58:16.000Z</time>
      </trkpt>
      <trkpt lat="39.45899" lon="-0.35714">
        <ele>-11.004308</ele>
        <time>2022-04-02T11:58:21.000Z</time>
      </trkpt>
      <trkpt lat="39.45901" lon="-0.35717">
        <ele>-11.020685</ele>
        <time>2022-04-02T11:58:22.000Z</time>
      </trkpt>
      <trkpt lat="39.45915" lon="-0.35739">
        <ele>-11.150493</ele>
        <time>2022-04-02T11:58:29.000Z</time>
      </trkpt>
      <trkpt lat="39.45919" lon="-0.3575">
        <ele>-11.208995</ele>
        <time>2022-04-02T11:58:32.000Z</time>
      </trkpt>
      <trkpt lat="39.45922" lon="-0.35759">
        <ele>-11.248587</ele>
        <time>2022-04-02T11:58:34.000Z</time>
      </trkpt>
      <trkpt lat="39.45923" lon="-0.35763">
        <ele>-11.26989</ele>
        <time>2022-04-02T11:58:35.000Z</time>
      </trkpt>
      <trkpt lat="39.45928" lon="-0.3578">
        <ele>-11.442647</ele>
        <time>2022-04-02T11:58:39.000Z</time>
      </trkpt>
      <trkpt lat="39.45929" lon="-0.35784">
        <ele>-11.510268</ele>
        <time>2022-04-02T11:58:41.000Z</time>
      </trkpt>
      <trkpt lat="39.45931" lon="-0.35787">
        <ele>-11.582333</ele>
        <time>2022-04-02T11:58:44.000Z</time>
      </trkpt>
      <trkpt lat="39.45938" lon="-0.3579">
        <ele>-11.728855</ele>
        <time>2022-04-02T11:58:47.000Z</time>
      </trkpt>
      <trkpt lat="39.45946" lon="-0.35802">
        <ele>-11.989373</ele>
        <time>2022-04-02T11:58:51.000Z</time>
      </trkpt>
      <trkpt lat="39.4595" lon="-0.35814">
        <ele>-12.209322</ele>
        <time>2022-04-02T11:58:54.000Z</time>
      </trkpt>
      <trkpt lat="39.45955" lon="-0.35825">
        <ele>-12.413176</ele>
        <time>2022-04-02T11:58:57.000Z</time>
      </trkpt>
      <trkpt lat="39.45956" lon="-0.35832">
        <ele>-12.527007</ele>
        <time>2022-04-02T11:58:59.000Z</time>
      </trkpt>
      <trkpt lat="39.45958" lon="-0.35839">
        <ele>-12.660372</ele>
        <time>2022-04-02T11:59:02.000Z</time>
      </trkpt>
      <trkpt lat="39.45959" lon="-0.35841">
        <ele>-12.703362</ele>
        <time>2022-04-02T11:59:03.000Z</time>
      </trkpt>
      <trkpt lat="39.45961" lon="-0.35843">
        <ele>-12.755268</ele>
        <time>2022-04-02T11:59:04.000Z</time>
      </trkpt>
      <trkpt lat="39.45963" lon="-0.35845">
        <ele>-12.805606</ele>
        <time>2022-04-02T11:59:05.000Z</time>
      </trkpt>
      <trkpt lat="39.4597" lon="-0.3585">
        <ele>-12.973317</ele>
        <time>2022-04-02T11:59:08.000Z</time>
      </trkpt>
      <trkpt lat="39.45972" lon="-0.35851">
        <ele>-13.023488</ele>
        <time>2022-04-02T11:59:09.000Z</time>
      </trkpt>
      <trkpt lat="39.45976" lon="-0.35854">
        <ele>-13.112937</ele>
        <time>2022-04-02T11:59:11.000Z</time>
      </trkpt>
      <trkpt lat="39.45977" lon="-0.35856">
        <ele>-13.157989</ele>
        <time>2022-04-02T11:59:12.000Z</time>
      </trkpt>
      <trkpt lat="39.45984" lon="-0.35858">
        <ele>-13.300377</ele>
        <time>2022-04-02T11:59:16.000Z</time>
      </trkpt>
      <trkpt lat="39.45985" lon="-0.35858">
        <ele>-13.326006</ele>
        <time>2022-04-02T11:59:17.000Z</time>
      </trkpt>
      <trkpt lat="39.45988" lon="-0.35856">
        <ele>-13.389399</ele>
        <time>2022-04-02T11:59:19.000Z</time>
      </trkpt>
      <trkpt lat="39.45989" lon="-0.35852">
        <ele>-13.457722</ele>
        <time>2022-04-02T11:59:21.000Z</time>
      </trkpt>
      <trkpt lat="39.45986" lon="-0.35848">
        <ele>-13.557203</ele>
        <time>2022-04-02T11:59:23.000Z</time>
      </trkpt>
      <trkpt lat="39.45979" lon="-0.35843">
        <ele>-13.726347</ele>
        <time>2022-04-02T11:59:26.000Z</time>
      </trkpt>
      <trkpt lat="39.45972" lon="-0.35832">
        <ele>-13.964902</ele>
        <time>2022-04-02T11:59:31.000Z</time>
      </trkpt>
      <trkpt lat="39.45972" lon="-0.3583">
        <ele>-13.995203</ele>
        <time>2022-04-02T11:59:35.000Z</time>
      </trkpt>
      <trkpt lat="39.45973" lon="-0.35829">
        <ele>-14.024756</ele>
        <time>2022-04-02T11:59:41.000Z</time>
      </trkpt>
      <trkpt lat="39.45978" lon="-0.35828">
        <ele>-14.128646</ele>
        <time>2022-04-02T11:59:44.000Z</time>
      </trkpt>
      <trkpt lat="39.45982" lon="-0.35827">
        <ele>-14.228654</ele>
        <time>2022-04-02T11:59:46.000Z</time>
      </trkpt>
      <trkpt lat="39.45998" lon="-0.35825">
        <ele>-14.556742</ele>
        <time>2022-04-02T11:59:52.000Z</time>
      </trkpt>
      <trkpt lat="39.46" lon="-0.35825">
        <ele>-14.612155</ele>
        <time>2022-04-02T11:59:53.000Z</time>
      </trkpt>
      <trkpt lat="39.46005" lon="-0.35824">
        <ele>-14.714668</ele>
        <time>2022-04-02T11:59:56.000Z</time>
      </trkpt>
      <trkpt lat="39.46006" lon="-0.35824">
        <ele>-14.735689</ele>
        <time>2022-04-02T11:59:57.000Z</time>
      </trkpt>
      <trkpt lat="39.46006" lon="-0.35822">
        <ele>-14.753914</ele>
        <time>2022-04-02T11:59:58.000Z</time>
      </trkpt>
      <trkpt lat="39.46004" lon="-0.35817">
        <ele>-14.857539</ele>
        <time>2022-04-02T12:00:01.000Z</time>
      </trkpt>
      <trkpt lat="39.46004" lon="-0.35813">
        <ele>-14.910237</ele>
        <time>2022-04-02T12:00:02.000Z</time>
      </trkpt>
      <trkpt lat="39.46005" lon="-0.3581">
        <ele>-14.967827</ele>
        <time>2022-04-02T12:00:03.000Z</time>
      </trkpt>
      <trkpt lat="39.46011" lon="-0.35801">
        <ele>-15.151559</ele>
        <time>2022-04-02T12:00:07.000Z</time>
      </trkpt>
      <trkpt lat="39.46011" lon="-0.358">
        <ele>-15.153237</ele>
        <time>2022-04-02T12:00:08.000Z</time>
      </trkpt>
      <trkpt lat="39.46011" lon="-0.35796">
        <ele>-15.156675</ele>
        <time>2022-04-02T12:00:10.000Z</time>
      </trkpt>
      <trkpt lat="39.4601" lon="-0.35794">
        <ele>-15.158471</ele>
        <time>2022-04-02T12:00:11.000Z</time>
      </trkpt>
      <trkpt lat="39.46009" lon="-0.35792">
        <ele>-15.161414</ele>
        <time>2022-04-02T12:00:13.000Z</time>
      </trkpt>
      <trkpt lat="39.46008" lon="-0.3579">
        <ele>-15.163966</ele>
        <time>2022-04-02T12:00:15.000Z</time>
      </trkpt>
      <trkpt lat="39.4601" lon="-0.35783">
        <ele>-15.171345</ele>
        <time>2022-04-02T12:00:19.000Z</time>
      </trkpt>
      <trkpt lat="39.46012" lon="-0.35774">
        <ele>-15.180318</ele>
        <time>2022-04-02T12:00:22.000Z</time>
      </trkpt>
      <trkpt lat="39.46016" lon="-0.35765">
        <ele>-15.190331</ele>
        <time>2022-04-02T12:00:25.000Z</time>
      </trkpt>
      <trkpt lat="39.46022" lon="-0.35761">
        <ele>-15.198989</ele>
        <time>2022-04-02T12:00:28.000Z</time>
      </trkpt>
      <trkpt lat="39.46025" lon="-0.35757">
        <ele>-15.204726</ele>
        <time>2022-04-02T12:00:30.000Z</time>
      </trkpt>
      <trkpt lat="39.46033" lon="-0.35745">
        <ele>-15.219795</ele>
        <time>2022-04-02T12:00:34.000Z</time>
      </trkpt>
      <trkpt lat="39.46037" lon="-0.35739">
        <ele>-15.22791</ele>
        <time>2022-04-02T12:00:36.000Z</time>
      </trkpt>
      <trkpt lat="39.46041" lon="-0.35727">
        <ele>-15.240351</ele>
        <time>2022-04-02T12:00:39.000Z</time>
      </trkpt>
      <trkpt lat="39.46043" lon="-0.3572">
        <ele>-15.247298</ele>
        <time>2022-04-02T12:00:41.000Z</time>
      </trkpt>
      <trkpt lat="39.46045" lon="-0.35715">
        <ele>-15.253499</ele>
        <time>2022-04-02T12:00:43.000Z</time>
      </trkpt>
      <trkpt lat="39.46047" lon="-0.35715">
        <ele>-15.256283</ele>
        <time>2022-04-02T12:00:44.000Z</time>
      </trkpt>
      <trkpt lat="39.46055" lon="-0.35725">
        <ele>-15.26979</ele>
        <time>2022-04-02T12:00:48.000Z</time>
      </trkpt>
      <trkpt lat="39.46071" lon="-0.3574">
        <ele>-15.295329</ele>
        <time>2022-04-02T12:00:54.000Z</time>
      </trkpt>
      <trkpt lat="39.46077" lon="-0.35742">
        <ele>-15.303058</ele>
        <time>2022-04-02T12:00:56.000Z</time>
      </trkpt>
      <trkpt lat="39.4608" lon="-0.35743">
        <ele>-15.306931</ele>
        <time>2022-04-02T12:00:57.000Z</time>
      </trkpt>
      <trkpt lat="39.46082" lon="-0.35744">
        <ele>-15.310415</ele>
        <time>2022-04-02T12:00:58.000Z</time>
      </trkpt>
      <trkpt lat="39.46089" lon="-0.3575">
        <ele>-15.319918</ele>
        <time>2022-04-02T12:01:01.000Z</time>
      </trkpt>
      <trkpt lat="39.46091" lon="-0.35751">
        <ele>-15.323558</ele>
        <time>2022-04-02T12:01:02.000Z</time>
      </trkpt>
      <trkpt lat="39.46103" lon="-0.35761">
        <ele>-15.34145</ele>
        <time>2022-04-02T12:01:06.000Z</time>
      </trkpt>
      <trkpt lat="39.4611" lon="-0.35767">
        <ele>-15.351851</ele>
        <time>2022-04-02T12:01:08.000Z</time>
      </trkpt>
      <trkpt lat="39.46122" lon="-0.35775">
        <ele>-15.369075</ele>
        <time>2022-04-02T12:01:11.000Z</time>
      </trkpt>
      <trkpt lat="39.46126" lon="-0.35777">
        <ele>-15.374177</ele>
        <time>2022-04-02T12:01:12.000Z</time>
      </trkpt>
      <trkpt lat="39.46129" lon="-0.3578">
        <ele>-15.377188</ele>
        <time>2022-04-02T12:01:13.000Z</time>
      </trkpt>
      <trkpt lat="39.46132" lon="-0.35782">
        <ele>-15.347693</ele>
        <time>2022-04-02T12:01:14.000Z</time>
      </trkpt>
      <trkpt lat="39.46135" lon="-0.35784">
        <ele>-15.319584</ele>
        <time>2022-04-02T12:01:15.000Z</time>
      </trkpt>
      <trkpt lat="39.46138" lon="-0.35786">
        <ele>-15.293421</ele>
        <time>2022-04-02T12:01:16.000Z</time>
      </trkpt>
      <trkpt lat="39.46143" lon="-0.3579">
        <ele>-15.241426</ele>
        <time>2022-04-02T12:01:18.000Z</time>
      </trkpt>
      <trkpt lat="39.46148" lon="-0.35794">
        <ele>-15.186016</ele>
        <time>2022-04-02T12:01:20.000Z</time>
      </trkpt>
      <trkpt lat="39.46151" lon="-0.35796">
        <ele>-15.159853</ele>
        <time>2022-04-02T12:01:21.000Z</time>
      </trkpt>
      <trkpt lat="39.46154" lon="-0.35798">
        <ele>-15.1328</ele>
        <time>2022-04-02T12:01:22.000Z</time>
      </trkpt>
      <trkpt lat="39.46159" lon="-0.35802">
        <ele>-15.082021</ele>
        <time>2022-04-02T12:01:24.000Z</time>
      </trkpt>
      <trkpt lat="39.46165" lon="-0.35807">
        <ele>-15.021293</ele>
        <time>2022-04-02T12:01:26.000Z</time>
      </trkpt>
      <trkpt lat="39.4619" lon="-0.35805">
        <ele>-14.809376</ele>
        <time>2022-04-02T12:01:30.000Z</time>
      </trkpt>
      <trkpt lat="39.46219" lon="-0.35819">
        <ele>-14.550468</ele>
        <time>2022-04-02T12:01:38.000Z</time>
      </trkpt>
      <trkpt lat="39.46237" lon="-0.35832">
        <ele>-14.372372</ele>
        <time>2022-04-02T12:01:43.000Z</time>
      </trkpt>
      <trkpt lat="39.4624" lon="-0.35836">
        <ele>-14.338168</ele>
        <time>2022-04-02T12:01:44.000Z</time>
      </trkpt>
      <trkpt lat="39.46258" lon="-0.35845">
        <ele>-14.172443</ele>
        <time>2022-04-02T12:01:49.000Z</time>
      </trkpt>
      <trkpt lat="39.4628" lon="-0.3586">
        <ele>-13.968258</ele>
        <time>2022-04-02T12:01:56.000Z</time>
      </trkpt>
      <trkpt lat="39.46283" lon="-0.35861">
        <ele>-13.941229</ele>
        <time>2022-04-02T12:01:57.000Z</time>
      </trkpt>
      <trkpt lat="39.46292" lon="-0.35862">
        <ele>-13.864612</ele>
        <time>2022-04-02T12:02:00.000Z</time>
      </trkpt>
      <trkpt lat="39.46295" lon="-0.35863">
        <ele>-13.833468</ele>
        <time>2022-04-02T12:02:01.000Z</time>
      </trkpt>
      <trkpt lat="39.46299" lon="-0.35865">
        <ele>-13.801332</ele>
        <time>2022-04-02T12:02:02.000Z</time>
      </trkpt>
      <trkpt lat="39.46301" lon="-0.35867">
        <ele>-13.772634</ele>
        <time>2022-04-02T12:02:03.000Z</time>
      </trkpt>
      <trkpt lat="39.46304" lon="-0.35869">
        <ele>-13.74569</ele>
        <time>2022-04-02T12:02:04.000Z</time>
      </trkpt>
      <trkpt lat="39.46307" lon="-0.3587">
        <ele>-13.71955</ele>
        <time>2022-04-02T12:02:05.000Z</time>
      </trkpt>
      <trkpt lat="39.46312" lon="-0.35874">
        <ele>-13.666805</ele>
        <time>2022-04-02T12:02:07.000Z</time>
      </trkpt>
      <trkpt lat="39.46319" lon="-0.35879">
        <ele>-13.597272</ele>
        <time>2022-04-02T12:02:10.000Z</time>
      </trkpt>
      <trkpt lat="39.46321" lon="-0.3588">
        <ele>-13.5783</ele>
        <time>2022-04-02T12:02:11.000Z</time>
      </trkpt>
      <trkpt lat="39.46331" lon="-0.35885">
        <ele>-13.482419</ele>
        <time>2022-04-02T12:02:16.000Z</time>
      </trkpt>
      <trkpt lat="39.46336" lon="-0.35888">
        <ele>-13.427948</ele>
        <time>2022-04-02T12:02:20.000Z</time>
      </trkpt>
      <trkpt lat="39.46337" lon="-0.35887">
        <ele>-13.415503</ele>
        <time>2022-04-02T12:02:22.000Z</time>
      </trkpt>
      <trkpt lat="39.46338" lon="-0.35885">
        <ele>-13.40452</ele>
        <time>2022-04-02T12:02:23.000Z</time>
      </trkpt>
      <trkpt lat="39.4634" lon="-0.35878">
        <ele>-13.347282</ele>
        <time>2022-04-02T12:02:27.000Z</time>
      </trkpt>
      <trkpt lat="39.4634" lon="-0.35877">
        <ele>-13.34398</ele>
        <time>2022-04-02T12:02:30.000Z</time>
      </trkpt>
      <trkpt lat="39.4634" lon="-0.35877">
        <ele>-13.34398</ele>
        <time>2022-04-02T12:02:31.000Z</time>
      </trkpt>
      <trkpt lat="39.4634" lon="-0.35877">
        <ele>-13.34398</ele>
        <time>2022-04-02T12:02:33.000Z</time>
      </trkpt>
      <trkpt lat="39.4634" lon="-0.35877">
        <ele>-13.34398</ele>
        <time>2022-04-02T12:02:34.000Z</time>
      </trkpt>
      <trkpt lat="39.4634" lon="-0.35877">
        <ele>-13.34398</ele>
        <time>2022-04-02T12:02:37.000Z</time>
      </trkpt>
      <trkpt lat="39.4634" lon="-0.35877">
        <ele>-13.34398</ele>
        <time>2022-04-02T12:02:41.000Z</time>
      </trkpt>
      <trkpt lat="39.4634" lon="-0.35877">
        <ele>-13.34398</ele>
        <time>2022-04-02T12:02:44.000Z</time>
      </trkpt>
      <trkpt lat="39.4634" lon="-0.35877">
        <ele>-13.343287</ele>
        <time>2022-04-02T12:03:06.000Z</time>
      </trkpt>
      <trkpt lat="39.4634" lon="-0.3587">
        <ele>-13.29094</ele>
        <time>2022-04-02T12:03:09.000Z</time>
      </trkpt>
      <trkpt lat="39.46337" lon="-0.35849">
        <ele>-13.147818</ele>
        <time>2022-04-02T12:03:14.000Z</time>
      </trkpt>
      <trkpt lat="39.46336" lon="-0.35828">
        <ele>-12.997134</ele>
        <time>2022-04-02T12:03:19.000Z</time>
      </trkpt>
      <trkpt lat="39.46336" lon="-0.35824">
        <ele>-12.970096</ele>
        <time>2022-04-02T12:03:20.000Z</time>
      </trkpt>
      <trkpt lat="39.46336" lon="-0.35808">
        <ele>-12.860584</ele>
        <time>2022-04-02T12:03:24.000Z</time>
      </trkpt>
      <trkpt lat="39.46337" lon="-0.35802">
        <ele>-12.816344</ele>
        <time>2022-04-02T12:03:26.000Z</time>
      </trkpt>
      <trkpt lat="39.46339" lon="-0.358">
        <ele>-12.79635</ele>
        <time>2022-04-02T12:03:27.000Z</time>
      </trkpt>
      <trkpt lat="39.46348" lon="-0.35796">
        <ele>-12.705397</ele>
        <time>2022-04-02T12:03:33.000Z</time>
      </trkpt>
      <trkpt lat="39.46353" lon="-0.35794">
        <ele>-12.661782</ele>
        <time>2022-04-02T12:03:35.000Z</time>
      </trkpt>
      <trkpt lat="39.46359" lon="-0.35793">
        <ele>-12.607681</ele>
        <time>2022-04-02T12:03:37.000Z</time>
      </trkpt>
      <trkpt lat="39.46361" lon="-0.35793">
        <ele>-12.585232</ele>
        <time>2022-04-02T12:03:38.000Z</time>
      </trkpt>
      <trkpt lat="39.46368" lon="-0.35792">
        <ele>-12.527754</ele>
        <time>2022-04-02T12:03:41.000Z</time>
      </trkpt>
      <trkpt lat="39.46375" lon="-0.3579">
        <ele>-12.463808</ele>
        <time>2022-04-02T12:03:44.000Z</time>
      </trkpt>
      <trkpt lat="39.46383" lon="-0.35789">
        <ele>-12.386099</ele>
        <time>2022-04-02T12:03:47.000Z</time>
      </trkpt>
      <trkpt lat="39.46398" lon="-0.35781">
        <ele>-12.244617</ele>
        <time>2022-04-02T12:03:53.000Z</time>
      </trkpt>
      <trkpt lat="39.46403" lon="-0.35776">
        <ele>-12.237879</ele>
        <time>2022-04-02T12:03:56.000Z</time>
      </trkpt>
      <trkpt lat="39.46405" lon="-0.3577">
        <ele>-12.234534</ele>
        <time>2022-04-02T12:03:58.000Z</time>
      </trkpt>
      <trkpt lat="39.46405" lon="-0.35766">
        <ele>-12.232751</ele>
        <time>2022-04-02T12:03:59.000Z</time>
      </trkpt>
      <trkpt lat="39.46405" lon="-0.35764">
        <ele>-12.231487</ele>
        <time>2022-04-02T12:04:00.000Z</time>
      </trkpt>
      <trkpt lat="39.46403" lon="-0.35758">
        <ele>-12.228214</ele>
        <time>2022-04-02T12:04:03.000Z</time>
      </trkpt>
      <trkpt lat="39.46401" lon="-0.35755">
        <ele>-12.226092</ele>
        <time>2022-04-02T12:04:06.000Z</time>
      </trkpt>
      <trkpt lat="39.46401" lon="-0.35755">
        <ele>-12.225716</ele>
        <time>2022-04-02T12:04:08.000Z</time>
      </trkpt>
      <trkpt lat="39.46401" lon="-0.35755">
        <ele>-12.225544</ele>
        <time>2022-04-02T12:04:09.000Z</time>
      </trkpt>
      <trkpt lat="39.46401" lon="-0.35755">
        <ele>-12.225544</ele>
        <time>2022-04-02T12:04:10.000Z</time>
      </trkpt>
      <trkpt lat="39.46401" lon="-0.35755">
        <ele>-12.225294</ele>
        <time>2022-04-02T12:04:15.000Z</time>
      </trkpt>
      <trkpt lat="39.46401" lon="-0.35755">
        <ele>-12.225294</ele>
        <time>2022-04-02T12:04:17.000Z</time>
      </trkpt>
      <trkpt lat="39.46401" lon="-0.35755">
        <ele>-12.225294</ele>
        <time>2022-04-02T12:04:23.000Z</time>
      </trkpt>
      <trkpt lat="39.46401" lon="-0.35755">
        <ele>-12.225294</ele>
        <time>2022-04-02T12:04:25.000Z</time>
      </trkpt>
      <trkpt lat="39.46401" lon="-0.35755">
        <ele>-12.225294</ele>
        <time>2022-04-02T12:04:35.000Z</time>
      </trkpt>
      <trkpt lat="39.46401" lon="-0.35756">
        <ele>-12.225083</ele>
        <time>2022-04-02T12:04:37.000Z</time>
      </trkpt>
      <trkpt lat="39.46401" lon="-0.35756">
        <ele>-12.225083</ele>
        <time>2022-04-02T12:04:47.000Z</time>
      </trkpt>
      <trkpt lat="39.46401" lon="-0.35756">
        <ele>-12.225083</ele>
        <time>2022-04-02T12:04:51.000Z</time>
      </trkpt>
      <trkpt lat="39.46401" lon="-0.35756">
        <ele>-12.225083</ele>
        <time>2022-04-02T12:04:55.000Z</time>
      </trkpt>
      <trkpt lat="39.46401" lon="-0.35756">
        <ele>-12.225083</ele>
        <time>2022-04-02T12:04:57.000Z</time>
      </trkpt>
      <trkpt lat="39.46401" lon="-0.35756">
        <ele>-12.225083</ele>
        <time>2022-04-02T12:05:00.000Z</time>
      </trkpt>
      <trkpt lat="39.46401" lon="-0.35756">
        <ele>-12.225083</ele>
        <time>2022-04-02T12:05:02.000Z</time>
      </trkpt>
      <trkpt lat="39.46401" lon="-0.35756">
        <ele>-12.225083</ele>
        <time>2022-04-02T12:05:04.000Z</time>
      </trkpt>
      <trkpt lat="39.46401" lon="-0.35756">
        <ele>-12.225083</ele>
        <time>2022-04-02T12:05:06.000Z</time>
      </trkpt>
      <trkpt lat="39.46401" lon="-0.35756">
        <ele>-12.225083</ele>
        <time>2022-04-02T12:05:08.000Z</time>
      </trkpt>
      <trkpt lat="39.46401" lon="-0.35756">
        <ele>-12.225083</ele>
        <time>2022-04-02T12:05:15.000Z</time>
      </trkpt>
      <trkpt lat="39.46401" lon="-0.35756">
        <ele>-12.225083</ele>
        <time>2022-04-02T12:05:17.000Z</time>
      </trkpt>
      <trkpt lat="39.46401" lon="-0.35756">
        <ele>-12.225083</ele>
        <time>2022-04-02T12:05:25.000Z</time>
      </trkpt>
      <trkpt lat="39.46401" lon="-0.35756">
        <ele>-12.225083</ele>
        <time>2022-04-02T12:05:28.000Z</time>
      </trkpt>
      <trkpt lat="39.46401" lon="-0.35756">
        <ele>-12.225083</ele>
        <time>2022-04-02T12:05:32.000Z</time>
      </trkpt>
      <trkpt lat="39.46401" lon="-0.35756">
        <ele>-12.225083</ele>
        <time>2022-04-02T12:05:36.000Z</time>
      </trkpt>
      <trkpt lat="39.46401" lon="-0.35756">
        <ele>-12.224911</ele>
        <time>2022-04-02T12:05:42.000Z</time>
      </trkpt>
      <trkpt lat="39.46401" lon="-0.35756">
        <ele>-12.224911</ele>
        <time>2022-04-02T12:05:45.000Z</time>
      </trkpt>
      <trkpt lat="39.46401" lon="-0.35756">
        <ele>-12.224911</ele>
        <time>2022-04-02T12:05:47.000Z</time>
      </trkpt>
      <trkpt lat="39.46401" lon="-0.35756">
        <ele>-12.224739</ele>
        <time>2022-04-02T12:05:49.000Z</time>
      </trkpt>
      <trkpt lat="39.464" lon="-0.35758">
        <ele>-12.223611</ele>
        <time>2022-04-02T12:05:59.000Z</time>
      </trkpt>
      <trkpt lat="39.464" lon="-0.35758">
        <ele>-12.223525</ele>
        <time>2022-04-02T12:06:01.000Z</time>
      </trkpt>
      <trkpt lat="39.464" lon="-0.35758">
        <ele>-12.223525</ele>
        <time>2022-04-02T12:06:03.000Z</time>
      </trkpt>
      <trkpt lat="39.46401" lon="-0.3576">
        <ele>-12.222226</ele>
        <time>2022-04-02T12:06:05.000Z</time>
      </trkpt>
      <trkpt lat="39.46402" lon="-0.35763">
        <ele>-12.220337</ele>
        <time>2022-04-02T12:06:08.000Z</time>
      </trkpt>
      <trkpt lat="39.46405" lon="-0.35769">
        <ele>-12.216798</ele>
        <time>2022-04-02T12:06:11.000Z</time>
      </trkpt>
      <trkpt lat="39.46427" lon="-0.35793">
        <ele>-12.197331</ele>
        <time>2022-04-02T12:06:18.000Z</time>
      </trkpt>
      <trkpt lat="39.4643" lon="-0.35793">
        <ele>-12.195554</ele>
        <time>2022-04-02T12:06:19.000Z</time>
      </trkpt>
      <trkpt lat="39.46437" lon="-0.35791">
        <ele>-12.190516</ele>
        <time>2022-04-02T12:06:22.000Z</time>
      </trkpt>
      <trkpt lat="39.46441" lon="-0.35789">
        <ele>-12.187659</ele>
        <time>2022-04-02T12:06:24.000Z</time>
      </trkpt>
      <trkpt lat="39.46444" lon="-0.35787">
        <ele>-12.184857</ele>
        <time>2022-04-02T12:06:26.000Z</time>
      </trkpt>
      <trkpt lat="39.46448" lon="-0.35784">
        <ele>-12.181899</ele>
        <time>2022-04-02T12:06:28.000Z</time>
      </trkpt>
      <trkpt lat="39.46451" lon="-0.35782">
        <ele>-12.179602</ele>
        <time>2022-04-02T12:06:29.000Z</time>
      </trkpt>
      <trkpt lat="39.46459" lon="-0.35779">
        <ele>-12.17422</ele>
        <time>2022-04-02T12:06:32.000Z</time>
      </trkpt>
      <trkpt lat="39.46461" lon="-0.35778">
        <ele>-12.172646</ele>
        <time>2022-04-02T12:06:33.000Z</time>
      </trkpt>
      <trkpt lat="39.46464" lon="-0.35773">
        <ele>-12.169032</ele>
        <time>2022-04-02T12:06:35.000Z</time>
      </trkpt>
      <trkpt lat="39.46467" lon="-0.35771">
        <ele>-12.166657</ele>
        <time>2022-04-02T12:06:36.000Z</time>
      </trkpt>
      <trkpt lat="39.46483" lon="-0.35763">
        <ele>-12.155275</ele>
        <time>2022-04-02T12:06:40.000Z</time>
      </trkpt>
      <trkpt lat="39.46494" lon="-0.35755">
        <ele>-12.14666</ele>
        <time>2022-04-02T12:06:44.000Z</time>
      </trkpt>
      <trkpt lat="39.46504" lon="-0.35749">
        <ele>-12.139004</ele>
        <time>2022-04-02T12:06:48.000Z</time>
      </trkpt>
      <trkpt lat="39.4651" lon="-0.35746">
        <ele>-12.134987</ele>
        <time>2022-04-02T12:06:50.000Z</time>
      </trkpt>
      <trkpt lat="39.46518" lon="-0.35742">
        <ele>-12.12869</ele>
        <time>2022-04-02T12:06:53.000Z</time>
      </trkpt>
      <trkpt lat="39.46534" lon="-0.3573">
        <ele>-12.119862</ele>
        <time>2022-04-02T12:06:59.000Z</time>
      </trkpt>
      <trkpt lat="39.46536" lon="-0.35729">
        <ele>-12.119862</ele>
        <time>2022-04-02T12:07:00.000Z</time>
      </trkpt>
      <trkpt lat="39.46545" lon="-0.35714">
        <ele>-12.119862</ele>
        <time>2022-04-02T12:07:04.000Z</time>
      </trkpt>
      <trkpt lat="39.46545" lon="-0.35714">
        <ele>-12.119862</ele>
        <time>2022-04-02T12:07:06.000Z</time>
      </trkpt>
      <trkpt lat="39.46546" lon="-0.35712">
        <ele>-12.119862</ele>
        <time>2022-04-02T12:07:09.000Z</time>
      </trkpt>
      <trkpt lat="39.46546" lon="-0.35712">
        <ele>-12.119862</ele>
        <time>2022-04-02T12:07:13.000Z</time>
      </trkpt>
      <trkpt lat="39.46546" lon="-0.35712">
        <ele>-12.119862</ele>
        <time>2022-04-02T12:07:17.000Z</time>
      </trkpt>
      <trkpt lat="39.46546" lon="-0.35712">
        <ele>-12.119862</ele>
        <time>2022-04-02T12:07:22.000Z</time>
      </trkpt>
      <trkpt lat="39.46545" lon="-0.35711">
        <ele>-12.119862</ele>
        <time>2022-04-02T12:07:23.000Z</time>
      </trkpt>
      <trkpt lat="39.46541" lon="-0.35702">
        <ele>-12.119862</ele>
        <time>2022-04-02T12:07:27.000Z</time>
      </trkpt>
      <trkpt lat="39.46531" lon="-0.35692">
        <ele>-12.119862</ele>
        <time>2022-04-02T12:07:32.000Z</time>
      </trkpt>
      <trkpt lat="39.4652" lon="-0.35679">
        <ele>-12.119862</ele>
        <time>2022-04-02T12:07:37.000Z</time>
      </trkpt>
      <trkpt lat="39.46512" lon="-0.35667">
        <ele>-12.119862</ele>
        <time>2022-04-02T12:07:42.000Z</time>
      </trkpt>
      <trkpt lat="39.46508" lon="-0.35657">
        <ele>-12.119862</ele>
        <time>2022-04-02T12:07:45.000Z</time>
      </trkpt>
      <trkpt lat="39.46506" lon="-0.3565">
        <ele>-12.119862</ele>
        <time>2022-04-02T12:07:47.000Z</time>
      </trkpt>
      <trkpt lat="39.46506" lon="-0.35646">
        <ele>-12.119862</ele>
        <time>2022-04-02T12:07:48.000Z</time>
      </trkpt>
      <trkpt lat="39.46507" lon="-0.35635">
        <ele>-12.119862</ele>
        <time>2022-04-02T12:07:51.000Z</time>
      </trkpt>
      <trkpt lat="39.4651" lon="-0.3563">
        <ele>-12.119862</ele>
        <time>2022-04-02T12:07:53.000Z</time>
      </trkpt>
      <trkpt lat="39.46512" lon="-0.35628">
        <ele>-12.119862</ele>
        <time>2022-04-02T12:07:54.000Z</time>
      </trkpt>
      <trkpt lat="39.46525" lon="-0.35621">
        <ele>-12.119862</ele>
        <time>2022-04-02T12:07:58.000Z</time>
      </trkpt>
      <trkpt lat="39.46546" lon="-0.35607">
        <ele>-12.119862</ele>
        <time>2022-04-02T12:08:04.000Z</time>
      </trkpt>
      <trkpt lat="39.46554" lon="-0.35602">
        <ele>-12.119862</ele>
        <time>2022-04-02T12:08:06.000Z</time>
      </trkpt>
      <trkpt lat="39.46565" lon="-0.35593">
        <ele>-12.119862</ele>
        <time>2022-04-02T12:08:09.000Z</time>
      </trkpt>
      <trkpt lat="39.46573" lon="-0.35587">
        <ele>-12.119862</ele>
        <time>2022-04-02T12:08:11.000Z</time>
      </trkpt>
      <trkpt lat="39.46587" lon="-0.35579">
        <ele>-12.119862</ele>
        <time>2022-04-02T12:08:15.000Z</time>
      </trkpt>
      <trkpt lat="39.46591" lon="-0.35575">
        <ele>-12.119862</ele>
        <time>2022-04-02T12:08:16.000Z</time>
      </trkpt>
      <trkpt lat="39.46605" lon="-0.35568">
        <ele>-12.119862</ele>
        <time>2022-04-02T12:08:21.000Z</time>
      </trkpt>
      <trkpt lat="39.46606" lon="-0.35567">
        <ele>-12.119862</ele>
        <time>2022-04-02T12:08:24.000Z</time>
      </trkpt>
      <trkpt lat="39.46606" lon="-0.35567">
        <ele>-12.119862</ele>
        <time>2022-04-02T12:08:25.000Z</time>
      </trkpt>
      <trkpt lat="39.46606" lon="-0.35567">
        <ele>-12.119862</ele>
        <time>2022-04-02T12:08:27.000Z</time>
      </trkpt>
      <trkpt lat="39.46606" lon="-0.35567">
        <ele>-12.119862</ele>
        <time>2022-04-02T12:08:30.000Z</time>
      </trkpt>
      <trkpt lat="39.46607" lon="-0.35563">
        <ele>-12.119862</ele>
        <time>2022-04-02T12:08:34.000Z</time>
      </trkpt>
      <trkpt lat="39.46608" lon="-0.35558">
        <ele>-12.119862</ele>
        <time>2022-04-02T12:08:36.000Z</time>
      </trkpt>
      <trkpt lat="39.46608" lon="-0.3555">
        <ele>-12.119862</ele>
        <time>2022-04-02T12:08:39.000Z</time>
      </trkpt>
      <trkpt lat="39.46608" lon="-0.3555">
        <ele>-12.119862</ele>
        <time>2022-04-02T12:08:41.000Z</time>
      </trkpt>
      <trkpt lat="39.46609" lon="-0.35549">
        <ele>-12.119862</ele>
        <time>2022-04-02T12:08:43.000Z</time>
      </trkpt>
      <trkpt lat="39.46608" lon="-0.35548">
        <ele>-12.119862</ele>
        <time>2022-04-02T12:08:46.000Z</time>
      </trkpt>
      <trkpt lat="39.46609" lon="-0.35548">
        <ele>-12.119862</ele>
        <time>2022-04-02T12:08:47.000Z</time>
      </trkpt>
      <trkpt lat="39.46611" lon="-0.35546">
        <ele>-12.119862</ele>
        <time>2022-04-02T12:08:50.000Z</time>
      </trkpt>
    </trkseg>
  </trk>
</gpx>